<?xml version="1.0" encoding="UTF-8" standalone="no" ?>
<gpx xmlns="http://www.topografix.com/GPX/1/1" xmlns:xsi="http://www.w3.org/2001/XMLSchema-instance" xsi:schemaLocation="http://www.topografix.com/GPX/1/1 http://www.topografix.com/GPX/1/1/gpx.xsd" version="1.1" creator="VisuGPX - https://www.visugpx.com">
  <metadata>
    <name>Pornichet 25/10/2020</name>
    <desc><![CDATA[Sortie VTT du dimanche 25 octobre 2020]]></desc>
  </metadata>
  <trk>
    <name><![CDATA[Pornichet Cyclisme]]></name>
    <trkseg>
      <trkpt lat="47.26439" lon="-2.31564">
        <ele>64.199996948242</ele>
        <time>2020-10-25T07:58:43.000Z</time>
      </trkpt>
      <trkpt lat="47.26439" lon="-2.31564">
        <ele>64.199996948242</ele>
        <time>2020-10-25T07:58:44.000Z</time>
      </trkpt>
      <trkpt lat="47.26435" lon="-2.31561">
        <ele>63.599998474121</ele>
        <time>2020-10-25T07:58:51.000Z</time>
      </trkpt>
      <trkpt lat="47.26431" lon="-2.31563">
        <ele>63.599998474121</ele>
        <time>2020-10-25T07:58:53.000Z</time>
      </trkpt>
      <trkpt lat="47.26429" lon="-2.31578">
        <ele>63.599998474121</ele>
        <time>2020-10-25T07:58:56.000Z</time>
      </trkpt>
      <trkpt lat="47.2643" lon="-2.31618">
        <ele>63.599998474121</ele>
        <time>2020-10-25T07:58:59.000Z</time>
      </trkpt>
      <trkpt lat="47.2643" lon="-2.31631">
        <ele>63.599998474121</ele>
        <time>2020-10-25T07:59:04.000Z</time>
      </trkpt>
      <trkpt lat="47.26431" lon="-2.31649">
        <ele>63.599998474121</ele>
        <time>2020-10-25T07:59:07.000Z</time>
      </trkpt>
      <trkpt lat="47.2643" lon="-2.31662">
        <ele>63.599998474121</ele>
        <time>2020-10-25T07:59:10.000Z</time>
      </trkpt>
      <trkpt lat="47.2642" lon="-2.31666">
        <ele>63.599998474121</ele>
        <time>2020-10-25T07:59:13.000Z</time>
      </trkpt>
      <trkpt lat="47.26415" lon="-2.31667">
        <ele>63.599998474121</ele>
        <time>2020-10-25T07:59:14.000Z</time>
      </trkpt>
      <trkpt lat="47.264" lon="-2.31674">
        <ele>63.599998474121</ele>
        <time>2020-10-25T07:59:17.000Z</time>
      </trkpt>
      <trkpt lat="47.26369" lon="-2.31692">
        <ele>63.200000762939</ele>
        <time>2020-10-25T07:59:23.000Z</time>
      </trkpt>
      <trkpt lat="47.26364" lon="-2.31695">
        <ele>62.799999237061</ele>
        <time>2020-10-25T07:59:24.000Z</time>
      </trkpt>
      <trkpt lat="47.26358" lon="-2.31697">
        <ele>62.200000762939</ele>
        <time>2020-10-25T07:59:25.000Z</time>
      </trkpt>
      <trkpt lat="47.26353" lon="-2.31699">
        <ele>61.799999237061</ele>
        <time>2020-10-25T07:59:26.000Z</time>
      </trkpt>
      <trkpt lat="47.26347" lon="-2.31701">
        <ele>61.400001525879</ele>
        <time>2020-10-25T07:59:27.000Z</time>
      </trkpt>
      <trkpt lat="47.26336" lon="-2.31706">
        <ele>61.400001525879</ele>
        <time>2020-10-25T07:59:29.000Z</time>
      </trkpt>
      <trkpt lat="47.26328" lon="-2.3171">
        <ele>61</ele>
        <time>2020-10-25T07:59:31.000Z</time>
      </trkpt>
      <trkpt lat="47.26326" lon="-2.31714">
        <ele>60.599998474121</ele>
        <time>2020-10-25T07:59:32.000Z</time>
      </trkpt>
      <trkpt lat="47.26324" lon="-2.3172">
        <ele>60.200000762939</ele>
        <time>2020-10-25T07:59:33.000Z</time>
      </trkpt>
      <trkpt lat="47.26323" lon="-2.31726">
        <ele>59.799999237061</ele>
        <time>2020-10-25T07:59:34.000Z</time>
      </trkpt>
      <trkpt lat="47.26324" lon="-2.31731">
        <ele>59.400001525879</ele>
        <time>2020-10-25T07:59:35.000Z</time>
      </trkpt>
      <trkpt lat="47.26324" lon="-2.31737">
        <ele>59.400001525879</ele>
        <time>2020-10-25T07:59:36.000Z</time>
      </trkpt>
      <trkpt lat="47.26324" lon="-2.31742">
        <ele>59.400001525879</ele>
        <time>2020-10-25T07:59:37.000Z</time>
      </trkpt>
      <trkpt lat="47.26326" lon="-2.31775">
        <ele>59.400001525879</ele>
        <time>2020-10-25T07:59:42.000Z</time>
      </trkpt>
      <trkpt lat="47.26326" lon="-2.31782">
        <ele>59.400001525879</ele>
        <time>2020-10-25T07:59:43.000Z</time>
      </trkpt>
      <trkpt lat="47.26325" lon="-2.31801">
        <ele>59.400001525879</ele>
        <time>2020-10-25T07:59:46.000Z</time>
      </trkpt>
      <trkpt lat="47.26323" lon="-2.31822">
        <ele>59.400001525879</ele>
        <time>2020-10-25T07:59:49.000Z</time>
      </trkpt>
      <trkpt lat="47.26319" lon="-2.31871">
        <ele>59.400001525879</ele>
        <time>2020-10-25T07:59:57.000Z</time>
      </trkpt>
      <trkpt lat="47.26313" lon="-2.31883">
        <ele>59.400001525879</ele>
        <time>2020-10-25T08:00:01.000Z</time>
      </trkpt>
      <trkpt lat="47.26298" lon="-2.319">
        <ele>59.400001525879</ele>
        <time>2020-10-25T08:00:06.000Z</time>
      </trkpt>
      <trkpt lat="47.26285" lon="-2.31924">
        <ele>59.400001525879</ele>
        <time>2020-10-25T08:00:12.000Z</time>
      </trkpt>
      <trkpt lat="47.26283" lon="-2.31928">
        <ele>59</ele>
        <time>2020-10-25T08:00:13.000Z</time>
      </trkpt>
      <trkpt lat="47.26281" lon="-2.31933">
        <ele>58.599998474121</ele>
        <time>2020-10-25T08:00:14.000Z</time>
      </trkpt>
      <trkpt lat="47.26277" lon="-2.31942">
        <ele>57.799999237061</ele>
        <time>2020-10-25T08:00:15.000Z</time>
      </trkpt>
      <trkpt lat="47.26275" lon="-2.31945">
        <ele>57.400001525879</ele>
        <time>2020-10-25T08:00:17.000Z</time>
      </trkpt>
      <trkpt lat="47.26267" lon="-2.31952">
        <ele>57.400001525879</ele>
        <time>2020-10-25T08:00:19.000Z</time>
      </trkpt>
      <trkpt lat="47.26254" lon="-2.31966">
        <ele>57.400001525879</ele>
        <time>2020-10-25T08:00:24.000Z</time>
      </trkpt>
      <trkpt lat="47.2624" lon="-2.31983">
        <ele>57.400001525879</ele>
        <time>2020-10-25T08:00:30.000Z</time>
      </trkpt>
      <trkpt lat="47.26235" lon="-2.3199">
        <ele>57.400001525879</ele>
        <time>2020-10-25T08:00:33.000Z</time>
      </trkpt>
      <trkpt lat="47.26234" lon="-2.31993">
        <ele>57.400001525879</ele>
        <time>2020-10-25T08:00:34.000Z</time>
      </trkpt>
      <trkpt lat="47.2623" lon="-2.32006">
        <ele>57.400001525879</ele>
        <time>2020-10-25T08:00:38.000Z</time>
      </trkpt>
      <trkpt lat="47.26227" lon="-2.32007">
        <ele>57.400001525879</ele>
        <time>2020-10-25T08:00:40.000Z</time>
      </trkpt>
      <trkpt lat="47.26222" lon="-2.32006">
        <ele>57.400001525879</ele>
        <time>2020-10-25T08:00:42.000Z</time>
      </trkpt>
      <trkpt lat="47.26215" lon="-2.32009">
        <ele>57.400001525879</ele>
        <time>2020-10-25T08:00:45.000Z</time>
      </trkpt>
      <trkpt lat="47.26198" lon="-2.32018">
        <ele>57.400001525879</ele>
        <time>2020-10-25T08:00:50.000Z</time>
      </trkpt>
      <trkpt lat="47.26194" lon="-2.32023">
        <ele>57.400001525879</ele>
        <time>2020-10-25T08:00:51.000Z</time>
      </trkpt>
      <trkpt lat="47.26188" lon="-2.32039">
        <ele>57.400001525879</ele>
        <time>2020-10-25T08:00:54.000Z</time>
      </trkpt>
      <trkpt lat="47.2618" lon="-2.32064">
        <ele>57.400001525879</ele>
        <time>2020-10-25T08:00:58.000Z</time>
      </trkpt>
      <trkpt lat="47.26177" lon="-2.32069">
        <ele>57.400001525879</ele>
        <time>2020-10-25T08:00:59.000Z</time>
      </trkpt>
      <trkpt lat="47.26175" lon="-2.32075">
        <ele>57.400001525879</ele>
        <time>2020-10-25T08:01:00.000Z</time>
      </trkpt>
      <trkpt lat="47.26162" lon="-2.32115">
        <ele>57.400001525879</ele>
        <time>2020-10-25T08:01:07.000Z</time>
      </trkpt>
      <trkpt lat="47.26158" lon="-2.32127">
        <ele>57.400001525879</ele>
        <time>2020-10-25T08:01:09.000Z</time>
      </trkpt>
      <trkpt lat="47.2615" lon="-2.32152">
        <ele>57.400001525879</ele>
        <time>2020-10-25T08:01:13.000Z</time>
      </trkpt>
      <trkpt lat="47.26134" lon="-2.32188">
        <ele>57.400001525879</ele>
        <time>2020-10-25T08:01:19.000Z</time>
      </trkpt>
      <trkpt lat="47.26113" lon="-2.32223">
        <ele>57.400001525879</ele>
        <time>2020-10-25T08:01:26.000Z</time>
      </trkpt>
      <trkpt lat="47.2609" lon="-2.32252">
        <ele>57.400001525879</ele>
        <time>2020-10-25T08:01:32.000Z</time>
      </trkpt>
      <trkpt lat="47.2607" lon="-2.32274">
        <ele>57.400001525879</ele>
        <time>2020-10-25T08:01:37.000Z</time>
      </trkpt>
      <trkpt lat="47.26066" lon="-2.32278">
        <ele>57.400001525879</ele>
        <time>2020-10-25T08:01:38.000Z</time>
      </trkpt>
      <trkpt lat="47.26035" lon="-2.32313">
        <ele>57.400001525879</ele>
        <time>2020-10-25T08:01:46.000Z</time>
      </trkpt>
      <trkpt lat="47.26009" lon="-2.32347">
        <ele>57.400001525879</ele>
        <time>2020-10-25T08:01:53.000Z</time>
      </trkpt>
      <trkpt lat="47.25984" lon="-2.3238">
        <ele>57.400001525879</ele>
        <time>2020-10-25T08:02:00.000Z</time>
      </trkpt>
      <trkpt lat="47.25959" lon="-2.32407">
        <ele>57.400001525879</ele>
        <time>2020-10-25T08:02:06.000Z</time>
      </trkpt>
      <trkpt lat="47.25935" lon="-2.32433">
        <ele>57.400001525879</ele>
        <time>2020-10-25T08:02:12.000Z</time>
      </trkpt>
      <trkpt lat="47.25931" lon="-2.32437">
        <ele>57.400001525879</ele>
        <time>2020-10-25T08:02:13.000Z</time>
      </trkpt>
      <trkpt lat="47.25912" lon="-2.32458">
        <ele>57.400001525879</ele>
        <time>2020-10-25T08:02:18.000Z</time>
      </trkpt>
      <trkpt lat="47.25908" lon="-2.32461">
        <ele>57.400001525879</ele>
        <time>2020-10-25T08:02:19.000Z</time>
      </trkpt>
      <trkpt lat="47.25889" lon="-2.32468">
        <ele>57.400001525879</ele>
        <time>2020-10-25T08:02:23.000Z</time>
      </trkpt>
      <trkpt lat="47.25884" lon="-2.32469">
        <ele>57.400001525879</ele>
        <time>2020-10-25T08:02:24.000Z</time>
      </trkpt>
      <trkpt lat="47.25854" lon="-2.32468">
        <ele>57.400001525879</ele>
        <time>2020-10-25T08:02:30.000Z</time>
      </trkpt>
      <trkpt lat="47.25821" lon="-2.32453">
        <ele>57.400001525879</ele>
        <time>2020-10-25T08:02:37.000Z</time>
      </trkpt>
      <trkpt lat="47.25812" lon="-2.32452">
        <ele>57.400001525879</ele>
        <time>2020-10-25T08:02:39.000Z</time>
      </trkpt>
      <trkpt lat="47.258" lon="-2.32453">
        <ele>57.400001525879</ele>
        <time>2020-10-25T08:02:42.000Z</time>
      </trkpt>
      <trkpt lat="47.25786" lon="-2.32441">
        <ele>57.400001525879</ele>
        <time>2020-10-25T08:02:46.000Z</time>
      </trkpt>
      <trkpt lat="47.25781" lon="-2.32431">
        <ele>57.400001525879</ele>
        <time>2020-10-25T08:02:48.000Z</time>
      </trkpt>
      <trkpt lat="47.25778" lon="-2.32427">
        <ele>57.400001525879</ele>
        <time>2020-10-25T08:02:49.000Z</time>
      </trkpt>
      <trkpt lat="47.25769" lon="-2.32423">
        <ele>57.400001525879</ele>
        <time>2020-10-25T08:02:51.000Z</time>
      </trkpt>
      <trkpt lat="47.25753" lon="-2.32422">
        <ele>57.400001525879</ele>
        <time>2020-10-25T08:02:54.000Z</time>
      </trkpt>
      <trkpt lat="47.25748" lon="-2.32422">
        <ele>57.400001525879</ele>
        <time>2020-10-25T08:02:55.000Z</time>
      </trkpt>
      <trkpt lat="47.25701" lon="-2.32419">
        <ele>57.400001525879</ele>
        <time>2020-10-25T08:03:04.000Z</time>
      </trkpt>
      <trkpt lat="47.25687" lon="-2.32418">
        <ele>57.400001525879</ele>
        <time>2020-10-25T08:03:07.000Z</time>
      </trkpt>
      <trkpt lat="47.25678" lon="-2.32418">
        <ele>57.400001525879</ele>
        <time>2020-10-25T08:03:09.000Z</time>
      </trkpt>
      <trkpt lat="47.25671" lon="-2.32425">
        <ele>57.400001525879</ele>
        <time>2020-10-25T08:03:11.000Z</time>
      </trkpt>
      <trkpt lat="47.25671" lon="-2.32443">
        <ele>57.400001525879</ele>
        <time>2020-10-25T08:03:14.000Z</time>
      </trkpt>
      <trkpt lat="47.25674" lon="-2.32455">
        <ele>57.400001525879</ele>
        <time>2020-10-25T08:03:16.000Z</time>
      </trkpt>
      <trkpt lat="47.25682" lon="-2.32478">
        <ele>57.400001525879</ele>
        <time>2020-10-25T08:03:20.000Z</time>
      </trkpt>
      <trkpt lat="47.25687" lon="-2.32496">
        <ele>57.799999237061</ele>
        <time>2020-10-25T08:03:23.000Z</time>
      </trkpt>
      <trkpt lat="47.25689" lon="-2.32501">
        <ele>58.200000762939</ele>
        <time>2020-10-25T08:03:24.000Z</time>
      </trkpt>
      <trkpt lat="47.25691" lon="-2.32507">
        <ele>58.599998474121</ele>
        <time>2020-10-25T08:03:25.000Z</time>
      </trkpt>
      <trkpt lat="47.25693" lon="-2.32513">
        <ele>59</ele>
        <time>2020-10-25T08:03:26.000Z</time>
      </trkpt>
      <trkpt lat="47.25694" lon="-2.32518">
        <ele>59.400001525879</ele>
        <time>2020-10-25T08:03:27.000Z</time>
      </trkpt>
      <trkpt lat="47.25696" lon="-2.32524">
        <ele>59.400001525879</ele>
        <time>2020-10-25T08:03:28.000Z</time>
      </trkpt>
      <trkpt lat="47.25707" lon="-2.32556">
        <ele>59.400001525879</ele>
        <time>2020-10-25T08:03:34.000Z</time>
      </trkpt>
      <trkpt lat="47.25708" lon="-2.32561">
        <ele>59.799999237061</ele>
        <time>2020-10-25T08:03:35.000Z</time>
      </trkpt>
      <trkpt lat="47.25709" lon="-2.32567">
        <ele>60.200000762939</ele>
        <time>2020-10-25T08:03:36.000Z</time>
      </trkpt>
      <trkpt lat="47.25711" lon="-2.32572">
        <ele>60.599998474121</ele>
        <time>2020-10-25T08:03:37.000Z</time>
      </trkpt>
      <trkpt lat="47.25712" lon="-2.32578">
        <ele>61.200000762939</ele>
        <time>2020-10-25T08:03:38.000Z</time>
      </trkpt>
      <trkpt lat="47.25714" lon="-2.32583">
        <ele>61.599998474121</ele>
        <time>2020-10-25T08:03:39.000Z</time>
      </trkpt>
      <trkpt lat="47.25717" lon="-2.326">
        <ele>61.599998474121</ele>
        <time>2020-10-25T08:03:42.000Z</time>
      </trkpt>
      <trkpt lat="47.25718" lon="-2.32606">
        <ele>61.599998474121</ele>
        <time>2020-10-25T08:03:43.000Z</time>
      </trkpt>
      <trkpt lat="47.25713" lon="-2.32617">
        <ele>61.599998474121</ele>
        <time>2020-10-25T08:03:45.000Z</time>
      </trkpt>
      <trkpt lat="47.25698" lon="-2.32626">
        <ele>62</ele>
        <time>2020-10-25T08:03:49.000Z</time>
      </trkpt>
      <trkpt lat="47.25694" lon="-2.32628">
        <ele>62.599998474121</ele>
        <time>2020-10-25T08:03:50.000Z</time>
      </trkpt>
      <trkpt lat="47.2569" lon="-2.32629">
        <ele>63</ele>
        <time>2020-10-25T08:03:51.000Z</time>
      </trkpt>
      <trkpt lat="47.25686" lon="-2.32631">
        <ele>63.400001525879</ele>
        <time>2020-10-25T08:03:52.000Z</time>
      </trkpt>
      <trkpt lat="47.25682" lon="-2.32633">
        <ele>64</ele>
        <time>2020-10-25T08:03:53.000Z</time>
      </trkpt>
      <trkpt lat="47.2567" lon="-2.32638">
        <ele>64</ele>
        <time>2020-10-25T08:03:56.000Z</time>
      </trkpt>
      <trkpt lat="47.2566" lon="-2.32644">
        <ele>64.400001525879</ele>
        <time>2020-10-25T08:03:59.000Z</time>
      </trkpt>
      <trkpt lat="47.25656" lon="-2.32645">
        <ele>64.800003051758</ele>
        <time>2020-10-25T08:04:00.000Z</time>
      </trkpt>
      <trkpt lat="47.25653" lon="-2.32647">
        <ele>65.199996948242</ele>
        <time>2020-10-25T08:04:01.000Z</time>
      </trkpt>
      <trkpt lat="47.25649" lon="-2.32649">
        <ele>65.599998474121</ele>
        <time>2020-10-25T08:04:02.000Z</time>
      </trkpt>
      <trkpt lat="47.25646" lon="-2.32652">
        <ele>66</ele>
        <time>2020-10-25T08:04:03.000Z</time>
      </trkpt>
      <trkpt lat="47.25618" lon="-2.32663">
        <ele>66</ele>
        <time>2020-10-25T08:04:10.000Z</time>
      </trkpt>
      <trkpt lat="47.25591" lon="-2.32675">
        <ele>66</ele>
        <time>2020-10-25T08:04:17.000Z</time>
      </trkpt>
      <trkpt lat="47.25561" lon="-2.32687">
        <ele>66</ele>
        <time>2020-10-25T08:04:24.000Z</time>
      </trkpt>
      <trkpt lat="47.25557" lon="-2.3269">
        <ele>66</ele>
        <time>2020-10-25T08:04:25.000Z</time>
      </trkpt>
      <trkpt lat="47.25535" lon="-2.327">
        <ele>66</ele>
        <time>2020-10-25T08:04:30.000Z</time>
      </trkpt>
      <trkpt lat="47.25506" lon="-2.32704">
        <ele>66</ele>
        <time>2020-10-25T08:04:36.000Z</time>
      </trkpt>
      <trkpt lat="47.25502" lon="-2.32704">
        <ele>66</ele>
        <time>2020-10-25T08:04:37.000Z</time>
      </trkpt>
      <trkpt lat="47.25497" lon="-2.32705">
        <ele>66</ele>
        <time>2020-10-25T08:04:38.000Z</time>
      </trkpt>
      <trkpt lat="47.25484" lon="-2.32712">
        <ele>66</ele>
        <time>2020-10-25T08:04:41.000Z</time>
      </trkpt>
      <trkpt lat="47.25473" lon="-2.32723">
        <ele>66</ele>
        <time>2020-10-25T08:04:44.000Z</time>
      </trkpt>
      <trkpt lat="47.25467" lon="-2.32733">
        <ele>66</ele>
        <time>2020-10-25T08:04:46.000Z</time>
      </trkpt>
      <trkpt lat="47.2545" lon="-2.32756">
        <ele>66</ele>
        <time>2020-10-25T08:04:49.000Z</time>
      </trkpt>
      <trkpt lat="47.25442" lon="-2.32769">
        <ele>66</ele>
        <time>2020-10-25T08:04:54.000Z</time>
      </trkpt>
      <trkpt lat="47.25437" lon="-2.32786">
        <ele>65.599998474121</ele>
        <time>2020-10-25T08:04:57.000Z</time>
      </trkpt>
      <trkpt lat="47.25434" lon="-2.32791">
        <ele>65.199996948242</ele>
        <time>2020-10-25T08:04:58.000Z</time>
      </trkpt>
      <trkpt lat="47.2543" lon="-2.32795">
        <ele>64.800003051758</ele>
        <time>2020-10-25T08:04:59.000Z</time>
      </trkpt>
      <trkpt lat="47.25427" lon="-2.328">
        <ele>64.400001525879</ele>
        <time>2020-10-25T08:05:00.000Z</time>
      </trkpt>
      <trkpt lat="47.25423" lon="-2.32806">
        <ele>64</ele>
        <time>2020-10-25T08:05:01.000Z</time>
      </trkpt>
      <trkpt lat="47.25419" lon="-2.32811">
        <ele>64</ele>
        <time>2020-10-25T08:05:02.000Z</time>
      </trkpt>
      <trkpt lat="47.25387" lon="-2.32853">
        <ele>64</ele>
        <time>2020-10-25T08:05:10.000Z</time>
      </trkpt>
      <trkpt lat="47.25375" lon="-2.32865">
        <ele>64</ele>
        <time>2020-10-25T08:05:13.000Z</time>
      </trkpt>
      <trkpt lat="47.25363" lon="-2.32876">
        <ele>64</ele>
        <time>2020-10-25T08:05:16.000Z</time>
      </trkpt>
      <trkpt lat="47.25322" lon="-2.32917">
        <ele>64</ele>
        <time>2020-10-25T08:05:27.000Z</time>
      </trkpt>
      <trkpt lat="47.25317" lon="-2.32925">
        <ele>64</ele>
        <time>2020-10-25T08:05:29.000Z</time>
      </trkpt>
      <trkpt lat="47.25314" lon="-2.32939">
        <ele>64</ele>
        <time>2020-10-25T08:05:31.000Z</time>
      </trkpt>
      <trkpt lat="47.25319" lon="-2.32958">
        <ele>64</ele>
        <time>2020-10-25T08:05:34.000Z</time>
      </trkpt>
      <trkpt lat="47.2533" lon="-2.32989">
        <ele>64</ele>
        <time>2020-10-25T08:05:39.000Z</time>
      </trkpt>
      <trkpt lat="47.25333" lon="-2.32995">
        <ele>64</ele>
        <time>2020-10-25T08:05:40.000Z</time>
      </trkpt>
      <trkpt lat="47.25336" lon="-2.33001">
        <ele>63.599998474121</ele>
        <time>2020-10-25T08:05:41.000Z</time>
      </trkpt>
      <trkpt lat="47.25338" lon="-2.33007">
        <ele>63.200000762939</ele>
        <time>2020-10-25T08:05:42.000Z</time>
      </trkpt>
      <trkpt lat="47.25341" lon="-2.33013">
        <ele>62.799999237061</ele>
        <time>2020-10-25T08:05:43.000Z</time>
      </trkpt>
      <trkpt lat="47.25343" lon="-2.33019">
        <ele>62.400001525879</ele>
        <time>2020-10-25T08:05:44.000Z</time>
      </trkpt>
      <trkpt lat="47.25346" lon="-2.33025">
        <ele>62</ele>
        <time>2020-10-25T08:05:45.000Z</time>
      </trkpt>
      <trkpt lat="47.25349" lon="-2.33032">
        <ele>62</ele>
        <time>2020-10-25T08:05:46.000Z</time>
      </trkpt>
      <trkpt lat="47.25364" lon="-2.33073">
        <ele>62</ele>
        <time>2020-10-25T08:05:53.000Z</time>
      </trkpt>
      <trkpt lat="47.25377" lon="-2.33104">
        <ele>62</ele>
        <time>2020-10-25T08:06:00.000Z</time>
      </trkpt>
      <trkpt lat="47.2538" lon="-2.33111">
        <ele>62</ele>
        <time>2020-10-25T08:06:05.000Z</time>
      </trkpt>
      <trkpt lat="47.2538" lon="-2.33111">
        <ele>62</ele>
        <time>2020-10-25T08:06:06.000Z</time>
      </trkpt>
      <trkpt lat="47.25379" lon="-2.33125">
        <ele>60</ele>
        <time>2020-10-25T08:10:22.000Z</time>
      </trkpt>
      <trkpt lat="47.25382" lon="-2.33129">
        <ele>60</ele>
        <time>2020-10-25T08:10:24.000Z</time>
      </trkpt>
      <trkpt lat="47.25386" lon="-2.33132">
        <ele>60</ele>
        <time>2020-10-25T08:10:26.000Z</time>
      </trkpt>
      <trkpt lat="47.2539" lon="-2.33132">
        <ele>60</ele>
        <time>2020-10-25T08:10:28.000Z</time>
      </trkpt>
      <trkpt lat="47.25408" lon="-2.33123">
        <ele>60</ele>
        <time>2020-10-25T08:10:34.000Z</time>
      </trkpt>
      <trkpt lat="47.25436" lon="-2.33113">
        <ele>60</ele>
        <time>2020-10-25T08:10:41.000Z</time>
      </trkpt>
      <trkpt lat="47.25465" lon="-2.33098">
        <ele>60</ele>
        <time>2020-10-25T08:10:48.000Z</time>
      </trkpt>
      <trkpt lat="47.2549" lon="-2.33081">
        <ele>60</ele>
        <time>2020-10-25T08:10:55.000Z</time>
      </trkpt>
      <trkpt lat="47.25513" lon="-2.33058">
        <ele>60</ele>
        <time>2020-10-25T08:11:02.000Z</time>
      </trkpt>
      <trkpt lat="47.25531" lon="-2.33043">
        <ele>60</ele>
        <time>2020-10-25T08:11:07.000Z</time>
      </trkpt>
      <trkpt lat="47.25535" lon="-2.33041">
        <ele>60</ele>
        <time>2020-10-25T08:11:08.000Z</time>
      </trkpt>
      <trkpt lat="47.25566" lon="-2.33034">
        <ele>60</ele>
        <time>2020-10-25T08:11:16.000Z</time>
      </trkpt>
      <trkpt lat="47.2558" lon="-2.33032">
        <ele>60.400001525879</ele>
        <time>2020-10-25T08:11:20.000Z</time>
      </trkpt>
      <trkpt lat="47.25584" lon="-2.33032">
        <ele>60.799999237061</ele>
        <time>2020-10-25T08:11:21.000Z</time>
      </trkpt>
      <trkpt lat="47.25588" lon="-2.33031">
        <ele>61.200000762939</ele>
        <time>2020-10-25T08:11:22.000Z</time>
      </trkpt>
      <trkpt lat="47.25591" lon="-2.3303">
        <ele>61.599998474121</ele>
        <time>2020-10-25T08:11:23.000Z</time>
      </trkpt>
      <trkpt lat="47.25595" lon="-2.33029">
        <ele>62</ele>
        <time>2020-10-25T08:11:24.000Z</time>
      </trkpt>
      <trkpt lat="47.2562" lon="-2.33019">
        <ele>62</ele>
        <time>2020-10-25T08:11:32.000Z</time>
      </trkpt>
      <trkpt lat="47.25626" lon="-2.33027">
        <ele>62</ele>
        <time>2020-10-25T08:11:35.000Z</time>
      </trkpt>
      <trkpt lat="47.25643" lon="-2.33059">
        <ele>62</ele>
        <time>2020-10-25T08:11:43.000Z</time>
      </trkpt>
      <trkpt lat="47.25645" lon="-2.33063">
        <ele>62.400001525879</ele>
        <time>2020-10-25T08:11:44.000Z</time>
      </trkpt>
      <trkpt lat="47.25648" lon="-2.33068">
        <ele>63.200000762939</ele>
        <time>2020-10-25T08:11:45.000Z</time>
      </trkpt>
      <trkpt lat="47.2565" lon="-2.33073">
        <ele>63.599998474121</ele>
        <time>2020-10-25T08:11:46.000Z</time>
      </trkpt>
      <trkpt lat="47.25652" lon="-2.33079">
        <ele>64</ele>
        <time>2020-10-25T08:11:47.000Z</time>
      </trkpt>
      <trkpt lat="47.25659" lon="-2.33094">
        <ele>64</ele>
        <time>2020-10-25T08:11:50.000Z</time>
      </trkpt>
      <trkpt lat="47.25678" lon="-2.33137">
        <ele>64</ele>
        <time>2020-10-25T08:11:58.000Z</time>
      </trkpt>
      <trkpt lat="47.25704" lon="-2.33198">
        <ele>64</ele>
        <time>2020-10-25T08:12:08.000Z</time>
      </trkpt>
      <trkpt lat="47.25723" lon="-2.33253">
        <ele>64</ele>
        <time>2020-10-25T08:12:16.000Z</time>
      </trkpt>
      <trkpt lat="47.25741" lon="-2.33304">
        <ele>64</ele>
        <time>2020-10-25T08:12:24.000Z</time>
      </trkpt>
      <trkpt lat="47.25759" lon="-2.3333">
        <ele>63.599998474121</ele>
        <time>2020-10-25T08:12:29.000Z</time>
      </trkpt>
      <trkpt lat="47.25762" lon="-2.33334">
        <ele>63.200000762939</ele>
        <time>2020-10-25T08:12:30.000Z</time>
      </trkpt>
      <trkpt lat="47.25765" lon="-2.33339">
        <ele>62.799999237061</ele>
        <time>2020-10-25T08:12:31.000Z</time>
      </trkpt>
      <trkpt lat="47.25767" lon="-2.33343">
        <ele>62.400001525879</ele>
        <time>2020-10-25T08:12:32.000Z</time>
      </trkpt>
      <trkpt lat="47.25769" lon="-2.33347">
        <ele>62</ele>
        <time>2020-10-25T08:12:33.000Z</time>
      </trkpt>
      <trkpt lat="47.25773" lon="-2.33355">
        <ele>62</ele>
        <time>2020-10-25T08:12:35.000Z</time>
      </trkpt>
      <trkpt lat="47.2578" lon="-2.33385">
        <ele>62</ele>
        <time>2020-10-25T08:12:41.000Z</time>
      </trkpt>
      <trkpt lat="47.25789" lon="-2.33429">
        <ele>62</ele>
        <time>2020-10-25T08:12:49.000Z</time>
      </trkpt>
      <trkpt lat="47.25792" lon="-2.3344">
        <ele>62</ele>
        <time>2020-10-25T08:12:51.000Z</time>
      </trkpt>
      <trkpt lat="47.25796" lon="-2.33464">
        <ele>62</ele>
        <time>2020-10-25T08:12:55.000Z</time>
      </trkpt>
      <trkpt lat="47.25803" lon="-2.33499">
        <ele>62</ele>
        <time>2020-10-25T08:13:01.000Z</time>
      </trkpt>
      <trkpt lat="47.25812" lon="-2.3354">
        <ele>62</ele>
        <time>2020-10-25T08:13:08.000Z</time>
      </trkpt>
      <trkpt lat="47.2582" lon="-2.3357">
        <ele>62</ele>
        <time>2020-10-25T08:13:15.000Z</time>
      </trkpt>
      <trkpt lat="47.25821" lon="-2.33572">
        <ele>62</ele>
        <time>2020-10-25T08:13:16.000Z</time>
      </trkpt>
      <trkpt lat="47.25828" lon="-2.33574">
        <ele>62</ele>
        <time>2020-10-25T08:13:19.000Z</time>
      </trkpt>
      <trkpt lat="47.25852" lon="-2.33572">
        <ele>61.400001525879</ele>
        <time>2020-10-25T08:13:26.000Z</time>
      </trkpt>
      <trkpt lat="47.25856" lon="-2.33572">
        <ele>61</ele>
        <time>2020-10-25T08:13:27.000Z</time>
      </trkpt>
      <trkpt lat="47.2586" lon="-2.33571">
        <ele>60.599998474121</ele>
        <time>2020-10-25T08:13:28.000Z</time>
      </trkpt>
      <trkpt lat="47.25865" lon="-2.33571">
        <ele>60.200000762939</ele>
        <time>2020-10-25T08:13:29.000Z</time>
      </trkpt>
      <trkpt lat="47.25869" lon="-2.3357">
        <ele>59.799999237061</ele>
        <time>2020-10-25T08:13:30.000Z</time>
      </trkpt>
      <trkpt lat="47.2588" lon="-2.33564">
        <ele>59.799999237061</ele>
        <time>2020-10-25T08:13:33.000Z</time>
      </trkpt>
      <trkpt lat="47.25892" lon="-2.33558">
        <ele>59.799999237061</ele>
        <time>2020-10-25T08:13:36.000Z</time>
      </trkpt>
      <trkpt lat="47.25904" lon="-2.33547">
        <ele>59.799999237061</ele>
        <time>2020-10-25T08:13:39.000Z</time>
      </trkpt>
      <trkpt lat="47.25913" lon="-2.33539">
        <ele>59.799999237061</ele>
        <time>2020-10-25T08:13:41.000Z</time>
      </trkpt>
      <trkpt lat="47.25939" lon="-2.33515">
        <ele>59.799999237061</ele>
        <time>2020-10-25T08:13:47.000Z</time>
      </trkpt>
      <trkpt lat="47.25957" lon="-2.335">
        <ele>59.799999237061</ele>
        <time>2020-10-25T08:13:51.000Z</time>
      </trkpt>
      <trkpt lat="47.25961" lon="-2.33496">
        <ele>59.799999237061</ele>
        <time>2020-10-25T08:13:52.000Z</time>
      </trkpt>
      <trkpt lat="47.25979" lon="-2.33491">
        <ele>59.799999237061</ele>
        <time>2020-10-25T08:13:56.000Z</time>
      </trkpt>
      <trkpt lat="47.25989" lon="-2.3349">
        <ele>59.400001525879</ele>
        <time>2020-10-25T08:13:58.000Z</time>
      </trkpt>
      <trkpt lat="47.25994" lon="-2.33489">
        <ele>59</ele>
        <time>2020-10-25T08:13:59.000Z</time>
      </trkpt>
      <trkpt lat="47.25999" lon="-2.33489">
        <ele>58.400001525879</ele>
        <time>2020-10-25T08:14:00.000Z</time>
      </trkpt>
      <trkpt lat="47.26005" lon="-2.33488">
        <ele>58</ele>
        <time>2020-10-25T08:14:01.000Z</time>
      </trkpt>
      <trkpt lat="47.2601" lon="-2.33486">
        <ele>57.599998474121</ele>
        <time>2020-10-25T08:14:02.000Z</time>
      </trkpt>
      <trkpt lat="47.26014" lon="-2.33485">
        <ele>57.599998474121</ele>
        <time>2020-10-25T08:14:03.000Z</time>
      </trkpt>
      <trkpt lat="47.26036" lon="-2.33472">
        <ele>57.599998474121</ele>
        <time>2020-10-25T08:14:08.000Z</time>
      </trkpt>
      <trkpt lat="47.26041" lon="-2.33462">
        <ele>57.599998474121</ele>
        <time>2020-10-25T08:14:10.000Z</time>
      </trkpt>
      <trkpt lat="47.2605" lon="-2.33447">
        <ele>57.599998474121</ele>
        <time>2020-10-25T08:14:13.000Z</time>
      </trkpt>
      <trkpt lat="47.26061" lon="-2.33435">
        <ele>57.599998474121</ele>
        <time>2020-10-25T08:14:16.000Z</time>
      </trkpt>
      <trkpt lat="47.26066" lon="-2.33425">
        <ele>57.599998474121</ele>
        <time>2020-10-25T08:14:18.000Z</time>
      </trkpt>
      <trkpt lat="47.26078" lon="-2.33401">
        <ele>57.599998474121</ele>
        <time>2020-10-25T08:14:23.000Z</time>
      </trkpt>
      <trkpt lat="47.26094" lon="-2.33396">
        <ele>57.599998474121</ele>
        <time>2020-10-25T08:14:27.000Z</time>
      </trkpt>
      <trkpt lat="47.26113" lon="-2.33412">
        <ele>57.599998474121</ele>
        <time>2020-10-25T08:14:32.000Z</time>
      </trkpt>
      <trkpt lat="47.26115" lon="-2.33416">
        <ele>57.599998474121</ele>
        <time>2020-10-25T08:14:33.000Z</time>
      </trkpt>
      <trkpt lat="47.26121" lon="-2.33426">
        <ele>58</ele>
        <time>2020-10-25T08:14:35.000Z</time>
      </trkpt>
      <trkpt lat="47.26124" lon="-2.3343">
        <ele>58.400001525879</ele>
        <time>2020-10-25T08:14:36.000Z</time>
      </trkpt>
      <trkpt lat="47.26128" lon="-2.33433">
        <ele>58.799999237061</ele>
        <time>2020-10-25T08:14:37.000Z</time>
      </trkpt>
      <trkpt lat="47.26132" lon="-2.33436">
        <ele>59.599998474121</ele>
        <time>2020-10-25T08:14:38.000Z</time>
      </trkpt>
      <trkpt lat="47.26146" lon="-2.33439">
        <ele>59.599998474121</ele>
        <time>2020-10-25T08:14:41.000Z</time>
      </trkpt>
      <trkpt lat="47.26155" lon="-2.3344">
        <ele>59.599998474121</ele>
        <time>2020-10-25T08:14:43.000Z</time>
      </trkpt>
      <trkpt lat="47.2619" lon="-2.33444">
        <ele>59.599998474121</ele>
        <time>2020-10-25T08:14:50.000Z</time>
      </trkpt>
      <trkpt lat="47.26225" lon="-2.33438">
        <ele>59.599998474121</ele>
        <time>2020-10-25T08:14:57.000Z</time>
      </trkpt>
      <trkpt lat="47.2627" lon="-2.3343">
        <ele>59.599998474121</ele>
        <time>2020-10-25T08:15:06.000Z</time>
      </trkpt>
      <trkpt lat="47.26309" lon="-2.3342">
        <ele>59.599998474121</ele>
        <time>2020-10-25T08:15:13.000Z</time>
      </trkpt>
      <trkpt lat="47.26351" lon="-2.33411">
        <ele>59.599998474121</ele>
        <time>2020-10-25T08:15:21.000Z</time>
      </trkpt>
      <trkpt lat="47.26385" lon="-2.33399">
        <ele>59.599998474121</ele>
        <time>2020-10-25T08:15:28.000Z</time>
      </trkpt>
      <trkpt lat="47.26418" lon="-2.33382">
        <ele>59.599998474121</ele>
        <time>2020-10-25T08:15:35.000Z</time>
      </trkpt>
      <trkpt lat="47.26455" lon="-2.33359">
        <ele>59.599998474121</ele>
        <time>2020-10-25T08:15:43.000Z</time>
      </trkpt>
      <trkpt lat="47.26483" lon="-2.33334">
        <ele>59.599998474121</ele>
        <time>2020-10-25T08:15:50.000Z</time>
      </trkpt>
      <trkpt lat="47.26486" lon="-2.3333">
        <ele>59.599998474121</ele>
        <time>2020-10-25T08:15:51.000Z</time>
      </trkpt>
      <trkpt lat="47.26495" lon="-2.33308">
        <ele>59.599998474121</ele>
        <time>2020-10-25T08:15:55.000Z</time>
      </trkpt>
      <trkpt lat="47.26509" lon="-2.33291">
        <ele>59.599998474121</ele>
        <time>2020-10-25T08:15:59.000Z</time>
      </trkpt>
      <trkpt lat="47.26522" lon="-2.33288">
        <ele>59.599998474121</ele>
        <time>2020-10-25T08:16:02.000Z</time>
      </trkpt>
      <trkpt lat="47.26529" lon="-2.33288">
        <ele>59.599998474121</ele>
        <time>2020-10-25T08:16:04.000Z</time>
      </trkpt>
      <trkpt lat="47.26534" lon="-2.3329">
        <ele>59.599998474121</ele>
        <time>2020-10-25T08:16:06.000Z</time>
      </trkpt>
      <trkpt lat="47.26536" lon="-2.33293">
        <ele>59.599998474121</ele>
        <time>2020-10-25T08:16:07.000Z</time>
      </trkpt>
      <trkpt lat="47.26544" lon="-2.33295">
        <ele>59.599998474121</ele>
        <time>2020-10-25T08:16:11.000Z</time>
      </trkpt>
      <trkpt lat="47.26547" lon="-2.33292">
        <ele>59.599998474121</ele>
        <time>2020-10-25T08:16:12.000Z</time>
      </trkpt>
      <trkpt lat="47.26561" lon="-2.33276">
        <ele>59.599998474121</ele>
        <time>2020-10-25T08:16:17.000Z</time>
      </trkpt>
      <trkpt lat="47.26585" lon="-2.33251">
        <ele>59.599998474121</ele>
        <time>2020-10-25T08:16:24.000Z</time>
      </trkpt>
      <trkpt lat="47.26616" lon="-2.33221">
        <ele>59.599998474121</ele>
        <time>2020-10-25T08:16:32.000Z</time>
      </trkpt>
      <trkpt lat="47.26631" lon="-2.33205">
        <ele>59.599998474121</ele>
        <time>2020-10-25T08:16:36.000Z</time>
      </trkpt>
      <trkpt lat="47.26639" lon="-2.33197">
        <ele>59.599998474121</ele>
        <time>2020-10-25T08:16:38.000Z</time>
      </trkpt>
      <trkpt lat="47.26663" lon="-2.33169">
        <ele>59.599998474121</ele>
        <time>2020-10-25T08:16:45.000Z</time>
      </trkpt>
      <trkpt lat="47.26689" lon="-2.33143">
        <ele>59.599998474121</ele>
        <time>2020-10-25T08:16:52.000Z</time>
      </trkpt>
      <trkpt lat="47.26718" lon="-2.33115">
        <ele>59.599998474121</ele>
        <time>2020-10-25T08:16:59.000Z</time>
      </trkpt>
      <trkpt lat="47.26739" lon="-2.33092">
        <ele>59.599998474121</ele>
        <time>2020-10-25T08:17:05.000Z</time>
      </trkpt>
      <trkpt lat="47.26752" lon="-2.33085">
        <ele>59.599998474121</ele>
        <time>2020-10-25T08:17:09.000Z</time>
      </trkpt>
      <trkpt lat="47.26758" lon="-2.3309">
        <ele>59.599998474121</ele>
        <time>2020-10-25T08:17:11.000Z</time>
      </trkpt>
      <trkpt lat="47.2676" lon="-2.33095">
        <ele>59.599998474121</ele>
        <time>2020-10-25T08:17:12.000Z</time>
      </trkpt>
      <trkpt lat="47.26764" lon="-2.33124">
        <ele>59.599998474121</ele>
        <time>2020-10-25T08:17:17.000Z</time>
      </trkpt>
      <trkpt lat="47.26763" lon="-2.3313">
        <ele>59.599998474121</ele>
        <time>2020-10-25T08:17:18.000Z</time>
      </trkpt>
      <trkpt lat="47.26761" lon="-2.33142">
        <ele>59.599998474121</ele>
        <time>2020-10-25T08:17:20.000Z</time>
      </trkpt>
      <trkpt lat="47.26757" lon="-2.3316">
        <ele>59.599998474121</ele>
        <time>2020-10-25T08:17:23.000Z</time>
      </trkpt>
      <trkpt lat="47.26749" lon="-2.33189">
        <ele>59.599998474121</ele>
        <time>2020-10-25T08:17:28.000Z</time>
      </trkpt>
      <trkpt lat="47.26735" lon="-2.33224">
        <ele>59.599998474121</ele>
        <time>2020-10-25T08:17:35.000Z</time>
      </trkpt>
      <trkpt lat="47.26729" lon="-2.33251">
        <ele>59.599998474121</ele>
        <time>2020-10-25T08:17:39.000Z</time>
      </trkpt>
      <trkpt lat="47.26729" lon="-2.33265">
        <ele>59.599998474121</ele>
        <time>2020-10-25T08:17:41.000Z</time>
      </trkpt>
      <trkpt lat="47.26737" lon="-2.33301">
        <ele>59.599998474121</ele>
        <time>2020-10-25T08:17:46.000Z</time>
      </trkpt>
      <trkpt lat="47.26747" lon="-2.33342">
        <ele>59.599998474121</ele>
        <time>2020-10-25T08:17:51.000Z</time>
      </trkpt>
      <trkpt lat="47.26749" lon="-2.33358">
        <ele>59.599998474121</ele>
        <time>2020-10-25T08:17:53.000Z</time>
      </trkpt>
      <trkpt lat="47.26754" lon="-2.33405">
        <ele>59.599998474121</ele>
        <time>2020-10-25T08:17:59.000Z</time>
      </trkpt>
      <trkpt lat="47.26764" lon="-2.33464">
        <ele>59.599998474121</ele>
        <time>2020-10-25T08:18:07.000Z</time>
      </trkpt>
      <trkpt lat="47.26771" lon="-2.33515">
        <ele>59.599998474121</ele>
        <time>2020-10-25T08:18:14.000Z</time>
      </trkpt>
      <trkpt lat="47.26778" lon="-2.33562">
        <ele>59.599998474121</ele>
        <time>2020-10-25T08:18:21.000Z</time>
      </trkpt>
      <trkpt lat="47.26779" lon="-2.33569">
        <ele>59.599998474121</ele>
        <time>2020-10-25T08:18:22.000Z</time>
      </trkpt>
      <trkpt lat="47.2678" lon="-2.33617">
        <ele>59.599998474121</ele>
        <time>2020-10-25T08:18:29.000Z</time>
      </trkpt>
      <trkpt lat="47.26779" lon="-2.33663">
        <ele>59.599998474121</ele>
        <time>2020-10-25T08:18:36.000Z</time>
      </trkpt>
      <trkpt lat="47.26781" lon="-2.33694">
        <ele>60</ele>
        <time>2020-10-25T08:18:42.000Z</time>
      </trkpt>
      <trkpt lat="47.26782" lon="-2.33699">
        <ele>61</ele>
        <time>2020-10-25T08:18:43.000Z</time>
      </trkpt>
      <trkpt lat="47.26783" lon="-2.33703">
        <ele>61.400001525879</ele>
        <time>2020-10-25T08:18:44.000Z</time>
      </trkpt>
      <trkpt lat="47.26785" lon="-2.33707">
        <ele>62</ele>
        <time>2020-10-25T08:18:45.000Z</time>
      </trkpt>
      <trkpt lat="47.26791" lon="-2.33714">
        <ele>62</ele>
        <time>2020-10-25T08:18:47.000Z</time>
      </trkpt>
      <trkpt lat="47.26818" lon="-2.33744">
        <ele>62</ele>
        <time>2020-10-25T08:18:55.000Z</time>
      </trkpt>
      <trkpt lat="47.26832" lon="-2.3376">
        <ele>62</ele>
        <time>2020-10-25T08:18:59.000Z</time>
      </trkpt>
      <trkpt lat="47.26839" lon="-2.33769">
        <ele>62</ele>
        <time>2020-10-25T08:19:01.000Z</time>
      </trkpt>
      <trkpt lat="47.26856" lon="-2.33778">
        <ele>62</ele>
        <time>2020-10-25T08:19:05.000Z</time>
      </trkpt>
      <trkpt lat="47.26887" lon="-2.33791">
        <ele>62</ele>
        <time>2020-10-25T08:19:12.000Z</time>
      </trkpt>
      <trkpt lat="47.26898" lon="-2.33806">
        <ele>62</ele>
        <time>2020-10-25T08:19:16.000Z</time>
      </trkpt>
      <trkpt lat="47.26907" lon="-2.33843">
        <ele>62</ele>
        <time>2020-10-25T08:19:22.000Z</time>
      </trkpt>
      <trkpt lat="47.26917" lon="-2.33883">
        <ele>62</ele>
        <time>2020-10-25T08:19:28.000Z</time>
      </trkpt>
      <trkpt lat="47.26918" lon="-2.33889">
        <ele>62</ele>
        <time>2020-10-25T08:19:29.000Z</time>
      </trkpt>
      <trkpt lat="47.2692" lon="-2.33896">
        <ele>62.400001525879</ele>
        <time>2020-10-25T08:19:30.000Z</time>
      </trkpt>
      <trkpt lat="47.26921" lon="-2.33902">
        <ele>62.799999237061</ele>
        <time>2020-10-25T08:19:31.000Z</time>
      </trkpt>
      <trkpt lat="47.26923" lon="-2.33908">
        <ele>63.200000762939</ele>
        <time>2020-10-25T08:19:32.000Z</time>
      </trkpt>
      <trkpt lat="47.26924" lon="-2.33915">
        <ele>64</ele>
        <time>2020-10-25T08:19:33.000Z</time>
      </trkpt>
      <trkpt lat="47.26928" lon="-2.33934">
        <ele>64</ele>
        <time>2020-10-25T08:19:36.000Z</time>
      </trkpt>
      <trkpt lat="47.26937" lon="-2.33979">
        <ele>64</ele>
        <time>2020-10-25T08:19:43.000Z</time>
      </trkpt>
      <trkpt lat="47.26948" lon="-2.34024">
        <ele>64</ele>
        <time>2020-10-25T08:19:50.000Z</time>
      </trkpt>
      <trkpt lat="47.26956" lon="-2.34058">
        <ele>64</ele>
        <time>2020-10-25T08:19:55.000Z</time>
      </trkpt>
      <trkpt lat="47.26969" lon="-2.34116">
        <ele>64</ele>
        <time>2020-10-25T08:20:04.000Z</time>
      </trkpt>
      <trkpt lat="47.26976" lon="-2.34146">
        <ele>64</ele>
        <time>2020-10-25T08:20:09.000Z</time>
      </trkpt>
      <trkpt lat="47.26978" lon="-2.34159">
        <ele>64</ele>
        <time>2020-10-25T08:20:11.000Z</time>
      </trkpt>
      <trkpt lat="47.26989" lon="-2.34208">
        <ele>64</ele>
        <time>2020-10-25T08:20:19.000Z</time>
      </trkpt>
      <trkpt lat="47.26992" lon="-2.3422">
        <ele>64.400001525879</ele>
        <time>2020-10-25T08:20:21.000Z</time>
      </trkpt>
      <trkpt lat="47.26993" lon="-2.34226">
        <ele>64.800003051758</ele>
        <time>2020-10-25T08:20:22.000Z</time>
      </trkpt>
      <trkpt lat="47.26995" lon="-2.34232">
        <ele>65.800003051758</ele>
        <time>2020-10-25T08:20:23.000Z</time>
      </trkpt>
      <trkpt lat="47.26997" lon="-2.34238">
        <ele>66.199996948242</ele>
        <time>2020-10-25T08:20:24.000Z</time>
      </trkpt>
      <trkpt lat="47.27001" lon="-2.34257">
        <ele>66.199996948242</ele>
        <time>2020-10-25T08:20:27.000Z</time>
      </trkpt>
      <trkpt lat="47.27008" lon="-2.34295">
        <ele>66.199996948242</ele>
        <time>2020-10-25T08:20:34.000Z</time>
      </trkpt>
      <trkpt lat="47.2701" lon="-2.34314">
        <ele>66.199996948242</ele>
        <time>2020-10-25T08:20:38.000Z</time>
      </trkpt>
      <trkpt lat="47.27012" lon="-2.34317">
        <ele>66.199996948242</ele>
        <time>2020-10-25T08:20:39.000Z</time>
      </trkpt>
      <trkpt lat="47.27025" lon="-2.34319">
        <ele>66.199996948242</ele>
        <time>2020-10-25T08:20:43.000Z</time>
      </trkpt>
      <trkpt lat="47.27054" lon="-2.34318">
        <ele>66.199996948242</ele>
        <time>2020-10-25T08:20:50.000Z</time>
      </trkpt>
      <trkpt lat="47.27086" lon="-2.34319">
        <ele>66.199996948242</ele>
        <time>2020-10-25T08:20:58.000Z</time>
      </trkpt>
      <trkpt lat="47.27099" lon="-2.34318">
        <ele>66.199996948242</ele>
        <time>2020-10-25T08:21:03.000Z</time>
      </trkpt>
      <trkpt lat="47.27104" lon="-2.34317">
        <ele>66.199996948242</ele>
        <time>2020-10-25T08:21:08.000Z</time>
      </trkpt>
      <trkpt lat="47.27104" lon="-2.34317">
        <ele>66.199996948242</ele>
        <time>2020-10-25T08:21:09.000Z</time>
      </trkpt>
      <trkpt lat="47.27107" lon="-2.34317">
        <ele>66.199996948242</ele>
        <time>2020-10-25T08:21:19.000Z</time>
      </trkpt>
      <trkpt lat="47.27109" lon="-2.34317">
        <ele>66.599998474121</ele>
        <time>2020-10-25T08:21:20.000Z</time>
      </trkpt>
      <trkpt lat="47.27112" lon="-2.34317">
        <ele>67</ele>
        <time>2020-10-25T08:21:21.000Z</time>
      </trkpt>
      <trkpt lat="47.27115" lon="-2.34318">
        <ele>67.400001525879</ele>
        <time>2020-10-25T08:21:22.000Z</time>
      </trkpt>
      <trkpt lat="47.27118" lon="-2.34317">
        <ele>67.800003051758</ele>
        <time>2020-10-25T08:21:23.000Z</time>
      </trkpt>
      <trkpt lat="47.27121" lon="-2.34317">
        <ele>68.199996948242</ele>
        <time>2020-10-25T08:21:24.000Z</time>
      </trkpt>
      <trkpt lat="47.27128" lon="-2.34316">
        <ele>68.199996948242</ele>
        <time>2020-10-25T08:21:26.000Z</time>
      </trkpt>
      <trkpt lat="47.27144" lon="-2.34317">
        <ele>68.199996948242</ele>
        <time>2020-10-25T08:21:32.000Z</time>
      </trkpt>
      <trkpt lat="47.27168" lon="-2.34319">
        <ele>68.599998474121</ele>
        <time>2020-10-25T08:21:38.000Z</time>
      </trkpt>
      <trkpt lat="47.27172" lon="-2.34319">
        <ele>69</ele>
        <time>2020-10-25T08:21:39.000Z</time>
      </trkpt>
      <trkpt lat="47.27176" lon="-2.34319">
        <ele>69.400001525879</ele>
        <time>2020-10-25T08:21:40.000Z</time>
      </trkpt>
      <trkpt lat="47.2718" lon="-2.34319">
        <ele>69.800003051758</ele>
        <time>2020-10-25T08:21:41.000Z</time>
      </trkpt>
      <trkpt lat="47.27184" lon="-2.34319">
        <ele>70.199996948242</ele>
        <time>2020-10-25T08:21:42.000Z</time>
      </trkpt>
      <trkpt lat="47.27206" lon="-2.3432">
        <ele>70.199996948242</ele>
        <time>2020-10-25T08:21:47.000Z</time>
      </trkpt>
      <trkpt lat="47.27215" lon="-2.34321">
        <ele>70.199996948242</ele>
        <time>2020-10-25T08:21:49.000Z</time>
      </trkpt>
      <trkpt lat="47.27233" lon="-2.3432">
        <ele>70.199996948242</ele>
        <time>2020-10-25T08:21:53.000Z</time>
      </trkpt>
      <trkpt lat="47.27237" lon="-2.3432">
        <ele>70.599998474121</ele>
        <time>2020-10-25T08:21:54.000Z</time>
      </trkpt>
      <trkpt lat="47.27242" lon="-2.3432">
        <ele>71</ele>
        <time>2020-10-25T08:21:55.000Z</time>
      </trkpt>
      <trkpt lat="47.27246" lon="-2.3432">
        <ele>71.599998474121</ele>
        <time>2020-10-25T08:21:56.000Z</time>
      </trkpt>
      <trkpt lat="47.27251" lon="-2.3432">
        <ele>72</ele>
        <time>2020-10-25T08:21:57.000Z</time>
      </trkpt>
      <trkpt lat="47.27255" lon="-2.3432">
        <ele>72.400001525879</ele>
        <time>2020-10-25T08:21:58.000Z</time>
      </trkpt>
      <trkpt lat="47.27264" lon="-2.3432">
        <ele>72.400001525879</ele>
        <time>2020-10-25T08:22:00.000Z</time>
      </trkpt>
      <trkpt lat="47.27281" lon="-2.34316">
        <ele>72.400001525879</ele>
        <time>2020-10-25T08:22:04.000Z</time>
      </trkpt>
      <trkpt lat="47.2729" lon="-2.34313">
        <ele>72.800003051758</ele>
        <time>2020-10-25T08:22:06.000Z</time>
      </trkpt>
      <trkpt lat="47.27294" lon="-2.34311">
        <ele>73.199996948242</ele>
        <time>2020-10-25T08:22:07.000Z</time>
      </trkpt>
      <trkpt lat="47.27298" lon="-2.34309">
        <ele>73.599998474121</ele>
        <time>2020-10-25T08:22:08.000Z</time>
      </trkpt>
      <trkpt lat="47.27302" lon="-2.34308">
        <ele>74</ele>
        <time>2020-10-25T08:22:09.000Z</time>
      </trkpt>
      <trkpt lat="47.27306" lon="-2.34306">
        <ele>74.400001525879</ele>
        <time>2020-10-25T08:22:10.000Z</time>
      </trkpt>
      <trkpt lat="47.2731" lon="-2.34303">
        <ele>74.400001525879</ele>
        <time>2020-10-25T08:22:11.000Z</time>
      </trkpt>
      <trkpt lat="47.27323" lon="-2.34296">
        <ele>74.400001525879</ele>
        <time>2020-10-25T08:22:14.000Z</time>
      </trkpt>
      <trkpt lat="47.27331" lon="-2.34291">
        <ele>74.400001525879</ele>
        <time>2020-10-25T08:22:16.000Z</time>
      </trkpt>
      <trkpt lat="47.27348" lon="-2.3428">
        <ele>74.400001525879</ele>
        <time>2020-10-25T08:22:20.000Z</time>
      </trkpt>
      <trkpt lat="47.27364" lon="-2.34268">
        <ele>74.800003051758</ele>
        <time>2020-10-25T08:22:24.000Z</time>
      </trkpt>
      <trkpt lat="47.27368" lon="-2.34265">
        <ele>75.400001525879</ele>
        <time>2020-10-25T08:22:25.000Z</time>
      </trkpt>
      <trkpt lat="47.27372" lon="-2.34262">
        <ele>76.199996948242</ele>
        <time>2020-10-25T08:22:26.000Z</time>
      </trkpt>
      <trkpt lat="47.27375" lon="-2.34259">
        <ele>76.599998474121</ele>
        <time>2020-10-25T08:22:27.000Z</time>
      </trkpt>
      <trkpt lat="47.27379" lon="-2.34257">
        <ele>76.599998474121</ele>
        <time>2020-10-25T08:22:28.000Z</time>
      </trkpt>
      <trkpt lat="47.27409" lon="-2.3424">
        <ele>76.599998474121</ele>
        <time>2020-10-25T08:22:36.000Z</time>
      </trkpt>
      <trkpt lat="47.27422" lon="-2.34236">
        <ele>77</ele>
        <time>2020-10-25T08:22:39.000Z</time>
      </trkpt>
      <trkpt lat="47.27426" lon="-2.34234">
        <ele>77.400001525879</ele>
        <time>2020-10-25T08:22:40.000Z</time>
      </trkpt>
      <trkpt lat="47.2743" lon="-2.34232">
        <ele>77.800003051758</ele>
        <time>2020-10-25T08:22:41.000Z</time>
      </trkpt>
      <trkpt lat="47.27434" lon="-2.3423">
        <ele>78.199996948242</ele>
        <time>2020-10-25T08:22:42.000Z</time>
      </trkpt>
      <trkpt lat="47.27438" lon="-2.34229">
        <ele>78.599998474121</ele>
        <time>2020-10-25T08:22:43.000Z</time>
      </trkpt>
      <trkpt lat="47.27464" lon="-2.34223">
        <ele>78.599998474121</ele>
        <time>2020-10-25T08:22:49.000Z</time>
      </trkpt>
      <trkpt lat="47.27494" lon="-2.34215">
        <ele>78.599998474121</ele>
        <time>2020-10-25T08:22:57.000Z</time>
      </trkpt>
      <trkpt lat="47.27503" lon="-2.34214">
        <ele>78.599998474121</ele>
        <time>2020-10-25T08:23:02.000Z</time>
      </trkpt>
      <trkpt lat="47.27507" lon="-2.34211">
        <ele>78.599998474121</ele>
        <time>2020-10-25T08:23:05.000Z</time>
      </trkpt>
      <trkpt lat="47.27511" lon="-2.34211">
        <ele>78.599998474121</ele>
        <time>2020-10-25T08:23:07.000Z</time>
      </trkpt>
      <trkpt lat="47.27526" lon="-2.34207">
        <ele>78.599998474121</ele>
        <time>2020-10-25T08:23:12.000Z</time>
      </trkpt>
      <trkpt lat="47.2754" lon="-2.342">
        <ele>79</ele>
        <time>2020-10-25T08:23:16.000Z</time>
      </trkpt>
      <trkpt lat="47.27543" lon="-2.34199">
        <ele>79.400001525879</ele>
        <time>2020-10-25T08:23:17.000Z</time>
      </trkpt>
      <trkpt lat="47.27544" lon="-2.34198">
        <ele>79.800003051758</ele>
        <time>2020-10-25T08:23:18.000Z</time>
      </trkpt>
      <trkpt lat="47.27545" lon="-2.34197">
        <ele>80.199996948242</ele>
        <time>2020-10-25T08:23:19.000Z</time>
      </trkpt>
      <trkpt lat="47.27546" lon="-2.34195">
        <ele>80.599998474121</ele>
        <time>2020-10-25T08:23:20.000Z</time>
      </trkpt>
      <trkpt lat="47.27546" lon="-2.34195">
        <ele>80.599998474121</ele>
        <time>2020-10-25T08:23:21.000Z</time>
      </trkpt>
      <trkpt lat="47.27548" lon="-2.34194">
        <ele>80.599998474121</ele>
        <time>2020-10-25T08:23:23.000Z</time>
      </trkpt>
      <trkpt lat="47.27552" lon="-2.34191">
        <ele>80.599998474121</ele>
        <time>2020-10-25T08:23:27.000Z</time>
      </trkpt>
      <trkpt lat="47.27552" lon="-2.34191">
        <ele>80.599998474121</ele>
        <time>2020-10-25T08:23:28.000Z</time>
      </trkpt>
      <trkpt lat="47.27555" lon="-2.34186">
        <ele>80.599998474121</ele>
        <time>2020-10-25T08:24:00.000Z</time>
      </trkpt>
      <trkpt lat="47.27555" lon="-2.34186">
        <ele>80.599998474121</ele>
        <time>2020-10-25T08:24:02.000Z</time>
      </trkpt>
      <trkpt lat="47.27558" lon="-2.34185">
        <ele>80.599998474121</ele>
        <time>2020-10-25T08:24:08.000Z</time>
      </trkpt>
      <trkpt lat="47.27562" lon="-2.34183">
        <ele>80.599998474121</ele>
        <time>2020-10-25T08:24:10.000Z</time>
      </trkpt>
      <trkpt lat="47.27581" lon="-2.34175">
        <ele>80.599998474121</ele>
        <time>2020-10-25T08:24:16.000Z</time>
      </trkpt>
      <trkpt lat="47.27598" lon="-2.34162">
        <ele>80.599998474121</ele>
        <time>2020-10-25T08:24:21.000Z</time>
      </trkpt>
      <trkpt lat="47.27617" lon="-2.3415">
        <ele>80.599998474121</ele>
        <time>2020-10-25T08:24:26.000Z</time>
      </trkpt>
      <trkpt lat="47.27648" lon="-2.34129">
        <ele>81.199996948242</ele>
        <time>2020-10-25T08:24:33.000Z</time>
      </trkpt>
      <trkpt lat="47.27653" lon="-2.34126">
        <ele>81.599998474121</ele>
        <time>2020-10-25T08:24:34.000Z</time>
      </trkpt>
      <trkpt lat="47.27657" lon="-2.34122">
        <ele>82</ele>
        <time>2020-10-25T08:24:35.000Z</time>
      </trkpt>
      <trkpt lat="47.27661" lon="-2.34119">
        <ele>82.400001525879</ele>
        <time>2020-10-25T08:24:36.000Z</time>
      </trkpt>
      <trkpt lat="47.27666" lon="-2.34116">
        <ele>83</ele>
        <time>2020-10-25T08:24:37.000Z</time>
      </trkpt>
      <trkpt lat="47.27679" lon="-2.34106">
        <ele>83</ele>
        <time>2020-10-25T08:24:40.000Z</time>
      </trkpt>
      <trkpt lat="47.27683" lon="-2.34103">
        <ele>83</ele>
        <time>2020-10-25T08:24:41.000Z</time>
      </trkpt>
      <trkpt lat="47.27691" lon="-2.34097">
        <ele>83</ele>
        <time>2020-10-25T08:24:43.000Z</time>
      </trkpt>
      <trkpt lat="47.27699" lon="-2.34092">
        <ele>83</ele>
        <time>2020-10-25T08:24:45.000Z</time>
      </trkpt>
      <trkpt lat="47.2774" lon="-2.34061">
        <ele>83</ele>
        <time>2020-10-25T08:24:55.000Z</time>
      </trkpt>
      <trkpt lat="47.27758" lon="-2.34051">
        <ele>83</ele>
        <time>2020-10-25T08:24:59.000Z</time>
      </trkpt>
      <trkpt lat="47.27762" lon="-2.3405">
        <ele>83</ele>
        <time>2020-10-25T08:25:00.000Z</time>
      </trkpt>
      <trkpt lat="47.27766" lon="-2.34053">
        <ele>83</ele>
        <time>2020-10-25T08:25:01.000Z</time>
      </trkpt>
      <trkpt lat="47.27774" lon="-2.3406">
        <ele>83</ele>
        <time>2020-10-25T08:25:03.000Z</time>
      </trkpt>
      <trkpt lat="47.27785" lon="-2.34077">
        <ele>83.400001525879</ele>
        <time>2020-10-25T08:25:06.000Z</time>
      </trkpt>
      <trkpt lat="47.27788" lon="-2.34083">
        <ele>83.800003051758</ele>
        <time>2020-10-25T08:25:07.000Z</time>
      </trkpt>
      <trkpt lat="47.27792" lon="-2.34088">
        <ele>84.199996948242</ele>
        <time>2020-10-25T08:25:08.000Z</time>
      </trkpt>
      <trkpt lat="47.27796" lon="-2.34094">
        <ele>84.599998474121</ele>
        <time>2020-10-25T08:25:09.000Z</time>
      </trkpt>
      <trkpt lat="47.27799" lon="-2.341">
        <ele>85.199996948242</ele>
        <time>2020-10-25T08:25:10.000Z</time>
      </trkpt>
      <trkpt lat="47.27814" lon="-2.3412">
        <ele>85.199996948242</ele>
        <time>2020-10-25T08:25:14.000Z</time>
      </trkpt>
      <trkpt lat="47.27825" lon="-2.34128">
        <ele>85.199996948242</ele>
        <time>2020-10-25T08:25:17.000Z</time>
      </trkpt>
      <trkpt lat="47.27828" lon="-2.34126">
        <ele>85.199996948242</ele>
        <time>2020-10-25T08:25:18.000Z</time>
      </trkpt>
      <trkpt lat="47.27836" lon="-2.34112">
        <ele>85.199996948242</ele>
        <time>2020-10-25T08:25:21.000Z</time>
      </trkpt>
      <trkpt lat="47.27839" lon="-2.34107">
        <ele>85.199996948242</ele>
        <time>2020-10-25T08:25:22.000Z</time>
      </trkpt>
      <trkpt lat="47.27852" lon="-2.34088">
        <ele>85.199996948242</ele>
        <time>2020-10-25T08:25:26.000Z</time>
      </trkpt>
      <trkpt lat="47.2786" lon="-2.3408">
        <ele>85.199996948242</ele>
        <time>2020-10-25T08:25:28.000Z</time>
      </trkpt>
      <trkpt lat="47.27864" lon="-2.34078">
        <ele>85.199996948242</ele>
        <time>2020-10-25T08:25:29.000Z</time>
      </trkpt>
      <trkpt lat="47.27892" lon="-2.34069">
        <ele>85.199996948242</ele>
        <time>2020-10-25T08:25:35.000Z</time>
      </trkpt>
      <trkpt lat="47.27926" lon="-2.34062">
        <ele>85.199996948242</ele>
        <time>2020-10-25T08:25:42.000Z</time>
      </trkpt>
      <trkpt lat="47.27968" lon="-2.34055">
        <ele>85.199996948242</ele>
        <time>2020-10-25T08:25:50.000Z</time>
      </trkpt>
      <trkpt lat="47.27979" lon="-2.3405">
        <ele>84.800003051758</ele>
        <time>2020-10-25T08:25:52.000Z</time>
      </trkpt>
      <trkpt lat="47.27985" lon="-2.34047">
        <ele>84.400001525879</ele>
        <time>2020-10-25T08:25:53.000Z</time>
      </trkpt>
      <trkpt lat="47.2799" lon="-2.34044">
        <ele>84</ele>
        <time>2020-10-25T08:25:54.000Z</time>
      </trkpt>
      <trkpt lat="47.27996" lon="-2.34041">
        <ele>83.599998474121</ele>
        <time>2020-10-25T08:25:55.000Z</time>
      </trkpt>
      <trkpt lat="47.28001" lon="-2.34038">
        <ele>83.199996948242</ele>
        <time>2020-10-25T08:25:56.000Z</time>
      </trkpt>
      <trkpt lat="47.28006" lon="-2.34036">
        <ele>83.199996948242</ele>
        <time>2020-10-25T08:25:57.000Z</time>
      </trkpt>
      <trkpt lat="47.2801" lon="-2.34035">
        <ele>83.199996948242</ele>
        <time>2020-10-25T08:25:58.000Z</time>
      </trkpt>
      <trkpt lat="47.28018" lon="-2.34042">
        <ele>83.199996948242</ele>
        <time>2020-10-25T08:26:00.000Z</time>
      </trkpt>
      <trkpt lat="47.28025" lon="-2.3406">
        <ele>83.199996948242</ele>
        <time>2020-10-25T08:26:03.000Z</time>
      </trkpt>
      <trkpt lat="47.28027" lon="-2.34066">
        <ele>83.199996948242</ele>
        <time>2020-10-25T08:26:04.000Z</time>
      </trkpt>
      <trkpt lat="47.28048" lon="-2.34109">
        <ele>83.199996948242</ele>
        <time>2020-10-25T08:26:11.000Z</time>
      </trkpt>
      <trkpt lat="47.28056" lon="-2.34119">
        <ele>83.199996948242</ele>
        <time>2020-10-25T08:26:13.000Z</time>
      </trkpt>
      <trkpt lat="47.28072" lon="-2.34134">
        <ele>83.199996948242</ele>
        <time>2020-10-25T08:26:17.000Z</time>
      </trkpt>
      <trkpt lat="47.28093" lon="-2.34148">
        <ele>83.199996948242</ele>
        <time>2020-10-25T08:26:23.000Z</time>
      </trkpt>
      <trkpt lat="47.281" lon="-2.34138">
        <ele>83.199996948242</ele>
        <time>2020-10-25T08:26:26.000Z</time>
      </trkpt>
      <trkpt lat="47.28102" lon="-2.34134">
        <ele>83.199996948242</ele>
        <time>2020-10-25T08:26:27.000Z</time>
      </trkpt>
      <trkpt lat="47.28113" lon="-2.34116">
        <ele>83.199996948242</ele>
        <time>2020-10-25T08:26:31.000Z</time>
      </trkpt>
      <trkpt lat="47.28117" lon="-2.34115">
        <ele>83.199996948242</ele>
        <time>2020-10-25T08:26:32.000Z</time>
      </trkpt>
      <trkpt lat="47.28129" lon="-2.34125">
        <ele>83.199996948242</ele>
        <time>2020-10-25T08:26:35.000Z</time>
      </trkpt>
      <trkpt lat="47.28136" lon="-2.34134">
        <ele>83.199996948242</ele>
        <time>2020-10-25T08:26:37.000Z</time>
      </trkpt>
      <trkpt lat="47.28151" lon="-2.34158">
        <ele>83.199996948242</ele>
        <time>2020-10-25T08:26:42.000Z</time>
      </trkpt>
      <trkpt lat="47.28172" lon="-2.3419">
        <ele>83.199996948242</ele>
        <time>2020-10-25T08:26:49.000Z</time>
      </trkpt>
      <trkpt lat="47.28197" lon="-2.34225">
        <ele>83.199996948242</ele>
        <time>2020-10-25T08:26:57.000Z</time>
      </trkpt>
      <trkpt lat="47.282" lon="-2.34228">
        <ele>83.199996948242</ele>
        <time>2020-10-25T08:26:58.000Z</time>
      </trkpt>
      <trkpt lat="47.28217" lon="-2.34248">
        <ele>83.199996948242</ele>
        <time>2020-10-25T08:27:03.000Z</time>
      </trkpt>
      <trkpt lat="47.28238" lon="-2.34276">
        <ele>83.199996948242</ele>
        <time>2020-10-25T08:27:10.000Z</time>
      </trkpt>
      <trkpt lat="47.28239" lon="-2.34281">
        <ele>83.199996948242</ele>
        <time>2020-10-25T08:27:11.000Z</time>
      </trkpt>
      <trkpt lat="47.28237" lon="-2.34289">
        <ele>83.199996948242</ele>
        <time>2020-10-25T08:27:13.000Z</time>
      </trkpt>
      <trkpt lat="47.28224" lon="-2.34297">
        <ele>83.199996948242</ele>
        <time>2020-10-25T08:27:17.000Z</time>
      </trkpt>
      <trkpt lat="47.28202" lon="-2.34311">
        <ele>83.599998474121</ele>
        <time>2020-10-25T08:27:23.000Z</time>
      </trkpt>
      <trkpt lat="47.28199" lon="-2.34313">
        <ele>84</ele>
        <time>2020-10-25T08:27:24.000Z</time>
      </trkpt>
      <trkpt lat="47.28195" lon="-2.34315">
        <ele>84.400001525879</ele>
        <time>2020-10-25T08:27:25.000Z</time>
      </trkpt>
      <trkpt lat="47.2819" lon="-2.34317">
        <ele>84.800003051758</ele>
        <time>2020-10-25T08:27:26.000Z</time>
      </trkpt>
      <trkpt lat="47.28186" lon="-2.34319">
        <ele>85.199996948242</ele>
        <time>2020-10-25T08:27:27.000Z</time>
      </trkpt>
      <trkpt lat="47.28169" lon="-2.34321">
        <ele>85.199996948242</ele>
        <time>2020-10-25T08:27:31.000Z</time>
      </trkpt>
      <trkpt lat="47.28156" lon="-2.34319">
        <ele>85.199996948242</ele>
        <time>2020-10-25T08:27:34.000Z</time>
      </trkpt>
      <trkpt lat="47.28142" lon="-2.34316">
        <ele>85.199996948242</ele>
        <time>2020-10-25T08:27:37.000Z</time>
      </trkpt>
      <trkpt lat="47.28104" lon="-2.34308">
        <ele>85.199996948242</ele>
        <time>2020-10-25T08:27:45.000Z</time>
      </trkpt>
      <trkpt lat="47.28086" lon="-2.34307">
        <ele>85.199996948242</ele>
        <time>2020-10-25T08:27:49.000Z</time>
      </trkpt>
      <trkpt lat="47.28074" lon="-2.34308">
        <ele>85.199996948242</ele>
        <time>2020-10-25T08:27:52.000Z</time>
      </trkpt>
      <trkpt lat="47.28062" lon="-2.3431">
        <ele>85.199996948242</ele>
        <time>2020-10-25T08:27:55.000Z</time>
      </trkpt>
      <trkpt lat="47.28055" lon="-2.34319">
        <ele>85.199996948242</ele>
        <time>2020-10-25T08:27:57.000Z</time>
      </trkpt>
      <trkpt lat="47.28053" lon="-2.34342">
        <ele>85.199996948242</ele>
        <time>2020-10-25T08:28:01.000Z</time>
      </trkpt>
      <trkpt lat="47.28063" lon="-2.34355">
        <ele>85.199996948242</ele>
        <time>2020-10-25T08:28:04.000Z</time>
      </trkpt>
      <trkpt lat="47.2807" lon="-2.34372">
        <ele>85.199996948242</ele>
        <time>2020-10-25T08:28:07.000Z</time>
      </trkpt>
      <trkpt lat="47.28072" lon="-2.34378">
        <ele>85.199996948242</ele>
        <time>2020-10-25T08:28:08.000Z</time>
      </trkpt>
      <trkpt lat="47.28084" lon="-2.34399">
        <ele>85.199996948242</ele>
        <time>2020-10-25T08:28:12.000Z</time>
      </trkpt>
      <trkpt lat="47.28091" lon="-2.34408">
        <ele>85.199996948242</ele>
        <time>2020-10-25T08:28:14.000Z</time>
      </trkpt>
      <trkpt lat="47.28122" lon="-2.34454">
        <ele>85.199996948242</ele>
        <time>2020-10-25T08:28:23.000Z</time>
      </trkpt>
      <trkpt lat="47.28142" lon="-2.34486">
        <ele>85.199996948242</ele>
        <time>2020-10-25T08:28:29.000Z</time>
      </trkpt>
      <trkpt lat="47.28154" lon="-2.34517">
        <ele>85.199996948242</ele>
        <time>2020-10-25T08:28:35.000Z</time>
      </trkpt>
      <trkpt lat="47.28153" lon="-2.34522">
        <ele>85.199996948242</ele>
        <time>2020-10-25T08:28:36.000Z</time>
      </trkpt>
      <trkpt lat="47.28148" lon="-2.3453">
        <ele>85.199996948242</ele>
        <time>2020-10-25T08:28:38.000Z</time>
      </trkpt>
      <trkpt lat="47.28139" lon="-2.34546">
        <ele>85.199996948242</ele>
        <time>2020-10-25T08:28:41.000Z</time>
      </trkpt>
      <trkpt lat="47.28136" lon="-2.34551">
        <ele>85.199996948242</ele>
        <time>2020-10-25T08:28:42.000Z</time>
      </trkpt>
      <trkpt lat="47.28132" lon="-2.34556">
        <ele>85.199996948242</ele>
        <time>2020-10-25T08:28:43.000Z</time>
      </trkpt>
      <trkpt lat="47.28119" lon="-2.34566">
        <ele>85.199996948242</ele>
        <time>2020-10-25T08:28:46.000Z</time>
      </trkpt>
      <trkpt lat="47.28107" lon="-2.34592">
        <ele>85.199996948242</ele>
        <time>2020-10-25T08:28:51.000Z</time>
      </trkpt>
      <trkpt lat="47.28108" lon="-2.34617">
        <ele>85.199996948242</ele>
        <time>2020-10-25T08:28:55.000Z</time>
      </trkpt>
      <trkpt lat="47.28116" lon="-2.34636">
        <ele>85.199996948242</ele>
        <time>2020-10-25T08:28:58.000Z</time>
      </trkpt>
      <trkpt lat="47.28121" lon="-2.34647">
        <ele>85.199996948242</ele>
        <time>2020-10-25T08:29:00.000Z</time>
      </trkpt>
      <trkpt lat="47.28141" lon="-2.34693">
        <ele>85.199996948242</ele>
        <time>2020-10-25T08:29:08.000Z</time>
      </trkpt>
      <trkpt lat="47.28143" lon="-2.347">
        <ele>85.199996948242</ele>
        <time>2020-10-25T08:29:09.000Z</time>
      </trkpt>
      <trkpt lat="47.28153" lon="-2.34733">
        <ele>85.199996948242</ele>
        <time>2020-10-25T08:29:14.000Z</time>
      </trkpt>
      <trkpt lat="47.28163" lon="-2.34772">
        <ele>85.199996948242</ele>
        <time>2020-10-25T08:29:20.000Z</time>
      </trkpt>
      <trkpt lat="47.28166" lon="-2.34777">
        <ele>85.199996948242</ele>
        <time>2020-10-25T08:29:21.000Z</time>
      </trkpt>
      <trkpt lat="47.28177" lon="-2.34788">
        <ele>85.199996948242</ele>
        <time>2020-10-25T08:29:24.000Z</time>
      </trkpt>
      <trkpt lat="47.28182" lon="-2.34814">
        <ele>85.199996948242</ele>
        <time>2020-10-25T08:29:28.000Z</time>
      </trkpt>
      <trkpt lat="47.28183" lon="-2.34821">
        <ele>85.199996948242</ele>
        <time>2020-10-25T08:29:29.000Z</time>
      </trkpt>
      <trkpt lat="47.28186" lon="-2.34849">
        <ele>85.199996948242</ele>
        <time>2020-10-25T08:29:33.000Z</time>
      </trkpt>
      <trkpt lat="47.28189" lon="-2.34863">
        <ele>85.199996948242</ele>
        <time>2020-10-25T08:29:35.000Z</time>
      </trkpt>
      <trkpt lat="47.28206" lon="-2.34925">
        <ele>85.199996948242</ele>
        <time>2020-10-25T08:29:44.000Z</time>
      </trkpt>
      <trkpt lat="47.28224" lon="-2.34977">
        <ele>85.199996948242</ele>
        <time>2020-10-25T08:29:52.000Z</time>
      </trkpt>
      <trkpt lat="47.28243" lon="-2.35018">
        <ele>85.199996948242</ele>
        <time>2020-10-25T08:29:59.000Z</time>
      </trkpt>
      <trkpt lat="47.28246" lon="-2.35023">
        <ele>85.199996948242</ele>
        <time>2020-10-25T08:30:00.000Z</time>
      </trkpt>
      <trkpt lat="47.28267" lon="-2.35048">
        <ele>85.199996948242</ele>
        <time>2020-10-25T08:30:06.000Z</time>
      </trkpt>
      <trkpt lat="47.28291" lon="-2.3507">
        <ele>85.199996948242</ele>
        <time>2020-10-25T08:30:12.000Z</time>
      </trkpt>
      <trkpt lat="47.283" lon="-2.35074">
        <ele>85.199996948242</ele>
        <time>2020-10-25T08:30:14.000Z</time>
      </trkpt>
      <trkpt lat="47.28314" lon="-2.35077">
        <ele>85.199996948242</ele>
        <time>2020-10-25T08:30:17.000Z</time>
      </trkpt>
      <trkpt lat="47.28328" lon="-2.35077">
        <ele>85.199996948242</ele>
        <time>2020-10-25T08:30:20.000Z</time>
      </trkpt>
      <trkpt lat="47.28338" lon="-2.35075">
        <ele>85.199996948242</ele>
        <time>2020-10-25T08:30:22.000Z</time>
      </trkpt>
      <trkpt lat="47.28355" lon="-2.3507">
        <ele>85.199996948242</ele>
        <time>2020-10-25T08:30:26.000Z</time>
      </trkpt>
      <trkpt lat="47.284" lon="-2.35056">
        <ele>85.199996948242</ele>
        <time>2020-10-25T08:30:35.000Z</time>
      </trkpt>
      <trkpt lat="47.28443" lon="-2.35045">
        <ele>85.199996948242</ele>
        <time>2020-10-25T08:30:44.000Z</time>
      </trkpt>
      <trkpt lat="47.28447" lon="-2.35045">
        <ele>85.199996948242</ele>
        <time>2020-10-25T08:30:45.000Z</time>
      </trkpt>
      <trkpt lat="47.28457" lon="-2.35055">
        <ele>85.199996948242</ele>
        <time>2020-10-25T08:30:48.000Z</time>
      </trkpt>
      <trkpt lat="47.28471" lon="-2.35086">
        <ele>85.199996948242</ele>
        <time>2020-10-25T08:30:53.000Z</time>
      </trkpt>
      <trkpt lat="47.2848" lon="-2.35116">
        <ele>84.599998474121</ele>
        <time>2020-10-25T08:30:57.000Z</time>
      </trkpt>
      <trkpt lat="47.28483" lon="-2.35123">
        <ele>84.199996948242</ele>
        <time>2020-10-25T08:30:58.000Z</time>
      </trkpt>
      <trkpt lat="47.28485" lon="-2.35132">
        <ele>83.800003051758</ele>
        <time>2020-10-25T08:30:59.000Z</time>
      </trkpt>
      <trkpt lat="47.28487" lon="-2.3514">
        <ele>83.400001525879</ele>
        <time>2020-10-25T08:31:00.000Z</time>
      </trkpt>
      <trkpt lat="47.28489" lon="-2.35148">
        <ele>83</ele>
        <time>2020-10-25T08:31:01.000Z</time>
      </trkpt>
      <trkpt lat="47.28503" lon="-2.35202">
        <ele>83</ele>
        <time>2020-10-25T08:31:08.000Z</time>
      </trkpt>
      <trkpt lat="47.28516" lon="-2.35252">
        <ele>83</ele>
        <time>2020-10-25T08:31:15.000Z</time>
      </trkpt>
      <trkpt lat="47.28528" lon="-2.35295">
        <ele>83</ele>
        <time>2020-10-25T08:31:21.000Z</time>
      </trkpt>
      <trkpt lat="47.28545" lon="-2.35341">
        <ele>83</ele>
        <time>2020-10-25T08:31:28.000Z</time>
      </trkpt>
      <trkpt lat="47.28562" lon="-2.35387">
        <ele>83</ele>
        <time>2020-10-25T08:31:35.000Z</time>
      </trkpt>
      <trkpt lat="47.28564" lon="-2.35394">
        <ele>83.400001525879</ele>
        <time>2020-10-25T08:31:36.000Z</time>
      </trkpt>
      <trkpt lat="47.28565" lon="-2.354">
        <ele>83.800003051758</ele>
        <time>2020-10-25T08:31:37.000Z</time>
      </trkpt>
      <trkpt lat="47.28566" lon="-2.35407">
        <ele>84.199996948242</ele>
        <time>2020-10-25T08:31:38.000Z</time>
      </trkpt>
      <trkpt lat="47.28566" lon="-2.35414">
        <ele>84.599998474121</ele>
        <time>2020-10-25T08:31:39.000Z</time>
      </trkpt>
      <trkpt lat="47.28566" lon="-2.3542">
        <ele>85.199996948242</ele>
        <time>2020-10-25T08:31:40.000Z</time>
      </trkpt>
      <trkpt lat="47.28571" lon="-2.35468">
        <ele>85.199996948242</ele>
        <time>2020-10-25T08:31:47.000Z</time>
      </trkpt>
      <trkpt lat="47.2858" lon="-2.35529">
        <ele>85.199996948242</ele>
        <time>2020-10-25T08:31:55.000Z</time>
      </trkpt>
      <trkpt lat="47.28581" lon="-2.35537">
        <ele>85.599998474121</ele>
        <time>2020-10-25T08:31:56.000Z</time>
      </trkpt>
      <trkpt lat="47.28583" lon="-2.35544">
        <ele>86</ele>
        <time>2020-10-25T08:31:57.000Z</time>
      </trkpt>
      <trkpt lat="47.28584" lon="-2.35552">
        <ele>86.400001525879</ele>
        <time>2020-10-25T08:31:58.000Z</time>
      </trkpt>
      <trkpt lat="47.28586" lon="-2.3556">
        <ele>86.800003051758</ele>
        <time>2020-10-25T08:31:59.000Z</time>
      </trkpt>
      <trkpt lat="47.28587" lon="-2.35568">
        <ele>87.199996948242</ele>
        <time>2020-10-25T08:32:00.000Z</time>
      </trkpt>
      <trkpt lat="47.2859" lon="-2.3559">
        <ele>87.199996948242</ele>
        <time>2020-10-25T08:32:03.000Z</time>
      </trkpt>
      <trkpt lat="47.28597" lon="-2.35644">
        <ele>87.199996948242</ele>
        <time>2020-10-25T08:32:11.000Z</time>
      </trkpt>
      <trkpt lat="47.28603" lon="-2.35687">
        <ele>87.199996948242</ele>
        <time>2020-10-25T08:32:18.000Z</time>
      </trkpt>
      <trkpt lat="47.28609" lon="-2.35726">
        <ele>87.199996948242</ele>
        <time>2020-10-25T08:32:24.000Z</time>
      </trkpt>
      <trkpt lat="47.28611" lon="-2.35732">
        <ele>87.199996948242</ele>
        <time>2020-10-25T08:32:25.000Z</time>
      </trkpt>
      <trkpt lat="47.28622" lon="-2.35743">
        <ele>87.199996948242</ele>
        <time>2020-10-25T08:32:28.000Z</time>
      </trkpt>
      <trkpt lat="47.28632" lon="-2.35766">
        <ele>87.199996948242</ele>
        <time>2020-10-25T08:32:32.000Z</time>
      </trkpt>
      <trkpt lat="47.28633" lon="-2.35773">
        <ele>87.199996948242</ele>
        <time>2020-10-25T08:32:33.000Z</time>
      </trkpt>
      <trkpt lat="47.28638" lon="-2.3579">
        <ele>87.199996948242</ele>
        <time>2020-10-25T08:32:37.000Z</time>
      </trkpt>
      <trkpt lat="47.2864" lon="-2.35797">
        <ele>87.199996948242</ele>
        <time>2020-10-25T08:32:42.000Z</time>
      </trkpt>
      <trkpt lat="47.2864" lon="-2.35811">
        <ele>87.199996948242</ele>
        <time>2020-10-25T08:32:48.000Z</time>
      </trkpt>
      <trkpt lat="47.28641" lon="-2.35827">
        <ele>87.599998474121</ele>
        <time>2020-10-25T08:32:52.000Z</time>
      </trkpt>
      <trkpt lat="47.28642" lon="-2.35833">
        <ele>88</ele>
        <time>2020-10-25T08:32:53.000Z</time>
      </trkpt>
      <trkpt lat="47.28643" lon="-2.35838">
        <ele>88.400001525879</ele>
        <time>2020-10-25T08:32:54.000Z</time>
      </trkpt>
      <trkpt lat="47.28644" lon="-2.35844">
        <ele>88.800003051758</ele>
        <time>2020-10-25T08:32:55.000Z</time>
      </trkpt>
      <trkpt lat="47.28647" lon="-2.35848">
        <ele>89.199996948242</ele>
        <time>2020-10-25T08:32:56.000Z</time>
      </trkpt>
      <trkpt lat="47.28649" lon="-2.35854">
        <ele>89.199996948242</ele>
        <time>2020-10-25T08:32:57.000Z</time>
      </trkpt>
      <trkpt lat="47.28664" lon="-2.35889">
        <ele>89.199996948242</ele>
        <time>2020-10-25T08:33:04.000Z</time>
      </trkpt>
      <trkpt lat="47.28673" lon="-2.35917">
        <ele>89.599998474121</ele>
        <time>2020-10-25T08:33:10.000Z</time>
      </trkpt>
      <trkpt lat="47.28675" lon="-2.35918">
        <ele>90</ele>
        <time>2020-10-25T08:33:11.000Z</time>
      </trkpt>
      <trkpt lat="47.28677" lon="-2.35918">
        <ele>90.400001525879</ele>
        <time>2020-10-25T08:33:12.000Z</time>
      </trkpt>
      <trkpt lat="47.28679" lon="-2.35917">
        <ele>90.800003051758</ele>
        <time>2020-10-25T08:33:13.000Z</time>
      </trkpt>
      <trkpt lat="47.28681" lon="-2.35913">
        <ele>91.199996948242</ele>
        <time>2020-10-25T08:33:14.000Z</time>
      </trkpt>
      <trkpt lat="47.28687" lon="-2.35904">
        <ele>91.199996948242</ele>
        <time>2020-10-25T08:33:16.000Z</time>
      </trkpt>
      <trkpt lat="47.28695" lon="-2.35894">
        <ele>91.199996948242</ele>
        <time>2020-10-25T08:33:18.000Z</time>
      </trkpt>
      <trkpt lat="47.28721" lon="-2.35852">
        <ele>91.199996948242</ele>
        <time>2020-10-25T08:33:26.000Z</time>
      </trkpt>
      <trkpt lat="47.28748" lon="-2.35802">
        <ele>91.199996948242</ele>
        <time>2020-10-25T08:33:35.000Z</time>
      </trkpt>
      <trkpt lat="47.28774" lon="-2.35753">
        <ele>91.199996948242</ele>
        <time>2020-10-25T08:33:44.000Z</time>
      </trkpt>
      <trkpt lat="47.28798" lon="-2.35704">
        <ele>91.199996948242</ele>
        <time>2020-10-25T08:33:52.000Z</time>
      </trkpt>
      <trkpt lat="47.28825" lon="-2.35662">
        <ele>91.199996948242</ele>
        <time>2020-10-25T08:33:59.000Z</time>
      </trkpt>
      <trkpt lat="47.28861" lon="-2.35623">
        <ele>91.199996948242</ele>
        <time>2020-10-25T08:34:07.000Z</time>
      </trkpt>
      <trkpt lat="47.28898" lon="-2.35583">
        <ele>91.199996948242</ele>
        <time>2020-10-25T08:34:16.000Z</time>
      </trkpt>
      <trkpt lat="47.28917" lon="-2.35561">
        <ele>91.199996948242</ele>
        <time>2020-10-25T08:34:22.000Z</time>
      </trkpt>
      <trkpt lat="47.28923" lon="-2.35556">
        <ele>91.199996948242</ele>
        <time>2020-10-25T08:34:24.000Z</time>
      </trkpt>
      <trkpt lat="47.28929" lon="-2.35559">
        <ele>91.199996948242</ele>
        <time>2020-10-25T08:34:26.000Z</time>
      </trkpt>
      <trkpt lat="47.28934" lon="-2.35572">
        <ele>91.199996948242</ele>
        <time>2020-10-25T08:34:29.000Z</time>
      </trkpt>
      <trkpt lat="47.28935" lon="-2.35577">
        <ele>91.199996948242</ele>
        <time>2020-10-25T08:34:30.000Z</time>
      </trkpt>
      <trkpt lat="47.28942" lon="-2.35592">
        <ele>91.599998474121</ele>
        <time>2020-10-25T08:34:33.000Z</time>
      </trkpt>
      <trkpt lat="47.28944" lon="-2.35598">
        <ele>92</ele>
        <time>2020-10-25T08:34:34.000Z</time>
      </trkpt>
      <trkpt lat="47.28947" lon="-2.35604">
        <ele>92.400001525879</ele>
        <time>2020-10-25T08:34:35.000Z</time>
      </trkpt>
      <trkpt lat="47.28949" lon="-2.3561">
        <ele>92.800003051758</ele>
        <time>2020-10-25T08:34:36.000Z</time>
      </trkpt>
      <trkpt lat="47.28952" lon="-2.35616">
        <ele>93.199996948242</ele>
        <time>2020-10-25T08:34:37.000Z</time>
      </trkpt>
      <trkpt lat="47.28975" lon="-2.35671">
        <ele>93.199996948242</ele>
        <time>2020-10-25T08:34:46.000Z</time>
      </trkpt>
      <trkpt lat="47.28988" lon="-2.35693">
        <ele>93.199996948242</ele>
        <time>2020-10-25T08:34:50.000Z</time>
      </trkpt>
      <trkpt lat="47.28996" lon="-2.357">
        <ele>93.199996948242</ele>
        <time>2020-10-25T08:34:52.000Z</time>
      </trkpt>
      <trkpt lat="47.29009" lon="-2.35704">
        <ele>93.800003051758</ele>
        <time>2020-10-25T08:34:55.000Z</time>
      </trkpt>
      <trkpt lat="47.29013" lon="-2.35704">
        <ele>94.199996948242</ele>
        <time>2020-10-25T08:34:56.000Z</time>
      </trkpt>
      <trkpt lat="47.29018" lon="-2.35703">
        <ele>94.599998474121</ele>
        <time>2020-10-25T08:34:57.000Z</time>
      </trkpt>
      <trkpt lat="47.29022" lon="-2.35701">
        <ele>95</ele>
        <time>2020-10-25T08:34:58.000Z</time>
      </trkpt>
      <trkpt lat="47.29026" lon="-2.35699">
        <ele>95.400001525879</ele>
        <time>2020-10-25T08:34:59.000Z</time>
      </trkpt>
      <trkpt lat="47.29035" lon="-2.35692">
        <ele>95.400001525879</ele>
        <time>2020-10-25T08:35:01.000Z</time>
      </trkpt>
      <trkpt lat="47.29039" lon="-2.35688">
        <ele>95.400001525879</ele>
        <time>2020-10-25T08:35:02.000Z</time>
      </trkpt>
      <trkpt lat="47.29053" lon="-2.35672">
        <ele>95.400001525879</ele>
        <time>2020-10-25T08:35:07.000Z</time>
      </trkpt>
      <trkpt lat="47.29069" lon="-2.35655">
        <ele>95.400001525879</ele>
        <time>2020-10-25T08:35:14.000Z</time>
      </trkpt>
      <trkpt lat="47.29087" lon="-2.35643">
        <ele>95.400001525879</ele>
        <time>2020-10-25T08:35:21.000Z</time>
      </trkpt>
      <trkpt lat="47.2909" lon="-2.35652">
        <ele>95.400001525879</ele>
        <time>2020-10-25T08:35:25.000Z</time>
      </trkpt>
      <trkpt lat="47.29094" lon="-2.35672">
        <ele>95.400001525879</ele>
        <time>2020-10-25T08:35:30.000Z</time>
      </trkpt>
      <trkpt lat="47.29095" lon="-2.357">
        <ele>95.400001525879</ele>
        <time>2020-10-25T08:35:35.000Z</time>
      </trkpt>
      <trkpt lat="47.29105" lon="-2.35726">
        <ele>95.400001525879</ele>
        <time>2020-10-25T08:35:40.000Z</time>
      </trkpt>
      <trkpt lat="47.29125" lon="-2.35775">
        <ele>95.400001525879</ele>
        <time>2020-10-25T08:35:50.000Z</time>
      </trkpt>
      <trkpt lat="47.29137" lon="-2.35809">
        <ele>95.400001525879</ele>
        <time>2020-10-25T08:35:57.000Z</time>
      </trkpt>
      <trkpt lat="47.29143" lon="-2.35824">
        <ele>95.400001525879</ele>
        <time>2020-10-25T08:36:02.000Z</time>
      </trkpt>
      <trkpt lat="47.29145" lon="-2.35828">
        <ele>95.400001525879</ele>
        <time>2020-10-25T08:36:06.000Z</time>
      </trkpt>
      <trkpt lat="47.29149" lon="-2.3583">
        <ele>95.400001525879</ele>
        <time>2020-10-25T08:36:21.000Z</time>
      </trkpt>
      <trkpt lat="47.29161" lon="-2.35822">
        <ele>95.400001525879</ele>
        <time>2020-10-25T08:36:25.000Z</time>
      </trkpt>
      <trkpt lat="47.2917" lon="-2.35814">
        <ele>95.400001525879</ele>
        <time>2020-10-25T08:36:28.000Z</time>
      </trkpt>
      <trkpt lat="47.29179" lon="-2.35809">
        <ele>95.400001525879</ele>
        <time>2020-10-25T08:36:31.000Z</time>
      </trkpt>
      <trkpt lat="47.29201" lon="-2.35795">
        <ele>95.400001525879</ele>
        <time>2020-10-25T08:36:38.000Z</time>
      </trkpt>
      <trkpt lat="47.29216" lon="-2.35783">
        <ele>95.400001525879</ele>
        <time>2020-10-25T08:36:43.000Z</time>
      </trkpt>
      <trkpt lat="47.29227" lon="-2.35784">
        <ele>95.400001525879</ele>
        <time>2020-10-25T08:36:47.000Z</time>
      </trkpt>
      <trkpt lat="47.29236" lon="-2.35807">
        <ele>95.400001525879</ele>
        <time>2020-10-25T08:36:51.000Z</time>
      </trkpt>
      <trkpt lat="47.29241" lon="-2.35834">
        <ele>95.400001525879</ele>
        <time>2020-10-25T08:36:56.000Z</time>
      </trkpt>
      <trkpt lat="47.29246" lon="-2.35845">
        <ele>95.400001525879</ele>
        <time>2020-10-25T08:36:59.000Z</time>
      </trkpt>
      <trkpt lat="47.29252" lon="-2.35843">
        <ele>95.400001525879</ele>
        <time>2020-10-25T08:37:01.000Z</time>
      </trkpt>
      <trkpt lat="47.29259" lon="-2.3584">
        <ele>95.400001525879</ele>
        <time>2020-10-25T08:37:03.000Z</time>
      </trkpt>
      <trkpt lat="47.29271" lon="-2.35834">
        <ele>95.400001525879</ele>
        <time>2020-10-25T08:37:06.000Z</time>
      </trkpt>
      <trkpt lat="47.29301" lon="-2.35813">
        <ele>95.400001525879</ele>
        <time>2020-10-25T08:37:13.000Z</time>
      </trkpt>
      <trkpt lat="47.29308" lon="-2.35805">
        <ele>95.400001525879</ele>
        <time>2020-10-25T08:37:15.000Z</time>
      </trkpt>
      <trkpt lat="47.29315" lon="-2.35796">
        <ele>95.400001525879</ele>
        <time>2020-10-25T08:37:18.000Z</time>
      </trkpt>
      <trkpt lat="47.2932" lon="-2.35792">
        <ele>95.400001525879</ele>
        <time>2020-10-25T08:37:22.000Z</time>
      </trkpt>
      <trkpt lat="47.29334" lon="-2.35791">
        <ele>95.400001525879</ele>
        <time>2020-10-25T08:37:27.000Z</time>
      </trkpt>
      <trkpt lat="47.2935" lon="-2.35806">
        <ele>95.400001525879</ele>
        <time>2020-10-25T08:37:32.000Z</time>
      </trkpt>
      <trkpt lat="47.29372" lon="-2.35827">
        <ele>95.400001525879</ele>
        <time>2020-10-25T08:37:38.000Z</time>
      </trkpt>
      <trkpt lat="47.29387" lon="-2.35842">
        <ele>95.400001525879</ele>
        <time>2020-10-25T08:37:42.000Z</time>
      </trkpt>
      <trkpt lat="47.29398" lon="-2.35853">
        <ele>95.400001525879</ele>
        <time>2020-10-25T08:37:45.000Z</time>
      </trkpt>
      <trkpt lat="47.29421" lon="-2.35883">
        <ele>95.400001525879</ele>
        <time>2020-10-25T08:37:53.000Z</time>
      </trkpt>
      <trkpt lat="47.29438" lon="-2.35902">
        <ele>95.400001525879</ele>
        <time>2020-10-25T08:37:58.000Z</time>
      </trkpt>
      <trkpt lat="47.29454" lon="-2.35904">
        <ele>95.400001525879</ele>
        <time>2020-10-25T08:38:02.000Z</time>
      </trkpt>
      <trkpt lat="47.29476" lon="-2.359">
        <ele>95.400001525879</ele>
        <time>2020-10-25T08:38:08.000Z</time>
      </trkpt>
      <trkpt lat="47.29495" lon="-2.35901">
        <ele>95.400001525879</ele>
        <time>2020-10-25T08:38:13.000Z</time>
      </trkpt>
      <trkpt lat="47.29499" lon="-2.35904">
        <ele>95.400001525879</ele>
        <time>2020-10-25T08:38:14.000Z</time>
      </trkpt>
      <trkpt lat="47.29505" lon="-2.35923">
        <ele>95.400001525879</ele>
        <time>2020-10-25T08:38:17.000Z</time>
      </trkpt>
      <trkpt lat="47.29507" lon="-2.35937">
        <ele>95.400001525879</ele>
        <time>2020-10-25T08:38:19.000Z</time>
      </trkpt>
      <trkpt lat="47.29514" lon="-2.35944">
        <ele>95.400001525879</ele>
        <time>2020-10-25T08:38:21.000Z</time>
      </trkpt>
      <trkpt lat="47.29525" lon="-2.35939">
        <ele>95.400001525879</ele>
        <time>2020-10-25T08:38:24.000Z</time>
      </trkpt>
      <trkpt lat="47.29529" lon="-2.35936">
        <ele>95.400001525879</ele>
        <time>2020-10-25T08:38:25.000Z</time>
      </trkpt>
      <trkpt lat="47.29553" lon="-2.35923">
        <ele>95.400001525879</ele>
        <time>2020-10-25T08:38:30.000Z</time>
      </trkpt>
      <trkpt lat="47.29594" lon="-2.359">
        <ele>95.400001525879</ele>
        <time>2020-10-25T08:38:38.000Z</time>
      </trkpt>
      <trkpt lat="47.29617" lon="-2.35883">
        <ele>95.400001525879</ele>
        <time>2020-10-25T08:38:43.000Z</time>
      </trkpt>
      <trkpt lat="47.2965" lon="-2.35857">
        <ele>95.400001525879</ele>
        <time>2020-10-25T08:38:50.000Z</time>
      </trkpt>
      <trkpt lat="47.29662" lon="-2.35837">
        <ele>95.400001525879</ele>
        <time>2020-10-25T08:38:54.000Z</time>
      </trkpt>
      <trkpt lat="47.29667" lon="-2.35836">
        <ele>95.800003051758</ele>
        <time>2020-10-25T08:38:55.000Z</time>
      </trkpt>
      <trkpt lat="47.29672" lon="-2.35836">
        <ele>96.199996948242</ele>
        <time>2020-10-25T08:38:56.000Z</time>
      </trkpt>
      <trkpt lat="47.29677" lon="-2.35837">
        <ele>96.599998474121</ele>
        <time>2020-10-25T08:38:57.000Z</time>
      </trkpt>
      <trkpt lat="47.29683" lon="-2.35838">
        <ele>97</ele>
        <time>2020-10-25T08:38:58.000Z</time>
      </trkpt>
      <trkpt lat="47.29689" lon="-2.35838">
        <ele>97.599998474121</ele>
        <time>2020-10-25T08:38:59.000Z</time>
      </trkpt>
      <trkpt lat="47.29695" lon="-2.35837">
        <ele>97.599998474121</ele>
        <time>2020-10-25T08:39:00.000Z</time>
      </trkpt>
      <trkpt lat="47.29707" lon="-2.35833">
        <ele>97.599998474121</ele>
        <time>2020-10-25T08:39:02.000Z</time>
      </trkpt>
      <trkpt lat="47.29724" lon="-2.35824">
        <ele>97.599998474121</ele>
        <time>2020-10-25T08:39:05.000Z</time>
      </trkpt>
      <trkpt lat="47.29739" lon="-2.35814">
        <ele>97.599998474121</ele>
        <time>2020-10-25T08:39:08.000Z</time>
      </trkpt>
      <trkpt lat="47.29769" lon="-2.35801">
        <ele>98</ele>
        <time>2020-10-25T08:39:14.000Z</time>
      </trkpt>
      <trkpt lat="47.29774" lon="-2.35799">
        <ele>98.400001525879</ele>
        <time>2020-10-25T08:39:15.000Z</time>
      </trkpt>
      <trkpt lat="47.29779" lon="-2.35797">
        <ele>98.800003051758</ele>
        <time>2020-10-25T08:39:16.000Z</time>
      </trkpt>
      <trkpt lat="47.29784" lon="-2.35796">
        <ele>99.400001525879</ele>
        <time>2020-10-25T08:39:17.000Z</time>
      </trkpt>
      <trkpt lat="47.29789" lon="-2.35794">
        <ele>99.800003051758</ele>
        <time>2020-10-25T08:39:18.000Z</time>
      </trkpt>
      <trkpt lat="47.29809" lon="-2.35787">
        <ele>99.800003051758</ele>
        <time>2020-10-25T08:39:22.000Z</time>
      </trkpt>
      <trkpt lat="47.29852" lon="-2.35771">
        <ele>99.800003051758</ele>
        <time>2020-10-25T08:39:29.000Z</time>
      </trkpt>
      <trkpt lat="47.29898" lon="-2.35751">
        <ele>99.800003051758</ele>
        <time>2020-10-25T08:39:36.000Z</time>
      </trkpt>
      <trkpt lat="47.29932" lon="-2.35725">
        <ele>99.800003051758</ele>
        <time>2020-10-25T08:39:42.000Z</time>
      </trkpt>
      <trkpt lat="47.29975" lon="-2.35695">
        <ele>99.800003051758</ele>
        <time>2020-10-25T08:39:50.000Z</time>
      </trkpt>
      <trkpt lat="47.30014" lon="-2.35671">
        <ele>99.800003051758</ele>
        <time>2020-10-25T08:39:57.000Z</time>
      </trkpt>
      <trkpt lat="47.30053" lon="-2.35648">
        <ele>99.800003051758</ele>
        <time>2020-10-25T08:40:04.000Z</time>
      </trkpt>
      <trkpt lat="47.30095" lon="-2.35622">
        <ele>99.800003051758</ele>
        <time>2020-10-25T08:40:12.000Z</time>
      </trkpt>
      <trkpt lat="47.30109" lon="-2.35615">
        <ele>99.800003051758</ele>
        <time>2020-10-25T08:40:15.000Z</time>
      </trkpt>
      <trkpt lat="47.30117" lon="-2.35608">
        <ele>99.800003051758</ele>
        <time>2020-10-25T08:40:17.000Z</time>
      </trkpt>
      <trkpt lat="47.30121" lon="-2.35603">
        <ele>99.800003051758</ele>
        <time>2020-10-25T08:40:18.000Z</time>
      </trkpt>
      <trkpt lat="47.3013" lon="-2.35594">
        <ele>99.800003051758</ele>
        <time>2020-10-25T08:40:20.000Z</time>
      </trkpt>
      <trkpt lat="47.3014" lon="-2.35592">
        <ele>99.800003051758</ele>
        <time>2020-10-25T08:40:22.000Z</time>
      </trkpt>
      <trkpt lat="47.30158" lon="-2.35586">
        <ele>99.800003051758</ele>
        <time>2020-10-25T08:40:25.000Z</time>
      </trkpt>
      <trkpt lat="47.3017" lon="-2.3558">
        <ele>99.800003051758</ele>
        <time>2020-10-25T08:40:27.000Z</time>
      </trkpt>
      <trkpt lat="47.30207" lon="-2.35569">
        <ele>99.800003051758</ele>
        <time>2020-10-25T08:40:33.000Z</time>
      </trkpt>
      <trkpt lat="47.30227" lon="-2.35571">
        <ele>99.800003051758</ele>
        <time>2020-10-25T08:40:36.000Z</time>
      </trkpt>
      <trkpt lat="47.30239" lon="-2.35573">
        <ele>99.800003051758</ele>
        <time>2020-10-25T08:40:38.000Z</time>
      </trkpt>
      <trkpt lat="47.30285" lon="-2.3558">
        <ele>99.800003051758</ele>
        <time>2020-10-25T08:40:45.000Z</time>
      </trkpt>
      <trkpt lat="47.3034" lon="-2.35591">
        <ele>99.800003051758</ele>
        <time>2020-10-25T08:40:53.000Z</time>
      </trkpt>
      <trkpt lat="47.30347" lon="-2.35592">
        <ele>99.800003051758</ele>
        <time>2020-10-25T08:40:54.000Z</time>
      </trkpt>
      <trkpt lat="47.30377" lon="-2.35591">
        <ele>99.800003051758</ele>
        <time>2020-10-25T08:40:59.000Z</time>
      </trkpt>
      <trkpt lat="47.30386" lon="-2.35585">
        <ele>99.800003051758</ele>
        <time>2020-10-25T08:41:02.000Z</time>
      </trkpt>
      <trkpt lat="47.30395" lon="-2.35587">
        <ele>99.800003051758</ele>
        <time>2020-10-25T08:41:05.000Z</time>
      </trkpt>
      <trkpt lat="47.30397" lon="-2.35592">
        <ele>99.800003051758</ele>
        <time>2020-10-25T08:41:06.000Z</time>
      </trkpt>
      <trkpt lat="47.30406" lon="-2.35616">
        <ele>99.800003051758</ele>
        <time>2020-10-25T08:41:10.000Z</time>
      </trkpt>
      <trkpt lat="47.30409" lon="-2.35622">
        <ele>99.800003051758</ele>
        <time>2020-10-25T08:41:11.000Z</time>
      </trkpt>
      <trkpt lat="47.3042" lon="-2.35639">
        <ele>99.800003051758</ele>
        <time>2020-10-25T08:41:14.000Z</time>
      </trkpt>
      <trkpt lat="47.30432" lon="-2.35652">
        <ele>99.800003051758</ele>
        <time>2020-10-25T08:41:17.000Z</time>
      </trkpt>
      <trkpt lat="47.30437" lon="-2.35656">
        <ele>99.800003051758</ele>
        <time>2020-10-25T08:41:18.000Z</time>
      </trkpt>
      <trkpt lat="47.30456" lon="-2.35671">
        <ele>99.800003051758</ele>
        <time>2020-10-25T08:41:22.000Z</time>
      </trkpt>
      <trkpt lat="47.30478" lon="-2.35692">
        <ele>99.800003051758</ele>
        <time>2020-10-25T08:41:27.000Z</time>
      </trkpt>
      <trkpt lat="47.30482" lon="-2.35697">
        <ele>99.800003051758</ele>
        <time>2020-10-25T08:41:28.000Z</time>
      </trkpt>
      <trkpt lat="47.30508" lon="-2.35732">
        <ele>99.800003051758</ele>
        <time>2020-10-25T08:41:35.000Z</time>
      </trkpt>
      <trkpt lat="47.30534" lon="-2.35767">
        <ele>99.800003051758</ele>
        <time>2020-10-25T08:41:41.000Z</time>
      </trkpt>
      <trkpt lat="47.30542" lon="-2.35779">
        <ele>99.800003051758</ele>
        <time>2020-10-25T08:41:43.000Z</time>
      </trkpt>
      <trkpt lat="47.3058" lon="-2.35825">
        <ele>99.800003051758</ele>
        <time>2020-10-25T08:41:51.000Z</time>
      </trkpt>
      <trkpt lat="47.30594" lon="-2.35842">
        <ele>99.800003051758</ele>
        <time>2020-10-25T08:41:54.000Z</time>
      </trkpt>
      <trkpt lat="47.30608" lon="-2.35859">
        <ele>99.800003051758</ele>
        <time>2020-10-25T08:41:57.000Z</time>
      </trkpt>
      <trkpt lat="47.30612" lon="-2.35864">
        <ele>100.19999694824</ele>
        <time>2020-10-25T08:41:58.000Z</time>
      </trkpt>
      <trkpt lat="47.30617" lon="-2.35869">
        <ele>100.59999847412</ele>
        <time>2020-10-25T08:41:59.000Z</time>
      </trkpt>
      <trkpt lat="47.30622" lon="-2.35873">
        <ele>101</ele>
        <time>2020-10-25T08:42:00.000Z</time>
      </trkpt>
      <trkpt lat="47.30626" lon="-2.35878">
        <ele>101.40000152588</ele>
        <time>2020-10-25T08:42:01.000Z</time>
      </trkpt>
      <trkpt lat="47.3063" lon="-2.35883">
        <ele>101.80000305176</ele>
        <time>2020-10-25T08:42:02.000Z</time>
      </trkpt>
      <trkpt lat="47.30634" lon="-2.35887">
        <ele>101.80000305176</ele>
        <time>2020-10-25T08:42:03.000Z</time>
      </trkpt>
      <trkpt lat="47.30672" lon="-2.3593">
        <ele>101.80000305176</ele>
        <time>2020-10-25T08:42:12.000Z</time>
      </trkpt>
      <trkpt lat="47.30699" lon="-2.35968">
        <ele>101.80000305176</ele>
        <time>2020-10-25T08:42:19.000Z</time>
      </trkpt>
      <trkpt lat="47.30735" lon="-2.36014">
        <ele>101.80000305176</ele>
        <time>2020-10-25T08:42:28.000Z</time>
      </trkpt>
      <trkpt lat="47.30777" lon="-2.36066">
        <ele>101.80000305176</ele>
        <time>2020-10-25T08:42:38.000Z</time>
      </trkpt>
      <trkpt lat="47.30812" lon="-2.36109">
        <ele>101.80000305176</ele>
        <time>2020-10-25T08:42:46.000Z</time>
      </trkpt>
      <trkpt lat="47.30851" lon="-2.3616">
        <ele>101.80000305176</ele>
        <time>2020-10-25T08:42:55.000Z</time>
      </trkpt>
      <trkpt lat="47.3086" lon="-2.36173">
        <ele>101.80000305176</ele>
        <time>2020-10-25T08:42:57.000Z</time>
      </trkpt>
      <trkpt lat="47.30874" lon="-2.362">
        <ele>101.80000305176</ele>
        <time>2020-10-25T08:43:01.000Z</time>
      </trkpt>
      <trkpt lat="47.309" lon="-2.36255">
        <ele>101.80000305176</ele>
        <time>2020-10-25T08:43:10.000Z</time>
      </trkpt>
      <trkpt lat="47.30913" lon="-2.36263">
        <ele>101.80000305176</ele>
        <time>2020-10-25T08:43:13.000Z</time>
      </trkpt>
      <trkpt lat="47.30917" lon="-2.36262">
        <ele>101.80000305176</ele>
        <time>2020-10-25T08:43:14.000Z</time>
      </trkpt>
      <trkpt lat="47.30929" lon="-2.36249">
        <ele>101.80000305176</ele>
        <time>2020-10-25T08:43:17.000Z</time>
      </trkpt>
      <trkpt lat="47.30955" lon="-2.36208">
        <ele>101.80000305176</ele>
        <time>2020-10-25T08:43:24.000Z</time>
      </trkpt>
      <trkpt lat="47.30982" lon="-2.36164">
        <ele>101.80000305176</ele>
        <time>2020-10-25T08:43:31.000Z</time>
      </trkpt>
      <trkpt lat="47.30986" lon="-2.36157">
        <ele>101.40000152588</ele>
        <time>2020-10-25T08:43:32.000Z</time>
      </trkpt>
      <trkpt lat="47.3099" lon="-2.3615">
        <ele>101</ele>
        <time>2020-10-25T08:43:33.000Z</time>
      </trkpt>
      <trkpt lat="47.30993" lon="-2.36143">
        <ele>100.59999847412</ele>
        <time>2020-10-25T08:43:34.000Z</time>
      </trkpt>
      <trkpt lat="47.30997" lon="-2.36136">
        <ele>100.19999694824</ele>
        <time>2020-10-25T08:43:35.000Z</time>
      </trkpt>
      <trkpt lat="47.31" lon="-2.36129">
        <ele>99.800003051758</ele>
        <time>2020-10-25T08:43:36.000Z</time>
      </trkpt>
      <trkpt lat="47.31006" lon="-2.36113">
        <ele>99.800003051758</ele>
        <time>2020-10-25T08:43:38.000Z</time>
      </trkpt>
      <trkpt lat="47.31017" lon="-2.36086">
        <ele>99.800003051758</ele>
        <time>2020-10-25T08:43:42.000Z</time>
      </trkpt>
      <trkpt lat="47.31021" lon="-2.36083">
        <ele>99.800003051758</ele>
        <time>2020-10-25T08:43:43.000Z</time>
      </trkpt>
      <trkpt lat="47.31033" lon="-2.36092">
        <ele>99.800003051758</ele>
        <time>2020-10-25T08:43:46.000Z</time>
      </trkpt>
      <trkpt lat="47.31039" lon="-2.36106">
        <ele>99.800003051758</ele>
        <time>2020-10-25T08:43:48.000Z</time>
      </trkpt>
      <trkpt lat="47.31048" lon="-2.3613">
        <ele>99.800003051758</ele>
        <time>2020-10-25T08:43:51.000Z</time>
      </trkpt>
      <trkpt lat="47.31059" lon="-2.36172">
        <ele>99.800003051758</ele>
        <time>2020-10-25T08:43:56.000Z</time>
      </trkpt>
      <trkpt lat="47.3106" lon="-2.3618">
        <ele>99.800003051758</ele>
        <time>2020-10-25T08:43:57.000Z</time>
      </trkpt>
      <trkpt lat="47.31063" lon="-2.36238">
        <ele>99.800003051758</ele>
        <time>2020-10-25T08:44:04.000Z</time>
      </trkpt>
      <trkpt lat="47.31069" lon="-2.36309">
        <ele>99.800003051758</ele>
        <time>2020-10-25T08:44:13.000Z</time>
      </trkpt>
      <trkpt lat="47.31079" lon="-2.3636">
        <ele>99.800003051758</ele>
        <time>2020-10-25T08:44:20.000Z</time>
      </trkpt>
      <trkpt lat="47.31091" lon="-2.36417">
        <ele>99.800003051758</ele>
        <time>2020-10-25T08:44:27.000Z</time>
      </trkpt>
      <trkpt lat="47.31097" lon="-2.3647">
        <ele>99.800003051758</ele>
        <time>2020-10-25T08:44:33.000Z</time>
      </trkpt>
      <trkpt lat="47.31104" lon="-2.36533">
        <ele>99.800003051758</ele>
        <time>2020-10-25T08:44:40.000Z</time>
      </trkpt>
      <trkpt lat="47.31114" lon="-2.36581">
        <ele>99.800003051758</ele>
        <time>2020-10-25T08:44:45.000Z</time>
      </trkpt>
      <trkpt lat="47.31117" lon="-2.3659">
        <ele>99.400001525879</ele>
        <time>2020-10-25T08:44:46.000Z</time>
      </trkpt>
      <trkpt lat="47.3112" lon="-2.366">
        <ele>99</ele>
        <time>2020-10-25T08:44:47.000Z</time>
      </trkpt>
      <trkpt lat="47.31123" lon="-2.36609">
        <ele>98.599998474121</ele>
        <time>2020-10-25T08:44:48.000Z</time>
      </trkpt>
      <trkpt lat="47.31125" lon="-2.36619">
        <ele>98.199996948242</ele>
        <time>2020-10-25T08:44:49.000Z</time>
      </trkpt>
      <trkpt lat="47.31127" lon="-2.36628">
        <ele>97.599998474121</ele>
        <time>2020-10-25T08:44:50.000Z</time>
      </trkpt>
      <trkpt lat="47.3113" lon="-2.36639">
        <ele>97.599998474121</ele>
        <time>2020-10-25T08:44:51.000Z</time>
      </trkpt>
      <trkpt lat="47.31136" lon="-2.36684">
        <ele>97.599998474121</ele>
        <time>2020-10-25T08:44:56.000Z</time>
      </trkpt>
      <trkpt lat="47.31137" lon="-2.36753">
        <ele>97.599998474121</ele>
        <time>2020-10-25T08:45:04.000Z</time>
      </trkpt>
      <trkpt lat="47.31128" lon="-2.36817">
        <ele>97.599998474121</ele>
        <time>2020-10-25T08:45:12.000Z</time>
      </trkpt>
      <trkpt lat="47.31121" lon="-2.36868">
        <ele>97.599998474121</ele>
        <time>2020-10-25T08:45:19.000Z</time>
      </trkpt>
      <trkpt lat="47.31119" lon="-2.36888">
        <ele>98.199996948242</ele>
        <time>2020-10-25T08:45:22.000Z</time>
      </trkpt>
      <trkpt lat="47.31119" lon="-2.36895">
        <ele>98.599998474121</ele>
        <time>2020-10-25T08:45:23.000Z</time>
      </trkpt>
      <trkpt lat="47.31118" lon="-2.36901">
        <ele>99</ele>
        <time>2020-10-25T08:45:24.000Z</time>
      </trkpt>
      <trkpt lat="47.31117" lon="-2.36908">
        <ele>99.599998474121</ele>
        <time>2020-10-25T08:45:25.000Z</time>
      </trkpt>
      <trkpt lat="47.31117" lon="-2.36914">
        <ele>100</ele>
        <time>2020-10-25T08:45:26.000Z</time>
      </trkpt>
      <trkpt lat="47.31116" lon="-2.3692">
        <ele>100</ele>
        <time>2020-10-25T08:45:27.000Z</time>
      </trkpt>
      <trkpt lat="47.31113" lon="-2.36951">
        <ele>100</ele>
        <time>2020-10-25T08:45:32.000Z</time>
      </trkpt>
      <trkpt lat="47.31106" lon="-2.36981">
        <ele>100</ele>
        <time>2020-10-25T08:45:37.000Z</time>
      </trkpt>
      <trkpt lat="47.31104" lon="-2.36987">
        <ele>100</ele>
        <time>2020-10-25T08:45:38.000Z</time>
      </trkpt>
      <trkpt lat="47.31099" lon="-2.36997">
        <ele>100</ele>
        <time>2020-10-25T08:45:40.000Z</time>
      </trkpt>
      <trkpt lat="47.31087" lon="-2.37017">
        <ele>100.40000152588</ele>
        <time>2020-10-25T08:45:44.000Z</time>
      </trkpt>
      <trkpt lat="47.31083" lon="-2.37021">
        <ele>100.80000305176</ele>
        <time>2020-10-25T08:45:45.000Z</time>
      </trkpt>
      <trkpt lat="47.3108" lon="-2.37026">
        <ele>101.19999694824</ele>
        <time>2020-10-25T08:45:46.000Z</time>
      </trkpt>
      <trkpt lat="47.31077" lon="-2.3703">
        <ele>101.59999847412</ele>
        <time>2020-10-25T08:45:47.000Z</time>
      </trkpt>
      <trkpt lat="47.31073" lon="-2.37035">
        <ele>102</ele>
        <time>2020-10-25T08:45:48.000Z</time>
      </trkpt>
      <trkpt lat="47.31058" lon="-2.37056">
        <ele>102</ele>
        <time>2020-10-25T08:45:53.000Z</time>
      </trkpt>
      <trkpt lat="47.31055" lon="-2.3706">
        <ele>102.40000152588</ele>
        <time>2020-10-25T08:45:54.000Z</time>
      </trkpt>
      <trkpt lat="47.31052" lon="-2.37064">
        <ele>103</ele>
        <time>2020-10-25T08:45:55.000Z</time>
      </trkpt>
      <trkpt lat="47.31049" lon="-2.37068">
        <ele>103.40000152588</ele>
        <time>2020-10-25T08:45:56.000Z</time>
      </trkpt>
      <trkpt lat="47.31046" lon="-2.37072">
        <ele>103.80000305176</ele>
        <time>2020-10-25T08:45:57.000Z</time>
      </trkpt>
      <trkpt lat="47.31043" lon="-2.37077">
        <ele>104.19999694824</ele>
        <time>2020-10-25T08:45:58.000Z</time>
      </trkpt>
      <trkpt lat="47.31037" lon="-2.37086">
        <ele>104.19999694824</ele>
        <time>2020-10-25T08:46:00.000Z</time>
      </trkpt>
      <trkpt lat="47.31017" lon="-2.37122">
        <ele>104.19999694824</ele>
        <time>2020-10-25T08:46:07.000Z</time>
      </trkpt>
      <trkpt lat="47.31007" lon="-2.37141">
        <ele>104.59999847412</ele>
        <time>2020-10-25T08:46:11.000Z</time>
      </trkpt>
      <trkpt lat="47.31005" lon="-2.37146">
        <ele>105</ele>
        <time>2020-10-25T08:46:12.000Z</time>
      </trkpt>
      <trkpt lat="47.31003" lon="-2.3715">
        <ele>105.40000152588</ele>
        <time>2020-10-25T08:46:13.000Z</time>
      </trkpt>
      <trkpt lat="47.31001" lon="-2.37155">
        <ele>105.80000305176</ele>
        <time>2020-10-25T08:46:14.000Z</time>
      </trkpt>
      <trkpt lat="47.30999" lon="-2.3716">
        <ele>106.19999694824</ele>
        <time>2020-10-25T08:46:15.000Z</time>
      </trkpt>
      <trkpt lat="47.30992" lon="-2.37175">
        <ele>106.80000305176</ele>
        <time>2020-10-25T08:46:18.000Z</time>
      </trkpt>
      <trkpt lat="47.3099" lon="-2.37181">
        <ele>107.59999847412</ele>
        <time>2020-10-25T08:46:19.000Z</time>
      </trkpt>
      <trkpt lat="47.30988" lon="-2.37187">
        <ele>108</ele>
        <time>2020-10-25T08:46:20.000Z</time>
      </trkpt>
      <trkpt lat="47.30985" lon="-2.37192">
        <ele>108.40000152588</ele>
        <time>2020-10-25T08:46:21.000Z</time>
      </trkpt>
      <trkpt lat="47.30981" lon="-2.37203">
        <ele>109</ele>
        <time>2020-10-25T08:46:23.000Z</time>
      </trkpt>
      <trkpt lat="47.30979" lon="-2.37209">
        <ele>109.40000152588</ele>
        <time>2020-10-25T08:46:24.000Z</time>
      </trkpt>
      <trkpt lat="47.30977" lon="-2.37214">
        <ele>110</ele>
        <time>2020-10-25T08:46:25.000Z</time>
      </trkpt>
      <trkpt lat="47.30974" lon="-2.37219">
        <ele>110.40000152588</ele>
        <time>2020-10-25T08:46:26.000Z</time>
      </trkpt>
      <trkpt lat="47.30972" lon="-2.37225">
        <ele>111</ele>
        <time>2020-10-25T08:46:27.000Z</time>
      </trkpt>
      <trkpt lat="47.3096" lon="-2.37253">
        <ele>111</ele>
        <time>2020-10-25T08:46:32.000Z</time>
      </trkpt>
      <trkpt lat="47.30953" lon="-2.37263">
        <ele>111</ele>
        <time>2020-10-25T08:46:34.000Z</time>
      </trkpt>
      <trkpt lat="47.30945" lon="-2.37271">
        <ele>111.40000152588</ele>
        <time>2020-10-25T08:46:36.000Z</time>
      </trkpt>
      <trkpt lat="47.30941" lon="-2.37275">
        <ele>111.80000305176</ele>
        <time>2020-10-25T08:46:37.000Z</time>
      </trkpt>
      <trkpt lat="47.30937" lon="-2.37278">
        <ele>112.19999694824</ele>
        <time>2020-10-25T08:46:38.000Z</time>
      </trkpt>
      <trkpt lat="47.30932" lon="-2.3728">
        <ele>112.59999847412</ele>
        <time>2020-10-25T08:46:39.000Z</time>
      </trkpt>
      <trkpt lat="47.30923" lon="-2.37285">
        <ele>113</ele>
        <time>2020-10-25T08:46:40.000Z</time>
      </trkpt>
      <trkpt lat="47.30923" lon="-2.37285">
        <ele>113</ele>
        <time>2020-10-25T08:46:41.000Z</time>
      </trkpt>
      <trkpt lat="47.30892" lon="-2.37304">
        <ele>113</ele>
        <time>2020-10-25T08:46:48.000Z</time>
      </trkpt>
      <trkpt lat="47.30856" lon="-2.37332">
        <ele>113</ele>
        <time>2020-10-25T08:46:56.000Z</time>
      </trkpt>
      <trkpt lat="47.30826" lon="-2.37362">
        <ele>113</ele>
        <time>2020-10-25T08:47:03.000Z</time>
      </trkpt>
      <trkpt lat="47.30816" lon="-2.3739">
        <ele>113</ele>
        <time>2020-10-25T08:47:07.000Z</time>
      </trkpt>
      <trkpt lat="47.30814" lon="-2.37398">
        <ele>113</ele>
        <time>2020-10-25T08:47:08.000Z</time>
      </trkpt>
      <trkpt lat="47.30806" lon="-2.37437">
        <ele>113</ele>
        <time>2020-10-25T08:47:13.000Z</time>
      </trkpt>
      <trkpt lat="47.30803" lon="-2.37444">
        <ele>113</ele>
        <time>2020-10-25T08:47:14.000Z</time>
      </trkpt>
      <trkpt lat="47.30795" lon="-2.37456">
        <ele>112.59999847412</ele>
        <time>2020-10-25T08:47:16.000Z</time>
      </trkpt>
      <trkpt lat="47.30791" lon="-2.37461">
        <ele>112.19999694824</ele>
        <time>2020-10-25T08:47:17.000Z</time>
      </trkpt>
      <trkpt lat="47.30786" lon="-2.37465">
        <ele>111.80000305176</ele>
        <time>2020-10-25T08:47:18.000Z</time>
      </trkpt>
      <trkpt lat="47.30781" lon="-2.37469">
        <ele>111.40000152588</ele>
        <time>2020-10-25T08:47:19.000Z</time>
      </trkpt>
      <trkpt lat="47.30776" lon="-2.37474">
        <ele>110.80000305176</ele>
        <time>2020-10-25T08:47:20.000Z</time>
      </trkpt>
      <trkpt lat="47.30742" lon="-2.37507">
        <ele>110.80000305176</ele>
        <time>2020-10-25T08:47:27.000Z</time>
      </trkpt>
      <trkpt lat="47.30734" lon="-2.37519">
        <ele>110.80000305176</ele>
        <time>2020-10-25T08:47:29.000Z</time>
      </trkpt>
      <trkpt lat="47.30725" lon="-2.3754">
        <ele>110.80000305176</ele>
        <time>2020-10-25T08:47:32.000Z</time>
      </trkpt>
      <trkpt lat="47.30722" lon="-2.37555">
        <ele>110.80000305176</ele>
        <time>2020-10-25T08:47:34.000Z</time>
      </trkpt>
      <trkpt lat="47.30716" lon="-2.37584">
        <ele>110.80000305176</ele>
        <time>2020-10-25T08:47:38.000Z</time>
      </trkpt>
      <trkpt lat="47.30705" lon="-2.37638">
        <ele>110.80000305176</ele>
        <time>2020-10-25T08:47:45.000Z</time>
      </trkpt>
      <trkpt lat="47.30698" lon="-2.377">
        <ele>110.80000305176</ele>
        <time>2020-10-25T08:47:53.000Z</time>
      </trkpt>
      <trkpt lat="47.30694" lon="-2.37765">
        <ele>110.80000305176</ele>
        <time>2020-10-25T08:48:01.000Z</time>
      </trkpt>
      <trkpt lat="47.30689" lon="-2.37814">
        <ele>110.80000305176</ele>
        <time>2020-10-25T08:48:07.000Z</time>
      </trkpt>
      <trkpt lat="47.30687" lon="-2.37821">
        <ele>110.80000305176</ele>
        <time>2020-10-25T08:48:08.000Z</time>
      </trkpt>
      <trkpt lat="47.30672" lon="-2.37847">
        <ele>110.80000305176</ele>
        <time>2020-10-25T08:48:12.000Z</time>
      </trkpt>
      <trkpt lat="47.30667" lon="-2.37853">
        <ele>110.80000305176</ele>
        <time>2020-10-25T08:48:13.000Z</time>
      </trkpt>
      <trkpt lat="47.30632" lon="-2.37898">
        <ele>110.80000305176</ele>
        <time>2020-10-25T08:48:21.000Z</time>
      </trkpt>
      <trkpt lat="47.30599" lon="-2.37938">
        <ele>110.40000152588</ele>
        <time>2020-10-25T08:48:29.000Z</time>
      </trkpt>
      <trkpt lat="47.30595" lon="-2.37944">
        <ele>110</ele>
        <time>2020-10-25T08:48:30.000Z</time>
      </trkpt>
      <trkpt lat="47.30591" lon="-2.37951">
        <ele>109.59999847412</ele>
        <time>2020-10-25T08:48:31.000Z</time>
      </trkpt>
      <trkpt lat="47.30588" lon="-2.3796">
        <ele>109.19999694824</ele>
        <time>2020-10-25T08:48:32.000Z</time>
      </trkpt>
      <trkpt lat="47.30586" lon="-2.37969">
        <ele>108.80000305176</ele>
        <time>2020-10-25T08:48:33.000Z</time>
      </trkpt>
      <trkpt lat="47.30584" lon="-2.38006">
        <ele>108.80000305176</ele>
        <time>2020-10-25T08:48:35.000Z</time>
      </trkpt>
      <trkpt lat="47.30584" lon="-2.38015">
        <ele>108.80000305176</ele>
        <time>2020-10-25T08:48:39.000Z</time>
      </trkpt>
      <trkpt lat="47.30585" lon="-2.38024">
        <ele>108.80000305176</ele>
        <time>2020-10-25T08:48:40.000Z</time>
      </trkpt>
      <trkpt lat="47.30592" lon="-2.38049">
        <ele>108.80000305176</ele>
        <time>2020-10-25T08:48:43.000Z</time>
      </trkpt>
      <trkpt lat="47.30611" lon="-2.38116">
        <ele>108.80000305176</ele>
        <time>2020-10-25T08:48:51.000Z</time>
      </trkpt>
      <trkpt lat="47.30626" lon="-2.38171">
        <ele>108.80000305176</ele>
        <time>2020-10-25T08:48:58.000Z</time>
      </trkpt>
      <trkpt lat="47.3064" lon="-2.38226">
        <ele>108.80000305176</ele>
        <time>2020-10-25T08:49:05.000Z</time>
      </trkpt>
      <trkpt lat="47.30654" lon="-2.38281">
        <ele>108.80000305176</ele>
        <time>2020-10-25T08:49:12.000Z</time>
      </trkpt>
      <trkpt lat="47.30667" lon="-2.38336">
        <ele>108.80000305176</ele>
        <time>2020-10-25T08:49:19.000Z</time>
      </trkpt>
      <trkpt lat="47.30678" lon="-2.38384">
        <ele>109.19999694824</ele>
        <time>2020-10-25T08:49:25.000Z</time>
      </trkpt>
      <trkpt lat="47.3068" lon="-2.38392">
        <ele>109.80000305176</ele>
        <time>2020-10-25T08:49:26.000Z</time>
      </trkpt>
      <trkpt lat="47.30682" lon="-2.384">
        <ele>110.19999694824</ele>
        <time>2020-10-25T08:49:27.000Z</time>
      </trkpt>
      <trkpt lat="47.30683" lon="-2.38408">
        <ele>110.59999847412</ele>
        <time>2020-10-25T08:49:28.000Z</time>
      </trkpt>
      <trkpt lat="47.30685" lon="-2.38415">
        <ele>111</ele>
        <time>2020-10-25T08:49:29.000Z</time>
      </trkpt>
      <trkpt lat="47.30703" lon="-2.38481">
        <ele>111</ele>
        <time>2020-10-25T08:49:37.000Z</time>
      </trkpt>
      <trkpt lat="47.30728" lon="-2.38555">
        <ele>111</ele>
        <time>2020-10-25T08:49:46.000Z</time>
      </trkpt>
      <trkpt lat="47.30749" lon="-2.3863">
        <ele>111</ele>
        <time>2020-10-25T08:49:55.000Z</time>
      </trkpt>
      <trkpt lat="47.30767" lon="-2.38684">
        <ele>111</ele>
        <time>2020-10-25T08:50:02.000Z</time>
      </trkpt>
      <trkpt lat="47.30788" lon="-2.38745">
        <ele>111</ele>
        <time>2020-10-25T08:50:10.000Z</time>
      </trkpt>
      <trkpt lat="47.30791" lon="-2.38751">
        <ele>111</ele>
        <time>2020-10-25T08:50:11.000Z</time>
      </trkpt>
      <trkpt lat="47.30799" lon="-2.38761">
        <ele>111</ele>
        <time>2020-10-25T08:50:13.000Z</time>
      </trkpt>
      <trkpt lat="47.30807" lon="-2.3877">
        <ele>111</ele>
        <time>2020-10-25T08:50:15.000Z</time>
      </trkpt>
      <trkpt lat="47.30817" lon="-2.38777">
        <ele>110.59999847412</ele>
        <time>2020-10-25T08:50:17.000Z</time>
      </trkpt>
      <trkpt lat="47.30822" lon="-2.3878">
        <ele>110</ele>
        <time>2020-10-25T08:50:18.000Z</time>
      </trkpt>
      <trkpt lat="47.30828" lon="-2.38782">
        <ele>109.59999847412</ele>
        <time>2020-10-25T08:50:19.000Z</time>
      </trkpt>
      <trkpt lat="47.30834" lon="-2.38783">
        <ele>109.19999694824</ele>
        <time>2020-10-25T08:50:20.000Z</time>
      </trkpt>
      <trkpt lat="47.3084" lon="-2.38784">
        <ele>108.80000305176</ele>
        <time>2020-10-25T08:50:21.000Z</time>
      </trkpt>
      <trkpt lat="47.30872" lon="-2.38798">
        <ele>108.80000305176</ele>
        <time>2020-10-25T08:50:26.000Z</time>
      </trkpt>
      <trkpt lat="47.30886" lon="-2.3882">
        <ele>108.80000305176</ele>
        <time>2020-10-25T08:50:29.000Z</time>
      </trkpt>
      <trkpt lat="47.30893" lon="-2.38836">
        <ele>108.40000152588</ele>
        <time>2020-10-25T08:50:31.000Z</time>
      </trkpt>
      <trkpt lat="47.30896" lon="-2.38844">
        <ele>108</ele>
        <time>2020-10-25T08:50:32.000Z</time>
      </trkpt>
      <trkpt lat="47.30899" lon="-2.38851">
        <ele>107.59999847412</ele>
        <time>2020-10-25T08:50:33.000Z</time>
      </trkpt>
      <trkpt lat="47.309" lon="-2.3886">
        <ele>107.19999694824</ele>
        <time>2020-10-25T08:50:34.000Z</time>
      </trkpt>
      <trkpt lat="47.309" lon="-2.38867">
        <ele>106.80000305176</ele>
        <time>2020-10-25T08:50:35.000Z</time>
      </trkpt>
      <trkpt lat="47.30898" lon="-2.38875">
        <ele>106.80000305176</ele>
        <time>2020-10-25T08:50:36.000Z</time>
      </trkpt>
      <trkpt lat="47.30886" lon="-2.38887">
        <ele>106.80000305176</ele>
        <time>2020-10-25T08:50:39.000Z</time>
      </trkpt>
      <trkpt lat="47.30874" lon="-2.38888">
        <ele>106.80000305176</ele>
        <time>2020-10-25T08:50:41.000Z</time>
      </trkpt>
      <trkpt lat="47.30861" lon="-2.3889">
        <ele>106.80000305176</ele>
        <time>2020-10-25T08:50:43.000Z</time>
      </trkpt>
      <trkpt lat="47.30835" lon="-2.38906">
        <ele>106.40000152588</ele>
        <time>2020-10-25T08:50:47.000Z</time>
      </trkpt>
      <trkpt lat="47.30828" lon="-2.38911">
        <ele>106</ele>
        <time>2020-10-25T08:50:48.000Z</time>
      </trkpt>
      <trkpt lat="47.3082" lon="-2.38917">
        <ele>105.40000152588</ele>
        <time>2020-10-25T08:50:49.000Z</time>
      </trkpt>
      <trkpt lat="47.30813" lon="-2.38923">
        <ele>105</ele>
        <time>2020-10-25T08:50:50.000Z</time>
      </trkpt>
      <trkpt lat="47.30806" lon="-2.38929">
        <ele>104.40000152588</ele>
        <time>2020-10-25T08:50:51.000Z</time>
      </trkpt>
      <trkpt lat="47.30798" lon="-2.38934">
        <ele>103.40000152588</ele>
        <time>2020-10-25T08:50:52.000Z</time>
      </trkpt>
      <trkpt lat="47.30792" lon="-2.3894">
        <ele>102.80000305176</ele>
        <time>2020-10-25T08:50:53.000Z</time>
      </trkpt>
      <trkpt lat="47.30786" lon="-2.38945">
        <ele>102.40000152588</ele>
        <time>2020-10-25T08:50:54.000Z</time>
      </trkpt>
      <trkpt lat="47.30766" lon="-2.38962">
        <ele>102.40000152588</ele>
        <time>2020-10-25T08:50:58.000Z</time>
      </trkpt>
      <trkpt lat="47.30756" lon="-2.38975">
        <ele>102.40000152588</ele>
        <time>2020-10-25T08:51:02.000Z</time>
      </trkpt>
      <trkpt lat="47.30745" lon="-2.39004">
        <ele>102.40000152588</ele>
        <time>2020-10-25T08:51:08.000Z</time>
      </trkpt>
      <trkpt lat="47.30741" lon="-2.39015">
        <ele>102.80000305176</ele>
        <time>2020-10-25T08:51:10.000Z</time>
      </trkpt>
      <trkpt lat="47.30741" lon="-2.39022">
        <ele>103.19999694824</ele>
        <time>2020-10-25T08:51:11.000Z</time>
      </trkpt>
      <trkpt lat="47.30741" lon="-2.39029">
        <ele>103.59999847412</ele>
        <time>2020-10-25T08:51:12.000Z</time>
      </trkpt>
      <trkpt lat="47.3074" lon="-2.39036">
        <ele>104</ele>
        <time>2020-10-25T08:51:13.000Z</time>
      </trkpt>
      <trkpt lat="47.30736" lon="-2.39043">
        <ele>104.40000152588</ele>
        <time>2020-10-25T08:51:14.000Z</time>
      </trkpt>
      <trkpt lat="47.30732" lon="-2.39049">
        <ele>104.40000152588</ele>
        <time>2020-10-25T08:51:15.000Z</time>
      </trkpt>
      <trkpt lat="47.30714" lon="-2.3906">
        <ele>104.40000152588</ele>
        <time>2020-10-25T08:51:18.000Z</time>
      </trkpt>
      <trkpt lat="47.30694" lon="-2.3907">
        <ele>104.40000152588</ele>
        <time>2020-10-25T08:51:21.000Z</time>
      </trkpt>
      <trkpt lat="47.30681" lon="-2.39078">
        <ele>104.40000152588</ele>
        <time>2020-10-25T08:51:23.000Z</time>
      </trkpt>
      <trkpt lat="47.30648" lon="-2.39097">
        <ele>104</ele>
        <time>2020-10-25T08:51:28.000Z</time>
      </trkpt>
      <trkpt lat="47.30642" lon="-2.39101">
        <ele>103.59999847412</ele>
        <time>2020-10-25T08:51:29.000Z</time>
      </trkpt>
      <trkpt lat="47.30635" lon="-2.39106">
        <ele>103.19999694824</ele>
        <time>2020-10-25T08:51:30.000Z</time>
      </trkpt>
      <trkpt lat="47.30628" lon="-2.39111">
        <ele>102.80000305176</ele>
        <time>2020-10-25T08:51:31.000Z</time>
      </trkpt>
      <trkpt lat="47.30621" lon="-2.39115">
        <ele>102.40000152588</ele>
        <time>2020-10-25T08:51:32.000Z</time>
      </trkpt>
      <trkpt lat="47.30593" lon="-2.39133">
        <ele>102.40000152588</ele>
        <time>2020-10-25T08:51:36.000Z</time>
      </trkpt>
      <trkpt lat="47.30565" lon="-2.39151">
        <ele>102</ele>
        <time>2020-10-25T08:51:40.000Z</time>
      </trkpt>
      <trkpt lat="47.30558" lon="-2.39156">
        <ele>101</ele>
        <time>2020-10-25T08:51:41.000Z</time>
      </trkpt>
      <trkpt lat="47.30551" lon="-2.39161">
        <ele>100.59999847412</ele>
        <time>2020-10-25T08:51:42.000Z</time>
      </trkpt>
      <trkpt lat="47.30544" lon="-2.39166">
        <ele>100.19999694824</ele>
        <time>2020-10-25T08:51:43.000Z</time>
      </trkpt>
      <trkpt lat="47.30531" lon="-2.39174">
        <ele>99.800003051758</ele>
        <time>2020-10-25T08:51:45.000Z</time>
      </trkpt>
      <trkpt lat="47.30524" lon="-2.39179">
        <ele>99.400001525879</ele>
        <time>2020-10-25T08:51:46.000Z</time>
      </trkpt>
      <trkpt lat="47.30517" lon="-2.39183">
        <ele>99</ele>
        <time>2020-10-25T08:51:47.000Z</time>
      </trkpt>
      <trkpt lat="47.30509" lon="-2.39188">
        <ele>98.599998474121</ele>
        <time>2020-10-25T08:51:48.000Z</time>
      </trkpt>
      <trkpt lat="47.30502" lon="-2.39192">
        <ele>98.199996948242</ele>
        <time>2020-10-25T08:51:49.000Z</time>
      </trkpt>
      <trkpt lat="47.30467" lon="-2.39215">
        <ele>98.199996948242</ele>
        <time>2020-10-25T08:51:54.000Z</time>
      </trkpt>
      <trkpt lat="47.30445" lon="-2.39228">
        <ele>97.599998474121</ele>
        <time>2020-10-25T08:51:57.000Z</time>
      </trkpt>
      <trkpt lat="47.30437" lon="-2.39231">
        <ele>97.199996948242</ele>
        <time>2020-10-25T08:51:58.000Z</time>
      </trkpt>
      <trkpt lat="47.3043" lon="-2.39235">
        <ele>96.800003051758</ele>
        <time>2020-10-25T08:51:59.000Z</time>
      </trkpt>
      <trkpt lat="47.30423" lon="-2.39239">
        <ele>96.400001525879</ele>
        <time>2020-10-25T08:52:00.000Z</time>
      </trkpt>
      <trkpt lat="47.30416" lon="-2.39242">
        <ele>96</ele>
        <time>2020-10-25T08:52:01.000Z</time>
      </trkpt>
      <trkpt lat="47.30401" lon="-2.3925">
        <ele>96</ele>
        <time>2020-10-25T08:52:03.000Z</time>
      </trkpt>
      <trkpt lat="47.30385" lon="-2.39259">
        <ele>95.599998474121</ele>
        <time>2020-10-25T08:52:05.000Z</time>
      </trkpt>
      <trkpt lat="47.30378" lon="-2.39265">
        <ele>94.599998474121</ele>
        <time>2020-10-25T08:52:06.000Z</time>
      </trkpt>
      <trkpt lat="47.30371" lon="-2.39272">
        <ele>94</ele>
        <time>2020-10-25T08:52:07.000Z</time>
      </trkpt>
      <trkpt lat="47.30364" lon="-2.39279">
        <ele>93.599998474121</ele>
        <time>2020-10-25T08:52:08.000Z</time>
      </trkpt>
      <trkpt lat="47.30329" lon="-2.39327">
        <ele>93.599998474121</ele>
        <time>2020-10-25T08:52:14.000Z</time>
      </trkpt>
      <trkpt lat="47.30323" lon="-2.39337">
        <ele>93.199996948242</ele>
        <time>2020-10-25T08:52:15.000Z</time>
      </trkpt>
      <trkpt lat="47.30318" lon="-2.39347">
        <ele>92.599998474121</ele>
        <time>2020-10-25T08:52:16.000Z</time>
      </trkpt>
      <trkpt lat="47.30312" lon="-2.39356">
        <ele>92</ele>
        <time>2020-10-25T08:52:17.000Z</time>
      </trkpt>
      <trkpt lat="47.30305" lon="-2.39366">
        <ele>91.400001525879</ele>
        <time>2020-10-25T08:52:18.000Z</time>
      </trkpt>
      <trkpt lat="47.30298" lon="-2.39374">
        <ele>90.599998474121</ele>
        <time>2020-10-25T08:52:19.000Z</time>
      </trkpt>
      <trkpt lat="47.3029" lon="-2.39382">
        <ele>90</ele>
        <time>2020-10-25T08:52:20.000Z</time>
      </trkpt>
      <trkpt lat="47.30282" lon="-2.39388">
        <ele>89.400001525879</ele>
        <time>2020-10-25T08:52:21.000Z</time>
      </trkpt>
      <trkpt lat="47.30274" lon="-2.39394">
        <ele>89</ele>
        <time>2020-10-25T08:52:22.000Z</time>
      </trkpt>
      <trkpt lat="47.30266" lon="-2.394">
        <ele>88.400001525879</ele>
        <time>2020-10-25T08:52:23.000Z</time>
      </trkpt>
      <trkpt lat="47.30258" lon="-2.39405">
        <ele>87.800003051758</ele>
        <time>2020-10-25T08:52:24.000Z</time>
      </trkpt>
      <trkpt lat="47.30249" lon="-2.3941">
        <ele>87.199996948242</ele>
        <time>2020-10-25T08:52:25.000Z</time>
      </trkpt>
      <trkpt lat="47.3024" lon="-2.39415">
        <ele>86.400001525879</ele>
        <time>2020-10-25T08:52:26.000Z</time>
      </trkpt>
      <trkpt lat="47.30232" lon="-2.39419">
        <ele>85.800003051758</ele>
        <time>2020-10-25T08:52:27.000Z</time>
      </trkpt>
      <trkpt lat="47.30224" lon="-2.39424">
        <ele>85.199996948242</ele>
        <time>2020-10-25T08:52:28.000Z</time>
      </trkpt>
      <trkpt lat="47.30216" lon="-2.39428">
        <ele>84.599998474121</ele>
        <time>2020-10-25T08:52:29.000Z</time>
      </trkpt>
      <trkpt lat="47.30208" lon="-2.39431">
        <ele>83.599998474121</ele>
        <time>2020-10-25T08:52:30.000Z</time>
      </trkpt>
      <trkpt lat="47.302" lon="-2.39435">
        <ele>83.199996948242</ele>
        <time>2020-10-25T08:52:31.000Z</time>
      </trkpt>
      <trkpt lat="47.30193" lon="-2.39439">
        <ele>82.800003051758</ele>
        <time>2020-10-25T08:52:32.000Z</time>
      </trkpt>
      <trkpt lat="47.30169" lon="-2.39453">
        <ele>82.199996948242</ele>
        <time>2020-10-25T08:52:35.000Z</time>
      </trkpt>
      <trkpt lat="47.30162" lon="-2.39458">
        <ele>81.800003051758</ele>
        <time>2020-10-25T08:52:36.000Z</time>
      </trkpt>
      <trkpt lat="47.30155" lon="-2.39463">
        <ele>81.400001525879</ele>
        <time>2020-10-25T08:52:37.000Z</time>
      </trkpt>
      <trkpt lat="47.30147" lon="-2.39468">
        <ele>80.800003051758</ele>
        <time>2020-10-25T08:52:38.000Z</time>
      </trkpt>
      <trkpt lat="47.3014" lon="-2.39473">
        <ele>80.400001525879</ele>
        <time>2020-10-25T08:52:39.000Z</time>
      </trkpt>
      <trkpt lat="47.30121" lon="-2.39491">
        <ele>80.400001525879</ele>
        <time>2020-10-25T08:52:42.000Z</time>
      </trkpt>
      <trkpt lat="47.30114" lon="-2.39495">
        <ele>80.400001525879</ele>
        <time>2020-10-25T08:52:43.000Z</time>
      </trkpt>
      <trkpt lat="47.30107" lon="-2.39499">
        <ele>80</ele>
        <time>2020-10-25T08:52:44.000Z</time>
      </trkpt>
      <trkpt lat="47.301" lon="-2.39501">
        <ele>79.599998474121</ele>
        <time>2020-10-25T08:52:45.000Z</time>
      </trkpt>
      <trkpt lat="47.30093" lon="-2.39503">
        <ele>79.199996948242</ele>
        <time>2020-10-25T08:52:46.000Z</time>
      </trkpt>
      <trkpt lat="47.30086" lon="-2.39503">
        <ele>78.800003051758</ele>
        <time>2020-10-25T08:52:47.000Z</time>
      </trkpt>
      <trkpt lat="47.30079" lon="-2.39503">
        <ele>78.400001525879</ele>
        <time>2020-10-25T08:52:48.000Z</time>
      </trkpt>
      <trkpt lat="47.30072" lon="-2.39502">
        <ele>78.400001525879</ele>
        <time>2020-10-25T08:52:49.000Z</time>
      </trkpt>
      <trkpt lat="47.30057" lon="-2.39501">
        <ele>78.400001525879</ele>
        <time>2020-10-25T08:52:51.000Z</time>
      </trkpt>
      <trkpt lat="47.3005" lon="-2.39501">
        <ele>78.400001525879</ele>
        <time>2020-10-25T08:52:52.000Z</time>
      </trkpt>
      <trkpt lat="47.30031" lon="-2.39508">
        <ele>78.400001525879</ele>
        <time>2020-10-25T08:52:55.000Z</time>
      </trkpt>
      <trkpt lat="47.3002" lon="-2.39516">
        <ele>78.400001525879</ele>
        <time>2020-10-25T08:52:57.000Z</time>
      </trkpt>
      <trkpt lat="47.30006" lon="-2.39529">
        <ele>78.400001525879</ele>
        <time>2020-10-25T08:53:00.000Z</time>
      </trkpt>
      <trkpt lat="47.29999" lon="-2.39541">
        <ele>78</ele>
        <time>2020-10-25T08:53:02.000Z</time>
      </trkpt>
      <trkpt lat="47.29995" lon="-2.39547">
        <ele>77.599998474121</ele>
        <time>2020-10-25T08:53:03.000Z</time>
      </trkpt>
      <trkpt lat="47.29992" lon="-2.39553">
        <ele>77.199996948242</ele>
        <time>2020-10-25T08:53:04.000Z</time>
      </trkpt>
      <trkpt lat="47.29988" lon="-2.39559">
        <ele>76.800003051758</ele>
        <time>2020-10-25T08:53:05.000Z</time>
      </trkpt>
      <trkpt lat="47.29985" lon="-2.39565">
        <ele>76.400001525879</ele>
        <time>2020-10-25T08:53:06.000Z</time>
      </trkpt>
      <trkpt lat="47.2996" lon="-2.39614">
        <ele>76.400001525879</ele>
        <time>2020-10-25T08:53:13.000Z</time>
      </trkpt>
      <trkpt lat="47.29954" lon="-2.39628">
        <ele>76.400001525879</ele>
        <time>2020-10-25T08:53:15.000Z</time>
      </trkpt>
      <trkpt lat="47.29945" lon="-2.39649">
        <ele>76.400001525879</ele>
        <time>2020-10-25T08:53:18.000Z</time>
      </trkpt>
      <trkpt lat="47.29927" lon="-2.39682">
        <ele>76</ele>
        <time>2020-10-25T08:53:23.000Z</time>
      </trkpt>
      <trkpt lat="47.29924" lon="-2.39687">
        <ele>75.599998474121</ele>
        <time>2020-10-25T08:53:24.000Z</time>
      </trkpt>
      <trkpt lat="47.2992" lon="-2.39692">
        <ele>75.199996948242</ele>
        <time>2020-10-25T08:53:25.000Z</time>
      </trkpt>
      <trkpt lat="47.29916" lon="-2.39698">
        <ele>74.599998474121</ele>
        <time>2020-10-25T08:53:26.000Z</time>
      </trkpt>
      <trkpt lat="47.29912" lon="-2.39703">
        <ele>74.199996948242</ele>
        <time>2020-10-25T08:53:27.000Z</time>
      </trkpt>
      <trkpt lat="47.29899" lon="-2.39726">
        <ele>74.199996948242</ele>
        <time>2020-10-25T08:53:31.000Z</time>
      </trkpt>
      <trkpt lat="47.29877" lon="-2.3977">
        <ele>74.199996948242</ele>
        <time>2020-10-25T08:53:38.000Z</time>
      </trkpt>
      <trkpt lat="47.29852" lon="-2.3982">
        <ele>75</ele>
        <time>2020-10-25T08:53:46.000Z</time>
      </trkpt>
      <trkpt lat="47.29849" lon="-2.39826">
        <ele>75.400001525879</ele>
        <time>2020-10-25T08:53:47.000Z</time>
      </trkpt>
      <trkpt lat="47.29845" lon="-2.39832">
        <ele>75.800003051758</ele>
        <time>2020-10-25T08:53:48.000Z</time>
      </trkpt>
      <trkpt lat="47.29842" lon="-2.39838">
        <ele>76.400001525879</ele>
        <time>2020-10-25T08:53:49.000Z</time>
      </trkpt>
      <trkpt lat="47.29832" lon="-2.39856">
        <ele>76.400001525879</ele>
        <time>2020-10-25T08:53:52.000Z</time>
      </trkpt>
      <trkpt lat="47.29805" lon="-2.39911">
        <ele>76.400001525879</ele>
        <time>2020-10-25T08:54:01.000Z</time>
      </trkpt>
      <trkpt lat="47.29794" lon="-2.39938">
        <ele>76.400001525879</ele>
        <time>2020-10-25T08:54:05.000Z</time>
      </trkpt>
      <trkpt lat="47.29793" lon="-2.39946">
        <ele>76.400001525879</ele>
        <time>2020-10-25T08:54:06.000Z</time>
      </trkpt>
      <trkpt lat="47.29792" lon="-2.3997">
        <ele>76.400001525879</ele>
        <time>2020-10-25T08:54:09.000Z</time>
      </trkpt>
      <trkpt lat="47.29792" lon="-2.39993">
        <ele>76.400001525879</ele>
        <time>2020-10-25T08:54:12.000Z</time>
      </trkpt>
      <trkpt lat="47.29796" lon="-2.40038">
        <ele>76.400001525879</ele>
        <time>2020-10-25T08:54:18.000Z</time>
      </trkpt>
      <trkpt lat="47.298" lon="-2.40089">
        <ele>76.400001525879</ele>
        <time>2020-10-25T08:54:25.000Z</time>
      </trkpt>
      <trkpt lat="47.29796" lon="-2.40144">
        <ele>76.400001525879</ele>
        <time>2020-10-25T08:54:32.000Z</time>
      </trkpt>
      <trkpt lat="47.29789" lon="-2.40191">
        <ele>76.400001525879</ele>
        <time>2020-10-25T08:54:38.000Z</time>
      </trkpt>
      <trkpt lat="47.29779" lon="-2.40244">
        <ele>76.400001525879</ele>
        <time>2020-10-25T08:54:45.000Z</time>
      </trkpt>
      <trkpt lat="47.29777" lon="-2.40285">
        <ele>76.400001525879</ele>
        <time>2020-10-25T08:54:50.000Z</time>
      </trkpt>
      <trkpt lat="47.2978" lon="-2.40348">
        <ele>76.400001525879</ele>
        <time>2020-10-25T08:54:57.000Z</time>
      </trkpt>
      <trkpt lat="47.29781" lon="-2.40408">
        <ele>76.400001525879</ele>
        <time>2020-10-25T08:55:03.000Z</time>
      </trkpt>
      <trkpt lat="47.2978" lon="-2.40418">
        <ele>75.800003051758</ele>
        <time>2020-10-25T08:55:04.000Z</time>
      </trkpt>
      <trkpt lat="47.29781" lon="-2.40428">
        <ele>75.400001525879</ele>
        <time>2020-10-25T08:55:05.000Z</time>
      </trkpt>
      <trkpt lat="47.29781" lon="-2.40439">
        <ele>75</ele>
        <time>2020-10-25T08:55:06.000Z</time>
      </trkpt>
      <trkpt lat="47.29782" lon="-2.4045">
        <ele>74.599998474121</ele>
        <time>2020-10-25T08:55:07.000Z</time>
      </trkpt>
      <trkpt lat="47.29783" lon="-2.40461">
        <ele>74.199996948242</ele>
        <time>2020-10-25T08:55:08.000Z</time>
      </trkpt>
      <trkpt lat="47.29784" lon="-2.40471">
        <ele>73.599998474121</ele>
        <time>2020-10-25T08:55:09.000Z</time>
      </trkpt>
      <trkpt lat="47.29786" lon="-2.40482">
        <ele>73.199996948242</ele>
        <time>2020-10-25T08:55:10.000Z</time>
      </trkpt>
      <trkpt lat="47.29789" lon="-2.40493">
        <ele>72.800003051758</ele>
        <time>2020-10-25T08:55:11.000Z</time>
      </trkpt>
      <trkpt lat="47.29791" lon="-2.40504">
        <ele>72.400001525879</ele>
        <time>2020-10-25T08:55:12.000Z</time>
      </trkpt>
      <trkpt lat="47.29793" lon="-2.40514">
        <ele>71.800003051758</ele>
        <time>2020-10-25T08:55:13.000Z</time>
      </trkpt>
      <trkpt lat="47.29795" lon="-2.40524">
        <ele>71.800003051758</ele>
        <time>2020-10-25T08:55:14.000Z</time>
      </trkpt>
      <trkpt lat="47.29797" lon="-2.40533">
        <ele>71.800003051758</ele>
        <time>2020-10-25T08:55:15.000Z</time>
      </trkpt>
      <trkpt lat="47.29799" lon="-2.40542">
        <ele>71.400001525879</ele>
        <time>2020-10-25T08:55:16.000Z</time>
      </trkpt>
      <trkpt lat="47.298" lon="-2.40551">
        <ele>71</ele>
        <time>2020-10-25T08:55:17.000Z</time>
      </trkpt>
      <trkpt lat="47.29802" lon="-2.40559">
        <ele>70.599998474121</ele>
        <time>2020-10-25T08:55:18.000Z</time>
      </trkpt>
      <trkpt lat="47.29803" lon="-2.40569">
        <ele>70.199996948242</ele>
        <time>2020-10-25T08:55:19.000Z</time>
      </trkpt>
      <trkpt lat="47.29803" lon="-2.40578">
        <ele>69.599998474121</ele>
        <time>2020-10-25T08:55:20.000Z</time>
      </trkpt>
      <trkpt lat="47.29805" lon="-2.40587">
        <ele>69.599998474121</ele>
        <time>2020-10-25T08:55:21.000Z</time>
      </trkpt>
      <trkpt lat="47.29816" lon="-2.40605">
        <ele>69.599998474121</ele>
        <time>2020-10-25T08:55:24.000Z</time>
      </trkpt>
      <trkpt lat="47.29821" lon="-2.40609">
        <ele>69.599998474121</ele>
        <time>2020-10-25T08:55:25.000Z</time>
      </trkpt>
      <trkpt lat="47.29825" lon="-2.40613">
        <ele>69.599998474121</ele>
        <time>2020-10-25T08:55:26.000Z</time>
      </trkpt>
      <trkpt lat="47.29828" lon="-2.40626">
        <ele>69.599998474121</ele>
        <time>2020-10-25T08:55:28.000Z</time>
      </trkpt>
      <trkpt lat="47.29822" lon="-2.40646">
        <ele>69.599998474121</ele>
        <time>2020-10-25T08:55:31.000Z</time>
      </trkpt>
      <trkpt lat="47.29823" lon="-2.4067">
        <ele>69.599998474121</ele>
        <time>2020-10-25T08:55:34.000Z</time>
      </trkpt>
      <trkpt lat="47.29828" lon="-2.40712">
        <ele>69.599998474121</ele>
        <time>2020-10-25T08:55:39.000Z</time>
      </trkpt>
      <trkpt lat="47.29832" lon="-2.40729">
        <ele>69.599998474121</ele>
        <time>2020-10-25T08:55:41.000Z</time>
      </trkpt>
      <trkpt lat="47.29847" lon="-2.40784">
        <ele>69.599998474121</ele>
        <time>2020-10-25T08:55:47.000Z</time>
      </trkpt>
      <trkpt lat="47.29861" lon="-2.40846">
        <ele>69.599998474121</ele>
        <time>2020-10-25T08:55:53.000Z</time>
      </trkpt>
      <trkpt lat="47.29862" lon="-2.40856">
        <ele>69.599998474121</ele>
        <time>2020-10-25T08:55:54.000Z</time>
      </trkpt>
      <trkpt lat="47.29861" lon="-2.40888">
        <ele>69.599998474121</ele>
        <time>2020-10-25T08:55:57.000Z</time>
      </trkpt>
      <trkpt lat="47.29859" lon="-2.4091">
        <ele>69.599998474121</ele>
        <time>2020-10-25T08:55:59.000Z</time>
      </trkpt>
      <trkpt lat="47.29852" lon="-2.40968">
        <ele>69.599998474121</ele>
        <time>2020-10-25T08:56:05.000Z</time>
      </trkpt>
      <trkpt lat="47.29841" lon="-2.41026">
        <ele>69.599998474121</ele>
        <time>2020-10-25T08:56:12.000Z</time>
      </trkpt>
      <trkpt lat="47.29822" lon="-2.4105">
        <ele>69.599998474121</ele>
        <time>2020-10-25T08:56:16.000Z</time>
      </trkpt>
      <trkpt lat="47.29783" lon="-2.41092">
        <ele>69.599998474121</ele>
        <time>2020-10-25T08:56:24.000Z</time>
      </trkpt>
      <trkpt lat="47.29743" lon="-2.41141">
        <ele>69.599998474121</ele>
        <time>2020-10-25T08:56:33.000Z</time>
      </trkpt>
      <trkpt lat="47.29739" lon="-2.41146">
        <ele>69.599998474121</ele>
        <time>2020-10-25T08:56:34.000Z</time>
      </trkpt>
      <trkpt lat="47.29731" lon="-2.41157">
        <ele>69.599998474121</ele>
        <time>2020-10-25T08:56:36.000Z</time>
      </trkpt>
      <trkpt lat="47.29723" lon="-2.41167">
        <ele>69.599998474121</ele>
        <time>2020-10-25T08:56:38.000Z</time>
      </trkpt>
      <trkpt lat="47.29693" lon="-2.41204">
        <ele>69.599998474121</ele>
        <time>2020-10-25T08:56:46.000Z</time>
      </trkpt>
      <trkpt lat="47.2969" lon="-2.4121">
        <ele>69.599998474121</ele>
        <time>2020-10-25T08:56:47.000Z</time>
      </trkpt>
      <trkpt lat="47.29684" lon="-2.41241">
        <ele>69.599998474121</ele>
        <time>2020-10-25T08:56:51.000Z</time>
      </trkpt>
      <trkpt lat="47.29684" lon="-2.41249">
        <ele>69.599998474121</ele>
        <time>2020-10-25T08:56:52.000Z</time>
      </trkpt>
      <trkpt lat="47.29684" lon="-2.41257">
        <ele>69.599998474121</ele>
        <time>2020-10-25T08:56:53.000Z</time>
      </trkpt>
      <trkpt lat="47.29687" lon="-2.41289">
        <ele>69.599998474121</ele>
        <time>2020-10-25T08:56:57.000Z</time>
      </trkpt>
      <trkpt lat="47.29694" lon="-2.41351">
        <ele>69.599998474121</ele>
        <time>2020-10-25T08:57:05.000Z</time>
      </trkpt>
      <trkpt lat="47.29698" lon="-2.41379">
        <ele>69.599998474121</ele>
        <time>2020-10-25T08:57:09.000Z</time>
      </trkpt>
      <trkpt lat="47.29701" lon="-2.41395">
        <ele>69.599998474121</ele>
        <time>2020-10-25T08:57:11.000Z</time>
      </trkpt>
      <trkpt lat="47.29714" lon="-2.41458">
        <ele>69.599998474121</ele>
        <time>2020-10-25T08:57:18.000Z</time>
      </trkpt>
      <trkpt lat="47.29724" lon="-2.41513">
        <ele>69.599998474121</ele>
        <time>2020-10-25T08:57:24.000Z</time>
      </trkpt>
      <trkpt lat="47.29736" lon="-2.41575">
        <ele>69.599998474121</ele>
        <time>2020-10-25T08:57:31.000Z</time>
      </trkpt>
      <trkpt lat="47.29741" lon="-2.41602">
        <ele>69.199996948242</ele>
        <time>2020-10-25T08:57:34.000Z</time>
      </trkpt>
      <trkpt lat="47.29742" lon="-2.41612">
        <ele>68.800003051758</ele>
        <time>2020-10-25T08:57:35.000Z</time>
      </trkpt>
      <trkpt lat="47.29744" lon="-2.41622">
        <ele>68.199996948242</ele>
        <time>2020-10-25T08:57:36.000Z</time>
      </trkpt>
      <trkpt lat="47.29746" lon="-2.41632">
        <ele>67.800003051758</ele>
        <time>2020-10-25T08:57:37.000Z</time>
      </trkpt>
      <trkpt lat="47.29748" lon="-2.41641">
        <ele>67.400001525879</ele>
        <time>2020-10-25T08:57:38.000Z</time>
      </trkpt>
      <trkpt lat="47.29761" lon="-2.41706">
        <ele>67.400001525879</ele>
        <time>2020-10-25T08:57:45.000Z</time>
      </trkpt>
      <trkpt lat="47.29772" lon="-2.41767">
        <ele>67.400001525879</ele>
        <time>2020-10-25T08:57:52.000Z</time>
      </trkpt>
      <trkpt lat="47.29773" lon="-2.41825">
        <ele>67.400001525879</ele>
        <time>2020-10-25T08:57:59.000Z</time>
      </trkpt>
      <trkpt lat="47.29771" lon="-2.41872">
        <ele>67</ele>
        <time>2020-10-25T08:58:05.000Z</time>
      </trkpt>
      <trkpt lat="47.29771" lon="-2.41881">
        <ele>66.599998474121</ele>
        <time>2020-10-25T08:58:06.000Z</time>
      </trkpt>
      <trkpt lat="47.29771" lon="-2.41889">
        <ele>66.199996948242</ele>
        <time>2020-10-25T08:58:07.000Z</time>
      </trkpt>
      <trkpt lat="47.29772" lon="-2.41897">
        <ele>65.800003051758</ele>
        <time>2020-10-25T08:58:08.000Z</time>
      </trkpt>
      <trkpt lat="47.29773" lon="-2.41905">
        <ele>65.400001525879</ele>
        <time>2020-10-25T08:58:09.000Z</time>
      </trkpt>
      <trkpt lat="47.2978" lon="-2.41944">
        <ele>65.800003051758</ele>
        <time>2020-10-25T08:58:14.000Z</time>
      </trkpt>
      <trkpt lat="47.29782" lon="-2.41951">
        <ele>66.199996948242</ele>
        <time>2020-10-25T08:58:15.000Z</time>
      </trkpt>
      <trkpt lat="47.29783" lon="-2.41958">
        <ele>66.599998474121</ele>
        <time>2020-10-25T08:58:16.000Z</time>
      </trkpt>
      <trkpt lat="47.29785" lon="-2.41965">
        <ele>67</ele>
        <time>2020-10-25T08:58:17.000Z</time>
      </trkpt>
      <trkpt lat="47.29787" lon="-2.41971">
        <ele>67.400001525879</ele>
        <time>2020-10-25T08:58:18.000Z</time>
      </trkpt>
      <trkpt lat="47.2979" lon="-2.41991">
        <ele>67.400001525879</ele>
        <time>2020-10-25T08:58:21.000Z</time>
      </trkpt>
      <trkpt lat="47.29791" lon="-2.41999">
        <ele>67.400001525879</ele>
        <time>2020-10-25T08:58:22.000Z</time>
      </trkpt>
      <trkpt lat="47.29787" lon="-2.42028">
        <ele>67.400001525879</ele>
        <time>2020-10-25T08:58:26.000Z</time>
      </trkpt>
      <trkpt lat="47.29778" lon="-2.42045">
        <ele>67.400001525879</ele>
        <time>2020-10-25T08:58:29.000Z</time>
      </trkpt>
      <trkpt lat="47.29771" lon="-2.42057">
        <ele>67.400001525879</ele>
        <time>2020-10-25T08:58:31.000Z</time>
      </trkpt>
      <trkpt lat="47.29768" lon="-2.42063">
        <ele>67</ele>
        <time>2020-10-25T08:58:32.000Z</time>
      </trkpt>
      <trkpt lat="47.29765" lon="-2.42069">
        <ele>66.599998474121</ele>
        <time>2020-10-25T08:58:33.000Z</time>
      </trkpt>
      <trkpt lat="47.29761" lon="-2.42074">
        <ele>66.199996948242</ele>
        <time>2020-10-25T08:58:34.000Z</time>
      </trkpt>
      <trkpt lat="47.29758" lon="-2.4208">
        <ele>65.599998474121</ele>
        <time>2020-10-25T08:58:35.000Z</time>
      </trkpt>
      <trkpt lat="47.29755" lon="-2.42086">
        <ele>65.199996948242</ele>
        <time>2020-10-25T08:58:36.000Z</time>
      </trkpt>
      <trkpt lat="47.29745" lon="-2.42104">
        <ele>65.199996948242</ele>
        <time>2020-10-25T08:58:39.000Z</time>
      </trkpt>
      <trkpt lat="47.29718" lon="-2.42153">
        <ele>65.199996948242</ele>
        <time>2020-10-25T08:58:47.000Z</time>
      </trkpt>
      <trkpt lat="47.29711" lon="-2.42165">
        <ele>65.199996948242</ele>
        <time>2020-10-25T08:58:49.000Z</time>
      </trkpt>
      <trkpt lat="47.29696" lon="-2.42187">
        <ele>65.199996948242</ele>
        <time>2020-10-25T08:58:53.000Z</time>
      </trkpt>
      <trkpt lat="47.29674" lon="-2.42233">
        <ele>65.199996948242</ele>
        <time>2020-10-25T08:59:00.000Z</time>
      </trkpt>
      <trkpt lat="47.29665" lon="-2.42262">
        <ele>65.199996948242</ele>
        <time>2020-10-25T08:59:04.000Z</time>
      </trkpt>
      <trkpt lat="47.29662" lon="-2.42278">
        <ele>65.199996948242</ele>
        <time>2020-10-25T08:59:06.000Z</time>
      </trkpt>
      <trkpt lat="47.29645" lon="-2.42353">
        <ele>65.199996948242</ele>
        <time>2020-10-25T08:59:16.000Z</time>
      </trkpt>
      <trkpt lat="47.29634" lon="-2.42401">
        <ele>65.199996948242</ele>
        <time>2020-10-25T08:59:23.000Z</time>
      </trkpt>
      <trkpt lat="47.2963" lon="-2.4242">
        <ele>65.199996948242</ele>
        <time>2020-10-25T08:59:26.000Z</time>
      </trkpt>
      <trkpt lat="47.29628" lon="-2.4244">
        <ele>65.199996948242</ele>
        <time>2020-10-25T08:59:29.000Z</time>
      </trkpt>
      <trkpt lat="47.29621" lon="-2.42485">
        <ele>65.199996948242</ele>
        <time>2020-10-25T08:59:36.000Z</time>
      </trkpt>
      <trkpt lat="47.29615" lon="-2.42511">
        <ele>65.199996948242</ele>
        <time>2020-10-25T08:59:40.000Z</time>
      </trkpt>
      <trkpt lat="47.29606" lon="-2.42528">
        <ele>65.199996948242</ele>
        <time>2020-10-25T08:59:43.000Z</time>
      </trkpt>
      <trkpt lat="47.29587" lon="-2.42557">
        <ele>65.199996948242</ele>
        <time>2020-10-25T08:59:48.000Z</time>
      </trkpt>
      <trkpt lat="47.29583" lon="-2.42563">
        <ele>65.599998474121</ele>
        <time>2020-10-25T08:59:49.000Z</time>
      </trkpt>
      <trkpt lat="47.29579" lon="-2.42569">
        <ele>66</ele>
        <time>2020-10-25T08:59:50.000Z</time>
      </trkpt>
      <trkpt lat="47.29576" lon="-2.42575">
        <ele>66.400001525879</ele>
        <time>2020-10-25T08:59:51.000Z</time>
      </trkpt>
      <trkpt lat="47.29572" lon="-2.42581">
        <ele>66.800003051758</ele>
        <time>2020-10-25T08:59:52.000Z</time>
      </trkpt>
      <trkpt lat="47.29569" lon="-2.42587">
        <ele>67.199996948242</ele>
        <time>2020-10-25T08:59:53.000Z</time>
      </trkpt>
      <trkpt lat="47.29562" lon="-2.42599">
        <ele>67.199996948242</ele>
        <time>2020-10-25T08:59:55.000Z</time>
      </trkpt>
      <trkpt lat="47.29554" lon="-2.4263">
        <ele>67.199996948242</ele>
        <time>2020-10-25T08:59:59.000Z</time>
      </trkpt>
      <trkpt lat="47.29553" lon="-2.42639">
        <ele>67.199996948242</ele>
        <time>2020-10-25T09:00:00.000Z</time>
      </trkpt>
      <trkpt lat="47.2955" lon="-2.42663">
        <ele>67.199996948242</ele>
        <time>2020-10-25T09:00:03.000Z</time>
      </trkpt>
      <trkpt lat="47.29545" lon="-2.42704">
        <ele>67.199996948242</ele>
        <time>2020-10-25T09:00:08.000Z</time>
      </trkpt>
      <trkpt lat="47.29539" lon="-2.42749">
        <ele>67.199996948242</ele>
        <time>2020-10-25T09:00:14.000Z</time>
      </trkpt>
      <trkpt lat="47.29533" lon="-2.42801">
        <ele>67.199996948242</ele>
        <time>2020-10-25T09:00:21.000Z</time>
      </trkpt>
      <trkpt lat="47.29526" lon="-2.42856">
        <ele>67.199996948242</ele>
        <time>2020-10-25T09:00:28.000Z</time>
      </trkpt>
      <trkpt lat="47.29521" lon="-2.42902">
        <ele>67.199996948242</ele>
        <time>2020-10-25T09:00:34.000Z</time>
      </trkpt>
      <trkpt lat="47.29519" lon="-2.42909">
        <ele>67.199996948242</ele>
        <time>2020-10-25T09:00:35.000Z</time>
      </trkpt>
      <trkpt lat="47.29516" lon="-2.42956">
        <ele>67.199996948242</ele>
        <time>2020-10-25T09:00:41.000Z</time>
      </trkpt>
      <trkpt lat="47.29517" lon="-2.42972">
        <ele>67.199996948242</ele>
        <time>2020-10-25T09:00:43.000Z</time>
      </trkpt>
      <trkpt lat="47.29519" lon="-2.43004">
        <ele>67.199996948242</ele>
        <time>2020-10-25T09:00:47.000Z</time>
      </trkpt>
      <trkpt lat="47.29525" lon="-2.43051">
        <ele>67.199996948242</ele>
        <time>2020-10-25T09:00:53.000Z</time>
      </trkpt>
      <trkpt lat="47.29527" lon="-2.43059">
        <ele>67.199996948242</ele>
        <time>2020-10-25T09:00:54.000Z</time>
      </trkpt>
      <trkpt lat="47.29531" lon="-2.43073">
        <ele>67.199996948242</ele>
        <time>2020-10-25T09:00:56.000Z</time>
      </trkpt>
      <trkpt lat="47.29532" lon="-2.43087">
        <ele>67.199996948242</ele>
        <time>2020-10-25T09:00:58.000Z</time>
      </trkpt>
      <trkpt lat="47.29533" lon="-2.43101">
        <ele>67.199996948242</ele>
        <time>2020-10-25T09:01:00.000Z</time>
      </trkpt>
      <trkpt lat="47.29538" lon="-2.43122">
        <ele>67.199996948242</ele>
        <time>2020-10-25T09:01:03.000Z</time>
      </trkpt>
      <trkpt lat="47.29542" lon="-2.43143">
        <ele>67.599998474121</ele>
        <time>2020-10-25T09:01:06.000Z</time>
      </trkpt>
      <trkpt lat="47.29543" lon="-2.4315">
        <ele>68</ele>
        <time>2020-10-25T09:01:07.000Z</time>
      </trkpt>
      <trkpt lat="47.29544" lon="-2.43157">
        <ele>68.400001525879</ele>
        <time>2020-10-25T09:01:08.000Z</time>
      </trkpt>
      <trkpt lat="47.29545" lon="-2.43164">
        <ele>68.800003051758</ele>
        <time>2020-10-25T09:01:09.000Z</time>
      </trkpt>
      <trkpt lat="47.29546" lon="-2.43172">
        <ele>69.199996948242</ele>
        <time>2020-10-25T09:01:10.000Z</time>
      </trkpt>
      <trkpt lat="47.29553" lon="-2.43221">
        <ele>69.199996948242</ele>
        <time>2020-10-25T09:01:16.000Z</time>
      </trkpt>
      <trkpt lat="47.29555" lon="-2.43228">
        <ele>69.199996948242</ele>
        <time>2020-10-25T09:01:17.000Z</time>
      </trkpt>
      <trkpt lat="47.29565" lon="-2.43262">
        <ele>69.199996948242</ele>
        <time>2020-10-25T09:01:22.000Z</time>
      </trkpt>
      <trkpt lat="47.29563" lon="-2.43277">
        <ele>69.199996948242</ele>
        <time>2020-10-25T09:01:24.000Z</time>
      </trkpt>
      <trkpt lat="47.29555" lon="-2.43295">
        <ele>69.199996948242</ele>
        <time>2020-10-25T09:01:27.000Z</time>
      </trkpt>
      <trkpt lat="47.29552" lon="-2.433">
        <ele>69.199996948242</ele>
        <time>2020-10-25T09:01:28.000Z</time>
      </trkpt>
      <trkpt lat="47.29533" lon="-2.43333">
        <ele>69.199996948242</ele>
        <time>2020-10-25T09:01:34.000Z</time>
      </trkpt>
      <trkpt lat="47.29511" lon="-2.43371">
        <ele>69.199996948242</ele>
        <time>2020-10-25T09:01:41.000Z</time>
      </trkpt>
      <trkpt lat="47.29483" lon="-2.43425">
        <ele>69.199996948242</ele>
        <time>2020-10-25T09:01:50.000Z</time>
      </trkpt>
      <trkpt lat="47.2947" lon="-2.43458">
        <ele>69.199996948242</ele>
        <time>2020-10-25T09:01:56.000Z</time>
      </trkpt>
      <trkpt lat="47.2947" lon="-2.43461">
        <ele>69.199996948242</ele>
        <time>2020-10-25T09:01:58.000Z</time>
      </trkpt>
      <trkpt lat="47.29471" lon="-2.43464">
        <ele>69.199996948242</ele>
        <time>2020-10-25T09:02:00.000Z</time>
      </trkpt>
      <trkpt lat="47.29475" lon="-2.43466">
        <ele>68.800003051758</ele>
        <time>2020-10-25T09:02:02.000Z</time>
      </trkpt>
      <trkpt lat="47.29477" lon="-2.43467">
        <ele>68.400001525879</ele>
        <time>2020-10-25T09:02:03.000Z</time>
      </trkpt>
      <trkpt lat="47.29479" lon="-2.43469">
        <ele>68</ele>
        <time>2020-10-25T09:02:04.000Z</time>
      </trkpt>
      <trkpt lat="47.29481" lon="-2.43471">
        <ele>67.599998474121</ele>
        <time>2020-10-25T09:02:05.000Z</time>
      </trkpt>
      <trkpt lat="47.29483" lon="-2.43473">
        <ele>67.199996948242</ele>
        <time>2020-10-25T09:02:06.000Z</time>
      </trkpt>
      <trkpt lat="47.29499" lon="-2.43483">
        <ele>67.199996948242</ele>
        <time>2020-10-25T09:02:12.000Z</time>
      </trkpt>
      <trkpt lat="47.29522" lon="-2.43492">
        <ele>67.199996948242</ele>
        <time>2020-10-25T09:02:19.000Z</time>
      </trkpt>
      <trkpt lat="47.29554" lon="-2.43496">
        <ele>67.199996948242</ele>
        <time>2020-10-25T09:02:27.000Z</time>
      </trkpt>
      <trkpt lat="47.29597" lon="-2.43499">
        <ele>67.199996948242</ele>
        <time>2020-10-25T09:02:37.000Z</time>
      </trkpt>
      <trkpt lat="47.29606" lon="-2.43497">
        <ele>67.199996948242</ele>
        <time>2020-10-25T09:02:39.000Z</time>
      </trkpt>
      <trkpt lat="47.29621" lon="-2.43495">
        <ele>67.199996948242</ele>
        <time>2020-10-25T09:02:43.000Z</time>
      </trkpt>
      <trkpt lat="47.29627" lon="-2.43499">
        <ele>67.199996948242</ele>
        <time>2020-10-25T09:02:47.000Z</time>
      </trkpt>
      <trkpt lat="47.2963" lon="-2.43513">
        <ele>67.199996948242</ele>
        <time>2020-10-25T09:02:52.000Z</time>
      </trkpt>
      <trkpt lat="47.29634" lon="-2.43521">
        <ele>66.599998474121</ele>
        <time>2020-10-25T09:02:57.000Z</time>
      </trkpt>
      <trkpt lat="47.29636" lon="-2.43523">
        <ele>66.400001525879</ele>
        <time>2020-10-25T09:03:01.000Z</time>
      </trkpt>
      <trkpt lat="47.29638" lon="-2.43524">
        <ele>66.800003051758</ele>
        <time>2020-10-25T09:03:02.000Z</time>
      </trkpt>
      <trkpt lat="47.29639" lon="-2.43526">
        <ele>67.199996948242</ele>
        <time>2020-10-25T09:03:03.000Z</time>
      </trkpt>
      <trkpt lat="47.29641" lon="-2.43528">
        <ele>67.800003051758</ele>
        <time>2020-10-25T09:03:04.000Z</time>
      </trkpt>
      <trkpt lat="47.29644" lon="-2.43528">
        <ele>67.800003051758</ele>
        <time>2020-10-25T09:03:05.000Z</time>
      </trkpt>
      <trkpt lat="47.29654" lon="-2.43522">
        <ele>67.800003051758</ele>
        <time>2020-10-25T09:03:08.000Z</time>
      </trkpt>
      <trkpt lat="47.29658" lon="-2.4352">
        <ele>67.800003051758</ele>
        <time>2020-10-25T09:03:09.000Z</time>
      </trkpt>
      <trkpt lat="47.29685" lon="-2.43504">
        <ele>67.800003051758</ele>
        <time>2020-10-25T09:03:15.000Z</time>
      </trkpt>
      <trkpt lat="47.29728" lon="-2.43472">
        <ele>67.800003051758</ele>
        <time>2020-10-25T09:03:24.000Z</time>
      </trkpt>
      <trkpt lat="47.29764" lon="-2.43438">
        <ele>67.800003051758</ele>
        <time>2020-10-25T09:03:31.000Z</time>
      </trkpt>
      <trkpt lat="47.29811" lon="-2.43388">
        <ele>67.800003051758</ele>
        <time>2020-10-25T09:03:40.000Z</time>
      </trkpt>
      <trkpt lat="47.29833" lon="-2.43365">
        <ele>67.400001525879</ele>
        <time>2020-10-25T09:03:44.000Z</time>
      </trkpt>
      <trkpt lat="47.29838" lon="-2.43359">
        <ele>67</ele>
        <time>2020-10-25T09:03:45.000Z</time>
      </trkpt>
      <trkpt lat="47.29844" lon="-2.43353">
        <ele>66.400001525879</ele>
        <time>2020-10-25T09:03:46.000Z</time>
      </trkpt>
      <trkpt lat="47.29849" lon="-2.43347">
        <ele>66</ele>
        <time>2020-10-25T09:03:47.000Z</time>
      </trkpt>
      <trkpt lat="47.29855" lon="-2.43341">
        <ele>65.599998474121</ele>
        <time>2020-10-25T09:03:48.000Z</time>
      </trkpt>
      <trkpt lat="47.29887" lon="-2.43322">
        <ele>65.599998474121</ele>
        <time>2020-10-25T09:03:53.000Z</time>
      </trkpt>
      <trkpt lat="47.29936" lon="-2.43303">
        <ele>65.599998474121</ele>
        <time>2020-10-25T09:04:00.000Z</time>
      </trkpt>
      <trkpt lat="47.29962" lon="-2.43294">
        <ele>65.599998474121</ele>
        <time>2020-10-25T09:04:04.000Z</time>
      </trkpt>
      <trkpt lat="47.29976" lon="-2.43297">
        <ele>65.599998474121</ele>
        <time>2020-10-25T09:04:06.000Z</time>
      </trkpt>
      <trkpt lat="47.29993" lon="-2.43311">
        <ele>65.599998474121</ele>
        <time>2020-10-25T09:04:09.000Z</time>
      </trkpt>
      <trkpt lat="47.30023" lon="-2.43332">
        <ele>65.599998474121</ele>
        <time>2020-10-25T09:04:14.000Z</time>
      </trkpt>
      <trkpt lat="47.30043" lon="-2.43335">
        <ele>65.599998474121</ele>
        <time>2020-10-25T09:04:17.000Z</time>
      </trkpt>
      <trkpt lat="47.3005" lon="-2.43335">
        <ele>65.599998474121</ele>
        <time>2020-10-25T09:04:18.000Z</time>
      </trkpt>
      <trkpt lat="47.30056" lon="-2.43334">
        <ele>65.599998474121</ele>
        <time>2020-10-25T09:04:19.000Z</time>
      </trkpt>
      <trkpt lat="47.30083" lon="-2.43328">
        <ele>65.599998474121</ele>
        <time>2020-10-25T09:04:23.000Z</time>
      </trkpt>
      <trkpt lat="47.30122" lon="-2.43318">
        <ele>65.599998474121</ele>
        <time>2020-10-25T09:04:29.000Z</time>
      </trkpt>
      <trkpt lat="47.30167" lon="-2.43303">
        <ele>65.599998474121</ele>
        <time>2020-10-25T09:04:36.000Z</time>
      </trkpt>
      <trkpt lat="47.30225" lon="-2.43278">
        <ele>65.599998474121</ele>
        <time>2020-10-25T09:04:45.000Z</time>
      </trkpt>
      <trkpt lat="47.30275" lon="-2.43258">
        <ele>65.599998474121</ele>
        <time>2020-10-25T09:04:53.000Z</time>
      </trkpt>
      <trkpt lat="47.30317" lon="-2.43246">
        <ele>65.599998474121</ele>
        <time>2020-10-25T09:05:00.000Z</time>
      </trkpt>
      <trkpt lat="47.30352" lon="-2.43239">
        <ele>65.599998474121</ele>
        <time>2020-10-25T09:05:06.000Z</time>
      </trkpt>
      <trkpt lat="47.30378" lon="-2.43234">
        <ele>65.599998474121</ele>
        <time>2020-10-25T09:05:11.000Z</time>
      </trkpt>
      <trkpt lat="47.30384" lon="-2.43235">
        <ele>65.599998474121</ele>
        <time>2020-10-25T09:05:12.000Z</time>
      </trkpt>
      <trkpt lat="47.30397" lon="-2.43251">
        <ele>65.599998474121</ele>
        <time>2020-10-25T09:05:15.000Z</time>
      </trkpt>
      <trkpt lat="47.30405" lon="-2.43274">
        <ele>65.599998474121</ele>
        <time>2020-10-25T09:05:18.000Z</time>
      </trkpt>
      <trkpt lat="47.30409" lon="-2.43291">
        <ele>65.599998474121</ele>
        <time>2020-10-25T09:05:20.000Z</time>
      </trkpt>
      <trkpt lat="47.30424" lon="-2.43368">
        <ele>65.599998474121</ele>
        <time>2020-10-25T09:05:29.000Z</time>
      </trkpt>
      <trkpt lat="47.30428" lon="-2.43393">
        <ele>65.599998474121</ele>
        <time>2020-10-25T09:05:32.000Z</time>
      </trkpt>
      <trkpt lat="47.3043" lon="-2.43416">
        <ele>65.599998474121</ele>
        <time>2020-10-25T09:05:35.000Z</time>
      </trkpt>
      <trkpt lat="47.30443" lon="-2.43424">
        <ele>65.599998474121</ele>
        <time>2020-10-25T09:05:38.000Z</time>
      </trkpt>
      <trkpt lat="47.30452" lon="-2.43418">
        <ele>65.599998474121</ele>
        <time>2020-10-25T09:05:40.000Z</time>
      </trkpt>
      <trkpt lat="47.30456" lon="-2.43415">
        <ele>65.599998474121</ele>
        <time>2020-10-25T09:05:41.000Z</time>
      </trkpt>
      <trkpt lat="47.30472" lon="-2.43409">
        <ele>65.599998474121</ele>
        <time>2020-10-25T09:05:44.000Z</time>
      </trkpt>
      <trkpt lat="47.30483" lon="-2.43408">
        <ele>65.599998474121</ele>
        <time>2020-10-25T09:05:46.000Z</time>
      </trkpt>
      <trkpt lat="47.30519" lon="-2.43412">
        <ele>65.599998474121</ele>
        <time>2020-10-25T09:05:52.000Z</time>
      </trkpt>
      <trkpt lat="47.30567" lon="-2.4342">
        <ele>65.599998474121</ele>
        <time>2020-10-25T09:06:00.000Z</time>
      </trkpt>
      <trkpt lat="47.30617" lon="-2.4341">
        <ele>65.599998474121</ele>
        <time>2020-10-25T09:06:08.000Z</time>
      </trkpt>
      <trkpt lat="47.30665" lon="-2.43398">
        <ele>65.599998474121</ele>
        <time>2020-10-25T09:06:16.000Z</time>
      </trkpt>
      <trkpt lat="47.30689" lon="-2.43396">
        <ele>65.599998474121</ele>
        <time>2020-10-25T09:06:20.000Z</time>
      </trkpt>
      <trkpt lat="47.30696" lon="-2.43395">
        <ele>65.599998474121</ele>
        <time>2020-10-25T09:06:21.000Z</time>
      </trkpt>
      <trkpt lat="47.30733" lon="-2.4339">
        <ele>65.599998474121</ele>
        <time>2020-10-25T09:06:27.000Z</time>
      </trkpt>
      <trkpt lat="47.30787" lon="-2.43389">
        <ele>65.599998474121</ele>
        <time>2020-10-25T09:06:36.000Z</time>
      </trkpt>
      <trkpt lat="47.30803" lon="-2.4339">
        <ele>65.599998474121</ele>
        <time>2020-10-25T09:06:39.000Z</time>
      </trkpt>
      <trkpt lat="47.30809" lon="-2.43388">
        <ele>65.599998474121</ele>
        <time>2020-10-25T09:06:40.000Z</time>
      </trkpt>
      <trkpt lat="47.30843" lon="-2.43376">
        <ele>65.599998474121</ele>
        <time>2020-10-25T09:06:46.000Z</time>
      </trkpt>
      <trkpt lat="47.3086" lon="-2.43367">
        <ele>65.599998474121</ele>
        <time>2020-10-25T09:06:49.000Z</time>
      </trkpt>
      <trkpt lat="47.30877" lon="-2.43359">
        <ele>65.599998474121</ele>
        <time>2020-10-25T09:06:52.000Z</time>
      </trkpt>
      <trkpt lat="47.30917" lon="-2.43343">
        <ele>65.599998474121</ele>
        <time>2020-10-25T09:06:59.000Z</time>
      </trkpt>
      <trkpt lat="47.30961" lon="-2.43324">
        <ele>65.599998474121</ele>
        <time>2020-10-25T09:07:07.000Z</time>
      </trkpt>
      <trkpt lat="47.31004" lon="-2.43301">
        <ele>65.599998474121</ele>
        <time>2020-10-25T09:07:15.000Z</time>
      </trkpt>
      <trkpt lat="47.31031" lon="-2.43267">
        <ele>65.599998474121</ele>
        <time>2020-10-25T09:07:21.000Z</time>
      </trkpt>
      <trkpt lat="47.31066" lon="-2.43223">
        <ele>65.599998474121</ele>
        <time>2020-10-25T09:07:29.000Z</time>
      </trkpt>
      <trkpt lat="47.3108" lon="-2.43211">
        <ele>65.599998474121</ele>
        <time>2020-10-25T09:07:32.000Z</time>
      </trkpt>
      <trkpt lat="47.31092" lon="-2.432">
        <ele>65.599998474121</ele>
        <time>2020-10-25T09:07:35.000Z</time>
      </trkpt>
      <trkpt lat="47.31103" lon="-2.43191">
        <ele>65.599998474121</ele>
        <time>2020-10-25T09:07:38.000Z</time>
      </trkpt>
      <trkpt lat="47.31111" lon="-2.4319">
        <ele>65.599998474121</ele>
        <time>2020-10-25T09:07:40.000Z</time>
      </trkpt>
      <trkpt lat="47.31124" lon="-2.43201">
        <ele>65.599998474121</ele>
        <time>2020-10-25T09:07:44.000Z</time>
      </trkpt>
      <trkpt lat="47.3113" lon="-2.43211">
        <ele>66.599998474121</ele>
        <time>2020-10-25T09:07:46.000Z</time>
      </trkpt>
      <trkpt lat="47.31132" lon="-2.43216">
        <ele>67</ele>
        <time>2020-10-25T09:07:47.000Z</time>
      </trkpt>
      <trkpt lat="47.31135" lon="-2.4322">
        <ele>67.400001525879</ele>
        <time>2020-10-25T09:07:48.000Z</time>
      </trkpt>
      <trkpt lat="47.31138" lon="-2.43225">
        <ele>67.800003051758</ele>
        <time>2020-10-25T09:07:49.000Z</time>
      </trkpt>
      <trkpt lat="47.31148" lon="-2.4324">
        <ele>67.800003051758</ele>
        <time>2020-10-25T09:07:52.000Z</time>
      </trkpt>
      <trkpt lat="47.31174" lon="-2.4328">
        <ele>67.800003051758</ele>
        <time>2020-10-25T09:08:00.000Z</time>
      </trkpt>
      <trkpt lat="47.3118" lon="-2.4329">
        <ele>67.800003051758</ele>
        <time>2020-10-25T09:08:02.000Z</time>
      </trkpt>
      <trkpt lat="47.31191" lon="-2.43312">
        <ele>67.800003051758</ele>
        <time>2020-10-25T09:08:06.000Z</time>
      </trkpt>
      <trkpt lat="47.31202" lon="-2.43355">
        <ele>67.800003051758</ele>
        <time>2020-10-25T09:08:13.000Z</time>
      </trkpt>
      <trkpt lat="47.31208" lon="-2.4336">
        <ele>67.800003051758</ele>
        <time>2020-10-25T09:08:16.000Z</time>
      </trkpt>
      <trkpt lat="47.31213" lon="-2.43358">
        <ele>67.800003051758</ele>
        <time>2020-10-25T09:08:20.000Z</time>
      </trkpt>
      <trkpt lat="47.31215" lon="-2.43358">
        <ele>67.800003051758</ele>
        <time>2020-10-25T09:08:21.000Z</time>
      </trkpt>
      <trkpt lat="47.31227" lon="-2.43352">
        <ele>67.800003051758</ele>
        <time>2020-10-25T09:08:25.000Z</time>
      </trkpt>
      <trkpt lat="47.31241" lon="-2.43346">
        <ele>67.800003051758</ele>
        <time>2020-10-25T09:08:28.000Z</time>
      </trkpt>
      <trkpt lat="47.3125" lon="-2.43342">
        <ele>67.800003051758</ele>
        <time>2020-10-25T09:08:30.000Z</time>
      </trkpt>
      <trkpt lat="47.31296" lon="-2.43322">
        <ele>67.800003051758</ele>
        <time>2020-10-25T09:08:39.000Z</time>
      </trkpt>
      <trkpt lat="47.31346" lon="-2.43308">
        <ele>67.800003051758</ele>
        <time>2020-10-25T09:08:48.000Z</time>
      </trkpt>
      <trkpt lat="47.31399" lon="-2.43296">
        <ele>67.800003051758</ele>
        <time>2020-10-25T09:08:57.000Z</time>
      </trkpt>
      <trkpt lat="47.31458" lon="-2.43281">
        <ele>67.800003051758</ele>
        <time>2020-10-25T09:09:07.000Z</time>
      </trkpt>
      <trkpt lat="47.3147" lon="-2.43278">
        <ele>68.199996948242</ele>
        <time>2020-10-25T09:09:09.000Z</time>
      </trkpt>
      <trkpt lat="47.31476" lon="-2.43277">
        <ele>68.599998474121</ele>
        <time>2020-10-25T09:09:10.000Z</time>
      </trkpt>
      <trkpt lat="47.31482" lon="-2.43275">
        <ele>69</ele>
        <time>2020-10-25T09:09:11.000Z</time>
      </trkpt>
      <trkpt lat="47.31488" lon="-2.43274">
        <ele>69.400001525879</ele>
        <time>2020-10-25T09:09:12.000Z</time>
      </trkpt>
      <trkpt lat="47.31494" lon="-2.43272">
        <ele>69.800003051758</ele>
        <time>2020-10-25T09:09:13.000Z</time>
      </trkpt>
      <trkpt lat="47.31512" lon="-2.43268">
        <ele>69.800003051758</ele>
        <time>2020-10-25T09:09:16.000Z</time>
      </trkpt>
      <trkpt lat="47.31535" lon="-2.43262">
        <ele>70.199996948242</ele>
        <time>2020-10-25T09:09:20.000Z</time>
      </trkpt>
      <trkpt lat="47.31541" lon="-2.4326">
        <ele>70.599998474121</ele>
        <time>2020-10-25T09:09:21.000Z</time>
      </trkpt>
      <trkpt lat="47.31547" lon="-2.43259">
        <ele>71</ele>
        <time>2020-10-25T09:09:22.000Z</time>
      </trkpt>
      <trkpt lat="47.31553" lon="-2.43257">
        <ele>71.400001525879</ele>
        <time>2020-10-25T09:09:23.000Z</time>
      </trkpt>
      <trkpt lat="47.31559" lon="-2.43255">
        <ele>71.800003051758</ele>
        <time>2020-10-25T09:09:24.000Z</time>
      </trkpt>
      <trkpt lat="47.31609" lon="-2.43234">
        <ele>71.800003051758</ele>
        <time>2020-10-25T09:09:33.000Z</time>
      </trkpt>
      <trkpt lat="47.31645" lon="-2.43211">
        <ele>71.800003051758</ele>
        <time>2020-10-25T09:09:40.000Z</time>
      </trkpt>
      <trkpt lat="47.31673" lon="-2.43178">
        <ele>72.199996948242</ele>
        <time>2020-10-25T09:09:47.000Z</time>
      </trkpt>
      <trkpt lat="47.31676" lon="-2.43173">
        <ele>72.599998474121</ele>
        <time>2020-10-25T09:09:48.000Z</time>
      </trkpt>
      <trkpt lat="47.3168" lon="-2.43169">
        <ele>73.400001525879</ele>
        <time>2020-10-25T09:09:49.000Z</time>
      </trkpt>
      <trkpt lat="47.31684" lon="-2.43165">
        <ele>74</ele>
        <time>2020-10-25T09:09:50.000Z</time>
      </trkpt>
      <trkpt lat="47.31702" lon="-2.43144">
        <ele>74</ele>
        <time>2020-10-25T09:09:55.000Z</time>
      </trkpt>
      <trkpt lat="47.31716" lon="-2.43129">
        <ele>74.400001525879</ele>
        <time>2020-10-25T09:09:59.000Z</time>
      </trkpt>
      <trkpt lat="47.31719" lon="-2.43125">
        <ele>74.800003051758</ele>
        <time>2020-10-25T09:10:00.000Z</time>
      </trkpt>
      <trkpt lat="47.31723" lon="-2.43121">
        <ele>75.199996948242</ele>
        <time>2020-10-25T09:10:01.000Z</time>
      </trkpt>
      <trkpt lat="47.31727" lon="-2.43117">
        <ele>75.599998474121</ele>
        <time>2020-10-25T09:10:02.000Z</time>
      </trkpt>
      <trkpt lat="47.3173" lon="-2.43113">
        <ele>76</ele>
        <time>2020-10-25T09:10:03.000Z</time>
      </trkpt>
      <trkpt lat="47.31734" lon="-2.43109">
        <ele>76</ele>
        <time>2020-10-25T09:10:04.000Z</time>
      </trkpt>
      <trkpt lat="47.31744" lon="-2.43097">
        <ele>76.400001525879</ele>
        <time>2020-10-25T09:10:07.000Z</time>
      </trkpt>
      <trkpt lat="47.31748" lon="-2.43093">
        <ele>76.800003051758</ele>
        <time>2020-10-25T09:10:08.000Z</time>
      </trkpt>
      <trkpt lat="47.31751" lon="-2.43089">
        <ele>77.199996948242</ele>
        <time>2020-10-25T09:10:09.000Z</time>
      </trkpt>
      <trkpt lat="47.31754" lon="-2.43085">
        <ele>77.599998474121</ele>
        <time>2020-10-25T09:10:10.000Z</time>
      </trkpt>
      <trkpt lat="47.31758" lon="-2.4308">
        <ele>78</ele>
        <time>2020-10-25T09:10:11.000Z</time>
      </trkpt>
      <trkpt lat="47.31764" lon="-2.43072">
        <ele>78</ele>
        <time>2020-10-25T09:10:13.000Z</time>
      </trkpt>
      <trkpt lat="47.3177" lon="-2.43064">
        <ele>78.599998474121</ele>
        <time>2020-10-25T09:10:15.000Z</time>
      </trkpt>
      <trkpt lat="47.31773" lon="-2.43061">
        <ele>79</ele>
        <time>2020-10-25T09:10:16.000Z</time>
      </trkpt>
      <trkpt lat="47.31776" lon="-2.43057">
        <ele>79.400001525879</ele>
        <time>2020-10-25T09:10:17.000Z</time>
      </trkpt>
      <trkpt lat="47.31779" lon="-2.43053">
        <ele>79.800003051758</ele>
        <time>2020-10-25T09:10:18.000Z</time>
      </trkpt>
      <trkpt lat="47.31783" lon="-2.4305">
        <ele>80.199996948242</ele>
        <time>2020-10-25T09:10:19.000Z</time>
      </trkpt>
      <trkpt lat="47.31791" lon="-2.4304">
        <ele>80.199996948242</ele>
        <time>2020-10-25T09:10:22.000Z</time>
      </trkpt>
      <trkpt lat="47.31794" lon="-2.43036">
        <ele>80.800003051758</ele>
        <time>2020-10-25T09:10:23.000Z</time>
      </trkpt>
      <trkpt lat="47.31797" lon="-2.43033">
        <ele>81.199996948242</ele>
        <time>2020-10-25T09:10:24.000Z</time>
      </trkpt>
      <trkpt lat="47.318" lon="-2.4303">
        <ele>81.599998474121</ele>
        <time>2020-10-25T09:10:25.000Z</time>
      </trkpt>
      <trkpt lat="47.31803" lon="-2.43027">
        <ele>82.199996948242</ele>
        <time>2020-10-25T09:10:26.000Z</time>
      </trkpt>
      <trkpt lat="47.31806" lon="-2.43025">
        <ele>82.599998474121</ele>
        <time>2020-10-25T09:10:27.000Z</time>
      </trkpt>
      <trkpt lat="47.31809" lon="-2.43022">
        <ele>83</ele>
        <time>2020-10-25T09:10:28.000Z</time>
      </trkpt>
      <trkpt lat="47.31811" lon="-2.4302">
        <ele>83.400001525879</ele>
        <time>2020-10-25T09:10:29.000Z</time>
      </trkpt>
      <trkpt lat="47.31813" lon="-2.43018">
        <ele>83.800003051758</ele>
        <time>2020-10-25T09:10:30.000Z</time>
      </trkpt>
      <trkpt lat="47.31814" lon="-2.43016">
        <ele>84.199996948242</ele>
        <time>2020-10-25T09:10:31.000Z</time>
      </trkpt>
      <trkpt lat="47.31816" lon="-2.43015">
        <ele>84.599998474121</ele>
        <time>2020-10-25T09:10:32.000Z</time>
      </trkpt>
      <trkpt lat="47.3182" lon="-2.43013">
        <ele>84.599998474121</ele>
        <time>2020-10-25T09:10:34.000Z</time>
      </trkpt>
      <trkpt lat="47.31822" lon="-2.43012">
        <ele>85.199996948242</ele>
        <time>2020-10-25T09:10:35.000Z</time>
      </trkpt>
      <trkpt lat="47.31824" lon="-2.43012">
        <ele>85.599998474121</ele>
        <time>2020-10-25T09:10:36.000Z</time>
      </trkpt>
      <trkpt lat="47.31827" lon="-2.43012">
        <ele>86</ele>
        <time>2020-10-25T09:10:37.000Z</time>
      </trkpt>
      <trkpt lat="47.3183" lon="-2.43013">
        <ele>87</ele>
        <time>2020-10-25T09:10:38.000Z</time>
      </trkpt>
      <trkpt lat="47.31836" lon="-2.43014">
        <ele>87</ele>
        <time>2020-10-25T09:10:40.000Z</time>
      </trkpt>
      <trkpt lat="47.31858" lon="-2.43013">
        <ele>87</ele>
        <time>2020-10-25T09:10:46.000Z</time>
      </trkpt>
      <trkpt lat="47.31878" lon="-2.43003">
        <ele>87</ele>
        <time>2020-10-25T09:10:52.000Z</time>
      </trkpt>
      <trkpt lat="47.31885" lon="-2.42997">
        <ele>87.400001525879</ele>
        <time>2020-10-25T09:10:54.000Z</time>
      </trkpt>
      <trkpt lat="47.31888" lon="-2.42993">
        <ele>87.800003051758</ele>
        <time>2020-10-25T09:10:55.000Z</time>
      </trkpt>
      <trkpt lat="47.31891" lon="-2.4299">
        <ele>88.199996948242</ele>
        <time>2020-10-25T09:10:56.000Z</time>
      </trkpt>
      <trkpt lat="47.31895" lon="-2.42986">
        <ele>88.599998474121</ele>
        <time>2020-10-25T09:10:57.000Z</time>
      </trkpt>
      <trkpt lat="47.31898" lon="-2.42983">
        <ele>89</ele>
        <time>2020-10-25T09:10:58.000Z</time>
      </trkpt>
      <trkpt lat="47.31902" lon="-2.42979">
        <ele>89</ele>
        <time>2020-10-25T09:10:59.000Z</time>
      </trkpt>
      <trkpt lat="47.31928" lon="-2.42947">
        <ele>89</ele>
        <time>2020-10-25T09:11:07.000Z</time>
      </trkpt>
      <trkpt lat="47.31937" lon="-2.42936">
        <ele>89.400001525879</ele>
        <time>2020-10-25T09:11:10.000Z</time>
      </trkpt>
      <trkpt lat="47.3194" lon="-2.42933">
        <ele>89.800003051758</ele>
        <time>2020-10-25T09:11:11.000Z</time>
      </trkpt>
      <trkpt lat="47.31943" lon="-2.42929">
        <ele>90.199996948242</ele>
        <time>2020-10-25T09:11:12.000Z</time>
      </trkpt>
      <trkpt lat="47.31946" lon="-2.42925">
        <ele>90.599998474121</ele>
        <time>2020-10-25T09:11:13.000Z</time>
      </trkpt>
      <trkpt lat="47.31949" lon="-2.42921">
        <ele>91</ele>
        <time>2020-10-25T09:11:14.000Z</time>
      </trkpt>
      <trkpt lat="47.31952" lon="-2.42917">
        <ele>91</ele>
        <time>2020-10-25T09:11:15.000Z</time>
      </trkpt>
      <trkpt lat="47.31977" lon="-2.42885">
        <ele>91.400001525879</ele>
        <time>2020-10-25T09:11:23.000Z</time>
      </trkpt>
      <trkpt lat="47.3198" lon="-2.42881">
        <ele>91.800003051758</ele>
        <time>2020-10-25T09:11:24.000Z</time>
      </trkpt>
      <trkpt lat="47.31984" lon="-2.42877">
        <ele>92.400001525879</ele>
        <time>2020-10-25T09:11:25.000Z</time>
      </trkpt>
      <trkpt lat="47.31987" lon="-2.42873">
        <ele>92.800003051758</ele>
        <time>2020-10-25T09:11:26.000Z</time>
      </trkpt>
      <trkpt lat="47.3199" lon="-2.42869">
        <ele>93.199996948242</ele>
        <time>2020-10-25T09:11:27.000Z</time>
      </trkpt>
      <trkpt lat="47.31995" lon="-2.42859">
        <ele>93.199996948242</ele>
        <time>2020-10-25T09:11:29.000Z</time>
      </trkpt>
      <trkpt lat="47.31997" lon="-2.42854">
        <ele>93.199996948242</ele>
        <time>2020-10-25T09:11:30.000Z</time>
      </trkpt>
      <trkpt lat="47.32003" lon="-2.42845">
        <ele>93.199996948242</ele>
        <time>2020-10-25T09:11:32.000Z</time>
      </trkpt>
      <trkpt lat="47.32014" lon="-2.42835">
        <ele>93.199996948242</ele>
        <time>2020-10-25T09:11:35.000Z</time>
      </trkpt>
      <trkpt lat="47.32018" lon="-2.42832">
        <ele>93.599998474121</ele>
        <time>2020-10-25T09:11:36.000Z</time>
      </trkpt>
      <trkpt lat="47.32022" lon="-2.4283">
        <ele>94</ele>
        <time>2020-10-25T09:11:37.000Z</time>
      </trkpt>
      <trkpt lat="47.32026" lon="-2.42828">
        <ele>94.400001525879</ele>
        <time>2020-10-25T09:11:38.000Z</time>
      </trkpt>
      <trkpt lat="47.32031" lon="-2.42826">
        <ele>94.800003051758</ele>
        <time>2020-10-25T09:11:39.000Z</time>
      </trkpt>
      <trkpt lat="47.32035" lon="-2.42825">
        <ele>95.199996948242</ele>
        <time>2020-10-25T09:11:40.000Z</time>
      </trkpt>
      <trkpt lat="47.3204" lon="-2.42824">
        <ele>95.199996948242</ele>
        <time>2020-10-25T09:11:41.000Z</time>
      </trkpt>
      <trkpt lat="47.32068" lon="-2.42827">
        <ele>95.199996948242</ele>
        <time>2020-10-25T09:11:47.000Z</time>
      </trkpt>
      <trkpt lat="47.32072" lon="-2.42828">
        <ele>95.599998474121</ele>
        <time>2020-10-25T09:11:48.000Z</time>
      </trkpt>
      <trkpt lat="47.32078" lon="-2.42829">
        <ele>96</ele>
        <time>2020-10-25T09:11:49.000Z</time>
      </trkpt>
      <trkpt lat="47.32082" lon="-2.4283">
        <ele>96.400001525879</ele>
        <time>2020-10-25T09:11:50.000Z</time>
      </trkpt>
      <trkpt lat="47.32087" lon="-2.4283">
        <ele>97</ele>
        <time>2020-10-25T09:11:51.000Z</time>
      </trkpt>
      <trkpt lat="47.32091" lon="-2.42831">
        <ele>97.400001525879</ele>
        <time>2020-10-25T09:11:52.000Z</time>
      </trkpt>
      <trkpt lat="47.32104" lon="-2.42834">
        <ele>97.400001525879</ele>
        <time>2020-10-25T09:11:55.000Z</time>
      </trkpt>
      <trkpt lat="47.32127" lon="-2.42837">
        <ele>97.800003051758</ele>
        <time>2020-10-25T09:12:00.000Z</time>
      </trkpt>
      <trkpt lat="47.32132" lon="-2.42838">
        <ele>98.199996948242</ele>
        <time>2020-10-25T09:12:01.000Z</time>
      </trkpt>
      <trkpt lat="47.32136" lon="-2.42839">
        <ele>98.599998474121</ele>
        <time>2020-10-25T09:12:02.000Z</time>
      </trkpt>
      <trkpt lat="47.32141" lon="-2.4284">
        <ele>99</ele>
        <time>2020-10-25T09:12:03.000Z</time>
      </trkpt>
      <trkpt lat="47.32145" lon="-2.42841">
        <ele>99.400001525879</ele>
        <time>2020-10-25T09:12:04.000Z</time>
      </trkpt>
      <trkpt lat="47.32172" lon="-2.42848">
        <ele>99.400001525879</ele>
        <time>2020-10-25T09:12:10.000Z</time>
      </trkpt>
      <trkpt lat="47.32176" lon="-2.42849">
        <ele>99.800003051758</ele>
        <time>2020-10-25T09:12:11.000Z</time>
      </trkpt>
      <trkpt lat="47.32181" lon="-2.4285">
        <ele>100.19999694824</ele>
        <time>2020-10-25T09:12:12.000Z</time>
      </trkpt>
      <trkpt lat="47.32186" lon="-2.42851">
        <ele>100.59999847412</ele>
        <time>2020-10-25T09:12:13.000Z</time>
      </trkpt>
      <trkpt lat="47.3219" lon="-2.42851">
        <ele>101</ele>
        <time>2020-10-25T09:12:14.000Z</time>
      </trkpt>
      <trkpt lat="47.32195" lon="-2.42852">
        <ele>101.40000152588</ele>
        <time>2020-10-25T09:12:15.000Z</time>
      </trkpt>
      <trkpt lat="47.32203" lon="-2.42853">
        <ele>101.40000152588</ele>
        <time>2020-10-25T09:12:17.000Z</time>
      </trkpt>
      <trkpt lat="47.32226" lon="-2.42857">
        <ele>101.80000305176</ele>
        <time>2020-10-25T09:12:22.000Z</time>
      </trkpt>
      <trkpt lat="47.3223" lon="-2.42859">
        <ele>102.19999694824</ele>
        <time>2020-10-25T09:12:23.000Z</time>
      </trkpt>
      <trkpt lat="47.32235" lon="-2.4286">
        <ele>102.59999847412</ele>
        <time>2020-10-25T09:12:24.000Z</time>
      </trkpt>
      <trkpt lat="47.32239" lon="-2.42862">
        <ele>103</ele>
        <time>2020-10-25T09:12:25.000Z</time>
      </trkpt>
      <trkpt lat="47.32244" lon="-2.42864">
        <ele>103.40000152588</ele>
        <time>2020-10-25T09:12:26.000Z</time>
      </trkpt>
      <trkpt lat="47.32262" lon="-2.42871">
        <ele>103.40000152588</ele>
        <time>2020-10-25T09:12:30.000Z</time>
      </trkpt>
      <trkpt lat="47.32297" lon="-2.42885">
        <ele>103.40000152588</ele>
        <time>2020-10-25T09:12:38.000Z</time>
      </trkpt>
      <trkpt lat="47.32338" lon="-2.42899">
        <ele>103.40000152588</ele>
        <time>2020-10-25T09:12:47.000Z</time>
      </trkpt>
      <trkpt lat="47.32372" lon="-2.42897">
        <ele>103.40000152588</ele>
        <time>2020-10-25T09:12:53.000Z</time>
      </trkpt>
      <trkpt lat="47.3239" lon="-2.42894">
        <ele>103.40000152588</ele>
        <time>2020-10-25T09:12:56.000Z</time>
      </trkpt>
      <trkpt lat="47.32401" lon="-2.42884">
        <ele>103.40000152588</ele>
        <time>2020-10-25T09:12:58.000Z</time>
      </trkpt>
      <trkpt lat="47.32416" lon="-2.42873">
        <ele>103.40000152588</ele>
        <time>2020-10-25T09:13:01.000Z</time>
      </trkpt>
      <trkpt lat="47.3242" lon="-2.42873">
        <ele>103.40000152588</ele>
        <time>2020-10-25T09:13:02.000Z</time>
      </trkpt>
      <trkpt lat="47.32428" lon="-2.42884">
        <ele>103.40000152588</ele>
        <time>2020-10-25T09:13:04.000Z</time>
      </trkpt>
      <trkpt lat="47.32429" lon="-2.42892">
        <ele>104</ele>
        <time>2020-10-25T09:13:05.000Z</time>
      </trkpt>
      <trkpt lat="47.32431" lon="-2.429">
        <ele>104.40000152588</ele>
        <time>2020-10-25T09:13:06.000Z</time>
      </trkpt>
      <trkpt lat="47.32435" lon="-2.42905">
        <ele>105.19999694824</ele>
        <time>2020-10-25T09:13:07.000Z</time>
      </trkpt>
      <trkpt lat="47.32439" lon="-2.4291">
        <ele>105.59999847412</ele>
        <time>2020-10-25T09:13:08.000Z</time>
      </trkpt>
      <trkpt lat="47.32452" lon="-2.4292">
        <ele>105.59999847412</ele>
        <time>2020-10-25T09:13:11.000Z</time>
      </trkpt>
      <trkpt lat="47.32457" lon="-2.42922">
        <ele>105.59999847412</ele>
        <time>2020-10-25T09:13:12.000Z</time>
      </trkpt>
      <trkpt lat="47.32476" lon="-2.4293">
        <ele>105.59999847412</ele>
        <time>2020-10-25T09:13:16.000Z</time>
      </trkpt>
      <trkpt lat="47.32481" lon="-2.42931">
        <ele>106</ele>
        <time>2020-10-25T09:13:17.000Z</time>
      </trkpt>
      <trkpt lat="47.32486" lon="-2.42932">
        <ele>106.40000152588</ele>
        <time>2020-10-25T09:13:18.000Z</time>
      </trkpt>
      <trkpt lat="47.32491" lon="-2.42933">
        <ele>106.80000305176</ele>
        <time>2020-10-25T09:13:19.000Z</time>
      </trkpt>
      <trkpt lat="47.32497" lon="-2.42935">
        <ele>107.19999694824</ele>
        <time>2020-10-25T09:13:20.000Z</time>
      </trkpt>
      <trkpt lat="47.32501" lon="-2.42935">
        <ele>107.59999847412</ele>
        <time>2020-10-25T09:13:21.000Z</time>
      </trkpt>
      <trkpt lat="47.32511" lon="-2.42937">
        <ele>107.59999847412</ele>
        <time>2020-10-25T09:13:23.000Z</time>
      </trkpt>
      <trkpt lat="47.3253" lon="-2.4294">
        <ele>108</ele>
        <time>2020-10-25T09:13:27.000Z</time>
      </trkpt>
      <trkpt lat="47.32535" lon="-2.42941">
        <ele>108.40000152588</ele>
        <time>2020-10-25T09:13:28.000Z</time>
      </trkpt>
      <trkpt lat="47.3254" lon="-2.42941">
        <ele>108.80000305176</ele>
        <time>2020-10-25T09:13:29.000Z</time>
      </trkpt>
      <trkpt lat="47.32545" lon="-2.42941">
        <ele>109.19999694824</ele>
        <time>2020-10-25T09:13:30.000Z</time>
      </trkpt>
      <trkpt lat="47.3255" lon="-2.42941">
        <ele>109.59999847412</ele>
        <time>2020-10-25T09:13:31.000Z</time>
      </trkpt>
      <trkpt lat="47.32568" lon="-2.4294">
        <ele>110</ele>
        <time>2020-10-25T09:13:35.000Z</time>
      </trkpt>
      <trkpt lat="47.32572" lon="-2.4294">
        <ele>110.40000152588</ele>
        <time>2020-10-25T09:13:36.000Z</time>
      </trkpt>
      <trkpt lat="47.32577" lon="-2.42939">
        <ele>110.80000305176</ele>
        <time>2020-10-25T09:13:37.000Z</time>
      </trkpt>
      <trkpt lat="47.32581" lon="-2.42939">
        <ele>111.40000152588</ele>
        <time>2020-10-25T09:13:38.000Z</time>
      </trkpt>
      <trkpt lat="47.32585" lon="-2.42939">
        <ele>111.80000305176</ele>
        <time>2020-10-25T09:13:39.000Z</time>
      </trkpt>
      <trkpt lat="47.32603" lon="-2.42937">
        <ele>111.80000305176</ele>
        <time>2020-10-25T09:13:43.000Z</time>
      </trkpt>
      <trkpt lat="47.32607" lon="-2.42937">
        <ele>112.19999694824</ele>
        <time>2020-10-25T09:13:44.000Z</time>
      </trkpt>
      <trkpt lat="47.32611" lon="-2.42936">
        <ele>112.59999847412</ele>
        <time>2020-10-25T09:13:45.000Z</time>
      </trkpt>
      <trkpt lat="47.32615" lon="-2.42936">
        <ele>113</ele>
        <time>2020-10-25T09:13:46.000Z</time>
      </trkpt>
      <trkpt lat="47.32619" lon="-2.42935">
        <ele>113.40000152588</ele>
        <time>2020-10-25T09:13:47.000Z</time>
      </trkpt>
      <trkpt lat="47.32622" lon="-2.42932">
        <ele>113.80000305176</ele>
        <time>2020-10-25T09:13:48.000Z</time>
      </trkpt>
      <trkpt lat="47.32636" lon="-2.42929">
        <ele>113.80000305176</ele>
        <time>2020-10-25T09:13:52.000Z</time>
      </trkpt>
      <trkpt lat="47.32657" lon="-2.42933">
        <ele>113.80000305176</ele>
        <time>2020-10-25T09:13:58.000Z</time>
      </trkpt>
      <trkpt lat="47.32688" lon="-2.42936">
        <ele>113.80000305176</ele>
        <time>2020-10-25T09:14:06.000Z</time>
      </trkpt>
      <trkpt lat="47.32715" lon="-2.42945">
        <ele>113.80000305176</ele>
        <time>2020-10-25T09:14:14.000Z</time>
      </trkpt>
      <trkpt lat="47.32731" lon="-2.42952">
        <ele>114.19999694824</ele>
        <time>2020-10-25T09:14:20.000Z</time>
      </trkpt>
      <trkpt lat="47.32733" lon="-2.42953">
        <ele>115</ele>
        <time>2020-10-25T09:14:21.000Z</time>
      </trkpt>
      <trkpt lat="47.32735" lon="-2.42954">
        <ele>115.40000152588</ele>
        <time>2020-10-25T09:14:22.000Z</time>
      </trkpt>
      <trkpt lat="47.32737" lon="-2.42954">
        <ele>115.80000305176</ele>
        <time>2020-10-25T09:14:23.000Z</time>
      </trkpt>
      <trkpt lat="47.32745" lon="-2.42952">
        <ele>115.80000305176</ele>
        <time>2020-10-25T09:14:26.000Z</time>
      </trkpt>
      <trkpt lat="47.32759" lon="-2.42954">
        <ele>115.80000305176</ele>
        <time>2020-10-25T09:14:32.000Z</time>
      </trkpt>
      <trkpt lat="47.32778" lon="-2.42955">
        <ele>115.80000305176</ele>
        <time>2020-10-25T09:14:40.000Z</time>
      </trkpt>
      <trkpt lat="47.32782" lon="-2.42953">
        <ele>115.80000305176</ele>
        <time>2020-10-25T09:14:43.000Z</time>
      </trkpt>
      <trkpt lat="47.32786" lon="-2.42952">
        <ele>115.80000305176</ele>
        <time>2020-10-25T09:14:45.000Z</time>
      </trkpt>
      <trkpt lat="47.32796" lon="-2.42951">
        <ele>115.80000305176</ele>
        <time>2020-10-25T09:14:50.000Z</time>
      </trkpt>
      <trkpt lat="47.32814" lon="-2.42959">
        <ele>115.80000305176</ele>
        <time>2020-10-25T09:14:55.000Z</time>
      </trkpt>
      <trkpt lat="47.32839" lon="-2.4296">
        <ele>115.80000305176</ele>
        <time>2020-10-25T09:15:02.000Z</time>
      </trkpt>
      <trkpt lat="47.3286" lon="-2.42956">
        <ele>115.80000305176</ele>
        <time>2020-10-25T09:15:08.000Z</time>
      </trkpt>
      <trkpt lat="47.32884" lon="-2.42952">
        <ele>115.80000305176</ele>
        <time>2020-10-25T09:15:14.000Z</time>
      </trkpt>
      <trkpt lat="47.32897" lon="-2.4295">
        <ele>115.40000152588</ele>
        <time>2020-10-25T09:15:17.000Z</time>
      </trkpt>
      <trkpt lat="47.32901" lon="-2.42949">
        <ele>115</ele>
        <time>2020-10-25T09:15:18.000Z</time>
      </trkpt>
      <trkpt lat="47.32905" lon="-2.42948">
        <ele>114.59999847412</ele>
        <time>2020-10-25T09:15:19.000Z</time>
      </trkpt>
      <trkpt lat="47.32909" lon="-2.42947">
        <ele>114.19999694824</ele>
        <time>2020-10-25T09:15:20.000Z</time>
      </trkpt>
      <trkpt lat="47.32914" lon="-2.42946">
        <ele>113.80000305176</ele>
        <time>2020-10-25T09:15:21.000Z</time>
      </trkpt>
      <trkpt lat="47.32922" lon="-2.42941">
        <ele>113.80000305176</ele>
        <time>2020-10-25T09:15:23.000Z</time>
      </trkpt>
      <trkpt lat="47.32931" lon="-2.42938">
        <ele>113.80000305176</ele>
        <time>2020-10-25T09:15:25.000Z</time>
      </trkpt>
      <trkpt lat="47.3295" lon="-2.42936">
        <ele>113.80000305176</ele>
        <time>2020-10-25T09:15:29.000Z</time>
      </trkpt>
      <trkpt lat="47.3296" lon="-2.42934">
        <ele>113.80000305176</ele>
        <time>2020-10-25T09:15:31.000Z</time>
      </trkpt>
      <trkpt lat="47.32976" lon="-2.42931">
        <ele>113.80000305176</ele>
        <time>2020-10-25T09:15:35.000Z</time>
      </trkpt>
      <trkpt lat="47.32999" lon="-2.42926">
        <ele>113.40000152588</ele>
        <time>2020-10-25T09:15:41.000Z</time>
      </trkpt>
      <trkpt lat="47.33004" lon="-2.42925">
        <ele>113</ele>
        <time>2020-10-25T09:15:42.000Z</time>
      </trkpt>
      <trkpt lat="47.33008" lon="-2.42925">
        <ele>112.59999847412</ele>
        <time>2020-10-25T09:15:43.000Z</time>
      </trkpt>
      <trkpt lat="47.33012" lon="-2.42924">
        <ele>112.19999694824</ele>
        <time>2020-10-25T09:15:44.000Z</time>
      </trkpt>
      <trkpt lat="47.33017" lon="-2.42924">
        <ele>111.80000305176</ele>
        <time>2020-10-25T09:15:45.000Z</time>
      </trkpt>
      <trkpt lat="47.33027" lon="-2.42921">
        <ele>111.80000305176</ele>
        <time>2020-10-25T09:15:47.000Z</time>
      </trkpt>
      <trkpt lat="47.33052" lon="-2.42916">
        <ele>111.80000305176</ele>
        <time>2020-10-25T09:15:52.000Z</time>
      </trkpt>
      <trkpt lat="47.33062" lon="-2.42913">
        <ele>111.80000305176</ele>
        <time>2020-10-25T09:15:54.000Z</time>
      </trkpt>
      <trkpt lat="47.33071" lon="-2.42912">
        <ele>111.80000305176</ele>
        <time>2020-10-25T09:15:56.000Z</time>
      </trkpt>
      <trkpt lat="47.33092" lon="-2.42908">
        <ele>111.80000305176</ele>
        <time>2020-10-25T09:16:00.000Z</time>
      </trkpt>
      <trkpt lat="47.33138" lon="-2.429">
        <ele>111.40000152588</ele>
        <time>2020-10-25T09:16:09.000Z</time>
      </trkpt>
      <trkpt lat="47.33142" lon="-2.42899">
        <ele>110.80000305176</ele>
        <time>2020-10-25T09:16:10.000Z</time>
      </trkpt>
      <trkpt lat="47.33145" lon="-2.42898">
        <ele>110.40000152588</ele>
        <time>2020-10-25T09:16:11.000Z</time>
      </trkpt>
      <trkpt lat="47.33147" lon="-2.42898">
        <ele>110</ele>
        <time>2020-10-25T09:16:12.000Z</time>
      </trkpt>
      <trkpt lat="47.33149" lon="-2.42897">
        <ele>109.59999847412</ele>
        <time>2020-10-25T09:16:13.000Z</time>
      </trkpt>
      <trkpt lat="47.33151" lon="-2.42891">
        <ele>109.59999847412</ele>
        <time>2020-10-25T09:16:15.000Z</time>
      </trkpt>
      <trkpt lat="47.33153" lon="-2.42883">
        <ele>109.59999847412</ele>
        <time>2020-10-25T09:16:17.000Z</time>
      </trkpt>
      <trkpt lat="47.33155" lon="-2.42871">
        <ele>109.59999847412</ele>
        <time>2020-10-25T09:16:19.000Z</time>
      </trkpt>
      <trkpt lat="47.33153" lon="-2.42858">
        <ele>109.59999847412</ele>
        <time>2020-10-25T09:16:21.000Z</time>
      </trkpt>
      <trkpt lat="47.33154" lon="-2.4285">
        <ele>109.59999847412</ele>
        <time>2020-10-25T09:16:22.000Z</time>
      </trkpt>
      <trkpt lat="47.33154" lon="-2.42813">
        <ele>109.59999847412</ele>
        <time>2020-10-25T09:16:27.000Z</time>
      </trkpt>
      <trkpt lat="47.33154" lon="-2.42796">
        <ele>109.59999847412</ele>
        <time>2020-10-25T09:16:29.000Z</time>
      </trkpt>
      <trkpt lat="47.33152" lon="-2.42771">
        <ele>109.59999847412</ele>
        <time>2020-10-25T09:16:32.000Z</time>
      </trkpt>
      <trkpt lat="47.33147" lon="-2.4272">
        <ele>109.59999847412</ele>
        <time>2020-10-25T09:16:38.000Z</time>
      </trkpt>
      <trkpt lat="47.33143" lon="-2.42704">
        <ele>109.59999847412</ele>
        <time>2020-10-25T09:16:40.000Z</time>
      </trkpt>
      <trkpt lat="47.33138" lon="-2.42691">
        <ele>109.59999847412</ele>
        <time>2020-10-25T09:16:42.000Z</time>
      </trkpt>
      <trkpt lat="47.33119" lon="-2.42653">
        <ele>109.59999847412</ele>
        <time>2020-10-25T09:16:48.000Z</time>
      </trkpt>
      <trkpt lat="47.33111" lon="-2.42633">
        <ele>109.59999847412</ele>
        <time>2020-10-25T09:16:51.000Z</time>
      </trkpt>
      <trkpt lat="47.33105" lon="-2.42618">
        <ele>109.59999847412</ele>
        <time>2020-10-25T09:16:53.000Z</time>
      </trkpt>
      <trkpt lat="47.33099" lon="-2.42605">
        <ele>109.59999847412</ele>
        <time>2020-10-25T09:16:55.000Z</time>
      </trkpt>
      <trkpt lat="47.33094" lon="-2.4259">
        <ele>109.59999847412</ele>
        <time>2020-10-25T09:16:57.000Z</time>
      </trkpt>
      <trkpt lat="47.33087" lon="-2.42577">
        <ele>109.59999847412</ele>
        <time>2020-10-25T09:16:59.000Z</time>
      </trkpt>
      <trkpt lat="47.33084" lon="-2.42571">
        <ele>109.59999847412</ele>
        <time>2020-10-25T09:17:00.000Z</time>
      </trkpt>
      <trkpt lat="47.33074" lon="-2.42547">
        <ele>109.59999847412</ele>
        <time>2020-10-25T09:17:04.000Z</time>
      </trkpt>
      <trkpt lat="47.33079" lon="-2.42536">
        <ele>109.59999847412</ele>
        <time>2020-10-25T09:17:06.000Z</time>
      </trkpt>
      <trkpt lat="47.33094" lon="-2.42526">
        <ele>109.59999847412</ele>
        <time>2020-10-25T09:17:09.000Z</time>
      </trkpt>
      <trkpt lat="47.3314" lon="-2.42493">
        <ele>109.59999847412</ele>
        <time>2020-10-25T09:17:17.000Z</time>
      </trkpt>
      <trkpt lat="47.33186" lon="-2.42454">
        <ele>109.59999847412</ele>
        <time>2020-10-25T09:17:25.000Z</time>
      </trkpt>
      <trkpt lat="47.33235" lon="-2.42413">
        <ele>109.59999847412</ele>
        <time>2020-10-25T09:17:34.000Z</time>
      </trkpt>
      <trkpt lat="47.33245" lon="-2.42403">
        <ele>109.59999847412</ele>
        <time>2020-10-25T09:17:36.000Z</time>
      </trkpt>
      <trkpt lat="47.33285" lon="-2.42364">
        <ele>109.59999847412</ele>
        <time>2020-10-25T09:17:44.000Z</time>
      </trkpt>
      <trkpt lat="47.33313" lon="-2.42335">
        <ele>109.59999847412</ele>
        <time>2020-10-25T09:17:50.000Z</time>
      </trkpt>
      <trkpt lat="47.33318" lon="-2.4233">
        <ele>110</ele>
        <time>2020-10-25T09:17:51.000Z</time>
      </trkpt>
      <trkpt lat="47.33322" lon="-2.42326">
        <ele>110.40000152588</ele>
        <time>2020-10-25T09:17:52.000Z</time>
      </trkpt>
      <trkpt lat="47.33327" lon="-2.42322">
        <ele>111</ele>
        <time>2020-10-25T09:17:53.000Z</time>
      </trkpt>
      <trkpt lat="47.33331" lon="-2.42318">
        <ele>111.40000152588</ele>
        <time>2020-10-25T09:17:54.000Z</time>
      </trkpt>
      <trkpt lat="47.33336" lon="-2.42313">
        <ele>111.80000305176</ele>
        <time>2020-10-25T09:17:55.000Z</time>
      </trkpt>
      <trkpt lat="47.33352" lon="-2.42294">
        <ele>111.80000305176</ele>
        <time>2020-10-25T09:17:59.000Z</time>
      </trkpt>
      <trkpt lat="47.33365" lon="-2.42281">
        <ele>111.80000305176</ele>
        <time>2020-10-25T09:18:02.000Z</time>
      </trkpt>
      <trkpt lat="47.33377" lon="-2.42266">
        <ele>111.80000305176</ele>
        <time>2020-10-25T09:18:05.000Z</time>
      </trkpt>
      <trkpt lat="47.33398" lon="-2.4224">
        <ele>111.80000305176</ele>
        <time>2020-10-25T09:18:10.000Z</time>
      </trkpt>
      <trkpt lat="47.33409" lon="-2.42234">
        <ele>111.80000305176</ele>
        <time>2020-10-25T09:18:12.000Z</time>
      </trkpt>
      <trkpt lat="47.33427" lon="-2.42229">
        <ele>111.80000305176</ele>
        <time>2020-10-25T09:18:15.000Z</time>
      </trkpt>
      <trkpt lat="47.33438" lon="-2.42224">
        <ele>111.80000305176</ele>
        <time>2020-10-25T09:18:17.000Z</time>
      </trkpt>
      <trkpt lat="47.33455" lon="-2.42217">
        <ele>111.40000152588</ele>
        <time>2020-10-25T09:18:20.000Z</time>
      </trkpt>
      <trkpt lat="47.33461" lon="-2.42215">
        <ele>111</ele>
        <time>2020-10-25T09:18:21.000Z</time>
      </trkpt>
      <trkpt lat="47.33466" lon="-2.42213">
        <ele>110.40000152588</ele>
        <time>2020-10-25T09:18:22.000Z</time>
      </trkpt>
      <trkpt lat="47.33472" lon="-2.42211">
        <ele>110</ele>
        <time>2020-10-25T09:18:23.000Z</time>
      </trkpt>
      <trkpt lat="47.33477" lon="-2.42209">
        <ele>109.59999847412</ele>
        <time>2020-10-25T09:18:24.000Z</time>
      </trkpt>
      <trkpt lat="47.33483" lon="-2.42207">
        <ele>109.59999847412</ele>
        <time>2020-10-25T09:18:25.000Z</time>
      </trkpt>
      <trkpt lat="47.33528" lon="-2.42191">
        <ele>109.59999847412</ele>
        <time>2020-10-25T09:18:34.000Z</time>
      </trkpt>
      <trkpt lat="47.33543" lon="-2.42188">
        <ele>109.59999847412</ele>
        <time>2020-10-25T09:18:38.000Z</time>
      </trkpt>
      <trkpt lat="47.3355" lon="-2.42188">
        <ele>109.59999847412</ele>
        <time>2020-10-25T09:18:42.000Z</time>
      </trkpt>
      <trkpt lat="47.33552" lon="-2.42191">
        <ele>109.59999847412</ele>
        <time>2020-10-25T09:18:44.000Z</time>
      </trkpt>
      <trkpt lat="47.33555" lon="-2.42192">
        <ele>109.59999847412</ele>
        <time>2020-10-25T09:18:47.000Z</time>
      </trkpt>
      <trkpt lat="47.33557" lon="-2.4219">
        <ele>109.59999847412</ele>
        <time>2020-10-25T09:18:48.000Z</time>
      </trkpt>
      <trkpt lat="47.3356" lon="-2.42186">
        <ele>109.59999847412</ele>
        <time>2020-10-25T09:18:51.000Z</time>
      </trkpt>
      <trkpt lat="47.3356" lon="-2.42186">
        <ele>109.59999847412</ele>
        <time>2020-10-25T09:19:01.000Z</time>
      </trkpt>
      <trkpt lat="47.33565" lon="-2.42182">
        <ele>109.59999847412</ele>
        <time>2020-10-25T09:19:04.000Z</time>
      </trkpt>
      <trkpt lat="47.33581" lon="-2.42176">
        <ele>109.59999847412</ele>
        <time>2020-10-25T09:19:08.000Z</time>
      </trkpt>
      <trkpt lat="47.33581" lon="-2.42176">
        <ele>109.59999847412</ele>
        <time>2020-10-25T09:19:11.000Z</time>
      </trkpt>
      <trkpt lat="47.33586" lon="-2.42171">
        <ele>109.59999847412</ele>
        <time>2020-10-25T09:19:13.000Z</time>
      </trkpt>
      <trkpt lat="47.33594" lon="-2.42165">
        <ele>109.59999847412</ele>
        <time>2020-10-25T09:19:15.000Z</time>
      </trkpt>
      <trkpt lat="47.33599" lon="-2.42163">
        <ele>109.59999847412</ele>
        <time>2020-10-25T09:19:16.000Z</time>
      </trkpt>
      <trkpt lat="47.33619" lon="-2.4216">
        <ele>109.59999847412</ele>
        <time>2020-10-25T09:19:20.000Z</time>
      </trkpt>
      <trkpt lat="47.33624" lon="-2.42158">
        <ele>109.59999847412</ele>
        <time>2020-10-25T09:19:23.000Z</time>
      </trkpt>
      <trkpt lat="47.33626" lon="-2.42156">
        <ele>109.19999694824</ele>
        <time>2020-10-25T09:19:25.000Z</time>
      </trkpt>
      <trkpt lat="47.33628" lon="-2.42156">
        <ele>108.80000305176</ele>
        <time>2020-10-25T09:19:26.000Z</time>
      </trkpt>
      <trkpt lat="47.33629" lon="-2.42155">
        <ele>108.40000152588</ele>
        <time>2020-10-25T09:19:27.000Z</time>
      </trkpt>
      <trkpt lat="47.3363" lon="-2.42154">
        <ele>107.80000305176</ele>
        <time>2020-10-25T09:19:28.000Z</time>
      </trkpt>
      <trkpt lat="47.33632" lon="-2.42152">
        <ele>107.40000152588</ele>
        <time>2020-10-25T09:19:29.000Z</time>
      </trkpt>
      <trkpt lat="47.33636" lon="-2.42149">
        <ele>107.40000152588</ele>
        <time>2020-10-25T09:19:31.000Z</time>
      </trkpt>
      <trkpt lat="47.33638" lon="-2.42149">
        <ele>107.40000152588</ele>
        <time>2020-10-25T09:19:32.000Z</time>
      </trkpt>
      <trkpt lat="47.33646" lon="-2.4215">
        <ele>107.40000152588</ele>
        <time>2020-10-25T09:19:35.000Z</time>
      </trkpt>
      <trkpt lat="47.3365" lon="-2.4215">
        <ele>107.40000152588</ele>
        <time>2020-10-25T09:19:36.000Z</time>
      </trkpt>
      <trkpt lat="47.33677" lon="-2.42143">
        <ele>107.40000152588</ele>
        <time>2020-10-25T09:19:41.000Z</time>
      </trkpt>
      <trkpt lat="47.33717" lon="-2.42131">
        <ele>107.40000152588</ele>
        <time>2020-10-25T09:19:47.000Z</time>
      </trkpt>
      <trkpt lat="47.33738" lon="-2.42122">
        <ele>107</ele>
        <time>2020-10-25T09:19:50.000Z</time>
      </trkpt>
      <trkpt lat="47.33745" lon="-2.4212">
        <ele>106.59999847412</ele>
        <time>2020-10-25T09:19:51.000Z</time>
      </trkpt>
      <trkpt lat="47.33752" lon="-2.42117">
        <ele>106.19999694824</ele>
        <time>2020-10-25T09:19:52.000Z</time>
      </trkpt>
      <trkpt lat="47.33759" lon="-2.42114">
        <ele>105.80000305176</ele>
        <time>2020-10-25T09:19:53.000Z</time>
      </trkpt>
      <trkpt lat="47.33766" lon="-2.4211">
        <ele>105.40000152588</ele>
        <time>2020-10-25T09:19:54.000Z</time>
      </trkpt>
      <trkpt lat="47.33809" lon="-2.42084">
        <ele>105</ele>
        <time>2020-10-25T09:20:01.000Z</time>
      </trkpt>
      <trkpt lat="47.33815" lon="-2.42081">
        <ele>104.59999847412</ele>
        <time>2020-10-25T09:20:02.000Z</time>
      </trkpt>
      <trkpt lat="47.33821" lon="-2.42079">
        <ele>104.19999694824</ele>
        <time>2020-10-25T09:20:03.000Z</time>
      </trkpt>
      <trkpt lat="47.33828" lon="-2.42076">
        <ele>103.80000305176</ele>
        <time>2020-10-25T09:20:04.000Z</time>
      </trkpt>
      <trkpt lat="47.33835" lon="-2.42073">
        <ele>103.40000152588</ele>
        <time>2020-10-25T09:20:05.000Z</time>
      </trkpt>
      <trkpt lat="47.3387" lon="-2.42051">
        <ele>103.40000152588</ele>
        <time>2020-10-25T09:20:10.000Z</time>
      </trkpt>
      <trkpt lat="47.33919" lon="-2.4201">
        <ele>103.40000152588</ele>
        <time>2020-10-25T09:20:17.000Z</time>
      </trkpt>
      <trkpt lat="47.33925" lon="-2.42003">
        <ele>103.40000152588</ele>
        <time>2020-10-25T09:20:18.000Z</time>
      </trkpt>
      <trkpt lat="47.33969" lon="-2.41954">
        <ele>103.40000152588</ele>
        <time>2020-10-25T09:20:25.000Z</time>
      </trkpt>
      <trkpt lat="47.33975" lon="-2.41946">
        <ele>103.40000152588</ele>
        <time>2020-10-25T09:20:26.000Z</time>
      </trkpt>
      <trkpt lat="47.34009" lon="-2.41895">
        <ele>103.40000152588</ele>
        <time>2020-10-25T09:20:32.000Z</time>
      </trkpt>
      <trkpt lat="47.34014" lon="-2.41887">
        <ele>103</ele>
        <time>2020-10-25T09:20:33.000Z</time>
      </trkpt>
      <trkpt lat="47.34019" lon="-2.41878">
        <ele>102.59999847412</ele>
        <time>2020-10-25T09:20:34.000Z</time>
      </trkpt>
      <trkpt lat="47.34025" lon="-2.4187">
        <ele>102.19999694824</ele>
        <time>2020-10-25T09:20:35.000Z</time>
      </trkpt>
      <trkpt lat="47.34031" lon="-2.41861">
        <ele>101.80000305176</ele>
        <time>2020-10-25T09:20:36.000Z</time>
      </trkpt>
      <trkpt lat="47.34036" lon="-2.41853">
        <ele>101.40000152588</ele>
        <time>2020-10-25T09:20:37.000Z</time>
      </trkpt>
      <trkpt lat="47.34059" lon="-2.41819">
        <ele>101.40000152588</ele>
        <time>2020-10-25T09:20:41.000Z</time>
      </trkpt>
      <trkpt lat="47.34093" lon="-2.41784">
        <ele>101.40000152588</ele>
        <time>2020-10-25T09:20:46.000Z</time>
      </trkpt>
      <trkpt lat="47.34116" lon="-2.41766">
        <ele>100.80000305176</ele>
        <time>2020-10-25T09:20:49.000Z</time>
      </trkpt>
      <trkpt lat="47.34124" lon="-2.41759">
        <ele>100.40000152588</ele>
        <time>2020-10-25T09:20:50.000Z</time>
      </trkpt>
      <trkpt lat="47.34131" lon="-2.41753">
        <ele>100</ele>
        <time>2020-10-25T09:20:51.000Z</time>
      </trkpt>
      <trkpt lat="47.34139" lon="-2.41746">
        <ele>99.599998474121</ele>
        <time>2020-10-25T09:20:52.000Z</time>
      </trkpt>
      <trkpt lat="47.34146" lon="-2.4174">
        <ele>99</ele>
        <time>2020-10-25T09:20:53.000Z</time>
      </trkpt>
      <trkpt lat="47.34173" lon="-2.41713">
        <ele>99</ele>
        <time>2020-10-25T09:20:57.000Z</time>
      </trkpt>
      <trkpt lat="47.34178" lon="-2.41706">
        <ele>98.199996948242</ele>
        <time>2020-10-25T09:20:58.000Z</time>
      </trkpt>
      <trkpt lat="47.34184" lon="-2.417">
        <ele>97.800003051758</ele>
        <time>2020-10-25T09:20:59.000Z</time>
      </trkpt>
      <trkpt lat="47.3419" lon="-2.41697">
        <ele>97.400001525879</ele>
        <time>2020-10-25T09:21:00.000Z</time>
      </trkpt>
      <trkpt lat="47.34195" lon="-2.41696">
        <ele>97</ele>
        <time>2020-10-25T09:21:01.000Z</time>
      </trkpt>
      <trkpt lat="47.34213" lon="-2.41705">
        <ele>97</ele>
        <time>2020-10-25T09:21:05.000Z</time>
      </trkpt>
      <trkpt lat="47.3422" lon="-2.41723">
        <ele>97</ele>
        <time>2020-10-25T09:21:08.000Z</time>
      </trkpt>
      <trkpt lat="47.34221" lon="-2.41729">
        <ele>97</ele>
        <time>2020-10-25T09:21:09.000Z</time>
      </trkpt>
      <trkpt lat="47.34234" lon="-2.41777">
        <ele>97</ele>
        <time>2020-10-25T09:21:17.000Z</time>
      </trkpt>
      <trkpt lat="47.3424" lon="-2.41784">
        <ele>97</ele>
        <time>2020-10-25T09:21:19.000Z</time>
      </trkpt>
      <trkpt lat="47.34243" lon="-2.41784">
        <ele>97</ele>
        <time>2020-10-25T09:21:20.000Z</time>
      </trkpt>
      <trkpt lat="47.34262" lon="-2.41775">
        <ele>97</ele>
        <time>2020-10-25T09:21:24.000Z</time>
      </trkpt>
      <trkpt lat="47.34302" lon="-2.4175">
        <ele>97</ele>
        <time>2020-10-25T09:21:31.000Z</time>
      </trkpt>
      <trkpt lat="47.34324" lon="-2.41739">
        <ele>96.599998474121</ele>
        <time>2020-10-25T09:21:35.000Z</time>
      </trkpt>
      <trkpt lat="47.3433" lon="-2.41736">
        <ele>96.199996948242</ele>
        <time>2020-10-25T09:21:36.000Z</time>
      </trkpt>
      <trkpt lat="47.34335" lon="-2.41734">
        <ele>95.800003051758</ele>
        <time>2020-10-25T09:21:37.000Z</time>
      </trkpt>
      <trkpt lat="47.34341" lon="-2.41731">
        <ele>95.400001525879</ele>
        <time>2020-10-25T09:21:38.000Z</time>
      </trkpt>
      <trkpt lat="47.34347" lon="-2.41728">
        <ele>95</ele>
        <time>2020-10-25T09:21:39.000Z</time>
      </trkpt>
      <trkpt lat="47.34371" lon="-2.41716">
        <ele>94.400001525879</ele>
        <time>2020-10-25T09:21:43.000Z</time>
      </trkpt>
      <trkpt lat="47.34377" lon="-2.41713">
        <ele>94</ele>
        <time>2020-10-25T09:21:44.000Z</time>
      </trkpt>
      <trkpt lat="47.34383" lon="-2.41709">
        <ele>93.599998474121</ele>
        <time>2020-10-25T09:21:45.000Z</time>
      </trkpt>
      <trkpt lat="47.3439" lon="-2.41706">
        <ele>93.199996948242</ele>
        <time>2020-10-25T09:21:46.000Z</time>
      </trkpt>
      <trkpt lat="47.34396" lon="-2.41703">
        <ele>92.800003051758</ele>
        <time>2020-10-25T09:21:47.000Z</time>
      </trkpt>
      <trkpt lat="47.34402" lon="-2.41699">
        <ele>92.800003051758</ele>
        <time>2020-10-25T09:21:48.000Z</time>
      </trkpt>
      <trkpt lat="47.34407" lon="-2.41695">
        <ele>92.800003051758</ele>
        <time>2020-10-25T09:21:49.000Z</time>
      </trkpt>
      <trkpt lat="47.34423" lon="-2.41681">
        <ele>92.800003051758</ele>
        <time>2020-10-25T09:21:52.000Z</time>
      </trkpt>
      <trkpt lat="47.34431" lon="-2.41669">
        <ele>92.400001525879</ele>
        <time>2020-10-25T09:21:54.000Z</time>
      </trkpt>
      <trkpt lat="47.34436" lon="-2.41662">
        <ele>92</ele>
        <time>2020-10-25T09:21:55.000Z</time>
      </trkpt>
      <trkpt lat="47.3444" lon="-2.41656">
        <ele>91.599998474121</ele>
        <time>2020-10-25T09:21:56.000Z</time>
      </trkpt>
      <trkpt lat="47.34444" lon="-2.4165">
        <ele>91.199996948242</ele>
        <time>2020-10-25T09:21:57.000Z</time>
      </trkpt>
      <trkpt lat="47.34449" lon="-2.41644">
        <ele>90.800003051758</ele>
        <time>2020-10-25T09:21:58.000Z</time>
      </trkpt>
      <trkpt lat="47.34461" lon="-2.41634">
        <ele>90.800003051758</ele>
        <time>2020-10-25T09:22:00.000Z</time>
      </trkpt>
      <trkpt lat="47.34498" lon="-2.41613">
        <ele>90.800003051758</ele>
        <time>2020-10-25T09:22:06.000Z</time>
      </trkpt>
      <trkpt lat="47.34521" lon="-2.41604">
        <ele>90.199996948242</ele>
        <time>2020-10-25T09:22:10.000Z</time>
      </trkpt>
      <trkpt lat="47.34526" lon="-2.41603">
        <ele>89.400001525879</ele>
        <time>2020-10-25T09:22:11.000Z</time>
      </trkpt>
      <trkpt lat="47.34532" lon="-2.41601">
        <ele>89</ele>
        <time>2020-10-25T09:22:12.000Z</time>
      </trkpt>
      <trkpt lat="47.34538" lon="-2.41598">
        <ele>88.599998474121</ele>
        <time>2020-10-25T09:22:13.000Z</time>
      </trkpt>
      <trkpt lat="47.34584" lon="-2.41582">
        <ele>88.599998474121</ele>
        <time>2020-10-25T09:22:20.000Z</time>
      </trkpt>
      <trkpt lat="47.34603" lon="-2.41574">
        <ele>88.599998474121</ele>
        <time>2020-10-25T09:22:23.000Z</time>
      </trkpt>
      <trkpt lat="47.34628" lon="-2.41565">
        <ele>88.599998474121</ele>
        <time>2020-10-25T09:22:27.000Z</time>
      </trkpt>
      <trkpt lat="47.34656" lon="-2.41556">
        <ele>88.599998474121</ele>
        <time>2020-10-25T09:22:32.000Z</time>
      </trkpt>
      <trkpt lat="47.347" lon="-2.41543">
        <ele>88.599998474121</ele>
        <time>2020-10-25T09:22:39.000Z</time>
      </trkpt>
      <trkpt lat="47.34724" lon="-2.41535">
        <ele>88.199996948242</ele>
        <time>2020-10-25T09:22:43.000Z</time>
      </trkpt>
      <trkpt lat="47.3473" lon="-2.41533">
        <ele>87.800003051758</ele>
        <time>2020-10-25T09:22:44.000Z</time>
      </trkpt>
      <trkpt lat="47.34736" lon="-2.41531">
        <ele>87.400001525879</ele>
        <time>2020-10-25T09:22:45.000Z</time>
      </trkpt>
      <trkpt lat="47.34742" lon="-2.41529">
        <ele>87</ele>
        <time>2020-10-25T09:22:46.000Z</time>
      </trkpt>
      <trkpt lat="47.34748" lon="-2.41527">
        <ele>86.400001525879</ele>
        <time>2020-10-25T09:22:47.000Z</time>
      </trkpt>
      <trkpt lat="47.34761" lon="-2.41523">
        <ele>86.400001525879</ele>
        <time>2020-10-25T09:22:49.000Z</time>
      </trkpt>
      <trkpt lat="47.34775" lon="-2.41518">
        <ele>86.400001525879</ele>
        <time>2020-10-25T09:22:51.000Z</time>
      </trkpt>
      <trkpt lat="47.34788" lon="-2.41516">
        <ele>86</ele>
        <time>2020-10-25T09:22:53.000Z</time>
      </trkpt>
      <trkpt lat="47.34794" lon="-2.41514">
        <ele>85.599998474121</ele>
        <time>2020-10-25T09:22:54.000Z</time>
      </trkpt>
      <trkpt lat="47.34801" lon="-2.41512">
        <ele>85.199996948242</ele>
        <time>2020-10-25T09:22:55.000Z</time>
      </trkpt>
      <trkpt lat="47.34807" lon="-2.4151">
        <ele>84.800003051758</ele>
        <time>2020-10-25T09:22:56.000Z</time>
      </trkpt>
      <trkpt lat="47.34813" lon="-2.41508">
        <ele>84.400001525879</ele>
        <time>2020-10-25T09:22:57.000Z</time>
      </trkpt>
      <trkpt lat="47.3483" lon="-2.41503">
        <ele>83.599998474121</ele>
        <time>2020-10-25T09:23:00.000Z</time>
      </trkpt>
      <trkpt lat="47.34836" lon="-2.41502">
        <ele>83.199996948242</ele>
        <time>2020-10-25T09:23:01.000Z</time>
      </trkpt>
      <trkpt lat="47.34841" lon="-2.415">
        <ele>82.800003051758</ele>
        <time>2020-10-25T09:23:02.000Z</time>
      </trkpt>
      <trkpt lat="47.34847" lon="-2.41499">
        <ele>82.400001525879</ele>
        <time>2020-10-25T09:23:03.000Z</time>
      </trkpt>
      <trkpt lat="47.34884" lon="-2.41488">
        <ele>82.400001525879</ele>
        <time>2020-10-25T09:23:10.000Z</time>
      </trkpt>
      <trkpt lat="47.34919" lon="-2.41477">
        <ele>82.400001525879</ele>
        <time>2020-10-25T09:23:17.000Z</time>
      </trkpt>
      <trkpt lat="47.34959" lon="-2.41462">
        <ele>82.400001525879</ele>
        <time>2020-10-25T09:23:25.000Z</time>
      </trkpt>
      <trkpt lat="47.34991" lon="-2.41452">
        <ele>82.400001525879</ele>
        <time>2020-10-25T09:23:31.000Z</time>
      </trkpt>
      <trkpt lat="47.35022" lon="-2.41439">
        <ele>82.400001525879</ele>
        <time>2020-10-25T09:23:37.000Z</time>
      </trkpt>
      <trkpt lat="47.35056" lon="-2.41423">
        <ele>82.400001525879</ele>
        <time>2020-10-25T09:23:44.000Z</time>
      </trkpt>
      <trkpt lat="47.35067" lon="-2.41417">
        <ele>82</ele>
        <time>2020-10-25T09:23:48.000Z</time>
      </trkpt>
      <trkpt lat="47.35069" lon="-2.41415">
        <ele>81.599998474121</ele>
        <time>2020-10-25T09:23:49.000Z</time>
      </trkpt>
      <trkpt lat="47.35071" lon="-2.41413">
        <ele>80.599998474121</ele>
        <time>2020-10-25T09:23:50.000Z</time>
      </trkpt>
      <trkpt lat="47.35072" lon="-2.41411">
        <ele>80.199996948242</ele>
        <time>2020-10-25T09:23:51.000Z</time>
      </trkpt>
      <trkpt lat="47.35073" lon="-2.41409">
        <ele>80.199996948242</ele>
        <time>2020-10-25T09:23:52.000Z</time>
      </trkpt>
      <trkpt lat="47.35073" lon="-2.41407">
        <ele>80.199996948242</ele>
        <time>2020-10-25T09:23:53.000Z</time>
      </trkpt>
      <trkpt lat="47.3507" lon="-2.41393">
        <ele>80.199996948242</ele>
        <time>2020-10-25T09:23:59.000Z</time>
      </trkpt>
      <trkpt lat="47.35065" lon="-2.4138">
        <ele>80.199996948242</ele>
        <time>2020-10-25T09:24:04.000Z</time>
      </trkpt>
      <trkpt lat="47.35065" lon="-2.41378">
        <ele>80.199996948242</ele>
        <time>2020-10-25T09:24:05.000Z</time>
      </trkpt>
      <trkpt lat="47.35061" lon="-2.41367">
        <ele>80.199996948242</ele>
        <time>2020-10-25T09:24:10.000Z</time>
      </trkpt>
      <trkpt lat="47.3506" lon="-2.41365">
        <ele>80.199996948242</ele>
        <time>2020-10-25T09:24:11.000Z</time>
      </trkpt>
      <trkpt lat="47.35055" lon="-2.41348">
        <ele>80.199996948242</ele>
        <time>2020-10-25T09:24:18.000Z</time>
      </trkpt>
      <trkpt lat="47.35051" lon="-2.41338">
        <ele>80.199996948242</ele>
        <time>2020-10-25T09:24:23.000Z</time>
      </trkpt>
      <trkpt lat="47.3505" lon="-2.41334">
        <ele>80.199996948242</ele>
        <time>2020-10-25T09:24:25.000Z</time>
      </trkpt>
      <trkpt lat="47.35044" lon="-2.41318">
        <ele>80.199996948242</ele>
        <time>2020-10-25T09:24:32.000Z</time>
      </trkpt>
      <trkpt lat="47.3504" lon="-2.41307">
        <ele>80.199996948242</ele>
        <time>2020-10-25T09:24:36.000Z</time>
      </trkpt>
      <trkpt lat="47.35041" lon="-2.41302">
        <ele>80.199996948242</ele>
        <time>2020-10-25T09:24:38.000Z</time>
      </trkpt>
      <trkpt lat="47.35043" lon="-2.41299">
        <ele>80.199996948242</ele>
        <time>2020-10-25T09:24:40.000Z</time>
      </trkpt>
      <trkpt lat="47.35044" lon="-2.41297">
        <ele>80.199996948242</ele>
        <time>2020-10-25T09:24:42.000Z</time>
      </trkpt>
      <trkpt lat="47.35037" lon="-2.41288">
        <ele>80.199996948242</ele>
        <time>2020-10-25T09:25:30.000Z</time>
      </trkpt>
      <trkpt lat="47.35027" lon="-2.41266">
        <ele>80.199996948242</ele>
        <time>2020-10-25T09:25:36.000Z</time>
      </trkpt>
      <trkpt lat="47.35012" lon="-2.41236">
        <ele>80.199996948242</ele>
        <time>2020-10-25T09:25:43.000Z</time>
      </trkpt>
      <trkpt lat="47.35" lon="-2.41209">
        <ele>80.199996948242</ele>
        <time>2020-10-25T09:25:49.000Z</time>
      </trkpt>
      <trkpt lat="47.34984" lon="-2.41175">
        <ele>80.199996948242</ele>
        <time>2020-10-25T09:25:56.000Z</time>
      </trkpt>
      <trkpt lat="47.34979" lon="-2.41164">
        <ele>80.199996948242</ele>
        <time>2020-10-25T09:25:58.000Z</time>
      </trkpt>
      <trkpt lat="47.34969" lon="-2.41141">
        <ele>80.199996948242</ele>
        <time>2020-10-25T09:26:02.000Z</time>
      </trkpt>
      <trkpt lat="47.34956" lon="-2.4111">
        <ele>80.199996948242</ele>
        <time>2020-10-25T09:26:08.000Z</time>
      </trkpt>
      <trkpt lat="47.34949" lon="-2.41094">
        <ele>80.800003051758</ele>
        <time>2020-10-25T09:26:11.000Z</time>
      </trkpt>
      <trkpt lat="47.34947" lon="-2.41088">
        <ele>81.199996948242</ele>
        <time>2020-10-25T09:26:12.000Z</time>
      </trkpt>
      <trkpt lat="47.34945" lon="-2.41082">
        <ele>81.599998474121</ele>
        <time>2020-10-25T09:26:13.000Z</time>
      </trkpt>
      <trkpt lat="47.34943" lon="-2.41076">
        <ele>82</ele>
        <time>2020-10-25T09:26:14.000Z</time>
      </trkpt>
      <trkpt lat="47.34941" lon="-2.41071">
        <ele>82.400001525879</ele>
        <time>2020-10-25T09:26:15.000Z</time>
      </trkpt>
      <trkpt lat="47.34931" lon="-2.41042">
        <ele>82.400001525879</ele>
        <time>2020-10-25T09:26:20.000Z</time>
      </trkpt>
      <trkpt lat="47.34933" lon="-2.4101">
        <ele>82.800003051758</ele>
        <time>2020-10-25T09:26:25.000Z</time>
      </trkpt>
      <trkpt lat="47.34934" lon="-2.41004">
        <ele>83.199996948242</ele>
        <time>2020-10-25T09:26:26.000Z</time>
      </trkpt>
      <trkpt lat="47.34935" lon="-2.40999">
        <ele>83.800003051758</ele>
        <time>2020-10-25T09:26:27.000Z</time>
      </trkpt>
      <trkpt lat="47.34936" lon="-2.40993">
        <ele>84.199996948242</ele>
        <time>2020-10-25T09:26:28.000Z</time>
      </trkpt>
      <trkpt lat="47.34937" lon="-2.40986">
        <ele>84.599998474121</ele>
        <time>2020-10-25T09:26:29.000Z</time>
      </trkpt>
      <trkpt lat="47.34941" lon="-2.40951">
        <ele>84.599998474121</ele>
        <time>2020-10-25T09:26:34.000Z</time>
      </trkpt>
      <trkpt lat="47.34942" lon="-2.40936">
        <ele>84.599998474121</ele>
        <time>2020-10-25T09:26:36.000Z</time>
      </trkpt>
      <trkpt lat="47.34942" lon="-2.40905">
        <ele>84.599998474121</ele>
        <time>2020-10-25T09:26:40.000Z</time>
      </trkpt>
      <trkpt lat="47.34936" lon="-2.40856">
        <ele>84.599998474121</ele>
        <time>2020-10-25T09:26:47.000Z</time>
      </trkpt>
      <trkpt lat="47.34933" lon="-2.40844">
        <ele>84.599998474121</ele>
        <time>2020-10-25T09:26:49.000Z</time>
      </trkpt>
      <trkpt lat="47.34927" lon="-2.40834">
        <ele>84.599998474121</ele>
        <time>2020-10-25T09:26:51.000Z</time>
      </trkpt>
      <trkpt lat="47.34907" lon="-2.40798">
        <ele>84.599998474121</ele>
        <time>2020-10-25T09:26:58.000Z</time>
      </trkpt>
      <trkpt lat="47.34896" lon="-2.40782">
        <ele>84.599998474121</ele>
        <time>2020-10-25T09:27:02.000Z</time>
      </trkpt>
      <trkpt lat="47.34871" lon="-2.40775">
        <ele>84.599998474121</ele>
        <time>2020-10-25T09:27:08.000Z</time>
      </trkpt>
      <trkpt lat="47.34851" lon="-2.40775">
        <ele>84.599998474121</ele>
        <time>2020-10-25T09:27:12.000Z</time>
      </trkpt>
      <trkpt lat="47.34836" lon="-2.40771">
        <ele>84.599998474121</ele>
        <time>2020-10-25T09:27:15.000Z</time>
      </trkpt>
      <trkpt lat="47.34827" lon="-2.40755">
        <ele>84.599998474121</ele>
        <time>2020-10-25T09:27:18.000Z</time>
      </trkpt>
      <trkpt lat="47.34823" lon="-2.40741">
        <ele>84.599998474121</ele>
        <time>2020-10-25T09:27:20.000Z</time>
      </trkpt>
      <trkpt lat="47.3482" lon="-2.40719">
        <ele>84.599998474121</ele>
        <time>2020-10-25T09:27:23.000Z</time>
      </trkpt>
      <trkpt lat="47.3482" lon="-2.40704">
        <ele>84.599998474121</ele>
        <time>2020-10-25T09:27:25.000Z</time>
      </trkpt>
      <trkpt lat="47.34823" lon="-2.40673">
        <ele>84.599998474121</ele>
        <time>2020-10-25T09:27:29.000Z</time>
      </trkpt>
      <trkpt lat="47.34824" lon="-2.40665">
        <ele>84.599998474121</ele>
        <time>2020-10-25T09:27:30.000Z</time>
      </trkpt>
      <trkpt lat="47.34826" lon="-2.40657">
        <ele>84.199996948242</ele>
        <time>2020-10-25T09:27:31.000Z</time>
      </trkpt>
      <trkpt lat="47.34828" lon="-2.40648">
        <ele>83.800003051758</ele>
        <time>2020-10-25T09:27:32.000Z</time>
      </trkpt>
      <trkpt lat="47.3483" lon="-2.4064">
        <ele>82.800003051758</ele>
        <time>2020-10-25T09:27:33.000Z</time>
      </trkpt>
      <trkpt lat="47.34832" lon="-2.40632">
        <ele>82.400001525879</ele>
        <time>2020-10-25T09:27:34.000Z</time>
      </trkpt>
      <trkpt lat="47.34836" lon="-2.40618">
        <ele>82.400001525879</ele>
        <time>2020-10-25T09:27:36.000Z</time>
      </trkpt>
      <trkpt lat="47.34842" lon="-2.40607">
        <ele>82.400001525879</ele>
        <time>2020-10-25T09:27:38.000Z</time>
      </trkpt>
      <trkpt lat="47.3485" lon="-2.40597">
        <ele>82.400001525879</ele>
        <time>2020-10-25T09:27:40.000Z</time>
      </trkpt>
      <trkpt lat="47.3486" lon="-2.40585">
        <ele>82.400001525879</ele>
        <time>2020-10-25T09:27:43.000Z</time>
      </trkpt>
      <trkpt lat="47.34875" lon="-2.40566">
        <ele>82.400001525879</ele>
        <time>2020-10-25T09:27:47.000Z</time>
      </trkpt>
      <trkpt lat="47.34881" lon="-2.40554">
        <ele>82.400001525879</ele>
        <time>2020-10-25T09:27:49.000Z</time>
      </trkpt>
      <trkpt lat="47.34883" lon="-2.40524">
        <ele>82.400001525879</ele>
        <time>2020-10-25T09:27:53.000Z</time>
      </trkpt>
      <trkpt lat="47.34882" lon="-2.40516">
        <ele>82.400001525879</ele>
        <time>2020-10-25T09:27:54.000Z</time>
      </trkpt>
      <trkpt lat="47.34881" lon="-2.40508">
        <ele>82.400001525879</ele>
        <time>2020-10-25T09:27:55.000Z</time>
      </trkpt>
      <trkpt lat="47.34876" lon="-2.40479">
        <ele>82.400001525879</ele>
        <time>2020-10-25T09:27:59.000Z</time>
      </trkpt>
      <trkpt lat="47.3487" lon="-2.40439">
        <ele>82.400001525879</ele>
        <time>2020-10-25T09:28:05.000Z</time>
      </trkpt>
      <trkpt lat="47.34865" lon="-2.40401">
        <ele>82.400001525879</ele>
        <time>2020-10-25T09:28:12.000Z</time>
      </trkpt>
      <trkpt lat="47.34864" lon="-2.40396">
        <ele>82.800003051758</ele>
        <time>2020-10-25T09:28:13.000Z</time>
      </trkpt>
      <trkpt lat="47.34863" lon="-2.40391">
        <ele>83.199996948242</ele>
        <time>2020-10-25T09:28:14.000Z</time>
      </trkpt>
      <trkpt lat="47.34862" lon="-2.40386">
        <ele>83.800003051758</ele>
        <time>2020-10-25T09:28:15.000Z</time>
      </trkpt>
      <trkpt lat="47.34862" lon="-2.4038">
        <ele>84.199996948242</ele>
        <time>2020-10-25T09:28:16.000Z</time>
      </trkpt>
      <trkpt lat="47.34861" lon="-2.40375">
        <ele>84.599998474121</ele>
        <time>2020-10-25T09:28:17.000Z</time>
      </trkpt>
      <trkpt lat="47.34857" lon="-2.40358">
        <ele>84.599998474121</ele>
        <time>2020-10-25T09:28:20.000Z</time>
      </trkpt>
      <trkpt lat="47.34848" lon="-2.40322">
        <ele>84.599998474121</ele>
        <time>2020-10-25T09:28:27.000Z</time>
      </trkpt>
      <trkpt lat="47.34836" lon="-2.40297">
        <ele>84.599998474121</ele>
        <time>2020-10-25T09:28:33.000Z</time>
      </trkpt>
      <trkpt lat="47.34822" lon="-2.40272">
        <ele>85</ele>
        <time>2020-10-25T09:28:40.000Z</time>
      </trkpt>
      <trkpt lat="47.34821" lon="-2.40269">
        <ele>85.400001525879</ele>
        <time>2020-10-25T09:28:41.000Z</time>
      </trkpt>
      <trkpt lat="47.34819" lon="-2.40267">
        <ele>85.800003051758</ele>
        <time>2020-10-25T09:28:42.000Z</time>
      </trkpt>
      <trkpt lat="47.34818" lon="-2.40263">
        <ele>86.199996948242</ele>
        <time>2020-10-25T09:28:43.000Z</time>
      </trkpt>
      <trkpt lat="47.34816" lon="-2.4026">
        <ele>86.599998474121</ele>
        <time>2020-10-25T09:28:44.000Z</time>
      </trkpt>
      <trkpt lat="47.3481" lon="-2.40249">
        <ele>86.599998474121</ele>
        <time>2020-10-25T09:28:47.000Z</time>
      </trkpt>
      <trkpt lat="47.348" lon="-2.40226">
        <ele>86.599998474121</ele>
        <time>2020-10-25T09:28:53.000Z</time>
      </trkpt>
      <trkpt lat="47.34799" lon="-2.4022">
        <ele>86.599998474121</ele>
        <time>2020-10-25T09:28:55.000Z</time>
      </trkpt>
      <trkpt lat="47.34802" lon="-2.40214">
        <ele>86.599998474121</ele>
        <time>2020-10-25T09:28:57.000Z</time>
      </trkpt>
      <trkpt lat="47.34818" lon="-2.40205">
        <ele>86.599998474121</ele>
        <time>2020-10-25T09:29:02.000Z</time>
      </trkpt>
      <trkpt lat="47.34823" lon="-2.40204">
        <ele>86.599998474121</ele>
        <time>2020-10-25T09:29:03.000Z</time>
      </trkpt>
      <trkpt lat="47.34827" lon="-2.40202">
        <ele>86.599998474121</ele>
        <time>2020-10-25T09:29:04.000Z</time>
      </trkpt>
      <trkpt lat="47.34842" lon="-2.40191">
        <ele>86.599998474121</ele>
        <time>2020-10-25T09:29:08.000Z</time>
      </trkpt>
      <trkpt lat="47.3485" lon="-2.40173">
        <ele>86.599998474121</ele>
        <time>2020-10-25T09:29:12.000Z</time>
      </trkpt>
      <trkpt lat="47.34851" lon="-2.40162">
        <ele>86.599998474121</ele>
        <time>2020-10-25T09:29:14.000Z</time>
      </trkpt>
      <trkpt lat="47.34853" lon="-2.40137">
        <ele>86.599998474121</ele>
        <time>2020-10-25T09:29:18.000Z</time>
      </trkpt>
      <trkpt lat="47.34862" lon="-2.40096">
        <ele>86.599998474121</ele>
        <time>2020-10-25T09:29:25.000Z</time>
      </trkpt>
      <trkpt lat="47.34875" lon="-2.40078">
        <ele>86.599998474121</ele>
        <time>2020-10-25T09:29:29.000Z</time>
      </trkpt>
      <trkpt lat="47.34878" lon="-2.40075">
        <ele>86.599998474121</ele>
        <time>2020-10-25T09:29:30.000Z</time>
      </trkpt>
      <trkpt lat="47.34898" lon="-2.40055">
        <ele>86.599998474121</ele>
        <time>2020-10-25T09:29:36.000Z</time>
      </trkpt>
      <trkpt lat="47.34914" lon="-2.40039">
        <ele>86.199996948242</ele>
        <time>2020-10-25T09:29:40.000Z</time>
      </trkpt>
      <trkpt lat="47.34918" lon="-2.40035">
        <ele>85.800003051758</ele>
        <time>2020-10-25T09:29:41.000Z</time>
      </trkpt>
      <trkpt lat="47.34922" lon="-2.40031">
        <ele>85.400001525879</ele>
        <time>2020-10-25T09:29:42.000Z</time>
      </trkpt>
      <trkpt lat="47.34925" lon="-2.40028">
        <ele>85</ele>
        <time>2020-10-25T09:29:43.000Z</time>
      </trkpt>
      <trkpt lat="47.34929" lon="-2.40025">
        <ele>84.599998474121</ele>
        <time>2020-10-25T09:29:44.000Z</time>
      </trkpt>
      <trkpt lat="47.34948" lon="-2.40011">
        <ele>84.599998474121</ele>
        <time>2020-10-25T09:29:49.000Z</time>
      </trkpt>
      <trkpt lat="47.34952" lon="-2.40007">
        <ele>84.599998474121</ele>
        <time>2020-10-25T09:29:50.000Z</time>
      </trkpt>
      <trkpt lat="47.34962" lon="-2.39997">
        <ele>84.599998474121</ele>
        <time>2020-10-25T09:29:53.000Z</time>
      </trkpt>
      <trkpt lat="47.34965" lon="-2.39993">
        <ele>84.599998474121</ele>
        <time>2020-10-25T09:29:54.000Z</time>
      </trkpt>
      <trkpt lat="47.34985" lon="-2.39963">
        <ele>84.599998474121</ele>
        <time>2020-10-25T09:30:00.000Z</time>
      </trkpt>
      <trkpt lat="47.35007" lon="-2.39919">
        <ele>84.599998474121</ele>
        <time>2020-10-25T09:30:09.000Z</time>
      </trkpt>
      <trkpt lat="47.35027" lon="-2.39885">
        <ele>84.599998474121</ele>
        <time>2020-10-25T09:30:16.000Z</time>
      </trkpt>
      <trkpt lat="47.35052" lon="-2.39862">
        <ele>84.599998474121</ele>
        <time>2020-10-25T09:30:22.000Z</time>
      </trkpt>
      <trkpt lat="47.35069" lon="-2.39846">
        <ele>84.599998474121</ele>
        <time>2020-10-25T09:30:26.000Z</time>
      </trkpt>
      <trkpt lat="47.35078" lon="-2.39837">
        <ele>84.599998474121</ele>
        <time>2020-10-25T09:30:28.000Z</time>
      </trkpt>
      <trkpt lat="47.35082" lon="-2.39833">
        <ele>84.599998474121</ele>
        <time>2020-10-25T09:30:29.000Z</time>
      </trkpt>
      <trkpt lat="47.35096" lon="-2.39821">
        <ele>84.599998474121</ele>
        <time>2020-10-25T09:30:32.000Z</time>
      </trkpt>
      <trkpt lat="47.35115" lon="-2.39802">
        <ele>84.599998474121</ele>
        <time>2020-10-25T09:30:36.000Z</time>
      </trkpt>
      <trkpt lat="47.35147" lon="-2.39762">
        <ele>84.599998474121</ele>
        <time>2020-10-25T09:30:43.000Z</time>
      </trkpt>
      <trkpt lat="47.35171" lon="-2.39729">
        <ele>84.599998474121</ele>
        <time>2020-10-25T09:30:48.000Z</time>
      </trkpt>
      <trkpt lat="47.35204" lon="-2.39683">
        <ele>84.599998474121</ele>
        <time>2020-10-25T09:30:55.000Z</time>
      </trkpt>
      <trkpt lat="47.35238" lon="-2.39639">
        <ele>84.599998474121</ele>
        <time>2020-10-25T09:31:02.000Z</time>
      </trkpt>
      <trkpt lat="47.35243" lon="-2.39634">
        <ele>84.599998474121</ele>
        <time>2020-10-25T09:31:03.000Z</time>
      </trkpt>
      <trkpt lat="47.35262" lon="-2.39622">
        <ele>84.599998474121</ele>
        <time>2020-10-25T09:31:06.000Z</time>
      </trkpt>
      <trkpt lat="47.35275" lon="-2.39617">
        <ele>84.599998474121</ele>
        <time>2020-10-25T09:31:08.000Z</time>
      </trkpt>
      <trkpt lat="47.35317" lon="-2.39602">
        <ele>84.599998474121</ele>
        <time>2020-10-25T09:31:15.000Z</time>
      </trkpt>
      <trkpt lat="47.35361" lon="-2.39585">
        <ele>84.599998474121</ele>
        <time>2020-10-25T09:31:22.000Z</time>
      </trkpt>
      <trkpt lat="47.35381" lon="-2.3958">
        <ele>84</ele>
        <time>2020-10-25T09:31:25.000Z</time>
      </trkpt>
      <trkpt lat="47.35387" lon="-2.39579">
        <ele>83.599998474121</ele>
        <time>2020-10-25T09:31:26.000Z</time>
      </trkpt>
      <trkpt lat="47.35394" lon="-2.39578">
        <ele>83.199996948242</ele>
        <time>2020-10-25T09:31:27.000Z</time>
      </trkpt>
      <trkpt lat="47.354" lon="-2.39577">
        <ele>82.800003051758</ele>
        <time>2020-10-25T09:31:28.000Z</time>
      </trkpt>
      <trkpt lat="47.35407" lon="-2.39576">
        <ele>82.400001525879</ele>
        <time>2020-10-25T09:31:29.000Z</time>
      </trkpt>
      <trkpt lat="47.35413" lon="-2.39575">
        <ele>82.400001525879</ele>
        <time>2020-10-25T09:31:30.000Z</time>
      </trkpt>
      <trkpt lat="47.35451" lon="-2.39568">
        <ele>82.400001525879</ele>
        <time>2020-10-25T09:31:37.000Z</time>
      </trkpt>
      <trkpt lat="47.35499" lon="-2.39557">
        <ele>82.400001525879</ele>
        <time>2020-10-25T09:31:46.000Z</time>
      </trkpt>
      <trkpt lat="47.35536" lon="-2.39547">
        <ele>82.400001525879</ele>
        <time>2020-10-25T09:31:54.000Z</time>
      </trkpt>
      <trkpt lat="47.35553" lon="-2.39543">
        <ele>82.400001525879</ele>
        <time>2020-10-25T09:32:00.000Z</time>
      </trkpt>
      <trkpt lat="47.35574" lon="-2.39539">
        <ele>82.400001525879</ele>
        <time>2020-10-25T09:32:05.000Z</time>
      </trkpt>
      <trkpt lat="47.35611" lon="-2.39532">
        <ele>82.400001525879</ele>
        <time>2020-10-25T09:32:12.000Z</time>
      </trkpt>
      <trkpt lat="47.35634" lon="-2.39529">
        <ele>82.400001525879</ele>
        <time>2020-10-25T09:32:16.000Z</time>
      </trkpt>
      <trkpt lat="47.35644" lon="-2.3952">
        <ele>82.400001525879</ele>
        <time>2020-10-25T09:32:18.000Z</time>
      </trkpt>
      <trkpt lat="47.35658" lon="-2.39504">
        <ele>82.400001525879</ele>
        <time>2020-10-25T09:32:21.000Z</time>
      </trkpt>
      <trkpt lat="47.35668" lon="-2.39493">
        <ele>82.400001525879</ele>
        <time>2020-10-25T09:32:23.000Z</time>
      </trkpt>
      <trkpt lat="47.35704" lon="-2.39445">
        <ele>82.400001525879</ele>
        <time>2020-10-25T09:32:30.000Z</time>
      </trkpt>
      <trkpt lat="47.35738" lon="-2.3939">
        <ele>82.400001525879</ele>
        <time>2020-10-25T09:32:37.000Z</time>
      </trkpt>
      <trkpt lat="47.35749" lon="-2.39375">
        <ele>82</ele>
        <time>2020-10-25T09:32:39.000Z</time>
      </trkpt>
      <trkpt lat="47.35755" lon="-2.39368">
        <ele>81.599998474121</ele>
        <time>2020-10-25T09:32:40.000Z</time>
      </trkpt>
      <trkpt lat="47.3576" lon="-2.39361">
        <ele>81.199996948242</ele>
        <time>2020-10-25T09:32:41.000Z</time>
      </trkpt>
      <trkpt lat="47.35766" lon="-2.39354">
        <ele>80.800003051758</ele>
        <time>2020-10-25T09:32:42.000Z</time>
      </trkpt>
      <trkpt lat="47.35772" lon="-2.39347">
        <ele>80.400001525879</ele>
        <time>2020-10-25T09:32:43.000Z</time>
      </trkpt>
      <trkpt lat="47.35784" lon="-2.39335">
        <ele>80.400001525879</ele>
        <time>2020-10-25T09:32:45.000Z</time>
      </trkpt>
      <trkpt lat="47.35803" lon="-2.39324">
        <ele>80.400001525879</ele>
        <time>2020-10-25T09:32:48.000Z</time>
      </trkpt>
      <trkpt lat="47.35809" lon="-2.39322">
        <ele>80.400001525879</ele>
        <time>2020-10-25T09:32:49.000Z</time>
      </trkpt>
      <trkpt lat="47.3583" lon="-2.39319">
        <ele>80.400001525879</ele>
        <time>2020-10-25T09:32:52.000Z</time>
      </trkpt>
      <trkpt lat="47.35849" lon="-2.39317">
        <ele>80.400001525879</ele>
        <time>2020-10-25T09:32:55.000Z</time>
      </trkpt>
      <trkpt lat="47.35867" lon="-2.39314">
        <ele>80.400001525879</ele>
        <time>2020-10-25T09:32:58.000Z</time>
      </trkpt>
      <trkpt lat="47.35904" lon="-2.39309">
        <ele>80.400001525879</ele>
        <time>2020-10-25T09:33:04.000Z</time>
      </trkpt>
      <trkpt lat="47.3591" lon="-2.39308">
        <ele>80.400001525879</ele>
        <time>2020-10-25T09:33:05.000Z</time>
      </trkpt>
      <trkpt lat="47.35948" lon="-2.39303">
        <ele>80.400001525879</ele>
        <time>2020-10-25T09:33:11.000Z</time>
      </trkpt>
      <trkpt lat="47.35971" lon="-2.39302">
        <ele>80.400001525879</ele>
        <time>2020-10-25T09:33:15.000Z</time>
      </trkpt>
      <trkpt lat="47.35982" lon="-2.393">
        <ele>80</ele>
        <time>2020-10-25T09:33:17.000Z</time>
      </trkpt>
      <trkpt lat="47.35987" lon="-2.39299">
        <ele>79.400001525879</ele>
        <time>2020-10-25T09:33:18.000Z</time>
      </trkpt>
      <trkpt lat="47.35992" lon="-2.39298">
        <ele>79</ele>
        <time>2020-10-25T09:33:19.000Z</time>
      </trkpt>
      <trkpt lat="47.35996" lon="-2.39296">
        <ele>78.199996948242</ele>
        <time>2020-10-25T09:33:20.000Z</time>
      </trkpt>
      <trkpt lat="47.36004" lon="-2.39289">
        <ele>78.199996948242</ele>
        <time>2020-10-25T09:33:22.000Z</time>
      </trkpt>
      <trkpt lat="47.36016" lon="-2.39269">
        <ele>78.199996948242</ele>
        <time>2020-10-25T09:33:26.000Z</time>
      </trkpt>
      <trkpt lat="47.36019" lon="-2.39263">
        <ele>78.199996948242</ele>
        <time>2020-10-25T09:33:27.000Z</time>
      </trkpt>
      <trkpt lat="47.36044" lon="-2.39202">
        <ele>78.199996948242</ele>
        <time>2020-10-25T09:33:37.000Z</time>
      </trkpt>
      <trkpt lat="47.36066" lon="-2.39156">
        <ele>78.199996948242</ele>
        <time>2020-10-25T09:33:45.000Z</time>
      </trkpt>
      <trkpt lat="47.36082" lon="-2.39126">
        <ele>78.199996948242</ele>
        <time>2020-10-25T09:33:52.000Z</time>
      </trkpt>
      <trkpt lat="47.36102" lon="-2.39092">
        <ele>78.199996948242</ele>
        <time>2020-10-25T09:33:59.000Z</time>
      </trkpt>
      <trkpt lat="47.36124" lon="-2.39067">
        <ele>78.199996948242</ele>
        <time>2020-10-25T09:34:06.000Z</time>
      </trkpt>
      <trkpt lat="47.36142" lon="-2.39051">
        <ele>78.199996948242</ele>
        <time>2020-10-25T09:34:12.000Z</time>
      </trkpt>
      <trkpt lat="47.36161" lon="-2.39029">
        <ele>78.199996948242</ele>
        <time>2020-10-25T09:34:19.000Z</time>
      </trkpt>
      <trkpt lat="47.36161" lon="-2.39025">
        <ele>78.199996948242</ele>
        <time>2020-10-25T09:34:20.000Z</time>
      </trkpt>
      <trkpt lat="47.36156" lon="-2.39006">
        <ele>78.199996948242</ele>
        <time>2020-10-25T09:34:24.000Z</time>
      </trkpt>
      <trkpt lat="47.36152" lon="-2.38996">
        <ele>78.199996948242</ele>
        <time>2020-10-25T09:34:26.000Z</time>
      </trkpt>
      <trkpt lat="47.36142" lon="-2.38974">
        <ele>78.199996948242</ele>
        <time>2020-10-25T09:34:30.000Z</time>
      </trkpt>
      <trkpt lat="47.36134" lon="-2.38959">
        <ele>78.199996948242</ele>
        <time>2020-10-25T09:34:33.000Z</time>
      </trkpt>
      <trkpt lat="47.36126" lon="-2.38946">
        <ele>78.199996948242</ele>
        <time>2020-10-25T09:34:36.000Z</time>
      </trkpt>
      <trkpt lat="47.36121" lon="-2.38935">
        <ele>78.199996948242</ele>
        <time>2020-10-25T09:34:38.000Z</time>
      </trkpt>
      <trkpt lat="47.36115" lon="-2.38919">
        <ele>78.199996948242</ele>
        <time>2020-10-25T09:34:41.000Z</time>
      </trkpt>
      <trkpt lat="47.36113" lon="-2.38913">
        <ele>78.199996948242</ele>
        <time>2020-10-25T09:34:42.000Z</time>
      </trkpt>
      <trkpt lat="47.36106" lon="-2.38873">
        <ele>78.199996948242</ele>
        <time>2020-10-25T09:34:48.000Z</time>
      </trkpt>
      <trkpt lat="47.36104" lon="-2.38867">
        <ele>78.199996948242</ele>
        <time>2020-10-25T09:34:49.000Z</time>
      </trkpt>
      <trkpt lat="47.36096" lon="-2.3885">
        <ele>78.199996948242</ele>
        <time>2020-10-25T09:34:53.000Z</time>
      </trkpt>
      <trkpt lat="47.36081" lon="-2.38841">
        <ele>78.199996948242</ele>
        <time>2020-10-25T09:34:57.000Z</time>
      </trkpt>
      <trkpt lat="47.36069" lon="-2.38842">
        <ele>78.199996948242</ele>
        <time>2020-10-25T09:35:00.000Z</time>
      </trkpt>
      <trkpt lat="47.36057" lon="-2.38846">
        <ele>78.199996948242</ele>
        <time>2020-10-25T09:35:03.000Z</time>
      </trkpt>
      <trkpt lat="47.36023" lon="-2.38857">
        <ele>78.199996948242</ele>
        <time>2020-10-25T09:35:11.000Z</time>
      </trkpt>
      <trkpt lat="47.36019" lon="-2.38858">
        <ele>78.199996948242</ele>
        <time>2020-10-25T09:35:12.000Z</time>
      </trkpt>
      <trkpt lat="47.35999" lon="-2.38864">
        <ele>78.199996948242</ele>
        <time>2020-10-25T09:35:17.000Z</time>
      </trkpt>
      <trkpt lat="47.35995" lon="-2.38865">
        <ele>78.599998474121</ele>
        <time>2020-10-25T09:35:18.000Z</time>
      </trkpt>
      <trkpt lat="47.35991" lon="-2.38867">
        <ele>79</ele>
        <time>2020-10-25T09:35:19.000Z</time>
      </trkpt>
      <trkpt lat="47.35987" lon="-2.38867">
        <ele>79.400001525879</ele>
        <time>2020-10-25T09:35:20.000Z</time>
      </trkpt>
      <trkpt lat="47.35983" lon="-2.38868">
        <ele>79.800003051758</ele>
        <time>2020-10-25T09:35:21.000Z</time>
      </trkpt>
      <trkpt lat="47.35979" lon="-2.38868">
        <ele>80.199996948242</ele>
        <time>2020-10-25T09:35:22.000Z</time>
      </trkpt>
      <trkpt lat="47.35966" lon="-2.38868">
        <ele>80.199996948242</ele>
        <time>2020-10-25T09:35:25.000Z</time>
      </trkpt>
      <trkpt lat="47.35936" lon="-2.38867">
        <ele>80.199996948242</ele>
        <time>2020-10-25T09:35:31.000Z</time>
      </trkpt>
      <trkpt lat="47.35931" lon="-2.38868">
        <ele>80.199996948242</ele>
        <time>2020-10-25T09:35:32.000Z</time>
      </trkpt>
      <trkpt lat="47.35907" lon="-2.38879">
        <ele>80.199996948242</ele>
        <time>2020-10-25T09:35:37.000Z</time>
      </trkpt>
      <trkpt lat="47.35864" lon="-2.38903">
        <ele>80.199996948242</ele>
        <time>2020-10-25T09:35:45.000Z</time>
      </trkpt>
      <trkpt lat="47.35822" lon="-2.38924">
        <ele>80.199996948242</ele>
        <time>2020-10-25T09:35:52.000Z</time>
      </trkpt>
      <trkpt lat="47.35776" lon="-2.38944">
        <ele>80.199996948242</ele>
        <time>2020-10-25T09:36:00.000Z</time>
      </trkpt>
      <trkpt lat="47.35746" lon="-2.38957">
        <ele>80.199996948242</ele>
        <time>2020-10-25T09:36:06.000Z</time>
      </trkpt>
      <trkpt lat="47.35742" lon="-2.38959">
        <ele>80.199996948242</ele>
        <time>2020-10-25T09:36:07.000Z</time>
      </trkpt>
      <trkpt lat="47.35717" lon="-2.38969">
        <ele>80.199996948242</ele>
        <time>2020-10-25T09:36:12.000Z</time>
      </trkpt>
      <trkpt lat="47.35678" lon="-2.38985">
        <ele>80.199996948242</ele>
        <time>2020-10-25T09:36:20.000Z</time>
      </trkpt>
      <trkpt lat="47.35641" lon="-2.38999">
        <ele>80.199996948242</ele>
        <time>2020-10-25T09:36:27.000Z</time>
      </trkpt>
      <trkpt lat="47.35602" lon="-2.39011">
        <ele>80.199996948242</ele>
        <time>2020-10-25T09:36:34.000Z</time>
      </trkpt>
      <trkpt lat="47.3556" lon="-2.3902">
        <ele>80.199996948242</ele>
        <time>2020-10-25T09:36:42.000Z</time>
      </trkpt>
      <trkpt lat="47.35545" lon="-2.39024">
        <ele>80.599998474121</ele>
        <time>2020-10-25T09:36:45.000Z</time>
      </trkpt>
      <trkpt lat="47.3554" lon="-2.39025">
        <ele>81</ele>
        <time>2020-10-25T09:36:46.000Z</time>
      </trkpt>
      <trkpt lat="47.35534" lon="-2.39026">
        <ele>81.599998474121</ele>
        <time>2020-10-25T09:36:47.000Z</time>
      </trkpt>
      <trkpt lat="47.35529" lon="-2.39028">
        <ele>82</ele>
        <time>2020-10-25T09:36:48.000Z</time>
      </trkpt>
      <trkpt lat="47.35523" lon="-2.39029">
        <ele>82.400001525879</ele>
        <time>2020-10-25T09:36:49.000Z</time>
      </trkpt>
      <trkpt lat="47.3549" lon="-2.39036">
        <ele>82.400001525879</ele>
        <time>2020-10-25T09:36:55.000Z</time>
      </trkpt>
      <trkpt lat="47.35466" lon="-2.39042">
        <ele>82.400001525879</ele>
        <time>2020-10-25T09:37:00.000Z</time>
      </trkpt>
      <trkpt lat="47.35462" lon="-2.39043">
        <ele>82.400001525879</ele>
        <time>2020-10-25T09:37:01.000Z</time>
      </trkpt>
      <trkpt lat="47.35454" lon="-2.39045">
        <ele>83.199996948242</ele>
        <time>2020-10-25T09:37:03.000Z</time>
      </trkpt>
      <trkpt lat="47.35451" lon="-2.39046">
        <ele>83.599998474121</ele>
        <time>2020-10-25T09:37:04.000Z</time>
      </trkpt>
      <trkpt lat="47.35448" lon="-2.39047">
        <ele>84</ele>
        <time>2020-10-25T09:37:05.000Z</time>
      </trkpt>
      <trkpt lat="47.35446" lon="-2.39048">
        <ele>84.400001525879</ele>
        <time>2020-10-25T09:37:06.000Z</time>
      </trkpt>
      <trkpt lat="47.35441" lon="-2.3905">
        <ele>84.400001525879</ele>
        <time>2020-10-25T09:37:09.000Z</time>
      </trkpt>
      <trkpt lat="47.35439" lon="-2.39049">
        <ele>84.400001525879</ele>
        <time>2020-10-25T09:37:11.000Z</time>
      </trkpt>
      <trkpt lat="47.35438" lon="-2.39039">
        <ele>84.400001525879</ele>
        <time>2020-10-25T09:37:16.000Z</time>
      </trkpt>
      <trkpt lat="47.35438" lon="-2.39036">
        <ele>84.400001525879</ele>
        <time>2020-10-25T09:37:17.000Z</time>
      </trkpt>
      <trkpt lat="47.35442" lon="-2.39017">
        <ele>84.400001525879</ele>
        <time>2020-10-25T09:37:22.000Z</time>
      </trkpt>
      <trkpt lat="47.35444" lon="-2.38989">
        <ele>84.400001525879</ele>
        <time>2020-10-25T09:37:28.000Z</time>
      </trkpt>
      <trkpt lat="47.35441" lon="-2.38964">
        <ele>84.400001525879</ele>
        <time>2020-10-25T09:37:33.000Z</time>
      </trkpt>
      <trkpt lat="47.35441" lon="-2.38954">
        <ele>84.400001525879</ele>
        <time>2020-10-25T09:37:37.000Z</time>
      </trkpt>
      <trkpt lat="47.35441" lon="-2.38954">
        <ele>84.400001525879</ele>
        <time>2020-10-25T09:37:38.000Z</time>
      </trkpt>
      <trkpt lat="47.3544" lon="-2.38951">
        <ele>84.400001525879</ele>
        <time>2020-10-25T09:37:44.000Z</time>
      </trkpt>
      <trkpt lat="47.35439" lon="-2.38948">
        <ele>84.400001525879</ele>
        <time>2020-10-25T09:37:45.000Z</time>
      </trkpt>
      <trkpt lat="47.35439" lon="-2.38922">
        <ele>84.400001525879</ele>
        <time>2020-10-25T09:37:50.000Z</time>
      </trkpt>
      <trkpt lat="47.35439" lon="-2.38916">
        <ele>84</ele>
        <time>2020-10-25T09:37:51.000Z</time>
      </trkpt>
      <trkpt lat="47.35439" lon="-2.38909">
        <ele>83</ele>
        <time>2020-10-25T09:37:52.000Z</time>
      </trkpt>
      <trkpt lat="47.35439" lon="-2.38903">
        <ele>82.599998474121</ele>
        <time>2020-10-25T09:37:53.000Z</time>
      </trkpt>
      <trkpt lat="47.35439" lon="-2.38896">
        <ele>82.199996948242</ele>
        <time>2020-10-25T09:37:54.000Z</time>
      </trkpt>
      <trkpt lat="47.35439" lon="-2.38874">
        <ele>82.199996948242</ele>
        <time>2020-10-25T09:37:57.000Z</time>
      </trkpt>
      <trkpt lat="47.35435" lon="-2.38819">
        <ele>82.199996948242</ele>
        <time>2020-10-25T09:38:04.000Z</time>
      </trkpt>
      <trkpt lat="47.35435" lon="-2.38812">
        <ele>81.800003051758</ele>
        <time>2020-10-25T09:38:05.000Z</time>
      </trkpt>
      <trkpt lat="47.35435" lon="-2.38804">
        <ele>81.199996948242</ele>
        <time>2020-10-25T09:38:06.000Z</time>
      </trkpt>
      <trkpt lat="47.35435" lon="-2.38796">
        <ele>80.800003051758</ele>
        <time>2020-10-25T09:38:07.000Z</time>
      </trkpt>
      <trkpt lat="47.35436" lon="-2.38788">
        <ele>80.400001525879</ele>
        <time>2020-10-25T09:38:08.000Z</time>
      </trkpt>
      <trkpt lat="47.35438" lon="-2.3878">
        <ele>80</ele>
        <time>2020-10-25T09:38:09.000Z</time>
      </trkpt>
      <trkpt lat="47.35439" lon="-2.38772">
        <ele>80</ele>
        <time>2020-10-25T09:38:10.000Z</time>
      </trkpt>
      <trkpt lat="47.35446" lon="-2.38748">
        <ele>79.599998474121</ele>
        <time>2020-10-25T09:38:13.000Z</time>
      </trkpt>
      <trkpt lat="47.35449" lon="-2.3874">
        <ele>79.199996948242</ele>
        <time>2020-10-25T09:38:14.000Z</time>
      </trkpt>
      <trkpt lat="47.35453" lon="-2.38733">
        <ele>78.800003051758</ele>
        <time>2020-10-25T09:38:15.000Z</time>
      </trkpt>
      <trkpt lat="47.35457" lon="-2.38725">
        <ele>78</ele>
        <time>2020-10-25T09:38:16.000Z</time>
      </trkpt>
      <trkpt lat="47.3548" lon="-2.3869">
        <ele>78</ele>
        <time>2020-10-25T09:38:21.000Z</time>
      </trkpt>
      <trkpt lat="47.35519" lon="-2.38637">
        <ele>78</ele>
        <time>2020-10-25T09:38:29.000Z</time>
      </trkpt>
      <trkpt lat="47.35537" lon="-2.38607">
        <ele>78</ele>
        <time>2020-10-25T09:38:33.000Z</time>
      </trkpt>
      <trkpt lat="47.3554" lon="-2.38598">
        <ele>78</ele>
        <time>2020-10-25T09:38:34.000Z</time>
      </trkpt>
      <trkpt lat="47.35546" lon="-2.38571">
        <ele>78</ele>
        <time>2020-10-25T09:38:37.000Z</time>
      </trkpt>
      <trkpt lat="47.35549" lon="-2.38553">
        <ele>78</ele>
        <time>2020-10-25T09:38:39.000Z</time>
      </trkpt>
      <trkpt lat="47.3555" lon="-2.38499">
        <ele>78</ele>
        <time>2020-10-25T09:38:45.000Z</time>
      </trkpt>
      <trkpt lat="47.35552" lon="-2.38448">
        <ele>78</ele>
        <time>2020-10-25T09:38:51.000Z</time>
      </trkpt>
      <trkpt lat="47.35553" lon="-2.38406">
        <ele>78</ele>
        <time>2020-10-25T09:38:56.000Z</time>
      </trkpt>
      <trkpt lat="47.35554" lon="-2.38369">
        <ele>78.400001525879</ele>
        <time>2020-10-25T09:39:01.000Z</time>
      </trkpt>
      <trkpt lat="47.35554" lon="-2.38361">
        <ele>79</ele>
        <time>2020-10-25T09:39:02.000Z</time>
      </trkpt>
      <trkpt lat="47.35555" lon="-2.38355">
        <ele>79.400001525879</ele>
        <time>2020-10-25T09:39:03.000Z</time>
      </trkpt>
      <trkpt lat="47.35555" lon="-2.38347">
        <ele>79.800003051758</ele>
        <time>2020-10-25T09:39:04.000Z</time>
      </trkpt>
      <trkpt lat="47.35555" lon="-2.38341">
        <ele>80.199996948242</ele>
        <time>2020-10-25T09:39:05.000Z</time>
      </trkpt>
      <trkpt lat="47.35557" lon="-2.38308">
        <ele>80.599998474121</ele>
        <time>2020-10-25T09:39:10.000Z</time>
      </trkpt>
      <trkpt lat="47.35558" lon="-2.38301">
        <ele>81</ele>
        <time>2020-10-25T09:39:11.000Z</time>
      </trkpt>
      <trkpt lat="47.35559" lon="-2.38294">
        <ele>81.400001525879</ele>
        <time>2020-10-25T09:39:12.000Z</time>
      </trkpt>
      <trkpt lat="47.35561" lon="-2.38288">
        <ele>81.800003051758</ele>
        <time>2020-10-25T09:39:13.000Z</time>
      </trkpt>
      <trkpt lat="47.35563" lon="-2.38281">
        <ele>82.199996948242</ele>
        <time>2020-10-25T09:39:14.000Z</time>
      </trkpt>
      <trkpt lat="47.35568" lon="-2.38263">
        <ele>82.199996948242</ele>
        <time>2020-10-25T09:39:17.000Z</time>
      </trkpt>
      <trkpt lat="47.35575" lon="-2.38239">
        <ele>82.199996948242</ele>
        <time>2020-10-25T09:39:22.000Z</time>
      </trkpt>
      <trkpt lat="47.35575" lon="-2.38233">
        <ele>82.199996948242</ele>
        <time>2020-10-25T09:39:23.000Z</time>
      </trkpt>
      <trkpt lat="47.35571" lon="-2.38221">
        <ele>82.199996948242</ele>
        <time>2020-10-25T09:39:25.000Z</time>
      </trkpt>
      <trkpt lat="47.35556" lon="-2.38202">
        <ele>82.199996948242</ele>
        <time>2020-10-25T09:39:29.000Z</time>
      </trkpt>
      <trkpt lat="47.35526" lon="-2.38165">
        <ele>82.199996948242</ele>
        <time>2020-10-25T09:39:37.000Z</time>
      </trkpt>
      <trkpt lat="47.35497" lon="-2.3813">
        <ele>82.199996948242</ele>
        <time>2020-10-25T09:39:44.000Z</time>
      </trkpt>
      <trkpt lat="47.3547" lon="-2.38095">
        <ele>82.199996948242</ele>
        <time>2020-10-25T09:39:51.000Z</time>
      </trkpt>
      <trkpt lat="47.35459" lon="-2.38081">
        <ele>82.199996948242</ele>
        <time>2020-10-25T09:39:54.000Z</time>
      </trkpt>
      <trkpt lat="47.35446" lon="-2.38055">
        <ele>82.199996948242</ele>
        <time>2020-10-25T09:39:58.000Z</time>
      </trkpt>
      <trkpt lat="47.3543" lon="-2.38009">
        <ele>82.199996948242</ele>
        <time>2020-10-25T09:40:04.000Z</time>
      </trkpt>
      <trkpt lat="47.35412" lon="-2.37944">
        <ele>82.199996948242</ele>
        <time>2020-10-25T09:40:12.000Z</time>
      </trkpt>
      <trkpt lat="47.35391" lon="-2.37875">
        <ele>82.199996948242</ele>
        <time>2020-10-25T09:40:20.000Z</time>
      </trkpt>
      <trkpt lat="47.35375" lon="-2.37816">
        <ele>82.199996948242</ele>
        <time>2020-10-25T09:40:27.000Z</time>
      </trkpt>
      <trkpt lat="47.35359" lon="-2.37758">
        <ele>82.199996948242</ele>
        <time>2020-10-25T09:40:34.000Z</time>
      </trkpt>
      <trkpt lat="47.35339" lon="-2.37685">
        <ele>82.199996948242</ele>
        <time>2020-10-25T09:40:43.000Z</time>
      </trkpt>
      <trkpt lat="47.35328" lon="-2.37638">
        <ele>82.199996948242</ele>
        <time>2020-10-25T09:40:49.000Z</time>
      </trkpt>
      <trkpt lat="47.35311" lon="-2.37571">
        <ele>82.199996948242</ele>
        <time>2020-10-25T09:40:57.000Z</time>
      </trkpt>
      <trkpt lat="47.35298" lon="-2.37514">
        <ele>82.199996948242</ele>
        <time>2020-10-25T09:41:04.000Z</time>
      </trkpt>
      <trkpt lat="47.3529" lon="-2.37467">
        <ele>82.199996948242</ele>
        <time>2020-10-25T09:41:11.000Z</time>
      </trkpt>
      <trkpt lat="47.35283" lon="-2.37434">
        <ele>82.199996948242</ele>
        <time>2020-10-25T09:41:17.000Z</time>
      </trkpt>
      <trkpt lat="47.35282" lon="-2.37416">
        <ele>82.800003051758</ele>
        <time>2020-10-25T09:41:20.000Z</time>
      </trkpt>
      <trkpt lat="47.35282" lon="-2.37409">
        <ele>83.599998474121</ele>
        <time>2020-10-25T09:41:21.000Z</time>
      </trkpt>
      <trkpt lat="47.35282" lon="-2.37403">
        <ele>84</ele>
        <time>2020-10-25T09:41:22.000Z</time>
      </trkpt>
      <trkpt lat="47.35282" lon="-2.37396">
        <ele>84.400001525879</ele>
        <time>2020-10-25T09:41:23.000Z</time>
      </trkpt>
      <trkpt lat="47.3528" lon="-2.37358">
        <ele>84.400001525879</ele>
        <time>2020-10-25T09:41:29.000Z</time>
      </trkpt>
      <trkpt lat="47.3528" lon="-2.37351">
        <ele>84.400001525879</ele>
        <time>2020-10-25T09:41:30.000Z</time>
      </trkpt>
      <trkpt lat="47.3528" lon="-2.37299">
        <ele>84.400001525879</ele>
        <time>2020-10-25T09:41:38.000Z</time>
      </trkpt>
      <trkpt lat="47.3528" lon="-2.37227">
        <ele>84.400001525879</ele>
        <time>2020-10-25T09:41:47.000Z</time>
      </trkpt>
      <trkpt lat="47.35279" lon="-2.3722">
        <ele>84.400001525879</ele>
        <time>2020-10-25T09:41:48.000Z</time>
      </trkpt>
      <trkpt lat="47.35273" lon="-2.37209">
        <ele>84.400001525879</ele>
        <time>2020-10-25T09:41:50.000Z</time>
      </trkpt>
      <trkpt lat="47.35266" lon="-2.372">
        <ele>84.400001525879</ele>
        <time>2020-10-25T09:41:52.000Z</time>
      </trkpt>
      <trkpt lat="47.35257" lon="-2.37187">
        <ele>84.400001525879</ele>
        <time>2020-10-25T09:41:55.000Z</time>
      </trkpt>
      <trkpt lat="47.35255" lon="-2.37182">
        <ele>84.400001525879</ele>
        <time>2020-10-25T09:41:56.000Z</time>
      </trkpt>
      <trkpt lat="47.3524" lon="-2.37154">
        <ele>84.400001525879</ele>
        <time>2020-10-25T09:42:01.000Z</time>
      </trkpt>
      <trkpt lat="47.3523" lon="-2.37111">
        <ele>84.400001525879</ele>
        <time>2020-10-25T09:42:07.000Z</time>
      </trkpt>
      <trkpt lat="47.35221" lon="-2.37063">
        <ele>84.800003051758</ele>
        <time>2020-10-25T09:42:13.000Z</time>
      </trkpt>
      <trkpt lat="47.3522" lon="-2.37055">
        <ele>85.199996948242</ele>
        <time>2020-10-25T09:42:14.000Z</time>
      </trkpt>
      <trkpt lat="47.35218" lon="-2.37046">
        <ele>85.599998474121</ele>
        <time>2020-10-25T09:42:15.000Z</time>
      </trkpt>
      <trkpt lat="47.35216" lon="-2.37038">
        <ele>86</ele>
        <time>2020-10-25T09:42:16.000Z</time>
      </trkpt>
      <trkpt lat="47.35214" lon="-2.3703">
        <ele>86.400001525879</ele>
        <time>2020-10-25T09:42:17.000Z</time>
      </trkpt>
      <trkpt lat="47.35212" lon="-2.37022">
        <ele>86.400001525879</ele>
        <time>2020-10-25T09:42:18.000Z</time>
      </trkpt>
      <trkpt lat="47.35209" lon="-2.37014">
        <ele>86.400001525879</ele>
        <time>2020-10-25T09:42:19.000Z</time>
      </trkpt>
      <trkpt lat="47.35197" lon="-2.36985">
        <ele>86.400001525879</ele>
        <time>2020-10-25T09:42:23.000Z</time>
      </trkpt>
      <trkpt lat="47.3519" lon="-2.36972">
        <ele>86.400001525879</ele>
        <time>2020-10-25T09:42:25.000Z</time>
      </trkpt>
      <trkpt lat="47.35167" lon="-2.36925">
        <ele>86.400001525879</ele>
        <time>2020-10-25T09:42:31.000Z</time>
      </trkpt>
      <trkpt lat="47.3515" lon="-2.36873">
        <ele>86.400001525879</ele>
        <time>2020-10-25T09:42:37.000Z</time>
      </trkpt>
      <trkpt lat="47.35135" lon="-2.36804">
        <ele>86.400001525879</ele>
        <time>2020-10-25T09:42:45.000Z</time>
      </trkpt>
      <trkpt lat="47.35123" lon="-2.36753">
        <ele>86.400001525879</ele>
        <time>2020-10-25T09:42:51.000Z</time>
      </trkpt>
      <trkpt lat="47.35104" lon="-2.36685">
        <ele>86.400001525879</ele>
        <time>2020-10-25T09:42:59.000Z</time>
      </trkpt>
      <trkpt lat="47.35085" lon="-2.36633">
        <ele>86.400001525879</ele>
        <time>2020-10-25T09:43:05.000Z</time>
      </trkpt>
      <trkpt lat="47.35073" lon="-2.36598">
        <ele>86</ele>
        <time>2020-10-25T09:43:09.000Z</time>
      </trkpt>
      <trkpt lat="47.3507" lon="-2.3659">
        <ele>85.599998474121</ele>
        <time>2020-10-25T09:43:10.000Z</time>
      </trkpt>
      <trkpt lat="47.35067" lon="-2.36582">
        <ele>85.199996948242</ele>
        <time>2020-10-25T09:43:11.000Z</time>
      </trkpt>
      <trkpt lat="47.35064" lon="-2.36574">
        <ele>84.800003051758</ele>
        <time>2020-10-25T09:43:12.000Z</time>
      </trkpt>
      <trkpt lat="47.35061" lon="-2.36566">
        <ele>84.400001525879</ele>
        <time>2020-10-25T09:43:13.000Z</time>
      </trkpt>
      <trkpt lat="47.3504" lon="-2.36519">
        <ele>84.400001525879</ele>
        <time>2020-10-25T09:43:19.000Z</time>
      </trkpt>
      <trkpt lat="47.35035" lon="-2.36512">
        <ele>84.400001525879</ele>
        <time>2020-10-25T09:43:20.000Z</time>
      </trkpt>
      <trkpt lat="47.35027" lon="-2.36498">
        <ele>84</ele>
        <time>2020-10-25T09:43:22.000Z</time>
      </trkpt>
      <trkpt lat="47.35023" lon="-2.36491">
        <ele>83.599998474121</ele>
        <time>2020-10-25T09:43:23.000Z</time>
      </trkpt>
      <trkpt lat="47.35019" lon="-2.36483">
        <ele>83</ele>
        <time>2020-10-25T09:43:24.000Z</time>
      </trkpt>
      <trkpt lat="47.35016" lon="-2.36475">
        <ele>82.199996948242</ele>
        <time>2020-10-25T09:43:25.000Z</time>
      </trkpt>
      <trkpt lat="47.35011" lon="-2.3646">
        <ele>82.199996948242</ele>
        <time>2020-10-25T09:43:27.000Z</time>
      </trkpt>
      <trkpt lat="47.35001" lon="-2.36429">
        <ele>82.199996948242</ele>
        <time>2020-10-25T09:43:31.000Z</time>
      </trkpt>
      <trkpt lat="47.34994" lon="-2.36419">
        <ele>82.199996948242</ele>
        <time>2020-10-25T09:43:33.000Z</time>
      </trkpt>
      <trkpt lat="47.34984" lon="-2.36411">
        <ele>82.199996948242</ele>
        <time>2020-10-25T09:43:35.000Z</time>
      </trkpt>
      <trkpt lat="47.3498" lon="-2.36409">
        <ele>82.199996948242</ele>
        <time>2020-10-25T09:43:36.000Z</time>
      </trkpt>
      <trkpt lat="47.34971" lon="-2.36404">
        <ele>82.199996948242</ele>
        <time>2020-10-25T09:43:38.000Z</time>
      </trkpt>
      <trkpt lat="47.34962" lon="-2.36399">
        <ele>82.199996948242</ele>
        <time>2020-10-25T09:43:40.000Z</time>
      </trkpt>
      <trkpt lat="47.34946" lon="-2.36387">
        <ele>82.199996948242</ele>
        <time>2020-10-25T09:43:44.000Z</time>
      </trkpt>
      <trkpt lat="47.34927" lon="-2.36375">
        <ele>82.599998474121</ele>
        <time>2020-10-25T09:43:49.000Z</time>
      </trkpt>
      <trkpt lat="47.34922" lon="-2.36373">
        <ele>83</ele>
        <time>2020-10-25T09:43:50.000Z</time>
      </trkpt>
      <trkpt lat="47.34918" lon="-2.3637">
        <ele>83.400001525879</ele>
        <time>2020-10-25T09:43:51.000Z</time>
      </trkpt>
      <trkpt lat="47.34915" lon="-2.36368">
        <ele>84</ele>
        <time>2020-10-25T09:43:52.000Z</time>
      </trkpt>
      <trkpt lat="47.34911" lon="-2.36365">
        <ele>84.400001525879</ele>
        <time>2020-10-25T09:43:53.000Z</time>
      </trkpt>
      <trkpt lat="47.34874" lon="-2.36343">
        <ele>84.800003051758</ele>
        <time>2020-10-25T09:44:02.000Z</time>
      </trkpt>
      <trkpt lat="47.34869" lon="-2.3634">
        <ele>85.199996948242</ele>
        <time>2020-10-25T09:44:03.000Z</time>
      </trkpt>
      <trkpt lat="47.34865" lon="-2.36338">
        <ele>85.599998474121</ele>
        <time>2020-10-25T09:44:04.000Z</time>
      </trkpt>
      <trkpt lat="47.34861" lon="-2.36335">
        <ele>86</ele>
        <time>2020-10-25T09:44:05.000Z</time>
      </trkpt>
      <trkpt lat="47.34857" lon="-2.36333">
        <ele>86.400001525879</ele>
        <time>2020-10-25T09:44:06.000Z</time>
      </trkpt>
      <trkpt lat="47.34844" lon="-2.36326">
        <ele>86.400001525879</ele>
        <time>2020-10-25T09:44:10.000Z</time>
      </trkpt>
      <trkpt lat="47.34839" lon="-2.36321">
        <ele>86.400001525879</ele>
        <time>2020-10-25T09:44:12.000Z</time>
      </trkpt>
      <trkpt lat="47.34839" lon="-2.36314">
        <ele>86.400001525879</ele>
        <time>2020-10-25T09:44:14.000Z</time>
      </trkpt>
      <trkpt lat="47.34845" lon="-2.36305">
        <ele>86.400001525879</ele>
        <time>2020-10-25T09:44:17.000Z</time>
      </trkpt>
      <trkpt lat="47.34848" lon="-2.36302">
        <ele>86.400001525879</ele>
        <time>2020-10-25T09:44:18.000Z</time>
      </trkpt>
      <trkpt lat="47.34874" lon="-2.36284">
        <ele>86.400001525879</ele>
        <time>2020-10-25T09:44:24.000Z</time>
      </trkpt>
      <trkpt lat="47.34915" lon="-2.36251">
        <ele>86.400001525879</ele>
        <time>2020-10-25T09:44:32.000Z</time>
      </trkpt>
      <trkpt lat="47.34951" lon="-2.36209">
        <ele>86</ele>
        <time>2020-10-25T09:44:39.000Z</time>
      </trkpt>
      <trkpt lat="47.34956" lon="-2.36202">
        <ele>85.599998474121</ele>
        <time>2020-10-25T09:44:40.000Z</time>
      </trkpt>
      <trkpt lat="47.3496" lon="-2.36196">
        <ele>85.199996948242</ele>
        <time>2020-10-25T09:44:41.000Z</time>
      </trkpt>
      <trkpt lat="47.34965" lon="-2.36189">
        <ele>84.800003051758</ele>
        <time>2020-10-25T09:44:42.000Z</time>
      </trkpt>
      <trkpt lat="47.34971" lon="-2.36183">
        <ele>84.400001525879</ele>
        <time>2020-10-25T09:44:43.000Z</time>
      </trkpt>
      <trkpt lat="47.34982" lon="-2.36173">
        <ele>84.400001525879</ele>
        <time>2020-10-25T09:44:45.000Z</time>
      </trkpt>
      <trkpt lat="47.34988" lon="-2.36169">
        <ele>84.400001525879</ele>
        <time>2020-10-25T09:44:46.000Z</time>
      </trkpt>
      <trkpt lat="47.35007" lon="-2.36163">
        <ele>84.400001525879</ele>
        <time>2020-10-25T09:44:49.000Z</time>
      </trkpt>
      <trkpt lat="47.35022" lon="-2.36165">
        <ele>83.800003051758</ele>
        <time>2020-10-25T09:44:51.000Z</time>
      </trkpt>
      <trkpt lat="47.35029" lon="-2.36167">
        <ele>83.400001525879</ele>
        <time>2020-10-25T09:44:52.000Z</time>
      </trkpt>
      <trkpt lat="47.35036" lon="-2.3617">
        <ele>83</ele>
        <time>2020-10-25T09:44:53.000Z</time>
      </trkpt>
      <trkpt lat="47.35043" lon="-2.36172">
        <ele>82.599998474121</ele>
        <time>2020-10-25T09:44:54.000Z</time>
      </trkpt>
      <trkpt lat="47.35049" lon="-2.36174">
        <ele>82.199996948242</ele>
        <time>2020-10-25T09:44:55.000Z</time>
      </trkpt>
      <trkpt lat="47.35069" lon="-2.36176">
        <ele>82.199996948242</ele>
        <time>2020-10-25T09:44:58.000Z</time>
      </trkpt>
      <trkpt lat="47.35074" lon="-2.36175">
        <ele>82.199996948242</ele>
        <time>2020-10-25T09:44:59.000Z</time>
      </trkpt>
      <trkpt lat="47.35085" lon="-2.36172">
        <ele>81.800003051758</ele>
        <time>2020-10-25T09:45:01.000Z</time>
      </trkpt>
      <trkpt lat="47.35089" lon="-2.36171">
        <ele>81.400001525879</ele>
        <time>2020-10-25T09:45:02.000Z</time>
      </trkpt>
      <trkpt lat="47.35094" lon="-2.36169">
        <ele>80.599998474121</ele>
        <time>2020-10-25T09:45:03.000Z</time>
      </trkpt>
      <trkpt lat="47.351" lon="-2.36168">
        <ele>80.199996948242</ele>
        <time>2020-10-25T09:45:04.000Z</time>
      </trkpt>
      <trkpt lat="47.35127" lon="-2.36154">
        <ele>80.199996948242</ele>
        <time>2020-10-25T09:45:09.000Z</time>
      </trkpt>
      <trkpt lat="47.3516" lon="-2.3613">
        <ele>80.199996948242</ele>
        <time>2020-10-25T09:45:15.000Z</time>
      </trkpt>
      <trkpt lat="47.35212" lon="-2.36089">
        <ele>80.199996948242</ele>
        <time>2020-10-25T09:45:24.000Z</time>
      </trkpt>
      <trkpt lat="47.35261" lon="-2.36047">
        <ele>80.199996948242</ele>
        <time>2020-10-25T09:45:33.000Z</time>
      </trkpt>
      <trkpt lat="47.35286" lon="-2.36026">
        <ele>79.800003051758</ele>
        <time>2020-10-25T09:45:38.000Z</time>
      </trkpt>
      <trkpt lat="47.35292" lon="-2.3602">
        <ele>79.400001525879</ele>
        <time>2020-10-25T09:45:39.000Z</time>
      </trkpt>
      <trkpt lat="47.35297" lon="-2.36014">
        <ele>78.800003051758</ele>
        <time>2020-10-25T09:45:40.000Z</time>
      </trkpt>
      <trkpt lat="47.35301" lon="-2.36007">
        <ele>78.400001525879</ele>
        <time>2020-10-25T09:45:41.000Z</time>
      </trkpt>
      <trkpt lat="47.35306" lon="-2.35999">
        <ele>78</ele>
        <time>2020-10-25T09:45:42.000Z</time>
      </trkpt>
      <trkpt lat="47.35313" lon="-2.35983">
        <ele>78</ele>
        <time>2020-10-25T09:45:44.000Z</time>
      </trkpt>
      <trkpt lat="47.3534" lon="-2.35925">
        <ele>78</ele>
        <time>2020-10-25T09:45:52.000Z</time>
      </trkpt>
      <trkpt lat="47.35344" lon="-2.35918">
        <ele>78</ele>
        <time>2020-10-25T09:45:53.000Z</time>
      </trkpt>
      <trkpt lat="47.35353" lon="-2.35906">
        <ele>78</ele>
        <time>2020-10-25T09:45:55.000Z</time>
      </trkpt>
      <trkpt lat="47.35363" lon="-2.35896">
        <ele>78</ele>
        <time>2020-10-25T09:45:57.000Z</time>
      </trkpt>
      <trkpt lat="47.35391" lon="-2.35867">
        <ele>78.400001525879</ele>
        <time>2020-10-25T09:46:03.000Z</time>
      </trkpt>
      <trkpt lat="47.35396" lon="-2.35861">
        <ele>78.800003051758</ele>
        <time>2020-10-25T09:46:04.000Z</time>
      </trkpt>
      <trkpt lat="47.354" lon="-2.35855">
        <ele>79.199996948242</ele>
        <time>2020-10-25T09:46:05.000Z</time>
      </trkpt>
      <trkpt lat="47.35404" lon="-2.35849">
        <ele>79.800003051758</ele>
        <time>2020-10-25T09:46:06.000Z</time>
      </trkpt>
      <trkpt lat="47.35408" lon="-2.35844">
        <ele>80.199996948242</ele>
        <time>2020-10-25T09:46:07.000Z</time>
      </trkpt>
      <trkpt lat="47.35421" lon="-2.35826">
        <ele>80.199996948242</ele>
        <time>2020-10-25T09:46:10.000Z</time>
      </trkpt>
      <trkpt lat="47.35454" lon="-2.35781">
        <ele>80.199996948242</ele>
        <time>2020-10-25T09:46:18.000Z</time>
      </trkpt>
      <trkpt lat="47.35487" lon="-2.35728">
        <ele>80.199996948242</ele>
        <time>2020-10-25T09:46:26.000Z</time>
      </trkpt>
      <trkpt lat="47.35519" lon="-2.35687">
        <ele>80.199996948242</ele>
        <time>2020-10-25T09:46:33.000Z</time>
      </trkpt>
      <trkpt lat="47.35553" lon="-2.35655">
        <ele>80.199996948242</ele>
        <time>2020-10-25T09:46:39.000Z</time>
      </trkpt>
      <trkpt lat="47.35587" lon="-2.35623">
        <ele>79.800003051758</ele>
        <time>2020-10-25T09:46:45.000Z</time>
      </trkpt>
      <trkpt lat="47.35593" lon="-2.35616">
        <ele>79.199996948242</ele>
        <time>2020-10-25T09:46:46.000Z</time>
      </trkpt>
      <trkpt lat="47.35598" lon="-2.3561">
        <ele>78.800003051758</ele>
        <time>2020-10-25T09:46:47.000Z</time>
      </trkpt>
      <trkpt lat="47.35604" lon="-2.35603">
        <ele>78.400001525879</ele>
        <time>2020-10-25T09:46:48.000Z</time>
      </trkpt>
      <trkpt lat="47.3561" lon="-2.35596">
        <ele>78</ele>
        <time>2020-10-25T09:46:49.000Z</time>
      </trkpt>
      <trkpt lat="47.35622" lon="-2.35582">
        <ele>78</ele>
        <time>2020-10-25T09:46:51.000Z</time>
      </trkpt>
      <trkpt lat="47.3566" lon="-2.35549">
        <ele>78</ele>
        <time>2020-10-25T09:46:57.000Z</time>
      </trkpt>
      <trkpt lat="47.35692" lon="-2.35531">
        <ele>78</ele>
        <time>2020-10-25T09:47:02.000Z</time>
      </trkpt>
      <trkpt lat="47.35738" lon="-2.3551">
        <ele>78</ele>
        <time>2020-10-25T09:47:09.000Z</time>
      </trkpt>
      <trkpt lat="47.35782" lon="-2.35486">
        <ele>78</ele>
        <time>2020-10-25T09:47:16.000Z</time>
      </trkpt>
      <trkpt lat="47.35816" lon="-2.35472">
        <ele>78</ele>
        <time>2020-10-25T09:47:22.000Z</time>
      </trkpt>
      <trkpt lat="47.35849" lon="-2.35457">
        <ele>78</ele>
        <time>2020-10-25T09:47:28.000Z</time>
      </trkpt>
      <trkpt lat="47.3587" lon="-2.35442">
        <ele>77.599998474121</ele>
        <time>2020-10-25T09:47:32.000Z</time>
      </trkpt>
      <trkpt lat="47.35875" lon="-2.35439">
        <ele>77.199996948242</ele>
        <time>2020-10-25T09:47:33.000Z</time>
      </trkpt>
      <trkpt lat="47.3588" lon="-2.35435">
        <ele>76.800003051758</ele>
        <time>2020-10-25T09:47:34.000Z</time>
      </trkpt>
      <trkpt lat="47.35885" lon="-2.35432">
        <ele>76.400001525879</ele>
        <time>2020-10-25T09:47:35.000Z</time>
      </trkpt>
      <trkpt lat="47.35889" lon="-2.35428">
        <ele>75.800003051758</ele>
        <time>2020-10-25T09:47:36.000Z</time>
      </trkpt>
      <trkpt lat="47.35915" lon="-2.35408">
        <ele>75.800003051758</ele>
        <time>2020-10-25T09:47:42.000Z</time>
      </trkpt>
      <trkpt lat="47.35926" lon="-2.35403">
        <ele>75.800003051758</ele>
        <time>2020-10-25T09:47:44.000Z</time>
      </trkpt>
      <trkpt lat="47.35938" lon="-2.35387">
        <ele>75.800003051758</ele>
        <time>2020-10-25T09:47:47.000Z</time>
      </trkpt>
      <trkpt lat="47.35946" lon="-2.35374">
        <ele>75.800003051758</ele>
        <time>2020-10-25T09:47:49.000Z</time>
      </trkpt>
      <trkpt lat="47.35963" lon="-2.35348">
        <ele>75.800003051758</ele>
        <time>2020-10-25T09:47:53.000Z</time>
      </trkpt>
      <trkpt lat="47.35993" lon="-2.35312">
        <ele>75.800003051758</ele>
        <time>2020-10-25T09:47:59.000Z</time>
      </trkpt>
      <trkpt lat="47.36017" lon="-2.35277">
        <ele>75.800003051758</ele>
        <time>2020-10-25T09:48:05.000Z</time>
      </trkpt>
      <trkpt lat="47.36045" lon="-2.3524">
        <ele>75.800003051758</ele>
        <time>2020-10-25T09:48:11.000Z</time>
      </trkpt>
      <trkpt lat="47.36078" lon="-2.35198">
        <ele>75.800003051758</ele>
        <time>2020-10-25T09:48:18.000Z</time>
      </trkpt>
      <trkpt lat="47.36082" lon="-2.35193">
        <ele>75.800003051758</ele>
        <time>2020-10-25T09:48:19.000Z</time>
      </trkpt>
      <trkpt lat="47.36089" lon="-2.35169">
        <ele>75.800003051758</ele>
        <time>2020-10-25T09:48:22.000Z</time>
      </trkpt>
      <trkpt lat="47.36092" lon="-2.35152">
        <ele>75.800003051758</ele>
        <time>2020-10-25T09:48:24.000Z</time>
      </trkpt>
      <trkpt lat="47.36093" lon="-2.35117">
        <ele>75.800003051758</ele>
        <time>2020-10-25T09:48:28.000Z</time>
      </trkpt>
      <trkpt lat="47.36096" lon="-2.35065">
        <ele>75.800003051758</ele>
        <time>2020-10-25T09:48:34.000Z</time>
      </trkpt>
      <trkpt lat="47.36098" lon="-2.35004">
        <ele>75.800003051758</ele>
        <time>2020-10-25T09:48:41.000Z</time>
      </trkpt>
      <trkpt lat="47.36097" lon="-2.34996">
        <ele>75.800003051758</ele>
        <time>2020-10-25T09:48:42.000Z</time>
      </trkpt>
      <trkpt lat="47.3609" lon="-2.34962">
        <ele>75.800003051758</ele>
        <time>2020-10-25T09:48:46.000Z</time>
      </trkpt>
      <trkpt lat="47.36086" lon="-2.34911">
        <ele>75.800003051758</ele>
        <time>2020-10-25T09:48:52.000Z</time>
      </trkpt>
      <trkpt lat="47.36086" lon="-2.34888">
        <ele>75.800003051758</ele>
        <time>2020-10-25T09:48:55.000Z</time>
      </trkpt>
      <trkpt lat="47.36081" lon="-2.34876">
        <ele>75.800003051758</ele>
        <time>2020-10-25T09:48:57.000Z</time>
      </trkpt>
      <trkpt lat="47.36067" lon="-2.34872">
        <ele>75.800003051758</ele>
        <time>2020-10-25T09:49:00.000Z</time>
      </trkpt>
      <trkpt lat="47.36062" lon="-2.34872">
        <ele>75.800003051758</ele>
        <time>2020-10-25T09:49:01.000Z</time>
      </trkpt>
      <trkpt lat="47.36034" lon="-2.3487">
        <ele>75.800003051758</ele>
        <time>2020-10-25T09:49:06.000Z</time>
      </trkpt>
      <trkpt lat="47.36023" lon="-2.34869">
        <ele>76.400001525879</ele>
        <time>2020-10-25T09:49:08.000Z</time>
      </trkpt>
      <trkpt lat="47.36017" lon="-2.34868">
        <ele>76.800003051758</ele>
        <time>2020-10-25T09:49:09.000Z</time>
      </trkpt>
      <trkpt lat="47.36012" lon="-2.34868">
        <ele>77.599998474121</ele>
        <time>2020-10-25T09:49:10.000Z</time>
      </trkpt>
      <trkpt lat="47.36006" lon="-2.34867">
        <ele>78</ele>
        <time>2020-10-25T09:49:11.000Z</time>
      </trkpt>
      <trkpt lat="47.35989" lon="-2.34866">
        <ele>78</ele>
        <time>2020-10-25T09:49:14.000Z</time>
      </trkpt>
      <trkpt lat="47.3594" lon="-2.34862">
        <ele>78</ele>
        <time>2020-10-25T09:49:23.000Z</time>
      </trkpt>
      <trkpt lat="47.35928" lon="-2.3486">
        <ele>78</ele>
        <time>2020-10-25T09:49:25.000Z</time>
      </trkpt>
      <trkpt lat="47.35918" lon="-2.34852">
        <ele>78</ele>
        <time>2020-10-25T09:49:27.000Z</time>
      </trkpt>
      <trkpt lat="47.35908" lon="-2.34832">
        <ele>78</ele>
        <time>2020-10-25T09:49:30.000Z</time>
      </trkpt>
      <trkpt lat="47.35905" lon="-2.34824">
        <ele>78</ele>
        <time>2020-10-25T09:49:31.000Z</time>
      </trkpt>
      <trkpt lat="47.3589" lon="-2.34784">
        <ele>78</ele>
        <time>2020-10-25T09:49:37.000Z</time>
      </trkpt>
      <trkpt lat="47.35865" lon="-2.3472">
        <ele>78</ele>
        <time>2020-10-25T09:49:46.000Z</time>
      </trkpt>
      <trkpt lat="47.35842" lon="-2.34665">
        <ele>78</ele>
        <time>2020-10-25T09:49:54.000Z</time>
      </trkpt>
      <trkpt lat="47.35825" lon="-2.34624">
        <ele>78</ele>
        <time>2020-10-25T09:50:00.000Z</time>
      </trkpt>
      <trkpt lat="47.35809" lon="-2.34584">
        <ele>78</ele>
        <time>2020-10-25T09:50:06.000Z</time>
      </trkpt>
      <trkpt lat="47.35804" lon="-2.3457">
        <ele>78</ele>
        <time>2020-10-25T09:50:08.000Z</time>
      </trkpt>
      <trkpt lat="47.35801" lon="-2.34555">
        <ele>78</ele>
        <time>2020-10-25T09:50:10.000Z</time>
      </trkpt>
      <trkpt lat="47.35798" lon="-2.34539">
        <ele>78</ele>
        <time>2020-10-25T09:50:12.000Z</time>
      </trkpt>
      <trkpt lat="47.35787" lon="-2.34471">
        <ele>78</ele>
        <time>2020-10-25T09:50:20.000Z</time>
      </trkpt>
      <trkpt lat="47.35779" lon="-2.34412">
        <ele>78</ele>
        <time>2020-10-25T09:50:27.000Z</time>
      </trkpt>
      <trkpt lat="47.35772" lon="-2.34364">
        <ele>78</ele>
        <time>2020-10-25T09:50:34.000Z</time>
      </trkpt>
      <trkpt lat="47.35767" lon="-2.34317">
        <ele>78</ele>
        <time>2020-10-25T09:50:41.000Z</time>
      </trkpt>
      <trkpt lat="47.35766" lon="-2.34311">
        <ele>78.400001525879</ele>
        <time>2020-10-25T09:50:42.000Z</time>
      </trkpt>
      <trkpt lat="47.35765" lon="-2.34304">
        <ele>78.800003051758</ele>
        <time>2020-10-25T09:50:43.000Z</time>
      </trkpt>
      <trkpt lat="47.35765" lon="-2.34297">
        <ele>79.199996948242</ele>
        <time>2020-10-25T09:50:44.000Z</time>
      </trkpt>
      <trkpt lat="47.35765" lon="-2.34291">
        <ele>79.599998474121</ele>
        <time>2020-10-25T09:50:45.000Z</time>
      </trkpt>
      <trkpt lat="47.35765" lon="-2.34284">
        <ele>80</ele>
        <time>2020-10-25T09:50:46.000Z</time>
      </trkpt>
      <trkpt lat="47.35765" lon="-2.34277">
        <ele>80</ele>
        <time>2020-10-25T09:50:47.000Z</time>
      </trkpt>
      <trkpt lat="47.35765" lon="-2.3424">
        <ele>80.400001525879</ele>
        <time>2020-10-25T09:50:53.000Z</time>
      </trkpt>
      <trkpt lat="47.35765" lon="-2.34235">
        <ele>80.800003051758</ele>
        <time>2020-10-25T09:50:54.000Z</time>
      </trkpt>
      <trkpt lat="47.35764" lon="-2.34229">
        <ele>81.199996948242</ele>
        <time>2020-10-25T09:50:55.000Z</time>
      </trkpt>
      <trkpt lat="47.35764" lon="-2.34224">
        <ele>81.599998474121</ele>
        <time>2020-10-25T09:50:56.000Z</time>
      </trkpt>
      <trkpt lat="47.35763" lon="-2.3422">
        <ele>82</ele>
        <time>2020-10-25T09:50:57.000Z</time>
      </trkpt>
      <trkpt lat="47.35763" lon="-2.34216">
        <ele>82</ele>
        <time>2020-10-25T09:50:58.000Z</time>
      </trkpt>
      <trkpt lat="47.35758" lon="-2.34204">
        <ele>82</ele>
        <time>2020-10-25T09:51:02.000Z</time>
      </trkpt>
      <trkpt lat="47.35755" lon="-2.34204">
        <ele>82</ele>
        <time>2020-10-25T09:51:03.000Z</time>
      </trkpt>
      <trkpt lat="47.35736" lon="-2.34209">
        <ele>82</ele>
        <time>2020-10-25T09:51:08.000Z</time>
      </trkpt>
      <trkpt lat="47.35712" lon="-2.34212">
        <ele>82</ele>
        <time>2020-10-25T09:51:13.000Z</time>
      </trkpt>
      <trkpt lat="47.35707" lon="-2.34212">
        <ele>82</ele>
        <time>2020-10-25T09:51:14.000Z</time>
      </trkpt>
      <trkpt lat="47.35674" lon="-2.34205">
        <ele>81.599998474121</ele>
        <time>2020-10-25T09:51:20.000Z</time>
      </trkpt>
      <trkpt lat="47.35668" lon="-2.34203">
        <ele>81.199996948242</ele>
        <time>2020-10-25T09:51:21.000Z</time>
      </trkpt>
      <trkpt lat="47.35662" lon="-2.34202">
        <ele>80.800003051758</ele>
        <time>2020-10-25T09:51:22.000Z</time>
      </trkpt>
      <trkpt lat="47.35656" lon="-2.342">
        <ele>80.400001525879</ele>
        <time>2020-10-25T09:51:23.000Z</time>
      </trkpt>
      <trkpt lat="47.3565" lon="-2.34199">
        <ele>80</ele>
        <time>2020-10-25T09:51:24.000Z</time>
      </trkpt>
      <trkpt lat="47.35621" lon="-2.34191">
        <ele>80</ele>
        <time>2020-10-25T09:51:29.000Z</time>
      </trkpt>
      <trkpt lat="47.35586" lon="-2.34185">
        <ele>79.599998474121</ele>
        <time>2020-10-25T09:51:35.000Z</time>
      </trkpt>
      <trkpt lat="47.3558" lon="-2.34184">
        <ele>79.199996948242</ele>
        <time>2020-10-25T09:51:36.000Z</time>
      </trkpt>
      <trkpt lat="47.35574" lon="-2.34183">
        <ele>78.800003051758</ele>
        <time>2020-10-25T09:51:37.000Z</time>
      </trkpt>
      <trkpt lat="47.35568" lon="-2.34181">
        <ele>77.800003051758</ele>
        <time>2020-10-25T09:51:38.000Z</time>
      </trkpt>
      <trkpt lat="47.35527" lon="-2.34165">
        <ele>77.800003051758</ele>
        <time>2020-10-25T09:51:45.000Z</time>
      </trkpt>
      <trkpt lat="47.35494" lon="-2.34141">
        <ele>77.800003051758</ele>
        <time>2020-10-25T09:51:51.000Z</time>
      </trkpt>
      <trkpt lat="47.35484" lon="-2.34119">
        <ele>77.800003051758</ele>
        <time>2020-10-25T09:51:54.000Z</time>
      </trkpt>
      <trkpt lat="47.35481" lon="-2.3411">
        <ele>77.400001525879</ele>
        <time>2020-10-25T09:51:55.000Z</time>
      </trkpt>
      <trkpt lat="47.3548" lon="-2.341">
        <ele>77</ele>
        <time>2020-10-25T09:51:56.000Z</time>
      </trkpt>
      <trkpt lat="47.35478" lon="-2.3409">
        <ele>76.599998474121</ele>
        <time>2020-10-25T09:51:57.000Z</time>
      </trkpt>
      <trkpt lat="47.35476" lon="-2.34081">
        <ele>76.199996948242</ele>
        <time>2020-10-25T09:51:58.000Z</time>
      </trkpt>
      <trkpt lat="47.35474" lon="-2.34072">
        <ele>75.599998474121</ele>
        <time>2020-10-25T09:51:59.000Z</time>
      </trkpt>
      <trkpt lat="47.35462" lon="-2.34049">
        <ele>75.599998474121</ele>
        <time>2020-10-25T09:52:02.000Z</time>
      </trkpt>
      <trkpt lat="47.35458" lon="-2.34042">
        <ele>75.599998474121</ele>
        <time>2020-10-25T09:52:03.000Z</time>
      </trkpt>
      <trkpt lat="47.35442" lon="-2.34014">
        <ele>75.199996948242</ele>
        <time>2020-10-25T09:52:07.000Z</time>
      </trkpt>
      <trkpt lat="47.35438" lon="-2.34009">
        <ele>74.800003051758</ele>
        <time>2020-10-25T09:52:08.000Z</time>
      </trkpt>
      <trkpt lat="47.35436" lon="-2.34005">
        <ele>74.400001525879</ele>
        <time>2020-10-25T09:52:09.000Z</time>
      </trkpt>
      <trkpt lat="47.35434" lon="-2.34003">
        <ele>74</ele>
        <time>2020-10-25T09:52:10.000Z</time>
      </trkpt>
      <trkpt lat="47.35433" lon="-2.34001">
        <ele>73.599998474121</ele>
        <time>2020-10-25T09:52:11.000Z</time>
      </trkpt>
      <trkpt lat="47.35433" lon="-2.34001">
        <ele>73.599998474121</ele>
        <time>2020-10-25T09:52:12.000Z</time>
      </trkpt>
      <trkpt lat="47.35432" lon="-2.33997">
        <ele>73.599998474121</ele>
        <time>2020-10-25T09:52:20.000Z</time>
      </trkpt>
      <trkpt lat="47.35431" lon="-2.3399">
        <ele>73.599998474121</ele>
        <time>2020-10-25T09:52:22.000Z</time>
      </trkpt>
      <trkpt lat="47.35432" lon="-2.33965">
        <ele>73.599998474121</ele>
        <time>2020-10-25T09:52:27.000Z</time>
      </trkpt>
      <trkpt lat="47.35433" lon="-2.33959">
        <ele>73.599998474121</ele>
        <time>2020-10-25T09:52:28.000Z</time>
      </trkpt>
      <trkpt lat="47.3544" lon="-2.3393">
        <ele>73.599998474121</ele>
        <time>2020-10-25T09:52:33.000Z</time>
      </trkpt>
      <trkpt lat="47.3545" lon="-2.33883">
        <ele>73.599998474121</ele>
        <time>2020-10-25T09:52:41.000Z</time>
      </trkpt>
      <trkpt lat="47.35453" lon="-2.33877">
        <ele>73.599998474121</ele>
        <time>2020-10-25T09:52:42.000Z</time>
      </trkpt>
      <trkpt lat="47.35463" lon="-2.33849">
        <ele>73.599998474121</ele>
        <time>2020-10-25T09:52:46.000Z</time>
      </trkpt>
      <trkpt lat="47.3548" lon="-2.33806">
        <ele>73.599998474121</ele>
        <time>2020-10-25T09:52:52.000Z</time>
      </trkpt>
      <trkpt lat="47.35498" lon="-2.33762">
        <ele>73.599998474121</ele>
        <time>2020-10-25T09:52:58.000Z</time>
      </trkpt>
      <trkpt lat="47.355" lon="-2.33754">
        <ele>73.599998474121</ele>
        <time>2020-10-25T09:52:59.000Z</time>
      </trkpt>
      <trkpt lat="47.35505" lon="-2.33728">
        <ele>73.599998474121</ele>
        <time>2020-10-25T09:53:02.000Z</time>
      </trkpt>
      <trkpt lat="47.35514" lon="-2.3367">
        <ele>73.599998474121</ele>
        <time>2020-10-25T09:53:08.000Z</time>
      </trkpt>
      <trkpt lat="47.3553" lon="-2.33623">
        <ele>73.599998474121</ele>
        <time>2020-10-25T09:53:13.000Z</time>
      </trkpt>
      <trkpt lat="47.35542" lon="-2.33598">
        <ele>73.599998474121</ele>
        <time>2020-10-25T09:53:16.000Z</time>
      </trkpt>
      <trkpt lat="47.35547" lon="-2.33592">
        <ele>73.599998474121</ele>
        <time>2020-10-25T09:53:17.000Z</time>
      </trkpt>
      <trkpt lat="47.35564" lon="-2.33583">
        <ele>73.599998474121</ele>
        <time>2020-10-25T09:53:20.000Z</time>
      </trkpt>
      <trkpt lat="47.3557" lon="-2.33582">
        <ele>73.599998474121</ele>
        <time>2020-10-25T09:53:21.000Z</time>
      </trkpt>
      <trkpt lat="47.35608" lon="-2.33571">
        <ele>73.599998474121</ele>
        <time>2020-10-25T09:53:27.000Z</time>
      </trkpt>
      <trkpt lat="47.35635" lon="-2.33565">
        <ele>73.599998474121</ele>
        <time>2020-10-25T09:53:31.000Z</time>
      </trkpt>
      <trkpt lat="47.35648" lon="-2.3356">
        <ele>73.599998474121</ele>
        <time>2020-10-25T09:53:33.000Z</time>
      </trkpt>
      <trkpt lat="47.35661" lon="-2.33558">
        <ele>73.599998474121</ele>
        <time>2020-10-25T09:53:35.000Z</time>
      </trkpt>
      <trkpt lat="47.35674" lon="-2.33555">
        <ele>73.599998474121</ele>
        <time>2020-10-25T09:53:37.000Z</time>
      </trkpt>
      <trkpt lat="47.35706" lon="-2.33548">
        <ele>73.599998474121</ele>
        <time>2020-10-25T09:53:42.000Z</time>
      </trkpt>
      <trkpt lat="47.35718" lon="-2.33544">
        <ele>73.599998474121</ele>
        <time>2020-10-25T09:53:44.000Z</time>
      </trkpt>
      <trkpt lat="47.35764" lon="-2.33531">
        <ele>73.599998474121</ele>
        <time>2020-10-25T09:53:51.000Z</time>
      </trkpt>
      <trkpt lat="47.35785" lon="-2.33529">
        <ele>73.599998474121</ele>
        <time>2020-10-25T09:53:54.000Z</time>
      </trkpt>
      <trkpt lat="47.35805" lon="-2.33523">
        <ele>73.599998474121</ele>
        <time>2020-10-25T09:53:57.000Z</time>
      </trkpt>
      <trkpt lat="47.35824" lon="-2.3352">
        <ele>73.599998474121</ele>
        <time>2020-10-25T09:54:00.000Z</time>
      </trkpt>
      <trkpt lat="47.35837" lon="-2.33517">
        <ele>73.599998474121</ele>
        <time>2020-10-25T09:54:02.000Z</time>
      </trkpt>
      <trkpt lat="47.35878" lon="-2.33508">
        <ele>73.199996948242</ele>
        <time>2020-10-25T09:54:08.000Z</time>
      </trkpt>
      <trkpt lat="47.35885" lon="-2.33507">
        <ele>72.800003051758</ele>
        <time>2020-10-25T09:54:09.000Z</time>
      </trkpt>
      <trkpt lat="47.35892" lon="-2.33506">
        <ele>72.400001525879</ele>
        <time>2020-10-25T09:54:10.000Z</time>
      </trkpt>
      <trkpt lat="47.35899" lon="-2.33504">
        <ele>71.800003051758</ele>
        <time>2020-10-25T09:54:11.000Z</time>
      </trkpt>
      <trkpt lat="47.35907" lon="-2.33502">
        <ele>71.400001525879</ele>
        <time>2020-10-25T09:54:12.000Z</time>
      </trkpt>
      <trkpt lat="47.35943" lon="-2.33494">
        <ele>71.400001525879</ele>
        <time>2020-10-25T09:54:17.000Z</time>
      </trkpt>
      <trkpt lat="47.3598" lon="-2.33485">
        <ele>71.400001525879</ele>
        <time>2020-10-25T09:54:22.000Z</time>
      </trkpt>
      <trkpt lat="47.35986" lon="-2.33485">
        <ele>71.400001525879</ele>
        <time>2020-10-25T09:54:23.000Z</time>
      </trkpt>
      <trkpt lat="47.36" lon="-2.33481">
        <ele>71.400001525879</ele>
        <time>2020-10-25T09:54:25.000Z</time>
      </trkpt>
      <trkpt lat="47.3603" lon="-2.33469">
        <ele>71.400001525879</ele>
        <time>2020-10-25T09:54:30.000Z</time>
      </trkpt>
      <trkpt lat="47.36036" lon="-2.33467">
        <ele>71.400001525879</ele>
        <time>2020-10-25T09:54:31.000Z</time>
      </trkpt>
      <trkpt lat="47.36046" lon="-2.33449">
        <ele>71.400001525879</ele>
        <time>2020-10-25T09:54:34.000Z</time>
      </trkpt>
      <trkpt lat="47.36051" lon="-2.33411">
        <ele>71.400001525879</ele>
        <time>2020-10-25T09:54:38.000Z</time>
      </trkpt>
      <trkpt lat="47.36057" lon="-2.33339">
        <ele>71.400001525879</ele>
        <time>2020-10-25T09:54:45.000Z</time>
      </trkpt>
      <trkpt lat="47.36063" lon="-2.33273">
        <ele>71.400001525879</ele>
        <time>2020-10-25T09:54:52.000Z</time>
      </trkpt>
      <trkpt lat="47.36065" lon="-2.33249">
        <ele>71.400001525879</ele>
        <time>2020-10-25T09:54:55.000Z</time>
      </trkpt>
      <trkpt lat="47.36067" lon="-2.33226">
        <ele>71.400001525879</ele>
        <time>2020-10-25T09:54:58.000Z</time>
      </trkpt>
      <trkpt lat="47.36073" lon="-2.33168">
        <ele>71.400001525879</ele>
        <time>2020-10-25T09:55:06.000Z</time>
      </trkpt>
      <trkpt lat="47.36075" lon="-2.33147">
        <ele>71.800003051758</ele>
        <time>2020-10-25T09:55:09.000Z</time>
      </trkpt>
      <trkpt lat="47.36076" lon="-2.3314">
        <ele>72.199996948242</ele>
        <time>2020-10-25T09:55:10.000Z</time>
      </trkpt>
      <trkpt lat="47.36077" lon="-2.33133">
        <ele>72.800003051758</ele>
        <time>2020-10-25T09:55:11.000Z</time>
      </trkpt>
      <trkpt lat="47.36078" lon="-2.33126">
        <ele>73.199996948242</ele>
        <time>2020-10-25T09:55:12.000Z</time>
      </trkpt>
      <trkpt lat="47.36079" lon="-2.33119">
        <ele>73.599998474121</ele>
        <time>2020-10-25T09:55:13.000Z</time>
      </trkpt>
      <trkpt lat="47.36084" lon="-2.33069">
        <ele>73.599998474121</ele>
        <time>2020-10-25T09:55:20.000Z</time>
      </trkpt>
      <trkpt lat="47.36087" lon="-2.33038">
        <ele>73.599998474121</ele>
        <time>2020-10-25T09:55:24.000Z</time>
      </trkpt>
      <trkpt lat="47.36088" lon="-2.33023">
        <ele>73.599998474121</ele>
        <time>2020-10-25T09:55:26.000Z</time>
      </trkpt>
      <trkpt lat="47.36092" lon="-2.32975">
        <ele>73.599998474121</ele>
        <time>2020-10-25T09:55:32.000Z</time>
      </trkpt>
      <trkpt lat="47.36093" lon="-2.32967">
        <ele>73.599998474121</ele>
        <time>2020-10-25T09:55:33.000Z</time>
      </trkpt>
      <trkpt lat="47.36097" lon="-2.32934">
        <ele>73.599998474121</ele>
        <time>2020-10-25T09:55:37.000Z</time>
      </trkpt>
      <trkpt lat="47.361" lon="-2.32904">
        <ele>73.599998474121</ele>
        <time>2020-10-25T09:55:41.000Z</time>
      </trkpt>
      <trkpt lat="47.36101" lon="-2.32889">
        <ele>73.599998474121</ele>
        <time>2020-10-25T09:55:43.000Z</time>
      </trkpt>
      <trkpt lat="47.36103" lon="-2.32883">
        <ele>73.599998474121</ele>
        <time>2020-10-25T09:55:44.000Z</time>
      </trkpt>
      <trkpt lat="47.36108" lon="-2.32875">
        <ele>73.599998474121</ele>
        <time>2020-10-25T09:55:46.000Z</time>
      </trkpt>
      <trkpt lat="47.36119" lon="-2.32878">
        <ele>73.599998474121</ele>
        <time>2020-10-25T09:55:49.000Z</time>
      </trkpt>
      <trkpt lat="47.36131" lon="-2.32882">
        <ele>73.599998474121</ele>
        <time>2020-10-25T09:55:52.000Z</time>
      </trkpt>
      <trkpt lat="47.3614" lon="-2.32884">
        <ele>73.599998474121</ele>
        <time>2020-10-25T09:55:54.000Z</time>
      </trkpt>
      <trkpt lat="47.36152" lon="-2.32889">
        <ele>73.599998474121</ele>
        <time>2020-10-25T09:55:57.000Z</time>
      </trkpt>
      <trkpt lat="47.36157" lon="-2.32892">
        <ele>73.599998474121</ele>
        <time>2020-10-25T09:55:58.000Z</time>
      </trkpt>
      <trkpt lat="47.36193" lon="-2.32904">
        <ele>73.599998474121</ele>
        <time>2020-10-25T09:56:05.000Z</time>
      </trkpt>
      <trkpt lat="47.36228" lon="-2.32911">
        <ele>73.599998474121</ele>
        <time>2020-10-25T09:56:11.000Z</time>
      </trkpt>
      <trkpt lat="47.36233" lon="-2.32913">
        <ele>73.599998474121</ele>
        <time>2020-10-25T09:56:12.000Z</time>
      </trkpt>
      <trkpt lat="47.36277" lon="-2.32926">
        <ele>73.599998474121</ele>
        <time>2020-10-25T09:56:20.000Z</time>
      </trkpt>
      <trkpt lat="47.36303" lon="-2.32935">
        <ele>74</ele>
        <time>2020-10-25T09:56:25.000Z</time>
      </trkpt>
      <trkpt lat="47.36308" lon="-2.32936">
        <ele>74.400001525879</ele>
        <time>2020-10-25T09:56:26.000Z</time>
      </trkpt>
      <trkpt lat="47.36313" lon="-2.32937">
        <ele>74.800003051758</ele>
        <time>2020-10-25T09:56:27.000Z</time>
      </trkpt>
      <trkpt lat="47.36318" lon="-2.32939">
        <ele>75.199996948242</ele>
        <time>2020-10-25T09:56:28.000Z</time>
      </trkpt>
      <trkpt lat="47.36323" lon="-2.32941">
        <ele>75.599998474121</ele>
        <time>2020-10-25T09:56:29.000Z</time>
      </trkpt>
      <trkpt lat="47.36347" lon="-2.32949">
        <ele>75.599998474121</ele>
        <time>2020-10-25T09:56:34.000Z</time>
      </trkpt>
      <trkpt lat="47.36368" lon="-2.32954">
        <ele>75.599998474121</ele>
        <time>2020-10-25T09:56:39.000Z</time>
      </trkpt>
      <trkpt lat="47.36374" lon="-2.32952">
        <ele>75.599998474121</ele>
        <time>2020-10-25T09:56:41.000Z</time>
      </trkpt>
      <trkpt lat="47.36375" lon="-2.32942">
        <ele>75.599998474121</ele>
        <time>2020-10-25T09:56:43.000Z</time>
      </trkpt>
      <trkpt lat="47.36376" lon="-2.32924">
        <ele>75.599998474121</ele>
        <time>2020-10-25T09:56:46.000Z</time>
      </trkpt>
      <trkpt lat="47.36377" lon="-2.32917">
        <ele>75.599998474121</ele>
        <time>2020-10-25T09:56:47.000Z</time>
      </trkpt>
      <trkpt lat="47.36382" lon="-2.32881">
        <ele>75.599998474121</ele>
        <time>2020-10-25T09:56:52.000Z</time>
      </trkpt>
      <trkpt lat="47.36382" lon="-2.32873">
        <ele>75.599998474121</ele>
        <time>2020-10-25T09:56:53.000Z</time>
      </trkpt>
      <trkpt lat="47.36388" lon="-2.32807">
        <ele>75.599998474121</ele>
        <time>2020-10-25T09:57:01.000Z</time>
      </trkpt>
      <trkpt lat="47.36395" lon="-2.32754">
        <ele>75.599998474121</ele>
        <time>2020-10-25T09:57:07.000Z</time>
      </trkpt>
      <trkpt lat="47.36407" lon="-2.327">
        <ele>75.599998474121</ele>
        <time>2020-10-25T09:57:13.000Z</time>
      </trkpt>
      <trkpt lat="47.36417" lon="-2.32651">
        <ele>75.599998474121</ele>
        <time>2020-10-25T09:57:19.000Z</time>
      </trkpt>
      <trkpt lat="47.36427" lon="-2.32591">
        <ele>75.599998474121</ele>
        <time>2020-10-25T09:57:26.000Z</time>
      </trkpt>
      <trkpt lat="47.3643" lon="-2.32573">
        <ele>75.199996948242</ele>
        <time>2020-10-25T09:57:28.000Z</time>
      </trkpt>
      <trkpt lat="47.36432" lon="-2.32564">
        <ele>74.800003051758</ele>
        <time>2020-10-25T09:57:29.000Z</time>
      </trkpt>
      <trkpt lat="47.36433" lon="-2.32554">
        <ele>74.400001525879</ele>
        <time>2020-10-25T09:57:30.000Z</time>
      </trkpt>
      <trkpt lat="47.36435" lon="-2.32545">
        <ele>74</ele>
        <time>2020-10-25T09:57:31.000Z</time>
      </trkpt>
      <trkpt lat="47.36437" lon="-2.32536">
        <ele>73.599998474121</ele>
        <time>2020-10-25T09:57:32.000Z</time>
      </trkpt>
      <trkpt lat="47.36439" lon="-2.3252">
        <ele>73.599998474121</ele>
        <time>2020-10-25T09:57:34.000Z</time>
      </trkpt>
      <trkpt lat="47.36454" lon="-2.32469">
        <ele>73.599998474121</ele>
        <time>2020-10-25T09:57:40.000Z</time>
      </trkpt>
      <trkpt lat="47.36469" lon="-2.32434">
        <ele>73.599998474121</ele>
        <time>2020-10-25T09:57:44.000Z</time>
      </trkpt>
      <trkpt lat="47.36477" lon="-2.32417">
        <ele>73.599998474121</ele>
        <time>2020-10-25T09:57:46.000Z</time>
      </trkpt>
      <trkpt lat="47.36492" lon="-2.32383">
        <ele>73.199996948242</ele>
        <time>2020-10-25T09:57:50.000Z</time>
      </trkpt>
      <trkpt lat="47.36496" lon="-2.32375">
        <ele>72.800003051758</ele>
        <time>2020-10-25T09:57:51.000Z</time>
      </trkpt>
      <trkpt lat="47.365" lon="-2.32367">
        <ele>72.400001525879</ele>
        <time>2020-10-25T09:57:52.000Z</time>
      </trkpt>
      <trkpt lat="47.36503" lon="-2.32359">
        <ele>72</ele>
        <time>2020-10-25T09:57:53.000Z</time>
      </trkpt>
      <trkpt lat="47.36506" lon="-2.32352">
        <ele>71.400001525879</ele>
        <time>2020-10-25T09:57:54.000Z</time>
      </trkpt>
      <trkpt lat="47.36525" lon="-2.32311">
        <ele>71.400001525879</ele>
        <time>2020-10-25T09:57:59.000Z</time>
      </trkpt>
      <trkpt lat="47.36551" lon="-2.32255">
        <ele>71.400001525879</ele>
        <time>2020-10-25T09:58:06.000Z</time>
      </trkpt>
      <trkpt lat="47.36554" lon="-2.32248">
        <ele>71</ele>
        <time>2020-10-25T09:58:07.000Z</time>
      </trkpt>
      <trkpt lat="47.36557" lon="-2.3224">
        <ele>70.599998474121</ele>
        <time>2020-10-25T09:58:08.000Z</time>
      </trkpt>
      <trkpt lat="47.36556" lon="-2.32235">
        <ele>70.199996948242</ele>
        <time>2020-10-25T09:58:09.000Z</time>
      </trkpt>
      <trkpt lat="47.36553" lon="-2.3223">
        <ele>69.800003051758</ele>
        <time>2020-10-25T09:58:10.000Z</time>
      </trkpt>
      <trkpt lat="47.36549" lon="-2.32226">
        <ele>69.400001525879</ele>
        <time>2020-10-25T09:58:11.000Z</time>
      </trkpt>
      <trkpt lat="47.36546" lon="-2.32222">
        <ele>69.400001525879</ele>
        <time>2020-10-25T09:58:12.000Z</time>
      </trkpt>
      <trkpt lat="47.3653" lon="-2.32204">
        <ele>69.400001525879</ele>
        <time>2020-10-25T09:58:16.000Z</time>
      </trkpt>
      <trkpt lat="47.36507" lon="-2.32181">
        <ele>69.400001525879</ele>
        <time>2020-10-25T09:58:22.000Z</time>
      </trkpt>
      <trkpt lat="47.36501" lon="-2.32173">
        <ele>69.400001525879</ele>
        <time>2020-10-25T09:58:26.000Z</time>
      </trkpt>
      <trkpt lat="47.36488" lon="-2.32158">
        <ele>69.400001525879</ele>
        <time>2020-10-25T09:58:32.000Z</time>
      </trkpt>
      <trkpt lat="47.36469" lon="-2.32135">
        <ele>69.400001525879</ele>
        <time>2020-10-25T09:58:38.000Z</time>
      </trkpt>
      <trkpt lat="47.36452" lon="-2.32115">
        <ele>69.400001525879</ele>
        <time>2020-10-25T09:58:43.000Z</time>
      </trkpt>
      <trkpt lat="47.36429" lon="-2.32087">
        <ele>69.400001525879</ele>
        <time>2020-10-25T09:58:49.000Z</time>
      </trkpt>
      <trkpt lat="47.36405" lon="-2.32057">
        <ele>69.400001525879</ele>
        <time>2020-10-25T09:58:55.000Z</time>
      </trkpt>
      <trkpt lat="47.36397" lon="-2.32047">
        <ele>69.400001525879</ele>
        <time>2020-10-25T09:58:57.000Z</time>
      </trkpt>
      <trkpt lat="47.36382" lon="-2.32027">
        <ele>69.400001525879</ele>
        <time>2020-10-25T09:59:01.000Z</time>
      </trkpt>
      <trkpt lat="47.36356" lon="-2.31996">
        <ele>69.400001525879</ele>
        <time>2020-10-25T09:59:07.000Z</time>
      </trkpt>
      <trkpt lat="47.36327" lon="-2.31968">
        <ele>69.400001525879</ele>
        <time>2020-10-25T09:59:13.000Z</time>
      </trkpt>
      <trkpt lat="47.36297" lon="-2.31943">
        <ele>69.400001525879</ele>
        <time>2020-10-25T09:59:19.000Z</time>
      </trkpt>
      <trkpt lat="47.36265" lon="-2.31913">
        <ele>69.400001525879</ele>
        <time>2020-10-25T09:59:25.000Z</time>
      </trkpt>
      <trkpt lat="47.36236" lon="-2.31885">
        <ele>69.400001525879</ele>
        <time>2020-10-25T09:59:31.000Z</time>
      </trkpt>
      <trkpt lat="47.36233" lon="-2.31878">
        <ele>69.400001525879</ele>
        <time>2020-10-25T09:59:32.000Z</time>
      </trkpt>
      <trkpt lat="47.36225" lon="-2.31849">
        <ele>69</ele>
        <time>2020-10-25T09:59:36.000Z</time>
      </trkpt>
      <trkpt lat="47.36224" lon="-2.3184">
        <ele>68.599998474121</ele>
        <time>2020-10-25T09:59:37.000Z</time>
      </trkpt>
      <trkpt lat="47.36223" lon="-2.31831">
        <ele>68.199996948242</ele>
        <time>2020-10-25T09:59:38.000Z</time>
      </trkpt>
      <trkpt lat="47.36221" lon="-2.31821">
        <ele>67.800003051758</ele>
        <time>2020-10-25T09:59:39.000Z</time>
      </trkpt>
      <trkpt lat="47.3622" lon="-2.31813">
        <ele>67.400001525879</ele>
        <time>2020-10-25T09:59:40.000Z</time>
      </trkpt>
      <trkpt lat="47.36215" lon="-2.31775">
        <ele>67.400001525879</ele>
        <time>2020-10-25T09:59:44.000Z</time>
      </trkpt>
      <trkpt lat="47.36203" lon="-2.31693">
        <ele>67.400001525879</ele>
        <time>2020-10-25T09:59:53.000Z</time>
      </trkpt>
      <trkpt lat="47.36202" lon="-2.31684">
        <ele>67.400001525879</ele>
        <time>2020-10-25T09:59:54.000Z</time>
      </trkpt>
      <trkpt lat="47.36194" lon="-2.31616">
        <ele>67.400001525879</ele>
        <time>2020-10-25T10:00:02.000Z</time>
      </trkpt>
      <trkpt lat="47.36187" lon="-2.31553">
        <ele>67.400001525879</ele>
        <time>2020-10-25T10:00:10.000Z</time>
      </trkpt>
      <trkpt lat="47.36181" lon="-2.31513">
        <ele>67.400001525879</ele>
        <time>2020-10-25T10:00:16.000Z</time>
      </trkpt>
      <trkpt lat="47.36172" lon="-2.31473">
        <ele>67.400001525879</ele>
        <time>2020-10-25T10:00:23.000Z</time>
      </trkpt>
      <trkpt lat="47.36159" lon="-2.31443">
        <ele>67.400001525879</ele>
        <time>2020-10-25T10:00:30.000Z</time>
      </trkpt>
      <trkpt lat="47.36147" lon="-2.31414">
        <ele>67.400001525879</ele>
        <time>2020-10-25T10:00:37.000Z</time>
      </trkpt>
      <trkpt lat="47.36133" lon="-2.31389">
        <ele>67.400001525879</ele>
        <time>2020-10-25T10:00:45.000Z</time>
      </trkpt>
      <trkpt lat="47.36121" lon="-2.31369">
        <ele>67.400001525879</ele>
        <time>2020-10-25T10:00:53.000Z</time>
      </trkpt>
      <trkpt lat="47.36109" lon="-2.31354">
        <ele>67.400001525879</ele>
        <time>2020-10-25T10:01:01.000Z</time>
      </trkpt>
      <trkpt lat="47.36095" lon="-2.3134">
        <ele>67.400001525879</ele>
        <time>2020-10-25T10:01:08.000Z</time>
      </trkpt>
      <trkpt lat="47.36092" lon="-2.31335">
        <ele>67.400001525879</ele>
        <time>2020-10-25T10:01:10.000Z</time>
      </trkpt>
      <trkpt lat="47.36092" lon="-2.31329">
        <ele>67.400001525879</ele>
        <time>2020-10-25T10:01:12.000Z</time>
      </trkpt>
      <trkpt lat="47.36092" lon="-2.31316">
        <ele>67.400001525879</ele>
        <time>2020-10-25T10:01:15.000Z</time>
      </trkpt>
      <trkpt lat="47.36092" lon="-2.31303">
        <ele>67.400001525879</ele>
        <time>2020-10-25T10:01:18.000Z</time>
      </trkpt>
      <trkpt lat="47.36088" lon="-2.31277">
        <ele>67.400001525879</ele>
        <time>2020-10-25T10:01:24.000Z</time>
      </trkpt>
      <trkpt lat="47.36091" lon="-2.31259">
        <ele>67.400001525879</ele>
        <time>2020-10-25T10:01:30.000Z</time>
      </trkpt>
      <trkpt lat="47.3609" lon="-2.31243">
        <ele>67.400001525879</ele>
        <time>2020-10-25T10:01:35.000Z</time>
      </trkpt>
      <trkpt lat="47.36086" lon="-2.31228">
        <ele>67.400001525879</ele>
        <time>2020-10-25T10:01:41.000Z</time>
      </trkpt>
      <trkpt lat="47.36086" lon="-2.31223">
        <ele>66.800003051758</ele>
        <time>2020-10-25T10:01:43.000Z</time>
      </trkpt>
      <trkpt lat="47.36085" lon="-2.31221">
        <ele>66.400001525879</ele>
        <time>2020-10-25T10:01:44.000Z</time>
      </trkpt>
      <trkpt lat="47.36085" lon="-2.3122">
        <ele>66</ele>
        <time>2020-10-25T10:01:45.000Z</time>
      </trkpt>
      <trkpt lat="47.36085" lon="-2.3122">
        <ele>65.599998474121</ele>
        <time>2020-10-25T10:01:46.000Z</time>
      </trkpt>
      <trkpt lat="47.36087" lon="-2.31232">
        <ele>67.199996948242</ele>
        <time>2020-10-25T10:14:19.000Z</time>
      </trkpt>
      <trkpt lat="47.36088" lon="-2.31239">
        <ele>67.599998474121</ele>
        <time>2020-10-25T10:14:22.000Z</time>
      </trkpt>
      <trkpt lat="47.36089" lon="-2.31242">
        <ele>68</ele>
        <time>2020-10-25T10:14:23.000Z</time>
      </trkpt>
      <trkpt lat="47.36089" lon="-2.31245">
        <ele>68.400001525879</ele>
        <time>2020-10-25T10:14:24.000Z</time>
      </trkpt>
      <trkpt lat="47.3609" lon="-2.31247">
        <ele>68.800003051758</ele>
        <time>2020-10-25T10:14:25.000Z</time>
      </trkpt>
      <trkpt lat="47.36091" lon="-2.3125">
        <ele>69.199996948242</ele>
        <time>2020-10-25T10:14:26.000Z</time>
      </trkpt>
      <trkpt lat="47.36091" lon="-2.31256">
        <ele>69.199996948242</ele>
        <time>2020-10-25T10:14:28.000Z</time>
      </trkpt>
      <trkpt lat="47.36092" lon="-2.3128">
        <ele>69.199996948242</ele>
        <time>2020-10-25T10:14:34.000Z</time>
      </trkpt>
      <trkpt lat="47.36091" lon="-2.31305">
        <ele>69.199996948242</ele>
        <time>2020-10-25T10:14:40.000Z</time>
      </trkpt>
      <trkpt lat="47.36091" lon="-2.31326">
        <ele>69.199996948242</ele>
        <time>2020-10-25T10:14:45.000Z</time>
      </trkpt>
      <trkpt lat="47.36084" lon="-2.31341">
        <ele>69.199996948242</ele>
        <time>2020-10-25T10:14:49.000Z</time>
      </trkpt>
      <trkpt lat="47.36082" lon="-2.31344">
        <ele>69.199996948242</ele>
        <time>2020-10-25T10:14:50.000Z</time>
      </trkpt>
      <trkpt lat="47.36067" lon="-2.31354">
        <ele>69.199996948242</ele>
        <time>2020-10-25T10:14:54.000Z</time>
      </trkpt>
      <trkpt lat="47.36061" lon="-2.31362">
        <ele>69.199996948242</ele>
        <time>2020-10-25T10:14:56.000Z</time>
      </trkpt>
      <trkpt lat="47.3606" lon="-2.31381">
        <ele>69.199996948242</ele>
        <time>2020-10-25T10:14:59.000Z</time>
      </trkpt>
      <trkpt lat="47.36061" lon="-2.31388">
        <ele>69.800003051758</ele>
        <time>2020-10-25T10:15:00.000Z</time>
      </trkpt>
      <trkpt lat="47.36062" lon="-2.31395">
        <ele>70.199996948242</ele>
        <time>2020-10-25T10:15:01.000Z</time>
      </trkpt>
      <trkpt lat="47.36063" lon="-2.31402">
        <ele>70.599998474121</ele>
        <time>2020-10-25T10:15:02.000Z</time>
      </trkpt>
      <trkpt lat="47.36064" lon="-2.31409">
        <ele>71</ele>
        <time>2020-10-25T10:15:03.000Z</time>
      </trkpt>
      <trkpt lat="47.36065" lon="-2.31416">
        <ele>71.400001525879</ele>
        <time>2020-10-25T10:15:04.000Z</time>
      </trkpt>
      <trkpt lat="47.36068" lon="-2.31443">
        <ele>71.400001525879</ele>
        <time>2020-10-25T10:15:08.000Z</time>
      </trkpt>
      <trkpt lat="47.3607" lon="-2.31463">
        <ele>71.400001525879</ele>
        <time>2020-10-25T10:15:11.000Z</time>
      </trkpt>
      <trkpt lat="47.3607" lon="-2.31475">
        <ele>71.400001525879</ele>
        <time>2020-10-25T10:15:13.000Z</time>
      </trkpt>
      <trkpt lat="47.36069" lon="-2.31488">
        <ele>71.400001525879</ele>
        <time>2020-10-25T10:15:15.000Z</time>
      </trkpt>
      <trkpt lat="47.36064" lon="-2.31504">
        <ele>71.400001525879</ele>
        <time>2020-10-25T10:15:18.000Z</time>
      </trkpt>
      <trkpt lat="47.36059" lon="-2.31515">
        <ele>71.800003051758</ele>
        <time>2020-10-25T10:15:20.000Z</time>
      </trkpt>
      <trkpt lat="47.36056" lon="-2.31521">
        <ele>72.400001525879</ele>
        <time>2020-10-25T10:15:21.000Z</time>
      </trkpt>
      <trkpt lat="47.36053" lon="-2.31526">
        <ele>72.800003051758</ele>
        <time>2020-10-25T10:15:22.000Z</time>
      </trkpt>
      <trkpt lat="47.3605" lon="-2.3153">
        <ele>73.199996948242</ele>
        <time>2020-10-25T10:15:23.000Z</time>
      </trkpt>
      <trkpt lat="47.36047" lon="-2.31535">
        <ele>73.599998474121</ele>
        <time>2020-10-25T10:15:24.000Z</time>
      </trkpt>
      <trkpt lat="47.36041" lon="-2.31547">
        <ele>73.599998474121</ele>
        <time>2020-10-25T10:15:26.000Z</time>
      </trkpt>
      <trkpt lat="47.36011" lon="-2.31598">
        <ele>73.599998474121</ele>
        <time>2020-10-25T10:15:35.000Z</time>
      </trkpt>
      <trkpt lat="47.35991" lon="-2.31634">
        <ele>73.599998474121</ele>
        <time>2020-10-25T10:15:41.000Z</time>
      </trkpt>
      <trkpt lat="47.35966" lon="-2.31675">
        <ele>73.599998474121</ele>
        <time>2020-10-25T10:15:47.000Z</time>
      </trkpt>
      <trkpt lat="47.35935" lon="-2.3173">
        <ele>73.599998474121</ele>
        <time>2020-10-25T10:15:55.000Z</time>
      </trkpt>
      <trkpt lat="47.35927" lon="-2.31742">
        <ele>73.199996948242</ele>
        <time>2020-10-25T10:15:57.000Z</time>
      </trkpt>
      <trkpt lat="47.35924" lon="-2.31749">
        <ele>72.800003051758</ele>
        <time>2020-10-25T10:15:58.000Z</time>
      </trkpt>
      <trkpt lat="47.35919" lon="-2.31756">
        <ele>72.400001525879</ele>
        <time>2020-10-25T10:15:59.000Z</time>
      </trkpt>
      <trkpt lat="47.35915" lon="-2.31763">
        <ele>72</ele>
        <time>2020-10-25T10:16:00.000Z</time>
      </trkpt>
      <trkpt lat="47.35911" lon="-2.31771">
        <ele>71.599998474121</ele>
        <time>2020-10-25T10:16:01.000Z</time>
      </trkpt>
      <trkpt lat="47.35907" lon="-2.31778">
        <ele>71.599998474121</ele>
        <time>2020-10-25T10:16:02.000Z</time>
      </trkpt>
      <trkpt lat="47.35878" lon="-2.31829">
        <ele>71.599998474121</ele>
        <time>2020-10-25T10:16:09.000Z</time>
      </trkpt>
      <trkpt lat="47.35845" lon="-2.31886">
        <ele>71.599998474121</ele>
        <time>2020-10-25T10:16:17.000Z</time>
      </trkpt>
      <trkpt lat="47.35811" lon="-2.31948">
        <ele>71.599998474121</ele>
        <time>2020-10-25T10:16:26.000Z</time>
      </trkpt>
      <trkpt lat="47.35803" lon="-2.31962">
        <ele>71.599998474121</ele>
        <time>2020-10-25T10:16:28.000Z</time>
      </trkpt>
      <trkpt lat="47.35775" lon="-2.3201">
        <ele>71.599998474121</ele>
        <time>2020-10-25T10:16:35.000Z</time>
      </trkpt>
      <trkpt lat="47.3575" lon="-2.32055">
        <ele>71.599998474121</ele>
        <time>2020-10-25T10:16:42.000Z</time>
      </trkpt>
      <trkpt lat="47.35722" lon="-2.32099">
        <ele>71.599998474121</ele>
        <time>2020-10-25T10:16:49.000Z</time>
      </trkpt>
      <trkpt lat="47.35712" lon="-2.32118">
        <ele>71.599998474121</ele>
        <time>2020-10-25T10:16:52.000Z</time>
      </trkpt>
      <trkpt lat="47.35698" lon="-2.32143">
        <ele>71.599998474121</ele>
        <time>2020-10-25T10:16:56.000Z</time>
      </trkpt>
      <trkpt lat="47.35672" lon="-2.32188">
        <ele>71.599998474121</ele>
        <time>2020-10-25T10:17:03.000Z</time>
      </trkpt>
      <trkpt lat="47.35642" lon="-2.32243">
        <ele>71.599998474121</ele>
        <time>2020-10-25T10:17:11.000Z</time>
      </trkpt>
      <trkpt lat="47.35607" lon="-2.32307">
        <ele>71.599998474121</ele>
        <time>2020-10-25T10:17:20.000Z</time>
      </trkpt>
      <trkpt lat="47.35604" lon="-2.32314">
        <ele>71.599998474121</ele>
        <time>2020-10-25T10:17:21.000Z</time>
      </trkpt>
      <trkpt lat="47.35579" lon="-2.32359">
        <ele>71.599998474121</ele>
        <time>2020-10-25T10:17:28.000Z</time>
      </trkpt>
      <trkpt lat="47.35561" lon="-2.32396">
        <ele>71.599998474121</ele>
        <time>2020-10-25T10:17:34.000Z</time>
      </trkpt>
      <trkpt lat="47.35538" lon="-2.32443">
        <ele>71.599998474121</ele>
        <time>2020-10-25T10:17:41.000Z</time>
      </trkpt>
      <trkpt lat="47.35511" lon="-2.32498">
        <ele>71.599998474121</ele>
        <time>2020-10-25T10:17:49.000Z</time>
      </trkpt>
      <trkpt lat="47.35505" lon="-2.32512">
        <ele>71.599998474121</ele>
        <time>2020-10-25T10:17:51.000Z</time>
      </trkpt>
      <trkpt lat="47.35497" lon="-2.32531">
        <ele>71.599998474121</ele>
        <time>2020-10-25T10:17:54.000Z</time>
      </trkpt>
      <trkpt lat="47.35492" lon="-2.32542">
        <ele>72</ele>
        <time>2020-10-25T10:17:56.000Z</time>
      </trkpt>
      <trkpt lat="47.3549" lon="-2.32547">
        <ele>72.400001525879</ele>
        <time>2020-10-25T10:17:57.000Z</time>
      </trkpt>
      <trkpt lat="47.35488" lon="-2.32554">
        <ele>72.800003051758</ele>
        <time>2020-10-25T10:17:58.000Z</time>
      </trkpt>
      <trkpt lat="47.35485" lon="-2.32561">
        <ele>73.199996948242</ele>
        <time>2020-10-25T10:17:59.000Z</time>
      </trkpt>
      <trkpt lat="47.35483" lon="-2.32568">
        <ele>73.599998474121</ele>
        <time>2020-10-25T10:18:00.000Z</time>
      </trkpt>
      <trkpt lat="47.35481" lon="-2.32576">
        <ele>73.599998474121</ele>
        <time>2020-10-25T10:18:01.000Z</time>
      </trkpt>
      <trkpt lat="47.35469" lon="-2.32629">
        <ele>73.599998474121</ele>
        <time>2020-10-25T10:18:08.000Z</time>
      </trkpt>
      <trkpt lat="47.35463" lon="-2.32673">
        <ele>74</ele>
        <time>2020-10-25T10:18:14.000Z</time>
      </trkpt>
      <trkpt lat="47.35461" lon="-2.32681">
        <ele>74.400001525879</ele>
        <time>2020-10-25T10:18:15.000Z</time>
      </trkpt>
      <trkpt lat="47.35459" lon="-2.32689">
        <ele>74.800003051758</ele>
        <time>2020-10-25T10:18:16.000Z</time>
      </trkpt>
      <trkpt lat="47.35457" lon="-2.32697">
        <ele>75.199996948242</ele>
        <time>2020-10-25T10:18:17.000Z</time>
      </trkpt>
      <trkpt lat="47.35454" lon="-2.32705">
        <ele>75.599998474121</ele>
        <time>2020-10-25T10:18:18.000Z</time>
      </trkpt>
      <trkpt lat="47.35447" lon="-2.3272">
        <ele>75.599998474121</ele>
        <time>2020-10-25T10:18:20.000Z</time>
      </trkpt>
      <trkpt lat="47.35443" lon="-2.32727">
        <ele>75.599998474121</ele>
        <time>2020-10-25T10:18:21.000Z</time>
      </trkpt>
      <trkpt lat="47.35428" lon="-2.32752">
        <ele>75.599998474121</ele>
        <time>2020-10-25T10:18:25.000Z</time>
      </trkpt>
      <trkpt lat="47.35402" lon="-2.32789">
        <ele>75.599998474121</ele>
        <time>2020-10-25T10:18:31.000Z</time>
      </trkpt>
      <trkpt lat="47.35381" lon="-2.32812">
        <ele>76</ele>
        <time>2020-10-25T10:18:35.000Z</time>
      </trkpt>
      <trkpt lat="47.35376" lon="-2.32816">
        <ele>76.400001525879</ele>
        <time>2020-10-25T10:18:36.000Z</time>
      </trkpt>
      <trkpt lat="47.35371" lon="-2.3282">
        <ele>76.800003051758</ele>
        <time>2020-10-25T10:18:37.000Z</time>
      </trkpt>
      <trkpt lat="47.35366" lon="-2.32824">
        <ele>77.199996948242</ele>
        <time>2020-10-25T10:18:38.000Z</time>
      </trkpt>
      <trkpt lat="47.35362" lon="-2.32829">
        <ele>77.599998474121</ele>
        <time>2020-10-25T10:18:39.000Z</time>
      </trkpt>
      <trkpt lat="47.35345" lon="-2.32849">
        <ele>77.599998474121</ele>
        <time>2020-10-25T10:18:43.000Z</time>
      </trkpt>
      <trkpt lat="47.35335" lon="-2.32866">
        <ele>77.599998474121</ele>
        <time>2020-10-25T10:18:46.000Z</time>
      </trkpt>
      <trkpt lat="47.35322" lon="-2.32902">
        <ele>77.599998474121</ele>
        <time>2020-10-25T10:18:51.000Z</time>
      </trkpt>
      <trkpt lat="47.35321" lon="-2.32911">
        <ele>77.599998474121</ele>
        <time>2020-10-25T10:18:52.000Z</time>
      </trkpt>
      <trkpt lat="47.35319" lon="-2.3296">
        <ele>77.599998474121</ele>
        <time>2020-10-25T10:18:57.000Z</time>
      </trkpt>
      <trkpt lat="47.35318" lon="-2.3297">
        <ele>77.599998474121</ele>
        <time>2020-10-25T10:18:58.000Z</time>
      </trkpt>
      <trkpt lat="47.35317" lon="-2.33011">
        <ele>77.599998474121</ele>
        <time>2020-10-25T10:19:02.000Z</time>
      </trkpt>
      <trkpt lat="47.35313" lon="-2.33041">
        <ele>77.199996948242</ele>
        <time>2020-10-25T10:19:05.000Z</time>
      </trkpt>
      <trkpt lat="47.3531" lon="-2.3305">
        <ele>76.800003051758</ele>
        <time>2020-10-25T10:19:06.000Z</time>
      </trkpt>
      <trkpt lat="47.35307" lon="-2.33058">
        <ele>76.400001525879</ele>
        <time>2020-10-25T10:19:07.000Z</time>
      </trkpt>
      <trkpt lat="47.35303" lon="-2.33066">
        <ele>76</ele>
        <time>2020-10-25T10:19:08.000Z</time>
      </trkpt>
      <trkpt lat="47.35298" lon="-2.33073">
        <ele>75.599998474121</ele>
        <time>2020-10-25T10:19:09.000Z</time>
      </trkpt>
      <trkpt lat="47.35284" lon="-2.33094">
        <ele>75.599998474121</ele>
        <time>2020-10-25T10:19:12.000Z</time>
      </trkpt>
      <trkpt lat="47.35248" lon="-2.3313">
        <ele>75.599998474121</ele>
        <time>2020-10-25T10:19:18.000Z</time>
      </trkpt>
      <trkpt lat="47.35221" lon="-2.33162">
        <ele>75.599998474121</ele>
        <time>2020-10-25T10:19:23.000Z</time>
      </trkpt>
      <trkpt lat="47.35193" lon="-2.33196">
        <ele>75.599998474121</ele>
        <time>2020-10-25T10:19:29.000Z</time>
      </trkpt>
      <trkpt lat="47.35161" lon="-2.33239">
        <ele>75.599998474121</ele>
        <time>2020-10-25T10:19:37.000Z</time>
      </trkpt>
      <trkpt lat="47.35138" lon="-2.33276">
        <ele>75.599998474121</ele>
        <time>2020-10-25T10:19:43.000Z</time>
      </trkpt>
      <trkpt lat="47.35115" lon="-2.33317">
        <ele>75.599998474121</ele>
        <time>2020-10-25T10:19:49.000Z</time>
      </trkpt>
      <trkpt lat="47.35093" lon="-2.3336">
        <ele>75.599998474121</ele>
        <time>2020-10-25T10:19:55.000Z</time>
      </trkpt>
      <trkpt lat="47.35068" lon="-2.33405">
        <ele>75.599998474121</ele>
        <time>2020-10-25T10:20:01.000Z</time>
      </trkpt>
      <trkpt lat="47.35041" lon="-2.33455">
        <ele>75.599998474121</ele>
        <time>2020-10-25T10:20:08.000Z</time>
      </trkpt>
      <trkpt lat="47.3502" lon="-2.33491">
        <ele>75.599998474121</ele>
        <time>2020-10-25T10:20:13.000Z</time>
      </trkpt>
      <trkpt lat="47.34994" lon="-2.33544">
        <ele>75.599998474121</ele>
        <time>2020-10-25T10:20:20.000Z</time>
      </trkpt>
      <trkpt lat="47.34979" lon="-2.33593">
        <ele>75.599998474121</ele>
        <time>2020-10-25T10:20:26.000Z</time>
      </trkpt>
      <trkpt lat="47.34974" lon="-2.33618">
        <ele>75.199996948242</ele>
        <time>2020-10-25T10:20:29.000Z</time>
      </trkpt>
      <trkpt lat="47.34972" lon="-2.33627">
        <ele>74.800003051758</ele>
        <time>2020-10-25T10:20:30.000Z</time>
      </trkpt>
      <trkpt lat="47.34972" lon="-2.33636">
        <ele>74.400001525879</ele>
        <time>2020-10-25T10:20:31.000Z</time>
      </trkpt>
      <trkpt lat="47.34971" lon="-2.33644">
        <ele>74</ele>
        <time>2020-10-25T10:20:32.000Z</time>
      </trkpt>
      <trkpt lat="47.3497" lon="-2.33653">
        <ele>73.599998474121</ele>
        <time>2020-10-25T10:20:33.000Z</time>
      </trkpt>
      <trkpt lat="47.3496" lon="-2.3372">
        <ele>73.599998474121</ele>
        <time>2020-10-25T10:20:41.000Z</time>
      </trkpt>
      <trkpt lat="47.34956" lon="-2.33746">
        <ele>73.599998474121</ele>
        <time>2020-10-25T10:20:46.000Z</time>
      </trkpt>
      <trkpt lat="47.34956" lon="-2.33746">
        <ele>73.599998474121</ele>
        <time>2020-10-25T10:20:47.000Z</time>
      </trkpt>
      <trkpt lat="47.34955" lon="-2.33751">
        <ele>73.599998474121</ele>
        <time>2020-10-25T10:21:00.000Z</time>
      </trkpt>
      <trkpt lat="47.34953" lon="-2.33752">
        <ele>73.599998474121</ele>
        <time>2020-10-25T10:21:01.000Z</time>
      </trkpt>
      <trkpt lat="47.34952" lon="-2.33752">
        <ele>73.599998474121</ele>
        <time>2020-10-25T10:21:02.000Z</time>
      </trkpt>
      <trkpt lat="47.34938" lon="-2.33746">
        <ele>73.599998474121</ele>
        <time>2020-10-25T10:21:06.000Z</time>
      </trkpt>
      <trkpt lat="47.34905" lon="-2.33728">
        <ele>73.599998474121</ele>
        <time>2020-10-25T10:21:13.000Z</time>
      </trkpt>
      <trkpt lat="47.349" lon="-2.33725">
        <ele>73.599998474121</ele>
        <time>2020-10-25T10:21:14.000Z</time>
      </trkpt>
      <trkpt lat="47.34873" lon="-2.33711">
        <ele>73.599998474121</ele>
        <time>2020-10-25T10:21:19.000Z</time>
      </trkpt>
      <trkpt lat="47.34862" lon="-2.33705">
        <ele>74</ele>
        <time>2020-10-25T10:21:21.000Z</time>
      </trkpt>
      <trkpt lat="47.34857" lon="-2.33702">
        <ele>74.400001525879</ele>
        <time>2020-10-25T10:21:22.000Z</time>
      </trkpt>
      <trkpt lat="47.34852" lon="-2.33699">
        <ele>74.800003051758</ele>
        <time>2020-10-25T10:21:23.000Z</time>
      </trkpt>
      <trkpt lat="47.34846" lon="-2.33696">
        <ele>75.199996948242</ele>
        <time>2020-10-25T10:21:24.000Z</time>
      </trkpt>
      <trkpt lat="47.34841" lon="-2.33693">
        <ele>75.599998474121</ele>
        <time>2020-10-25T10:21:25.000Z</time>
      </trkpt>
      <trkpt lat="47.3483" lon="-2.33688">
        <ele>75.599998474121</ele>
        <time>2020-10-25T10:21:27.000Z</time>
      </trkpt>
      <trkpt lat="47.34791" lon="-2.33668">
        <ele>75.599998474121</ele>
        <time>2020-10-25T10:21:35.000Z</time>
      </trkpt>
      <trkpt lat="47.34778" lon="-2.33661">
        <ele>76</ele>
        <time>2020-10-25T10:21:38.000Z</time>
      </trkpt>
      <trkpt lat="47.34773" lon="-2.33659">
        <ele>76.400001525879</ele>
        <time>2020-10-25T10:21:39.000Z</time>
      </trkpt>
      <trkpt lat="47.34768" lon="-2.33656">
        <ele>76.800003051758</ele>
        <time>2020-10-25T10:21:40.000Z</time>
      </trkpt>
      <trkpt lat="47.34763" lon="-2.33654">
        <ele>77.199996948242</ele>
        <time>2020-10-25T10:21:41.000Z</time>
      </trkpt>
      <trkpt lat="47.34758" lon="-2.33652">
        <ele>77.800003051758</ele>
        <time>2020-10-25T10:21:42.000Z</time>
      </trkpt>
      <trkpt lat="47.34722" lon="-2.33641">
        <ele>78.199996948242</ele>
        <time>2020-10-25T10:21:49.000Z</time>
      </trkpt>
      <trkpt lat="47.34717" lon="-2.3364">
        <ele>78.599998474121</ele>
        <time>2020-10-25T10:21:50.000Z</time>
      </trkpt>
      <trkpt lat="47.34711" lon="-2.33638">
        <ele>79</ele>
        <time>2020-10-25T10:21:51.000Z</time>
      </trkpt>
      <trkpt lat="47.34706" lon="-2.33637">
        <ele>79.400001525879</ele>
        <time>2020-10-25T10:21:52.000Z</time>
      </trkpt>
      <trkpt lat="47.34701" lon="-2.33635">
        <ele>79.800003051758</ele>
        <time>2020-10-25T10:21:53.000Z</time>
      </trkpt>
      <trkpt lat="47.3469" lon="-2.33632">
        <ele>79.800003051758</ele>
        <time>2020-10-25T10:21:55.000Z</time>
      </trkpt>
      <trkpt lat="47.34645" lon="-2.3362">
        <ele>79.800003051758</ele>
        <time>2020-10-25T10:22:03.000Z</time>
      </trkpt>
      <trkpt lat="47.34611" lon="-2.33611">
        <ele>79.800003051758</ele>
        <time>2020-10-25T10:22:09.000Z</time>
      </trkpt>
      <trkpt lat="47.34563" lon="-2.33598">
        <ele>79.800003051758</ele>
        <time>2020-10-25T10:22:17.000Z</time>
      </trkpt>
      <trkpt lat="47.3451" lon="-2.33583">
        <ele>79.800003051758</ele>
        <time>2020-10-25T10:22:25.000Z</time>
      </trkpt>
      <trkpt lat="47.34497" lon="-2.3358">
        <ele>79.800003051758</ele>
        <time>2020-10-25T10:22:27.000Z</time>
      </trkpt>
      <trkpt lat="47.34458" lon="-2.33576">
        <ele>79.800003051758</ele>
        <time>2020-10-25T10:22:33.000Z</time>
      </trkpt>
      <trkpt lat="47.34408" lon="-2.33577">
        <ele>79.800003051758</ele>
        <time>2020-10-25T10:22:41.000Z</time>
      </trkpt>
      <trkpt lat="47.34369" lon="-2.33576">
        <ele>79.800003051758</ele>
        <time>2020-10-25T10:22:47.000Z</time>
      </trkpt>
      <trkpt lat="47.34337" lon="-2.33573">
        <ele>79.800003051758</ele>
        <time>2020-10-25T10:22:52.000Z</time>
      </trkpt>
      <trkpt lat="47.34301" lon="-2.33562">
        <ele>79.800003051758</ele>
        <time>2020-10-25T10:22:58.000Z</time>
      </trkpt>
      <trkpt lat="47.34262" lon="-2.33536">
        <ele>79.800003051758</ele>
        <time>2020-10-25T10:23:05.000Z</time>
      </trkpt>
      <trkpt lat="47.34222" lon="-2.33516">
        <ele>79.800003051758</ele>
        <time>2020-10-25T10:23:12.000Z</time>
      </trkpt>
      <trkpt lat="47.34184" lon="-2.33503">
        <ele>79.800003051758</ele>
        <time>2020-10-25T10:23:19.000Z</time>
      </trkpt>
      <trkpt lat="47.34143" lon="-2.33488">
        <ele>79.800003051758</ele>
        <time>2020-10-25T10:23:26.000Z</time>
      </trkpt>
      <trkpt lat="47.34116" lon="-2.33474">
        <ele>79.800003051758</ele>
        <time>2020-10-25T10:23:32.000Z</time>
      </trkpt>
      <trkpt lat="47.34117" lon="-2.33463">
        <ele>79.800003051758</ele>
        <time>2020-10-25T10:23:35.000Z</time>
      </trkpt>
      <trkpt lat="47.34119" lon="-2.33459">
        <ele>79.400001525879</ele>
        <time>2020-10-25T10:23:36.000Z</time>
      </trkpt>
      <trkpt lat="47.34123" lon="-2.33454">
        <ele>79</ele>
        <time>2020-10-25T10:23:37.000Z</time>
      </trkpt>
      <trkpt lat="47.34126" lon="-2.33449">
        <ele>78.599998474121</ele>
        <time>2020-10-25T10:23:38.000Z</time>
      </trkpt>
      <trkpt lat="47.34129" lon="-2.33444">
        <ele>78.199996948242</ele>
        <time>2020-10-25T10:23:39.000Z</time>
      </trkpt>
      <trkpt lat="47.34133" lon="-2.33438">
        <ele>77.800003051758</ele>
        <time>2020-10-25T10:23:40.000Z</time>
      </trkpt>
      <trkpt lat="47.34155" lon="-2.33402">
        <ele>77.800003051758</ele>
        <time>2020-10-25T10:23:46.000Z</time>
      </trkpt>
      <trkpt lat="47.34168" lon="-2.33362">
        <ele>77.800003051758</ele>
        <time>2020-10-25T10:23:51.000Z</time>
      </trkpt>
      <trkpt lat="47.34181" lon="-2.3332">
        <ele>77.800003051758</ele>
        <time>2020-10-25T10:23:56.000Z</time>
      </trkpt>
      <trkpt lat="47.34189" lon="-2.33298">
        <ele>77.199996948242</ele>
        <time>2020-10-25T10:23:59.000Z</time>
      </trkpt>
      <trkpt lat="47.34192" lon="-2.33293">
        <ele>76.800003051758</ele>
        <time>2020-10-25T10:24:00.000Z</time>
      </trkpt>
      <trkpt lat="47.34195" lon="-2.33288">
        <ele>76.400001525879</ele>
        <time>2020-10-25T10:24:01.000Z</time>
      </trkpt>
      <trkpt lat="47.34197" lon="-2.33283">
        <ele>76</ele>
        <time>2020-10-25T10:24:02.000Z</time>
      </trkpt>
      <trkpt lat="47.34199" lon="-2.33278">
        <ele>75.599998474121</ele>
        <time>2020-10-25T10:24:03.000Z</time>
      </trkpt>
      <trkpt lat="47.34203" lon="-2.33267">
        <ele>75.599998474121</ele>
        <time>2020-10-25T10:24:05.000Z</time>
      </trkpt>
      <trkpt lat="47.3421" lon="-2.33245">
        <ele>75.599998474121</ele>
        <time>2020-10-25T10:24:09.000Z</time>
      </trkpt>
      <trkpt lat="47.34214" lon="-2.33218">
        <ele>75.599998474121</ele>
        <time>2020-10-25T10:24:13.000Z</time>
      </trkpt>
      <trkpt lat="47.3422" lon="-2.33195">
        <ele>75.599998474121</ele>
        <time>2020-10-25T10:24:16.000Z</time>
      </trkpt>
      <trkpt lat="47.34226" lon="-2.33178">
        <ele>75.599998474121</ele>
        <time>2020-10-25T10:24:18.000Z</time>
      </trkpt>
      <trkpt lat="47.34234" lon="-2.33151">
        <ele>75.599998474121</ele>
        <time>2020-10-25T10:24:21.000Z</time>
      </trkpt>
      <trkpt lat="47.34244" lon="-2.33115">
        <ele>75.199996948242</ele>
        <time>2020-10-25T10:24:25.000Z</time>
      </trkpt>
      <trkpt lat="47.34246" lon="-2.33107">
        <ele>74.800003051758</ele>
        <time>2020-10-25T10:24:26.000Z</time>
      </trkpt>
      <trkpt lat="47.34248" lon="-2.33099">
        <ele>74.199996948242</ele>
        <time>2020-10-25T10:24:27.000Z</time>
      </trkpt>
      <trkpt lat="47.34251" lon="-2.33091">
        <ele>73.800003051758</ele>
        <time>2020-10-25T10:24:28.000Z</time>
      </trkpt>
      <trkpt lat="47.34253" lon="-2.33084">
        <ele>73.400001525879</ele>
        <time>2020-10-25T10:24:29.000Z</time>
      </trkpt>
      <trkpt lat="47.34263" lon="-2.33071">
        <ele>73.400001525879</ele>
        <time>2020-10-25T10:24:32.000Z</time>
      </trkpt>
      <trkpt lat="47.34284" lon="-2.33058">
        <ele>73.400001525879</ele>
        <time>2020-10-25T10:24:37.000Z</time>
      </trkpt>
      <trkpt lat="47.34289" lon="-2.33057">
        <ele>73.400001525879</ele>
        <time>2020-10-25T10:24:38.000Z</time>
      </trkpt>
      <trkpt lat="47.34306" lon="-2.33053">
        <ele>73.400001525879</ele>
        <time>2020-10-25T10:24:43.000Z</time>
      </trkpt>
      <trkpt lat="47.34331" lon="-2.33042">
        <ele>73.400001525879</ele>
        <time>2020-10-25T10:24:50.000Z</time>
      </trkpt>
      <trkpt lat="47.34344" lon="-2.33036">
        <ele>73.400001525879</ele>
        <time>2020-10-25T10:24:52.000Z</time>
      </trkpt>
      <trkpt lat="47.34352" lon="-2.33026">
        <ele>73</ele>
        <time>2020-10-25T10:24:54.000Z</time>
      </trkpt>
      <trkpt lat="47.34354" lon="-2.33019">
        <ele>72.599998474121</ele>
        <time>2020-10-25T10:24:55.000Z</time>
      </trkpt>
      <trkpt lat="47.34355" lon="-2.33012">
        <ele>72.199996948242</ele>
        <time>2020-10-25T10:24:56.000Z</time>
      </trkpt>
      <trkpt lat="47.34355" lon="-2.33005">
        <ele>71.800003051758</ele>
        <time>2020-10-25T10:24:57.000Z</time>
      </trkpt>
      <trkpt lat="47.34354" lon="-2.32998">
        <ele>71.400001525879</ele>
        <time>2020-10-25T10:24:58.000Z</time>
      </trkpt>
      <trkpt lat="47.34346" lon="-2.32961">
        <ele>71.400001525879</ele>
        <time>2020-10-25T10:25:03.000Z</time>
      </trkpt>
      <trkpt lat="47.34334" lon="-2.32912">
        <ele>71.400001525879</ele>
        <time>2020-10-25T10:25:10.000Z</time>
      </trkpt>
      <trkpt lat="47.34327" lon="-2.32882">
        <ele>71.400001525879</ele>
        <time>2020-10-25T10:25:14.000Z</time>
      </trkpt>
      <trkpt lat="47.34325" lon="-2.32865">
        <ele>71.400001525879</ele>
        <time>2020-10-25T10:25:16.000Z</time>
      </trkpt>
      <trkpt lat="47.34323" lon="-2.32848">
        <ele>71.800003051758</ele>
        <time>2020-10-25T10:25:18.000Z</time>
      </trkpt>
      <trkpt lat="47.34321" lon="-2.32841">
        <ele>72.199996948242</ele>
        <time>2020-10-25T10:25:19.000Z</time>
      </trkpt>
      <trkpt lat="47.3432" lon="-2.32834">
        <ele>72.599998474121</ele>
        <time>2020-10-25T10:25:20.000Z</time>
      </trkpt>
      <trkpt lat="47.34319" lon="-2.32826">
        <ele>73</ele>
        <time>2020-10-25T10:25:21.000Z</time>
      </trkpt>
      <trkpt lat="47.34317" lon="-2.32819">
        <ele>73.400001525879</ele>
        <time>2020-10-25T10:25:22.000Z</time>
      </trkpt>
      <trkpt lat="47.34311" lon="-2.32775">
        <ele>73.800003051758</ele>
        <time>2020-10-25T10:25:28.000Z</time>
      </trkpt>
      <trkpt lat="47.34311" lon="-2.32768">
        <ele>74.199996948242</ele>
        <time>2020-10-25T10:25:29.000Z</time>
      </trkpt>
      <trkpt lat="47.3431" lon="-2.32761">
        <ele>74.599998474121</ele>
        <time>2020-10-25T10:25:30.000Z</time>
      </trkpt>
      <trkpt lat="47.34309" lon="-2.32754">
        <ele>75</ele>
        <time>2020-10-25T10:25:31.000Z</time>
      </trkpt>
      <trkpt lat="47.34308" lon="-2.32747">
        <ele>75.400001525879</ele>
        <time>2020-10-25T10:25:32.000Z</time>
      </trkpt>
      <trkpt lat="47.34307" lon="-2.32725">
        <ele>75.400001525879</ele>
        <time>2020-10-25T10:25:35.000Z</time>
      </trkpt>
      <trkpt lat="47.34307" lon="-2.32704">
        <ele>75.800003051758</ele>
        <time>2020-10-25T10:25:38.000Z</time>
      </trkpt>
      <trkpt lat="47.34307" lon="-2.32696">
        <ele>76.199996948242</ele>
        <time>2020-10-25T10:25:39.000Z</time>
      </trkpt>
      <trkpt lat="47.34307" lon="-2.32689">
        <ele>76.599998474121</ele>
        <time>2020-10-25T10:25:40.000Z</time>
      </trkpt>
      <trkpt lat="47.34306" lon="-2.32681">
        <ele>77</ele>
        <time>2020-10-25T10:25:41.000Z</time>
      </trkpt>
      <trkpt lat="47.34306" lon="-2.32673">
        <ele>77.400001525879</ele>
        <time>2020-10-25T10:25:42.000Z</time>
      </trkpt>
      <trkpt lat="47.34303" lon="-2.32633">
        <ele>77.400001525879</ele>
        <time>2020-10-25T10:25:47.000Z</time>
      </trkpt>
      <trkpt lat="47.34298" lon="-2.32582">
        <ele>77.400001525879</ele>
        <time>2020-10-25T10:25:54.000Z</time>
      </trkpt>
      <trkpt lat="47.34295" lon="-2.32562">
        <ele>77.400001525879</ele>
        <time>2020-10-25T10:25:57.000Z</time>
      </trkpt>
      <trkpt lat="47.34287" lon="-2.32556">
        <ele>77.400001525879</ele>
        <time>2020-10-25T10:25:59.000Z</time>
      </trkpt>
      <trkpt lat="47.34274" lon="-2.32556">
        <ele>77.400001525879</ele>
        <time>2020-10-25T10:26:02.000Z</time>
      </trkpt>
      <trkpt lat="47.34269" lon="-2.32557">
        <ele>77.400001525879</ele>
        <time>2020-10-25T10:26:03.000Z</time>
      </trkpt>
      <trkpt lat="47.34264" lon="-2.32558">
        <ele>77.400001525879</ele>
        <time>2020-10-25T10:26:04.000Z</time>
      </trkpt>
      <trkpt lat="47.3424" lon="-2.32566">
        <ele>78</ele>
        <time>2020-10-25T10:26:09.000Z</time>
      </trkpt>
      <trkpt lat="47.34235" lon="-2.32567">
        <ele>78.400001525879</ele>
        <time>2020-10-25T10:26:10.000Z</time>
      </trkpt>
      <trkpt lat="47.3423" lon="-2.32568">
        <ele>78.800003051758</ele>
        <time>2020-10-25T10:26:11.000Z</time>
      </trkpt>
      <trkpt lat="47.34225" lon="-2.32569">
        <ele>79.400001525879</ele>
        <time>2020-10-25T10:26:12.000Z</time>
      </trkpt>
      <trkpt lat="47.3422" lon="-2.3257">
        <ele>79.800003051758</ele>
        <time>2020-10-25T10:26:13.000Z</time>
      </trkpt>
      <trkpt lat="47.34205" lon="-2.32573">
        <ele>79.800003051758</ele>
        <time>2020-10-25T10:26:16.000Z</time>
      </trkpt>
      <trkpt lat="47.34195" lon="-2.32576">
        <ele>79.800003051758</ele>
        <time>2020-10-25T10:26:18.000Z</time>
      </trkpt>
      <trkpt lat="47.3417" lon="-2.32579">
        <ele>79.800003051758</ele>
        <time>2020-10-25T10:26:23.000Z</time>
      </trkpt>
      <trkpt lat="47.34156" lon="-2.32566">
        <ele>79.800003051758</ele>
        <time>2020-10-25T10:26:27.000Z</time>
      </trkpt>
      <trkpt lat="47.34154" lon="-2.32552">
        <ele>79.800003051758</ele>
        <time>2020-10-25T10:26:29.000Z</time>
      </trkpt>
      <trkpt lat="47.34153" lon="-2.32538">
        <ele>79.800003051758</ele>
        <time>2020-10-25T10:26:31.000Z</time>
      </trkpt>
      <trkpt lat="47.34149" lon="-2.32487">
        <ele>79.800003051758</ele>
        <time>2020-10-25T10:26:37.000Z</time>
      </trkpt>
      <trkpt lat="47.34136" lon="-2.3243">
        <ele>79.800003051758</ele>
        <time>2020-10-25T10:26:44.000Z</time>
      </trkpt>
      <trkpt lat="47.34123" lon="-2.32391">
        <ele>79.400001525879</ele>
        <time>2020-10-25T10:26:49.000Z</time>
      </trkpt>
      <trkpt lat="47.3412" lon="-2.32383">
        <ele>79</ele>
        <time>2020-10-25T10:26:50.000Z</time>
      </trkpt>
      <trkpt lat="47.34117" lon="-2.32374">
        <ele>78.599998474121</ele>
        <time>2020-10-25T10:26:51.000Z</time>
      </trkpt>
      <trkpt lat="47.34115" lon="-2.32365">
        <ele>78.199996948242</ele>
        <time>2020-10-25T10:26:52.000Z</time>
      </trkpt>
      <trkpt lat="47.34112" lon="-2.32356">
        <ele>77.800003051758</ele>
        <time>2020-10-25T10:26:53.000Z</time>
      </trkpt>
      <trkpt lat="47.34105" lon="-2.32327">
        <ele>77.800003051758</ele>
        <time>2020-10-25T10:26:56.000Z</time>
      </trkpt>
      <trkpt lat="47.34086" lon="-2.32256">
        <ele>77</ele>
        <time>2020-10-25T10:27:03.000Z</time>
      </trkpt>
      <trkpt lat="47.34082" lon="-2.32246">
        <ele>76.400001525879</ele>
        <time>2020-10-25T10:27:04.000Z</time>
      </trkpt>
      <trkpt lat="47.34078" lon="-2.32236">
        <ele>76</ele>
        <time>2020-10-25T10:27:05.000Z</time>
      </trkpt>
      <trkpt lat="47.34073" lon="-2.32227">
        <ele>75.599998474121</ele>
        <time>2020-10-25T10:27:06.000Z</time>
      </trkpt>
      <trkpt lat="47.34066" lon="-2.3222">
        <ele>75.599998474121</ele>
        <time>2020-10-25T10:27:07.000Z</time>
      </trkpt>
      <trkpt lat="47.34043" lon="-2.32215">
        <ele>75.599998474121</ele>
        <time>2020-10-25T10:27:10.000Z</time>
      </trkpt>
      <trkpt lat="47.34035" lon="-2.32215">
        <ele>75.199996948242</ele>
        <time>2020-10-25T10:27:11.000Z</time>
      </trkpt>
      <trkpt lat="47.34027" lon="-2.32215">
        <ele>74.800003051758</ele>
        <time>2020-10-25T10:27:12.000Z</time>
      </trkpt>
      <trkpt lat="47.34019" lon="-2.32215">
        <ele>74.400001525879</ele>
        <time>2020-10-25T10:27:13.000Z</time>
      </trkpt>
      <trkpt lat="47.34011" lon="-2.32215">
        <ele>74</ele>
        <time>2020-10-25T10:27:14.000Z</time>
      </trkpt>
      <trkpt lat="47.34004" lon="-2.32216">
        <ele>73.599998474121</ele>
        <time>2020-10-25T10:27:15.000Z</time>
      </trkpt>
      <trkpt lat="47.33989" lon="-2.32216">
        <ele>73.599998474121</ele>
        <time>2020-10-25T10:27:17.000Z</time>
      </trkpt>
      <trkpt lat="47.33955" lon="-2.32213">
        <ele>73.599998474121</ele>
        <time>2020-10-25T10:27:22.000Z</time>
      </trkpt>
      <trkpt lat="47.33939" lon="-2.32202">
        <ele>73.599998474121</ele>
        <time>2020-10-25T10:27:25.000Z</time>
      </trkpt>
      <trkpt lat="47.33932" lon="-2.322">
        <ele>73.599998474121</ele>
        <time>2020-10-25T10:27:26.000Z</time>
      </trkpt>
      <trkpt lat="47.33912" lon="-2.32199">
        <ele>73.599998474121</ele>
        <time>2020-10-25T10:27:29.000Z</time>
      </trkpt>
      <trkpt lat="47.33905" lon="-2.32199">
        <ele>73.599998474121</ele>
        <time>2020-10-25T10:27:30.000Z</time>
      </trkpt>
      <trkpt lat="47.33892" lon="-2.322">
        <ele>73.599998474121</ele>
        <time>2020-10-25T10:27:32.000Z</time>
      </trkpt>
      <trkpt lat="47.33866" lon="-2.322">
        <ele>73.599998474121</ele>
        <time>2020-10-25T10:27:36.000Z</time>
      </trkpt>
      <trkpt lat="47.33824" lon="-2.32204">
        <ele>73.599998474121</ele>
        <time>2020-10-25T10:27:43.000Z</time>
      </trkpt>
      <trkpt lat="47.33771" lon="-2.32215">
        <ele>73.599998474121</ele>
        <time>2020-10-25T10:27:52.000Z</time>
      </trkpt>
      <trkpt lat="47.33733" lon="-2.32233">
        <ele>73.599998474121</ele>
        <time>2020-10-25T10:27:58.000Z</time>
      </trkpt>
      <trkpt lat="47.33683" lon="-2.32264">
        <ele>73.599998474121</ele>
        <time>2020-10-25T10:28:06.000Z</time>
      </trkpt>
      <trkpt lat="47.33647" lon="-2.32282">
        <ele>73.599998474121</ele>
        <time>2020-10-25T10:28:12.000Z</time>
      </trkpt>
      <trkpt lat="47.33607" lon="-2.32289">
        <ele>73.599998474121</ele>
        <time>2020-10-25T10:28:18.000Z</time>
      </trkpt>
      <trkpt lat="47.3358" lon="-2.32294">
        <ele>73.599998474121</ele>
        <time>2020-10-25T10:28:22.000Z</time>
      </trkpt>
      <trkpt lat="47.33566" lon="-2.32298">
        <ele>73.599998474121</ele>
        <time>2020-10-25T10:28:24.000Z</time>
      </trkpt>
      <trkpt lat="47.33545" lon="-2.32303">
        <ele>73.599998474121</ele>
        <time>2020-10-25T10:28:27.000Z</time>
      </trkpt>
      <trkpt lat="47.33531" lon="-2.32302">
        <ele>73.599998474121</ele>
        <time>2020-10-25T10:28:29.000Z</time>
      </trkpt>
      <trkpt lat="47.33508" lon="-2.3231">
        <ele>73.599998474121</ele>
        <time>2020-10-25T10:28:32.000Z</time>
      </trkpt>
      <trkpt lat="47.335" lon="-2.32314">
        <ele>73.599998474121</ele>
        <time>2020-10-25T10:28:33.000Z</time>
      </trkpt>
      <trkpt lat="47.33457" lon="-2.32337">
        <ele>73.599998474121</ele>
        <time>2020-10-25T10:28:39.000Z</time>
      </trkpt>
      <trkpt lat="47.33427" lon="-2.32359">
        <ele>73.599998474121</ele>
        <time>2020-10-25T10:28:44.000Z</time>
      </trkpt>
      <trkpt lat="47.33395" lon="-2.32388">
        <ele>73.599998474121</ele>
        <time>2020-10-25T10:28:50.000Z</time>
      </trkpt>
      <trkpt lat="47.33389" lon="-2.32392">
        <ele>73.599998474121</ele>
        <time>2020-10-25T10:28:51.000Z</time>
      </trkpt>
      <trkpt lat="47.33368" lon="-2.3241">
        <ele>73.599998474121</ele>
        <time>2020-10-25T10:28:55.000Z</time>
      </trkpt>
      <trkpt lat="47.33354" lon="-2.32425">
        <ele>73.599998474121</ele>
        <time>2020-10-25T10:28:58.000Z</time>
      </trkpt>
      <trkpt lat="47.33346" lon="-2.32436">
        <ele>73.599998474121</ele>
        <time>2020-10-25T10:29:00.000Z</time>
      </trkpt>
      <trkpt lat="47.3333" lon="-2.32456">
        <ele>73.599998474121</ele>
        <time>2020-10-25T10:29:05.000Z</time>
      </trkpt>
      <trkpt lat="47.33315" lon="-2.32463">
        <ele>73.599998474121</ele>
        <time>2020-10-25T10:29:09.000Z</time>
      </trkpt>
      <trkpt lat="47.33307" lon="-2.32467">
        <ele>73.599998474121</ele>
        <time>2020-10-25T10:29:11.000Z</time>
      </trkpt>
      <trkpt lat="47.33295" lon="-2.32474">
        <ele>73.599998474121</ele>
        <time>2020-10-25T10:29:14.000Z</time>
      </trkpt>
      <trkpt lat="47.33266" lon="-2.32488">
        <ele>73.599998474121</ele>
        <time>2020-10-25T10:29:20.000Z</time>
      </trkpt>
      <trkpt lat="47.33262" lon="-2.3249">
        <ele>73.599998474121</ele>
        <time>2020-10-25T10:29:21.000Z</time>
      </trkpt>
      <trkpt lat="47.33242" lon="-2.32499">
        <ele>73.599998474121</ele>
        <time>2020-10-25T10:29:25.000Z</time>
      </trkpt>
      <trkpt lat="47.33202" lon="-2.32515">
        <ele>73.599998474121</ele>
        <time>2020-10-25T10:29:32.000Z</time>
      </trkpt>
      <trkpt lat="47.33197" lon="-2.32518">
        <ele>73.599998474121</ele>
        <time>2020-10-25T10:29:33.000Z</time>
      </trkpt>
      <trkpt lat="47.33174" lon="-2.32529">
        <ele>73.599998474121</ele>
        <time>2020-10-25T10:29:37.000Z</time>
      </trkpt>
      <trkpt lat="47.33163" lon="-2.32537">
        <ele>73.599998474121</ele>
        <time>2020-10-25T10:29:39.000Z</time>
      </trkpt>
      <trkpt lat="47.33146" lon="-2.3255">
        <ele>73.599998474121</ele>
        <time>2020-10-25T10:29:42.000Z</time>
      </trkpt>
      <trkpt lat="47.33111" lon="-2.32578">
        <ele>73.599998474121</ele>
        <time>2020-10-25T10:29:48.000Z</time>
      </trkpt>
      <trkpt lat="47.3309" lon="-2.32597">
        <ele>73.199996948242</ele>
        <time>2020-10-25T10:29:52.000Z</time>
      </trkpt>
      <trkpt lat="47.33085" lon="-2.32601">
        <ele>72.800003051758</ele>
        <time>2020-10-25T10:29:53.000Z</time>
      </trkpt>
      <trkpt lat="47.3308" lon="-2.32606">
        <ele>72.400001525879</ele>
        <time>2020-10-25T10:29:54.000Z</time>
      </trkpt>
      <trkpt lat="47.33074" lon="-2.3261">
        <ele>72</ele>
        <time>2020-10-25T10:29:55.000Z</time>
      </trkpt>
      <trkpt lat="47.33068" lon="-2.32616">
        <ele>71.599998474121</ele>
        <time>2020-10-25T10:29:56.000Z</time>
      </trkpt>
      <trkpt lat="47.33043" lon="-2.32635">
        <ele>71.599998474121</ele>
        <time>2020-10-25T10:30:00.000Z</time>
      </trkpt>
      <trkpt lat="47.33029" lon="-2.32641">
        <ele>71.599998474121</ele>
        <time>2020-10-25T10:30:02.000Z</time>
      </trkpt>
      <trkpt lat="47.33017" lon="-2.3264">
        <ele>71.599998474121</ele>
        <time>2020-10-25T10:30:04.000Z</time>
      </trkpt>
      <trkpt lat="47.33006" lon="-2.32631">
        <ele>71.199996948242</ele>
        <time>2020-10-25T10:30:06.000Z</time>
      </trkpt>
      <trkpt lat="47.32999" lon="-2.32629">
        <ele>70.800003051758</ele>
        <time>2020-10-25T10:30:07.000Z</time>
      </trkpt>
      <trkpt lat="47.32993" lon="-2.32628">
        <ele>70.400001525879</ele>
        <time>2020-10-25T10:30:08.000Z</time>
      </trkpt>
      <trkpt lat="47.32989" lon="-2.3263">
        <ele>70</ele>
        <time>2020-10-25T10:30:09.000Z</time>
      </trkpt>
      <trkpt lat="47.32984" lon="-2.32634">
        <ele>69.599998474121</ele>
        <time>2020-10-25T10:30:10.000Z</time>
      </trkpt>
      <trkpt lat="47.3298" lon="-2.32637">
        <ele>69.599998474121</ele>
        <time>2020-10-25T10:30:11.000Z</time>
      </trkpt>
      <trkpt lat="47.32976" lon="-2.3264">
        <ele>69.599998474121</ele>
        <time>2020-10-25T10:30:12.000Z</time>
      </trkpt>
      <trkpt lat="47.32961" lon="-2.32646">
        <ele>69.599998474121</ele>
        <time>2020-10-25T10:30:15.000Z</time>
      </trkpt>
      <trkpt lat="47.3294" lon="-2.32651">
        <ele>69.599998474121</ele>
        <time>2020-10-25T10:30:19.000Z</time>
      </trkpt>
      <trkpt lat="47.32928" lon="-2.32645">
        <ele>69.599998474121</ele>
        <time>2020-10-25T10:30:21.000Z</time>
      </trkpt>
      <trkpt lat="47.32919" lon="-2.32627">
        <ele>69.599998474121</ele>
        <time>2020-10-25T10:30:24.000Z</time>
      </trkpt>
      <trkpt lat="47.32919" lon="-2.32595">
        <ele>69.599998474121</ele>
        <time>2020-10-25T10:30:28.000Z</time>
      </trkpt>
      <trkpt lat="47.32918" lon="-2.32555">
        <ele>70</ele>
        <time>2020-10-25T10:30:33.000Z</time>
      </trkpt>
      <trkpt lat="47.32917" lon="-2.32547">
        <ele>70.400001525879</ele>
        <time>2020-10-25T10:30:34.000Z</time>
      </trkpt>
      <trkpt lat="47.32916" lon="-2.3254">
        <ele>70.800003051758</ele>
        <time>2020-10-25T10:30:35.000Z</time>
      </trkpt>
      <trkpt lat="47.32915" lon="-2.32532">
        <ele>71.199996948242</ele>
        <time>2020-10-25T10:30:36.000Z</time>
      </trkpt>
      <trkpt lat="47.32913" lon="-2.32525">
        <ele>71.599998474121</ele>
        <time>2020-10-25T10:30:37.000Z</time>
      </trkpt>
      <trkpt lat="47.32909" lon="-2.3251">
        <ele>71.599998474121</ele>
        <time>2020-10-25T10:30:39.000Z</time>
      </trkpt>
      <trkpt lat="47.32896" lon="-2.32468">
        <ele>71.599998474121</ele>
        <time>2020-10-25T10:30:44.000Z</time>
      </trkpt>
      <trkpt lat="47.32892" lon="-2.32462">
        <ele>71.599998474121</ele>
        <time>2020-10-25T10:30:45.000Z</time>
      </trkpt>
      <trkpt lat="47.3287" lon="-2.32446">
        <ele>71.599998474121</ele>
        <time>2020-10-25T10:30:49.000Z</time>
      </trkpt>
      <trkpt lat="47.32833" lon="-2.32421">
        <ele>71.599998474121</ele>
        <time>2020-10-25T10:30:55.000Z</time>
      </trkpt>
      <trkpt lat="47.32801" lon="-2.32389">
        <ele>71.599998474121</ele>
        <time>2020-10-25T10:31:01.000Z</time>
      </trkpt>
      <trkpt lat="47.32784" lon="-2.32376">
        <ele>71.599998474121</ele>
        <time>2020-10-25T10:31:04.000Z</time>
      </trkpt>
      <trkpt lat="47.32773" lon="-2.32369">
        <ele>71.599998474121</ele>
        <time>2020-10-25T10:31:06.000Z</time>
      </trkpt>
      <trkpt lat="47.32735" lon="-2.32346">
        <ele>71.599998474121</ele>
        <time>2020-10-25T10:31:13.000Z</time>
      </trkpt>
      <trkpt lat="47.32692" lon="-2.32325">
        <ele>71.599998474121</ele>
        <time>2020-10-25T10:31:21.000Z</time>
      </trkpt>
      <trkpt lat="47.32681" lon="-2.32322">
        <ele>72</ele>
        <time>2020-10-25T10:31:23.000Z</time>
      </trkpt>
      <trkpt lat="47.32675" lon="-2.3232">
        <ele>72.400001525879</ele>
        <time>2020-10-25T10:31:24.000Z</time>
      </trkpt>
      <trkpt lat="47.32669" lon="-2.32318">
        <ele>72.800003051758</ele>
        <time>2020-10-25T10:31:25.000Z</time>
      </trkpt>
      <trkpt lat="47.32663" lon="-2.32316">
        <ele>73.199996948242</ele>
        <time>2020-10-25T10:31:26.000Z</time>
      </trkpt>
      <trkpt lat="47.32658" lon="-2.32314">
        <ele>73.599998474121</ele>
        <time>2020-10-25T10:31:27.000Z</time>
      </trkpt>
      <trkpt lat="47.32653" lon="-2.32313">
        <ele>73.599998474121</ele>
        <time>2020-10-25T10:31:28.000Z</time>
      </trkpt>
      <trkpt lat="47.32643" lon="-2.32312">
        <ele>73.599998474121</ele>
        <time>2020-10-25T10:31:30.000Z</time>
      </trkpt>
      <trkpt lat="47.32632" lon="-2.32313">
        <ele>73.599998474121</ele>
        <time>2020-10-25T10:31:32.000Z</time>
      </trkpt>
      <trkpt lat="47.32627" lon="-2.32312">
        <ele>73.599998474121</ele>
        <time>2020-10-25T10:31:33.000Z</time>
      </trkpt>
      <trkpt lat="47.32584" lon="-2.32314">
        <ele>73.599998474121</ele>
        <time>2020-10-25T10:31:41.000Z</time>
      </trkpt>
      <trkpt lat="47.32558" lon="-2.32316">
        <ele>73.599998474121</ele>
        <time>2020-10-25T10:31:47.000Z</time>
      </trkpt>
      <trkpt lat="47.3255" lon="-2.32316">
        <ele>74</ele>
        <time>2020-10-25T10:31:49.000Z</time>
      </trkpt>
      <trkpt lat="47.32547" lon="-2.32317">
        <ele>74.400001525879</ele>
        <time>2020-10-25T10:31:50.000Z</time>
      </trkpt>
      <trkpt lat="47.32543" lon="-2.32317">
        <ele>74.800003051758</ele>
        <time>2020-10-25T10:31:51.000Z</time>
      </trkpt>
      <trkpt lat="47.32539" lon="-2.32317">
        <ele>75.199996948242</ele>
        <time>2020-10-25T10:31:52.000Z</time>
      </trkpt>
      <trkpt lat="47.32536" lon="-2.32316">
        <ele>75.599998474121</ele>
        <time>2020-10-25T10:31:53.000Z</time>
      </trkpt>
      <trkpt lat="47.32534" lon="-2.32312">
        <ele>75.599998474121</ele>
        <time>2020-10-25T10:31:54.000Z</time>
      </trkpt>
      <trkpt lat="47.32534" lon="-2.32301">
        <ele>75.599998474121</ele>
        <time>2020-10-25T10:31:57.000Z</time>
      </trkpt>
      <trkpt lat="47.32535" lon="-2.32297">
        <ele>75.199996948242</ele>
        <time>2020-10-25T10:32:00.000Z</time>
      </trkpt>
      <trkpt lat="47.32535" lon="-2.32292">
        <ele>73.599998474121</ele>
        <time>2020-10-25T10:32:05.000Z</time>
      </trkpt>
      <trkpt lat="47.32538" lon="-2.32269">
        <ele>73.599998474121</ele>
        <time>2020-10-25T10:32:09.000Z</time>
      </trkpt>
      <trkpt lat="47.3255" lon="-2.32234">
        <ele>73.199996948242</ele>
        <time>2020-10-25T10:32:13.000Z</time>
      </trkpt>
      <trkpt lat="47.32553" lon="-2.32224">
        <ele>72.800003051758</ele>
        <time>2020-10-25T10:32:14.000Z</time>
      </trkpt>
      <trkpt lat="47.32556" lon="-2.32214">
        <ele>72.199996948242</ele>
        <time>2020-10-25T10:32:15.000Z</time>
      </trkpt>
      <trkpt lat="47.32559" lon="-2.32205">
        <ele>71.800003051758</ele>
        <time>2020-10-25T10:32:16.000Z</time>
      </trkpt>
      <trkpt lat="47.32562" lon="-2.32196">
        <ele>71.400001525879</ele>
        <time>2020-10-25T10:32:17.000Z</time>
      </trkpt>
      <trkpt lat="47.32568" lon="-2.32179">
        <ele>71.400001525879</ele>
        <time>2020-10-25T10:32:19.000Z</time>
      </trkpt>
      <trkpt lat="47.32582" lon="-2.32133">
        <ele>71.400001525879</ele>
        <time>2020-10-25T10:32:25.000Z</time>
      </trkpt>
      <trkpt lat="47.32588" lon="-2.32107">
        <ele>71.800003051758</ele>
        <time>2020-10-25T10:32:29.000Z</time>
      </trkpt>
      <trkpt lat="47.32585" lon="-2.32101">
        <ele>72.199996948242</ele>
        <time>2020-10-25T10:32:30.000Z</time>
      </trkpt>
      <trkpt lat="47.32583" lon="-2.32097">
        <ele>72.599998474121</ele>
        <time>2020-10-25T10:32:31.000Z</time>
      </trkpt>
      <trkpt lat="47.32579" lon="-2.32095">
        <ele>73.199996948242</ele>
        <time>2020-10-25T10:32:32.000Z</time>
      </trkpt>
      <trkpt lat="47.32575" lon="-2.32095">
        <ele>73.599998474121</ele>
        <time>2020-10-25T10:32:33.000Z</time>
      </trkpt>
      <trkpt lat="47.32565" lon="-2.32096">
        <ele>73.599998474121</ele>
        <time>2020-10-25T10:32:35.000Z</time>
      </trkpt>
      <trkpt lat="47.32554" lon="-2.32097">
        <ele>74</ele>
        <time>2020-10-25T10:32:37.000Z</time>
      </trkpt>
      <trkpt lat="47.32549" lon="-2.32097">
        <ele>74.400001525879</ele>
        <time>2020-10-25T10:32:38.000Z</time>
      </trkpt>
      <trkpt lat="47.32544" lon="-2.32097">
        <ele>74.800003051758</ele>
        <time>2020-10-25T10:32:39.000Z</time>
      </trkpt>
      <trkpt lat="47.3254" lon="-2.32098">
        <ele>75.199996948242</ele>
        <time>2020-10-25T10:32:40.000Z</time>
      </trkpt>
      <trkpt lat="47.32536" lon="-2.32099">
        <ele>75.599998474121</ele>
        <time>2020-10-25T10:32:41.000Z</time>
      </trkpt>
      <trkpt lat="47.32531" lon="-2.32098">
        <ele>75.599998474121</ele>
        <time>2020-10-25T10:32:42.000Z</time>
      </trkpt>
      <trkpt lat="47.32523" lon="-2.32097">
        <ele>75.599998474121</ele>
        <time>2020-10-25T10:32:44.000Z</time>
      </trkpt>
      <trkpt lat="47.32501" lon="-2.32093">
        <ele>75.599998474121</ele>
        <time>2020-10-25T10:32:50.000Z</time>
      </trkpt>
      <trkpt lat="47.325" lon="-2.32077">
        <ele>75.599998474121</ele>
        <time>2020-10-25T10:32:53.000Z</time>
      </trkpt>
      <trkpt lat="47.32501" lon="-2.3207">
        <ele>75.599998474121</ele>
        <time>2020-10-25T10:32:54.000Z</time>
      </trkpt>
      <trkpt lat="47.32501" lon="-2.32063">
        <ele>75.599998474121</ele>
        <time>2020-10-25T10:32:55.000Z</time>
      </trkpt>
      <trkpt lat="47.32502" lon="-2.32048">
        <ele>75.599998474121</ele>
        <time>2020-10-25T10:32:57.000Z</time>
      </trkpt>
      <trkpt lat="47.32504" lon="-2.3199">
        <ele>75.599998474121</ele>
        <time>2020-10-25T10:33:04.000Z</time>
      </trkpt>
      <trkpt lat="47.32508" lon="-2.31939">
        <ele>75.599998474121</ele>
        <time>2020-10-25T10:33:10.000Z</time>
      </trkpt>
      <trkpt lat="47.32515" lon="-2.31886">
        <ele>75.599998474121</ele>
        <time>2020-10-25T10:33:16.000Z</time>
      </trkpt>
      <trkpt lat="47.32518" lon="-2.31833">
        <ele>75.599998474121</ele>
        <time>2020-10-25T10:33:22.000Z</time>
      </trkpt>
      <trkpt lat="47.32516" lon="-2.31807">
        <ele>76</ele>
        <time>2020-10-25T10:33:25.000Z</time>
      </trkpt>
      <trkpt lat="47.32515" lon="-2.31799">
        <ele>76.400001525879</ele>
        <time>2020-10-25T10:33:26.000Z</time>
      </trkpt>
      <trkpt lat="47.32514" lon="-2.31791">
        <ele>77</ele>
        <time>2020-10-25T10:33:27.000Z</time>
      </trkpt>
      <trkpt lat="47.32513" lon="-2.31783">
        <ele>77.400001525879</ele>
        <time>2020-10-25T10:33:28.000Z</time>
      </trkpt>
      <trkpt lat="47.32512" lon="-2.31775">
        <ele>77.800003051758</ele>
        <time>2020-10-25T10:33:29.000Z</time>
      </trkpt>
      <trkpt lat="47.32511" lon="-2.31748">
        <ele>77.800003051758</ele>
        <time>2020-10-25T10:33:32.000Z</time>
      </trkpt>
      <trkpt lat="47.32506" lon="-2.31686">
        <ele>77.800003051758</ele>
        <time>2020-10-25T10:33:39.000Z</time>
      </trkpt>
      <trkpt lat="47.32507" lon="-2.31652">
        <ele>77.800003051758</ele>
        <time>2020-10-25T10:33:43.000Z</time>
      </trkpt>
      <trkpt lat="47.3251" lon="-2.31646">
        <ele>77.800003051758</ele>
        <time>2020-10-25T10:33:44.000Z</time>
      </trkpt>
      <trkpt lat="47.32521" lon="-2.31629">
        <ele>77.800003051758</ele>
        <time>2020-10-25T10:33:47.000Z</time>
      </trkpt>
      <trkpt lat="47.32525" lon="-2.31623">
        <ele>77.800003051758</ele>
        <time>2020-10-25T10:33:48.000Z</time>
      </trkpt>
      <trkpt lat="47.32554" lon="-2.31582">
        <ele>77.800003051758</ele>
        <time>2020-10-25T10:33:55.000Z</time>
      </trkpt>
      <trkpt lat="47.32554" lon="-2.31561">
        <ele>77.800003051758</ele>
        <time>2020-10-25T10:33:58.000Z</time>
      </trkpt>
      <trkpt lat="47.32553" lon="-2.31555">
        <ele>77.800003051758</ele>
        <time>2020-10-25T10:33:59.000Z</time>
      </trkpt>
      <trkpt lat="47.32553" lon="-2.31534">
        <ele>77.800003051758</ele>
        <time>2020-10-25T10:34:02.000Z</time>
      </trkpt>
      <trkpt lat="47.32555" lon="-2.31514">
        <ele>77.800003051758</ele>
        <time>2020-10-25T10:34:05.000Z</time>
      </trkpt>
      <trkpt lat="47.32558" lon="-2.31492">
        <ele>77.800003051758</ele>
        <time>2020-10-25T10:34:08.000Z</time>
      </trkpt>
      <trkpt lat="47.32558" lon="-2.31478">
        <ele>77.800003051758</ele>
        <time>2020-10-25T10:34:10.000Z</time>
      </trkpt>
      <trkpt lat="47.32557" lon="-2.31458">
        <ele>77.800003051758</ele>
        <time>2020-10-25T10:34:13.000Z</time>
      </trkpt>
      <trkpt lat="47.32556" lon="-2.31452">
        <ele>77.800003051758</ele>
        <time>2020-10-25T10:34:14.000Z</time>
      </trkpt>
      <trkpt lat="47.32555" lon="-2.31446">
        <ele>77.800003051758</ele>
        <time>2020-10-25T10:34:15.000Z</time>
      </trkpt>
      <trkpt lat="47.32551" lon="-2.31415">
        <ele>77.800003051758</ele>
        <time>2020-10-25T10:34:21.000Z</time>
      </trkpt>
      <trkpt lat="47.32552" lon="-2.31393">
        <ele>77.800003051758</ele>
        <time>2020-10-25T10:34:25.000Z</time>
      </trkpt>
      <trkpt lat="47.32555" lon="-2.31352">
        <ele>77.800003051758</ele>
        <time>2020-10-25T10:34:30.000Z</time>
      </trkpt>
      <trkpt lat="47.32557" lon="-2.31344">
        <ele>77.800003051758</ele>
        <time>2020-10-25T10:34:31.000Z</time>
      </trkpt>
      <trkpt lat="47.32565" lon="-2.31321">
        <ele>77.800003051758</ele>
        <time>2020-10-25T10:34:34.000Z</time>
      </trkpt>
      <trkpt lat="47.32568" lon="-2.31313">
        <ele>77.800003051758</ele>
        <time>2020-10-25T10:34:35.000Z</time>
      </trkpt>
      <trkpt lat="47.32572" lon="-2.31297">
        <ele>77.800003051758</ele>
        <time>2020-10-25T10:34:37.000Z</time>
      </trkpt>
      <trkpt lat="47.32572" lon="-2.31278">
        <ele>77.800003051758</ele>
        <time>2020-10-25T10:34:39.000Z</time>
      </trkpt>
      <trkpt lat="47.32574" lon="-2.31222">
        <ele>77.800003051758</ele>
        <time>2020-10-25T10:34:45.000Z</time>
      </trkpt>
      <trkpt lat="47.32573" lon="-2.31214">
        <ele>77.800003051758</ele>
        <time>2020-10-25T10:34:46.000Z</time>
      </trkpt>
      <trkpt lat="47.32566" lon="-2.31203">
        <ele>77.800003051758</ele>
        <time>2020-10-25T10:34:48.000Z</time>
      </trkpt>
      <trkpt lat="47.32561" lon="-2.31192">
        <ele>77.800003051758</ele>
        <time>2020-10-25T10:34:50.000Z</time>
      </trkpt>
      <trkpt lat="47.32561" lon="-2.31186">
        <ele>77.800003051758</ele>
        <time>2020-10-25T10:34:51.000Z</time>
      </trkpt>
      <trkpt lat="47.32561" lon="-2.31179">
        <ele>77.800003051758</ele>
        <time>2020-10-25T10:34:52.000Z</time>
      </trkpt>
      <trkpt lat="47.32562" lon="-2.31158">
        <ele>77.800003051758</ele>
        <time>2020-10-25T10:34:55.000Z</time>
      </trkpt>
      <trkpt lat="47.32564" lon="-2.31136">
        <ele>77.800003051758</ele>
        <time>2020-10-25T10:34:58.000Z</time>
      </trkpt>
      <trkpt lat="47.32569" lon="-2.31089">
        <ele>77.800003051758</ele>
        <time>2020-10-25T10:35:04.000Z</time>
      </trkpt>
      <trkpt lat="47.32571" lon="-2.31066">
        <ele>77.800003051758</ele>
        <time>2020-10-25T10:35:07.000Z</time>
      </trkpt>
      <trkpt lat="47.32568" lon="-2.31045">
        <ele>77.800003051758</ele>
        <time>2020-10-25T10:35:10.000Z</time>
      </trkpt>
      <trkpt lat="47.32567" lon="-2.31039">
        <ele>77.800003051758</ele>
        <time>2020-10-25T10:35:11.000Z</time>
      </trkpt>
      <trkpt lat="47.32564" lon="-2.31024">
        <ele>78.199996948242</ele>
        <time>2020-10-25T10:35:13.000Z</time>
      </trkpt>
      <trkpt lat="47.32563" lon="-2.31016">
        <ele>78.599998474121</ele>
        <time>2020-10-25T10:35:14.000Z</time>
      </trkpt>
      <trkpt lat="47.32562" lon="-2.31008">
        <ele>79</ele>
        <time>2020-10-25T10:35:15.000Z</time>
      </trkpt>
      <trkpt lat="47.32562" lon="-2.30999">
        <ele>79.400001525879</ele>
        <time>2020-10-25T10:35:16.000Z</time>
      </trkpt>
      <trkpt lat="47.32562" lon="-2.3099">
        <ele>79.800003051758</ele>
        <time>2020-10-25T10:35:17.000Z</time>
      </trkpt>
      <trkpt lat="47.32562" lon="-2.30981">
        <ele>79.800003051758</ele>
        <time>2020-10-25T10:35:18.000Z</time>
      </trkpt>
      <trkpt lat="47.32563" lon="-2.30946">
        <ele>79.800003051758</ele>
        <time>2020-10-25T10:35:22.000Z</time>
      </trkpt>
      <trkpt lat="47.32566" lon="-2.309">
        <ele>79.800003051758</ele>
        <time>2020-10-25T10:35:27.000Z</time>
      </trkpt>
      <trkpt lat="47.32567" lon="-2.3088">
        <ele>79.800003051758</ele>
        <time>2020-10-25T10:35:29.000Z</time>
      </trkpt>
      <trkpt lat="47.32566" lon="-2.30852">
        <ele>79.800003051758</ele>
        <time>2020-10-25T10:35:32.000Z</time>
      </trkpt>
      <trkpt lat="47.32562" lon="-2.30787">
        <ele>79.800003051758</ele>
        <time>2020-10-25T10:35:39.000Z</time>
      </trkpt>
      <trkpt lat="47.32552" lon="-2.30727">
        <ele>79.800003051758</ele>
        <time>2020-10-25T10:35:46.000Z</time>
      </trkpt>
      <trkpt lat="47.32546" lon="-2.30695">
        <ele>79.800003051758</ele>
        <time>2020-10-25T10:35:50.000Z</time>
      </trkpt>
      <trkpt lat="47.32543" lon="-2.30679">
        <ele>79.800003051758</ele>
        <time>2020-10-25T10:35:52.000Z</time>
      </trkpt>
      <trkpt lat="47.32542" lon="-2.30672">
        <ele>79.800003051758</ele>
        <time>2020-10-25T10:35:53.000Z</time>
      </trkpt>
      <trkpt lat="47.32542" lon="-2.30666">
        <ele>79.800003051758</ele>
        <time>2020-10-25T10:35:54.000Z</time>
      </trkpt>
      <trkpt lat="47.32539" lon="-2.3065">
        <ele>79.800003051758</ele>
        <time>2020-10-25T10:35:57.000Z</time>
      </trkpt>
      <trkpt lat="47.32532" lon="-2.30616">
        <ele>79.800003051758</ele>
        <time>2020-10-25T10:36:04.000Z</time>
      </trkpt>
      <trkpt lat="47.32527" lon="-2.3058">
        <ele>79.800003051758</ele>
        <time>2020-10-25T10:36:10.000Z</time>
      </trkpt>
      <trkpt lat="47.3252" lon="-2.30538">
        <ele>79.800003051758</ele>
        <time>2020-10-25T10:36:16.000Z</time>
      </trkpt>
      <trkpt lat="47.32512" lon="-2.30494">
        <ele>79.800003051758</ele>
        <time>2020-10-25T10:36:22.000Z</time>
      </trkpt>
      <trkpt lat="47.3251" lon="-2.30487">
        <ele>79.800003051758</ele>
        <time>2020-10-25T10:36:23.000Z</time>
      </trkpt>
      <trkpt lat="47.32505" lon="-2.30459">
        <ele>79.800003051758</ele>
        <time>2020-10-25T10:36:27.000Z</time>
      </trkpt>
      <trkpt lat="47.32501" lon="-2.30416">
        <ele>79.800003051758</ele>
        <time>2020-10-25T10:36:34.000Z</time>
      </trkpt>
      <trkpt lat="47.32514" lon="-2.30411">
        <ele>79.800003051758</ele>
        <time>2020-10-25T10:36:37.000Z</time>
      </trkpt>
      <trkpt lat="47.32539" lon="-2.30397">
        <ele>79.800003051758</ele>
        <time>2020-10-25T10:36:43.000Z</time>
      </trkpt>
      <trkpt lat="47.32542" lon="-2.30393">
        <ele>79.800003051758</ele>
        <time>2020-10-25T10:36:44.000Z</time>
      </trkpt>
      <trkpt lat="47.32541" lon="-2.30378">
        <ele>79.800003051758</ele>
        <time>2020-10-25T10:36:47.000Z</time>
      </trkpt>
      <trkpt lat="47.3254" lon="-2.30373">
        <ele>79.800003051758</ele>
        <time>2020-10-25T10:36:48.000Z</time>
      </trkpt>
      <trkpt lat="47.32536" lon="-2.30351">
        <ele>79.800003051758</ele>
        <time>2020-10-25T10:36:52.000Z</time>
      </trkpt>
      <trkpt lat="47.32535" lon="-2.30344">
        <ele>79.800003051758</ele>
        <time>2020-10-25T10:36:53.000Z</time>
      </trkpt>
      <trkpt lat="47.32534" lon="-2.30338">
        <ele>79.800003051758</ele>
        <time>2020-10-25T10:36:54.000Z</time>
      </trkpt>
      <trkpt lat="47.32528" lon="-2.30308">
        <ele>79.800003051758</ele>
        <time>2020-10-25T10:36:59.000Z</time>
      </trkpt>
      <trkpt lat="47.3252" lon="-2.30269">
        <ele>79.800003051758</ele>
        <time>2020-10-25T10:37:05.000Z</time>
      </trkpt>
      <trkpt lat="47.32512" lon="-2.30214">
        <ele>79.800003051758</ele>
        <time>2020-10-25T10:37:13.000Z</time>
      </trkpt>
      <trkpt lat="47.32507" lon="-2.3018">
        <ele>79.800003051758</ele>
        <time>2020-10-25T10:37:18.000Z</time>
      </trkpt>
      <trkpt lat="47.32504" lon="-2.30167">
        <ele>79.800003051758</ele>
        <time>2020-10-25T10:37:20.000Z</time>
      </trkpt>
      <trkpt lat="47.32502" lon="-2.30154">
        <ele>79.800003051758</ele>
        <time>2020-10-25T10:37:22.000Z</time>
      </trkpt>
      <trkpt lat="47.32501" lon="-2.3014">
        <ele>80.199996948242</ele>
        <time>2020-10-25T10:37:24.000Z</time>
      </trkpt>
      <trkpt lat="47.32499" lon="-2.30134">
        <ele>80.800003051758</ele>
        <time>2020-10-25T10:37:25.000Z</time>
      </trkpt>
      <trkpt lat="47.32499" lon="-2.30127">
        <ele>81.199996948242</ele>
        <time>2020-10-25T10:37:26.000Z</time>
      </trkpt>
      <trkpt lat="47.32498" lon="-2.30121">
        <ele>81.599998474121</ele>
        <time>2020-10-25T10:37:27.000Z</time>
      </trkpt>
      <trkpt lat="47.32496" lon="-2.30115">
        <ele>82</ele>
        <time>2020-10-25T10:37:28.000Z</time>
      </trkpt>
      <trkpt lat="47.32493" lon="-2.30089">
        <ele>82</ele>
        <time>2020-10-25T10:37:32.000Z</time>
      </trkpt>
      <trkpt lat="47.32493" lon="-2.30084">
        <ele>82</ele>
        <time>2020-10-25T10:37:33.000Z</time>
      </trkpt>
      <trkpt lat="47.32489" lon="-2.30055">
        <ele>82</ele>
        <time>2020-10-25T10:37:39.000Z</time>
      </trkpt>
      <trkpt lat="47.32476" lon="-2.3001">
        <ele>82</ele>
        <time>2020-10-25T10:37:47.000Z</time>
      </trkpt>
      <trkpt lat="47.32471" lon="-2.3">
        <ele>82</ele>
        <time>2020-10-25T10:37:49.000Z</time>
      </trkpt>
      <trkpt lat="47.3246" lon="-2.2998">
        <ele>82</ele>
        <time>2020-10-25T10:37:53.000Z</time>
      </trkpt>
      <trkpt lat="47.32441" lon="-2.29946">
        <ele>82</ele>
        <time>2020-10-25T10:38:01.000Z</time>
      </trkpt>
      <trkpt lat="47.32442" lon="-2.29941">
        <ele>82</ele>
        <time>2020-10-25T10:38:02.000Z</time>
      </trkpt>
      <trkpt lat="47.32446" lon="-2.29931">
        <ele>82</ele>
        <time>2020-10-25T10:38:04.000Z</time>
      </trkpt>
      <trkpt lat="47.32447" lon="-2.29924">
        <ele>82</ele>
        <time>2020-10-25T10:38:05.000Z</time>
      </trkpt>
      <trkpt lat="47.32445" lon="-2.29912">
        <ele>82</ele>
        <time>2020-10-25T10:38:07.000Z</time>
      </trkpt>
      <trkpt lat="47.32437" lon="-2.29875">
        <ele>82</ele>
        <time>2020-10-25T10:38:14.000Z</time>
      </trkpt>
      <trkpt lat="47.32434" lon="-2.29874">
        <ele>82</ele>
        <time>2020-10-25T10:38:15.000Z</time>
      </trkpt>
      <trkpt lat="47.32427" lon="-2.29877">
        <ele>82</ele>
        <time>2020-10-25T10:38:17.000Z</time>
      </trkpt>
      <trkpt lat="47.32408" lon="-2.29893">
        <ele>82</ele>
        <time>2020-10-25T10:38:22.000Z</time>
      </trkpt>
      <trkpt lat="47.32391" lon="-2.29903">
        <ele>82</ele>
        <time>2020-10-25T10:38:26.000Z</time>
      </trkpt>
      <trkpt lat="47.32383" lon="-2.29896">
        <ele>82</ele>
        <time>2020-10-25T10:38:28.000Z</time>
      </trkpt>
      <trkpt lat="47.32374" lon="-2.29879">
        <ele>82</ele>
        <time>2020-10-25T10:38:31.000Z</time>
      </trkpt>
      <trkpt lat="47.32371" lon="-2.29874">
        <ele>82</ele>
        <time>2020-10-25T10:38:32.000Z</time>
      </trkpt>
      <trkpt lat="47.32369" lon="-2.29868">
        <ele>82</ele>
        <time>2020-10-25T10:38:33.000Z</time>
      </trkpt>
      <trkpt lat="47.32358" lon="-2.29843">
        <ele>82</ele>
        <time>2020-10-25T10:38:37.000Z</time>
      </trkpt>
      <trkpt lat="47.32355" lon="-2.29838">
        <ele>82</ele>
        <time>2020-10-25T10:38:38.000Z</time>
      </trkpt>
      <trkpt lat="47.32342" lon="-2.29814">
        <ele>82</ele>
        <time>2020-10-25T10:38:42.000Z</time>
      </trkpt>
      <trkpt lat="47.32328" lon="-2.29786">
        <ele>81.599998474121</ele>
        <time>2020-10-25T10:38:46.000Z</time>
      </trkpt>
      <trkpt lat="47.32325" lon="-2.29778">
        <ele>81</ele>
        <time>2020-10-25T10:38:47.000Z</time>
      </trkpt>
      <trkpt lat="47.3232" lon="-2.29769">
        <ele>80.599998474121</ele>
        <time>2020-10-25T10:38:48.000Z</time>
      </trkpt>
      <trkpt lat="47.32315" lon="-2.2976">
        <ele>80.199996948242</ele>
        <time>2020-10-25T10:38:49.000Z</time>
      </trkpt>
      <trkpt lat="47.3231" lon="-2.29752">
        <ele>79.800003051758</ele>
        <time>2020-10-25T10:38:50.000Z</time>
      </trkpt>
      <trkpt lat="47.32294" lon="-2.29724">
        <ele>79.400001525879</ele>
        <time>2020-10-25T10:38:53.000Z</time>
      </trkpt>
      <trkpt lat="47.32288" lon="-2.29715">
        <ele>79</ele>
        <time>2020-10-25T10:38:54.000Z</time>
      </trkpt>
      <trkpt lat="47.32283" lon="-2.29705">
        <ele>78.599998474121</ele>
        <time>2020-10-25T10:38:55.000Z</time>
      </trkpt>
      <trkpt lat="47.3228" lon="-2.29697">
        <ele>78.199996948242</ele>
        <time>2020-10-25T10:38:56.000Z</time>
      </trkpt>
      <trkpt lat="47.32276" lon="-2.29688">
        <ele>77.800003051758</ele>
        <time>2020-10-25T10:38:57.000Z</time>
      </trkpt>
      <trkpt lat="47.32267" lon="-2.29674">
        <ele>77.400001525879</ele>
        <time>2020-10-25T10:38:59.000Z</time>
      </trkpt>
      <trkpt lat="47.32262" lon="-2.29669">
        <ele>77</ele>
        <time>2020-10-25T10:39:00.000Z</time>
      </trkpt>
      <trkpt lat="47.32257" lon="-2.29666">
        <ele>76.400001525879</ele>
        <time>2020-10-25T10:39:01.000Z</time>
      </trkpt>
      <trkpt lat="47.32252" lon="-2.29667">
        <ele>76</ele>
        <time>2020-10-25T10:39:02.000Z</time>
      </trkpt>
      <trkpt lat="47.32247" lon="-2.29672">
        <ele>75.599998474121</ele>
        <time>2020-10-25T10:39:03.000Z</time>
      </trkpt>
      <trkpt lat="47.32244" lon="-2.29675">
        <ele>75.599998474121</ele>
        <time>2020-10-25T10:39:04.000Z</time>
      </trkpt>
      <trkpt lat="47.32239" lon="-2.29681">
        <ele>75.599998474121</ele>
        <time>2020-10-25T10:39:05.000Z</time>
      </trkpt>
      <trkpt lat="47.3222" lon="-2.29706">
        <ele>75.599998474121</ele>
        <time>2020-10-25T10:39:09.000Z</time>
      </trkpt>
      <trkpt lat="47.32184" lon="-2.29742">
        <ele>75.599998474121</ele>
        <time>2020-10-25T10:39:16.000Z</time>
      </trkpt>
      <trkpt lat="47.32169" lon="-2.29754">
        <ele>75.199996948242</ele>
        <time>2020-10-25T10:39:19.000Z</time>
      </trkpt>
      <trkpt lat="47.32165" lon="-2.29758">
        <ele>74.800003051758</ele>
        <time>2020-10-25T10:39:20.000Z</time>
      </trkpt>
      <trkpt lat="47.3216" lon="-2.29762">
        <ele>74.400001525879</ele>
        <time>2020-10-25T10:39:21.000Z</time>
      </trkpt>
      <trkpt lat="47.32155" lon="-2.29767">
        <ele>74</ele>
        <time>2020-10-25T10:39:22.000Z</time>
      </trkpt>
      <trkpt lat="47.32151" lon="-2.29772">
        <ele>73.599998474121</ele>
        <time>2020-10-25T10:39:23.000Z</time>
      </trkpt>
      <trkpt lat="47.32133" lon="-2.29786">
        <ele>73.599998474121</ele>
        <time>2020-10-25T10:39:27.000Z</time>
      </trkpt>
      <trkpt lat="47.32129" lon="-2.29786">
        <ele>73.599998474121</ele>
        <time>2020-10-25T10:39:28.000Z</time>
      </trkpt>
      <trkpt lat="47.32128" lon="-2.29782">
        <ele>73.599998474121</ele>
        <time>2020-10-25T10:39:29.000Z</time>
      </trkpt>
      <trkpt lat="47.32124" lon="-2.29771">
        <ele>73.599998474121</ele>
        <time>2020-10-25T10:39:31.000Z</time>
      </trkpt>
      <trkpt lat="47.32119" lon="-2.29756">
        <ele>73.599998474121</ele>
        <time>2020-10-25T10:39:33.000Z</time>
      </trkpt>
      <trkpt lat="47.32114" lon="-2.29734">
        <ele>73.599998474121</ele>
        <time>2020-10-25T10:39:36.000Z</time>
      </trkpt>
      <trkpt lat="47.32101" lon="-2.29684">
        <ele>74</ele>
        <time>2020-10-25T10:39:43.000Z</time>
      </trkpt>
      <trkpt lat="47.321" lon="-2.29678">
        <ele>74.400001525879</ele>
        <time>2020-10-25T10:39:44.000Z</time>
      </trkpt>
      <trkpt lat="47.32098" lon="-2.29671">
        <ele>74.800003051758</ele>
        <time>2020-10-25T10:39:45.000Z</time>
      </trkpt>
      <trkpt lat="47.32097" lon="-2.29663">
        <ele>75.199996948242</ele>
        <time>2020-10-25T10:39:46.000Z</time>
      </trkpt>
      <trkpt lat="47.32095" lon="-2.29656">
        <ele>75.599998474121</ele>
        <time>2020-10-25T10:39:47.000Z</time>
      </trkpt>
      <trkpt lat="47.32087" lon="-2.29625">
        <ele>75.599998474121</ele>
        <time>2020-10-25T10:39:51.000Z</time>
      </trkpt>
      <trkpt lat="47.32075" lon="-2.29577">
        <ele>75.599998474121</ele>
        <time>2020-10-25T10:39:57.000Z</time>
      </trkpt>
      <trkpt lat="47.32065" lon="-2.29534">
        <ele>75.599998474121</ele>
        <time>2020-10-25T10:40:03.000Z</time>
      </trkpt>
      <trkpt lat="47.32063" lon="-2.29527">
        <ele>75.599998474121</ele>
        <time>2020-10-25T10:40:04.000Z</time>
      </trkpt>
      <trkpt lat="47.32051" lon="-2.29475">
        <ele>75.599998474121</ele>
        <time>2020-10-25T10:40:11.000Z</time>
      </trkpt>
      <trkpt lat="47.32036" lon="-2.29441">
        <ele>75.599998474121</ele>
        <time>2020-10-25T10:40:18.000Z</time>
      </trkpt>
      <trkpt lat="47.32026" lon="-2.29453">
        <ele>75.599998474121</ele>
        <time>2020-10-25T10:40:21.000Z</time>
      </trkpt>
      <trkpt lat="47.31994" lon="-2.2949">
        <ele>75.599998474121</ele>
        <time>2020-10-25T10:40:29.000Z</time>
      </trkpt>
      <trkpt lat="47.31964" lon="-2.29521">
        <ele>75.599998474121</ele>
        <time>2020-10-25T10:40:36.000Z</time>
      </trkpt>
      <trkpt lat="47.3193" lon="-2.29553">
        <ele>75.599998474121</ele>
        <time>2020-10-25T10:40:43.000Z</time>
      </trkpt>
      <trkpt lat="47.31911" lon="-2.2957">
        <ele>75.599998474121</ele>
        <time>2020-10-25T10:40:47.000Z</time>
      </trkpt>
      <trkpt lat="47.31906" lon="-2.29574">
        <ele>76</ele>
        <time>2020-10-25T10:40:48.000Z</time>
      </trkpt>
      <trkpt lat="47.31901" lon="-2.29579">
        <ele>76.400001525879</ele>
        <time>2020-10-25T10:40:49.000Z</time>
      </trkpt>
      <trkpt lat="47.31897" lon="-2.29583">
        <ele>76.800003051758</ele>
        <time>2020-10-25T10:40:50.000Z</time>
      </trkpt>
      <trkpt lat="47.31893" lon="-2.29587">
        <ele>77.400001525879</ele>
        <time>2020-10-25T10:40:51.000Z</time>
      </trkpt>
      <trkpt lat="47.31888" lon="-2.29591">
        <ele>77.800003051758</ele>
        <time>2020-10-25T10:40:52.000Z</time>
      </trkpt>
      <trkpt lat="47.31873" lon="-2.29609">
        <ele>77.800003051758</ele>
        <time>2020-10-25T10:40:56.000Z</time>
      </trkpt>
      <trkpt lat="47.31866" lon="-2.29617">
        <ele>77.800003051758</ele>
        <time>2020-10-25T10:40:58.000Z</time>
      </trkpt>
      <trkpt lat="47.31857" lon="-2.29629">
        <ele>77.800003051758</ele>
        <time>2020-10-25T10:41:01.000Z</time>
      </trkpt>
      <trkpt lat="47.31853" lon="-2.29631">
        <ele>77.800003051758</ele>
        <time>2020-10-25T10:41:02.000Z</time>
      </trkpt>
      <trkpt lat="47.31836" lon="-2.29637">
        <ele>77.800003051758</ele>
        <time>2020-10-25T10:41:06.000Z</time>
      </trkpt>
      <trkpt lat="47.31828" lon="-2.29641">
        <ele>77.800003051758</ele>
        <time>2020-10-25T10:41:08.000Z</time>
      </trkpt>
      <trkpt lat="47.31802" lon="-2.29658">
        <ele>77.800003051758</ele>
        <time>2020-10-25T10:41:15.000Z</time>
      </trkpt>
      <trkpt lat="47.31778" lon="-2.29675">
        <ele>77.800003051758</ele>
        <time>2020-10-25T10:41:22.000Z</time>
      </trkpt>
      <trkpt lat="47.31771" lon="-2.2968">
        <ele>78.199996948242</ele>
        <time>2020-10-25T10:41:24.000Z</time>
      </trkpt>
      <trkpt lat="47.31767" lon="-2.29682">
        <ele>78.599998474121</ele>
        <time>2020-10-25T10:41:25.000Z</time>
      </trkpt>
      <trkpt lat="47.31764" lon="-2.29685">
        <ele>79</ele>
        <time>2020-10-25T10:41:26.000Z</time>
      </trkpt>
      <trkpt lat="47.31761" lon="-2.29688">
        <ele>79.400001525879</ele>
        <time>2020-10-25T10:41:27.000Z</time>
      </trkpt>
      <trkpt lat="47.31757" lon="-2.29691">
        <ele>79.800003051758</ele>
        <time>2020-10-25T10:41:28.000Z</time>
      </trkpt>
      <trkpt lat="47.31751" lon="-2.29695">
        <ele>79.800003051758</ele>
        <time>2020-10-25T10:41:30.000Z</time>
      </trkpt>
      <trkpt lat="47.31726" lon="-2.29717">
        <ele>79.800003051758</ele>
        <time>2020-10-25T10:41:38.000Z</time>
      </trkpt>
      <trkpt lat="47.31708" lon="-2.29733">
        <ele>79.800003051758</ele>
        <time>2020-10-25T10:41:45.000Z</time>
      </trkpt>
      <trkpt lat="47.3169" lon="-2.29737">
        <ele>79.800003051758</ele>
        <time>2020-10-25T10:41:50.000Z</time>
      </trkpt>
      <trkpt lat="47.31667" lon="-2.29737">
        <ele>79.800003051758</ele>
        <time>2020-10-25T10:41:56.000Z</time>
      </trkpt>
      <trkpt lat="47.31657" lon="-2.29727">
        <ele>79.800003051758</ele>
        <time>2020-10-25T10:41:59.000Z</time>
      </trkpt>
      <trkpt lat="47.31655" lon="-2.29722">
        <ele>79.800003051758</ele>
        <time>2020-10-25T10:42:00.000Z</time>
      </trkpt>
      <trkpt lat="47.31645" lon="-2.29686">
        <ele>79.800003051758</ele>
        <time>2020-10-25T10:42:06.000Z</time>
      </trkpt>
      <trkpt lat="47.31633" lon="-2.29655">
        <ele>79.800003051758</ele>
        <time>2020-10-25T10:42:12.000Z</time>
      </trkpt>
      <trkpt lat="47.31627" lon="-2.29642">
        <ele>79.800003051758</ele>
        <time>2020-10-25T10:42:17.000Z</time>
      </trkpt>
      <trkpt lat="47.31619" lon="-2.29625">
        <ele>79.800003051758</ele>
        <time>2020-10-25T10:42:21.000Z</time>
      </trkpt>
      <trkpt lat="47.31599" lon="-2.29603">
        <ele>79.800003051758</ele>
        <time>2020-10-25T10:42:27.000Z</time>
      </trkpt>
      <trkpt lat="47.31575" lon="-2.29574">
        <ele>79.800003051758</ele>
        <time>2020-10-25T10:42:33.000Z</time>
      </trkpt>
      <trkpt lat="47.31558" lon="-2.29546">
        <ele>79.800003051758</ele>
        <time>2020-10-25T10:42:38.000Z</time>
      </trkpt>
      <trkpt lat="47.31555" lon="-2.2954">
        <ele>79.800003051758</ele>
        <time>2020-10-25T10:42:39.000Z</time>
      </trkpt>
      <trkpt lat="47.31547" lon="-2.2952">
        <ele>79.800003051758</ele>
        <time>2020-10-25T10:42:42.000Z</time>
      </trkpt>
      <trkpt lat="47.31543" lon="-2.29499">
        <ele>79.800003051758</ele>
        <time>2020-10-25T10:42:45.000Z</time>
      </trkpt>
      <trkpt lat="47.31534" lon="-2.29463">
        <ele>79.800003051758</ele>
        <time>2020-10-25T10:42:50.000Z</time>
      </trkpt>
      <trkpt lat="47.31524" lon="-2.29434">
        <ele>79.400001525879</ele>
        <time>2020-10-25T10:42:54.000Z</time>
      </trkpt>
      <trkpt lat="47.31521" lon="-2.29428">
        <ele>79</ele>
        <time>2020-10-25T10:42:55.000Z</time>
      </trkpt>
      <trkpt lat="47.31519" lon="-2.29422">
        <ele>78.599998474121</ele>
        <time>2020-10-25T10:42:56.000Z</time>
      </trkpt>
      <trkpt lat="47.31516" lon="-2.29416">
        <ele>78.199996948242</ele>
        <time>2020-10-25T10:42:57.000Z</time>
      </trkpt>
      <trkpt lat="47.31513" lon="-2.2941">
        <ele>77.800003051758</ele>
        <time>2020-10-25T10:42:58.000Z</time>
      </trkpt>
      <trkpt lat="47.31502" lon="-2.294">
        <ele>77.800003051758</ele>
        <time>2020-10-25T10:43:01.000Z</time>
      </trkpt>
      <trkpt lat="47.31494" lon="-2.29399">
        <ele>77.800003051758</ele>
        <time>2020-10-25T10:43:03.000Z</time>
      </trkpt>
      <trkpt lat="47.31489" lon="-2.294">
        <ele>77.800003051758</ele>
        <time>2020-10-25T10:43:04.000Z</time>
      </trkpt>
      <trkpt lat="47.31485" lon="-2.29401">
        <ele>77.800003051758</ele>
        <time>2020-10-25T10:43:05.000Z</time>
      </trkpt>
      <trkpt lat="47.31472" lon="-2.29406">
        <ele>77.800003051758</ele>
        <time>2020-10-25T10:43:08.000Z</time>
      </trkpt>
      <trkpt lat="47.31462" lon="-2.29405">
        <ele>77.800003051758</ele>
        <time>2020-10-25T10:43:10.000Z</time>
      </trkpt>
      <trkpt lat="47.3145" lon="-2.29391">
        <ele>77.800003051758</ele>
        <time>2020-10-25T10:43:13.000Z</time>
      </trkpt>
      <trkpt lat="47.31446" lon="-2.29384">
        <ele>77.400001525879</ele>
        <time>2020-10-25T10:43:14.000Z</time>
      </trkpt>
      <trkpt lat="47.31442" lon="-2.29378">
        <ele>77</ele>
        <time>2020-10-25T10:43:15.000Z</time>
      </trkpt>
      <trkpt lat="47.31437" lon="-2.29372">
        <ele>76.599998474121</ele>
        <time>2020-10-25T10:43:16.000Z</time>
      </trkpt>
      <trkpt lat="47.31432" lon="-2.29365">
        <ele>76</ele>
        <time>2020-10-25T10:43:17.000Z</time>
      </trkpt>
      <trkpt lat="47.31427" lon="-2.29359">
        <ele>75.599998474121</ele>
        <time>2020-10-25T10:43:18.000Z</time>
      </trkpt>
      <trkpt lat="47.31406" lon="-2.29337">
        <ele>75.599998474121</ele>
        <time>2020-10-25T10:43:22.000Z</time>
      </trkpt>
      <trkpt lat="47.31399" lon="-2.29332">
        <ele>75.599998474121</ele>
        <time>2020-10-25T10:43:23.000Z</time>
      </trkpt>
      <trkpt lat="47.31363" lon="-2.29314">
        <ele>75.599998474121</ele>
        <time>2020-10-25T10:43:29.000Z</time>
      </trkpt>
      <trkpt lat="47.31325" lon="-2.293">
        <ele>75.599998474121</ele>
        <time>2020-10-25T10:43:35.000Z</time>
      </trkpt>
      <trkpt lat="47.31319" lon="-2.29299">
        <ele>75.199996948242</ele>
        <time>2020-10-25T10:43:36.000Z</time>
      </trkpt>
      <trkpt lat="47.31312" lon="-2.29299">
        <ele>74.800003051758</ele>
        <time>2020-10-25T10:43:37.000Z</time>
      </trkpt>
      <trkpt lat="47.31307" lon="-2.293">
        <ele>74.400001525879</ele>
        <time>2020-10-25T10:43:38.000Z</time>
      </trkpt>
      <trkpt lat="47.31301" lon="-2.29301">
        <ele>74</ele>
        <time>2020-10-25T10:43:39.000Z</time>
      </trkpt>
      <trkpt lat="47.31296" lon="-2.29304">
        <ele>73.599998474121</ele>
        <time>2020-10-25T10:43:40.000Z</time>
      </trkpt>
      <trkpt lat="47.31282" lon="-2.29319">
        <ele>73.599998474121</ele>
        <time>2020-10-25T10:43:43.000Z</time>
      </trkpt>
      <trkpt lat="47.31279" lon="-2.29325">
        <ele>73.599998474121</ele>
        <time>2020-10-25T10:43:44.000Z</time>
      </trkpt>
      <trkpt lat="47.31264" lon="-2.29356">
        <ele>73.599998474121</ele>
        <time>2020-10-25T10:43:49.000Z</time>
      </trkpt>
      <trkpt lat="47.31257" lon="-2.29376">
        <ele>73.599998474121</ele>
        <time>2020-10-25T10:43:52.000Z</time>
      </trkpt>
      <trkpt lat="47.31246" lon="-2.2939">
        <ele>73.599998474121</ele>
        <time>2020-10-25T10:43:55.000Z</time>
      </trkpt>
      <trkpt lat="47.31232" lon="-2.29402">
        <ele>73.599998474121</ele>
        <time>2020-10-25T10:43:58.000Z</time>
      </trkpt>
      <trkpt lat="47.31221" lon="-2.29409">
        <ele>73.599998474121</ele>
        <time>2020-10-25T10:44:00.000Z</time>
      </trkpt>
      <trkpt lat="47.31185" lon="-2.29434">
        <ele>73.599998474121</ele>
        <time>2020-10-25T10:44:06.000Z</time>
      </trkpt>
      <trkpt lat="47.31161" lon="-2.29453">
        <ele>73.199996948242</ele>
        <time>2020-10-25T10:44:10.000Z</time>
      </trkpt>
      <trkpt lat="47.31155" lon="-2.29458">
        <ele>72.800003051758</ele>
        <time>2020-10-25T10:44:11.000Z</time>
      </trkpt>
      <trkpt lat="47.3115" lon="-2.29463">
        <ele>72.400001525879</ele>
        <time>2020-10-25T10:44:12.000Z</time>
      </trkpt>
      <trkpt lat="47.31146" lon="-2.2947">
        <ele>72</ele>
        <time>2020-10-25T10:44:13.000Z</time>
      </trkpt>
      <trkpt lat="47.31143" lon="-2.29478">
        <ele>71.400001525879</ele>
        <time>2020-10-25T10:44:14.000Z</time>
      </trkpt>
      <trkpt lat="47.31144" lon="-2.29493">
        <ele>71.400001525879</ele>
        <time>2020-10-25T10:44:16.000Z</time>
      </trkpt>
      <trkpt lat="47.31149" lon="-2.29507">
        <ele>71.400001525879</ele>
        <time>2020-10-25T10:44:18.000Z</time>
      </trkpt>
      <trkpt lat="47.31156" lon="-2.29527">
        <ele>71.400001525879</ele>
        <time>2020-10-25T10:44:21.000Z</time>
      </trkpt>
      <trkpt lat="47.31167" lon="-2.29566">
        <ele>71.400001525879</ele>
        <time>2020-10-25T10:44:26.000Z</time>
      </trkpt>
      <trkpt lat="47.31167" lon="-2.29574">
        <ele>71.400001525879</ele>
        <time>2020-10-25T10:44:27.000Z</time>
      </trkpt>
      <trkpt lat="47.31157" lon="-2.29592">
        <ele>71.400001525879</ele>
        <time>2020-10-25T10:44:30.000Z</time>
      </trkpt>
      <trkpt lat="47.31138" lon="-2.29606">
        <ele>71.400001525879</ele>
        <time>2020-10-25T10:44:34.000Z</time>
      </trkpt>
      <trkpt lat="47.31127" lon="-2.29615">
        <ele>71.400001525879</ele>
        <time>2020-10-25T10:44:36.000Z</time>
      </trkpt>
      <trkpt lat="47.31103" lon="-2.29639">
        <ele>71.400001525879</ele>
        <time>2020-10-25T10:44:41.000Z</time>
      </trkpt>
      <trkpt lat="47.31078" lon="-2.29669">
        <ele>71.400001525879</ele>
        <time>2020-10-25T10:44:47.000Z</time>
      </trkpt>
      <trkpt lat="47.31061" lon="-2.29688">
        <ele>71.400001525879</ele>
        <time>2020-10-25T10:44:51.000Z</time>
      </trkpt>
      <trkpt lat="47.31053" lon="-2.29694">
        <ele>71.400001525879</ele>
        <time>2020-10-25T10:44:53.000Z</time>
      </trkpt>
      <trkpt lat="47.31037" lon="-2.29695">
        <ele>71.400001525879</ele>
        <time>2020-10-25T10:44:57.000Z</time>
      </trkpt>
      <trkpt lat="47.31026" lon="-2.29672">
        <ele>71.400001525879</ele>
        <time>2020-10-25T10:45:01.000Z</time>
      </trkpt>
      <trkpt lat="47.31009" lon="-2.29623">
        <ele>71.400001525879</ele>
        <time>2020-10-25T10:45:08.000Z</time>
      </trkpt>
      <trkpt lat="47.31005" lon="-2.29616">
        <ele>71.400001525879</ele>
        <time>2020-10-25T10:45:09.000Z</time>
      </trkpt>
      <trkpt lat="47.30983" lon="-2.2959">
        <ele>71.400001525879</ele>
        <time>2020-10-25T10:45:14.000Z</time>
      </trkpt>
      <trkpt lat="47.30978" lon="-2.29586">
        <ele>71.400001525879</ele>
        <time>2020-10-25T10:45:15.000Z</time>
      </trkpt>
      <trkpt lat="47.30972" lon="-2.29584">
        <ele>71.400001525879</ele>
        <time>2020-10-25T10:45:16.000Z</time>
      </trkpt>
      <trkpt lat="47.30955" lon="-2.29579">
        <ele>71.400001525879</ele>
        <time>2020-10-25T10:45:19.000Z</time>
      </trkpt>
      <trkpt lat="47.30908" lon="-2.29565">
        <ele>71.400001525879</ele>
        <time>2020-10-25T10:45:27.000Z</time>
      </trkpt>
      <trkpt lat="47.30853" lon="-2.29549">
        <ele>71.400001525879</ele>
        <time>2020-10-25T10:45:36.000Z</time>
      </trkpt>
      <trkpt lat="47.30827" lon="-2.29544">
        <ele>71.400001525879</ele>
        <time>2020-10-25T10:45:40.000Z</time>
      </trkpt>
      <trkpt lat="47.30814" lon="-2.29547">
        <ele>71.400001525879</ele>
        <time>2020-10-25T10:45:42.000Z</time>
      </trkpt>
      <trkpt lat="47.30769" lon="-2.2956">
        <ele>71.400001525879</ele>
        <time>2020-10-25T10:45:49.000Z</time>
      </trkpt>
      <trkpt lat="47.30757" lon="-2.29565">
        <ele>71.400001525879</ele>
        <time>2020-10-25T10:45:51.000Z</time>
      </trkpt>
      <trkpt lat="47.30729" lon="-2.29575">
        <ele>71.400001525879</ele>
        <time>2020-10-25T10:45:55.000Z</time>
      </trkpt>
      <trkpt lat="47.30688" lon="-2.29589">
        <ele>71.400001525879</ele>
        <time>2020-10-25T10:46:01.000Z</time>
      </trkpt>
      <trkpt lat="47.30675" lon="-2.29593">
        <ele>71</ele>
        <time>2020-10-25T10:46:03.000Z</time>
      </trkpt>
      <trkpt lat="47.30668" lon="-2.29595">
        <ele>70.599998474121</ele>
        <time>2020-10-25T10:46:04.000Z</time>
      </trkpt>
      <trkpt lat="47.30662" lon="-2.29597">
        <ele>70</ele>
        <time>2020-10-25T10:46:05.000Z</time>
      </trkpt>
      <trkpt lat="47.30655" lon="-2.29599">
        <ele>69.599998474121</ele>
        <time>2020-10-25T10:46:06.000Z</time>
      </trkpt>
      <trkpt lat="47.30648" lon="-2.29601">
        <ele>69</ele>
        <time>2020-10-25T10:46:07.000Z</time>
      </trkpt>
      <trkpt lat="47.30597" lon="-2.29616">
        <ele>69</ele>
        <time>2020-10-25T10:46:15.000Z</time>
      </trkpt>
      <trkpt lat="47.30555" lon="-2.29629">
        <ele>69</ele>
        <time>2020-10-25T10:46:22.000Z</time>
      </trkpt>
      <trkpt lat="47.30519" lon="-2.29641">
        <ele>69</ele>
        <time>2020-10-25T10:46:28.000Z</time>
      </trkpt>
      <trkpt lat="47.30477" lon="-2.29654">
        <ele>69</ele>
        <time>2020-10-25T10:46:35.000Z</time>
      </trkpt>
      <trkpt lat="47.3047" lon="-2.29656">
        <ele>69</ele>
        <time>2020-10-25T10:46:36.000Z</time>
      </trkpt>
      <trkpt lat="47.30445" lon="-2.29664">
        <ele>69</ele>
        <time>2020-10-25T10:46:40.000Z</time>
      </trkpt>
      <trkpt lat="47.30399" lon="-2.29678">
        <ele>69</ele>
        <time>2020-10-25T10:46:47.000Z</time>
      </trkpt>
      <trkpt lat="47.30361" lon="-2.2969">
        <ele>69</ele>
        <time>2020-10-25T10:46:53.000Z</time>
      </trkpt>
      <trkpt lat="47.30324" lon="-2.29703">
        <ele>69</ele>
        <time>2020-10-25T10:46:59.000Z</time>
      </trkpt>
      <trkpt lat="47.30285" lon="-2.29715">
        <ele>69</ele>
        <time>2020-10-25T10:47:06.000Z</time>
      </trkpt>
      <trkpt lat="47.30267" lon="-2.2972">
        <ele>69</ele>
        <time>2020-10-25T10:47:09.000Z</time>
      </trkpt>
      <trkpt lat="47.30254" lon="-2.29719">
        <ele>69</ele>
        <time>2020-10-25T10:47:11.000Z</time>
      </trkpt>
      <trkpt lat="47.30223" lon="-2.29704">
        <ele>69</ele>
        <time>2020-10-25T10:47:16.000Z</time>
      </trkpt>
      <trkpt lat="47.30188" lon="-2.29684">
        <ele>69</ele>
        <time>2020-10-25T10:47:22.000Z</time>
      </trkpt>
      <trkpt lat="47.30167" lon="-2.29672">
        <ele>69</ele>
        <time>2020-10-25T10:47:26.000Z</time>
      </trkpt>
      <trkpt lat="47.30153" lon="-2.29665">
        <ele>69</ele>
        <time>2020-10-25T10:47:29.000Z</time>
      </trkpt>
      <trkpt lat="47.30138" lon="-2.2966">
        <ele>69</ele>
        <time>2020-10-25T10:47:32.000Z</time>
      </trkpt>
      <trkpt lat="47.30123" lon="-2.29658">
        <ele>69</ele>
        <time>2020-10-25T10:47:35.000Z</time>
      </trkpt>
      <trkpt lat="47.30094" lon="-2.29648">
        <ele>69</ele>
        <time>2020-10-25T10:47:41.000Z</time>
      </trkpt>
      <trkpt lat="47.30052" lon="-2.29636">
        <ele>69</ele>
        <time>2020-10-25T10:47:50.000Z</time>
      </trkpt>
      <trkpt lat="47.30015" lon="-2.29635">
        <ele>69</ele>
        <time>2020-10-25T10:47:58.000Z</time>
      </trkpt>
      <trkpt lat="47.29977" lon="-2.29637">
        <ele>69</ele>
        <time>2020-10-25T10:48:06.000Z</time>
      </trkpt>
      <trkpt lat="47.29947" lon="-2.29645">
        <ele>69</ele>
        <time>2020-10-25T10:48:13.000Z</time>
      </trkpt>
      <trkpt lat="47.29923" lon="-2.29658">
        <ele>69</ele>
        <time>2020-10-25T10:48:19.000Z</time>
      </trkpt>
      <trkpt lat="47.29919" lon="-2.29661">
        <ele>69</ele>
        <time>2020-10-25T10:48:20.000Z</time>
      </trkpt>
      <trkpt lat="47.29916" lon="-2.29665">
        <ele>69</ele>
        <time>2020-10-25T10:48:21.000Z</time>
      </trkpt>
      <trkpt lat="47.29908" lon="-2.2968">
        <ele>69</ele>
        <time>2020-10-25T10:48:24.000Z</time>
      </trkpt>
      <trkpt lat="47.29908" lon="-2.29687">
        <ele>69.400001525879</ele>
        <time>2020-10-25T10:48:25.000Z</time>
      </trkpt>
      <trkpt lat="47.29908" lon="-2.29694">
        <ele>69.800003051758</ele>
        <time>2020-10-25T10:48:26.000Z</time>
      </trkpt>
      <trkpt lat="47.29909" lon="-2.29701">
        <ele>70.199996948242</ele>
        <time>2020-10-25T10:48:27.000Z</time>
      </trkpt>
      <trkpt lat="47.29911" lon="-2.29707">
        <ele>70.599998474121</ele>
        <time>2020-10-25T10:48:28.000Z</time>
      </trkpt>
      <trkpt lat="47.29913" lon="-2.29714">
        <ele>71</ele>
        <time>2020-10-25T10:48:29.000Z</time>
      </trkpt>
      <trkpt lat="47.2992" lon="-2.29735">
        <ele>71</ele>
        <time>2020-10-25T10:48:32.000Z</time>
      </trkpt>
      <trkpt lat="47.29934" lon="-2.29782">
        <ele>71</ele>
        <time>2020-10-25T10:48:38.000Z</time>
      </trkpt>
      <trkpt lat="47.29938" lon="-2.29796">
        <ele>71</ele>
        <time>2020-10-25T10:48:40.000Z</time>
      </trkpt>
      <trkpt lat="47.29939" lon="-2.29808">
        <ele>71</ele>
        <time>2020-10-25T10:48:42.000Z</time>
      </trkpt>
      <trkpt lat="47.29932" lon="-2.29817">
        <ele>70.599998474121</ele>
        <time>2020-10-25T10:48:45.000Z</time>
      </trkpt>
      <trkpt lat="47.29929" lon="-2.29819">
        <ele>70.199996948242</ele>
        <time>2020-10-25T10:48:46.000Z</time>
      </trkpt>
      <trkpt lat="47.29925" lon="-2.29821">
        <ele>69.400001525879</ele>
        <time>2020-10-25T10:48:47.000Z</time>
      </trkpt>
      <trkpt lat="47.29921" lon="-2.29823">
        <ele>69</ele>
        <time>2020-10-25T10:48:48.000Z</time>
      </trkpt>
      <trkpt lat="47.29917" lon="-2.29826">
        <ele>69</ele>
        <time>2020-10-25T10:48:49.000Z</time>
      </trkpt>
      <trkpt lat="47.29914" lon="-2.2983">
        <ele>69</ele>
        <time>2020-10-25T10:48:50.000Z</time>
      </trkpt>
      <trkpt lat="47.29904" lon="-2.29842">
        <ele>69</ele>
        <time>2020-10-25T10:48:53.000Z</time>
      </trkpt>
      <trkpt lat="47.29902" lon="-2.29854">
        <ele>69</ele>
        <time>2020-10-25T10:48:55.000Z</time>
      </trkpt>
      <trkpt lat="47.29903" lon="-2.29882">
        <ele>69</ele>
        <time>2020-10-25T10:48:59.000Z</time>
      </trkpt>
      <trkpt lat="47.29904" lon="-2.29889">
        <ele>69</ele>
        <time>2020-10-25T10:49:00.000Z</time>
      </trkpt>
      <trkpt lat="47.29907" lon="-2.29921">
        <ele>69</ele>
        <time>2020-10-25T10:49:04.000Z</time>
      </trkpt>
      <trkpt lat="47.29905" lon="-2.2993">
        <ele>69</ele>
        <time>2020-10-25T10:49:05.000Z</time>
      </trkpt>
      <trkpt lat="47.29893" lon="-2.29942">
        <ele>69</ele>
        <time>2020-10-25T10:49:08.000Z</time>
      </trkpt>
      <trkpt lat="47.29888" lon="-2.29943">
        <ele>69</ele>
        <time>2020-10-25T10:49:09.000Z</time>
      </trkpt>
      <trkpt lat="47.2985" lon="-2.29953">
        <ele>69</ele>
        <time>2020-10-25T10:49:17.000Z</time>
      </trkpt>
      <trkpt lat="47.2984" lon="-2.29955">
        <ele>69</ele>
        <time>2020-10-25T10:49:19.000Z</time>
      </trkpt>
      <trkpt lat="47.29819" lon="-2.29956">
        <ele>69</ele>
        <time>2020-10-25T10:49:23.000Z</time>
      </trkpt>
      <trkpt lat="47.29787" lon="-2.29955">
        <ele>69</ele>
        <time>2020-10-25T10:49:29.000Z</time>
      </trkpt>
      <trkpt lat="47.29768" lon="-2.29968">
        <ele>69</ele>
        <time>2020-10-25T10:49:33.000Z</time>
      </trkpt>
      <trkpt lat="47.29753" lon="-2.29978">
        <ele>69</ele>
        <time>2020-10-25T10:49:36.000Z</time>
      </trkpt>
      <trkpt lat="47.29734" lon="-2.2999">
        <ele>69</ele>
        <time>2020-10-25T10:49:40.000Z</time>
      </trkpt>
      <trkpt lat="47.29714" lon="-2.3">
        <ele>69</ele>
        <time>2020-10-25T10:49:44.000Z</time>
      </trkpt>
      <trkpt lat="47.29704" lon="-2.30001">
        <ele>69</ele>
        <time>2020-10-25T10:49:46.000Z</time>
      </trkpt>
      <trkpt lat="47.29693" lon="-2.30001">
        <ele>69</ele>
        <time>2020-10-25T10:49:48.000Z</time>
      </trkpt>
      <trkpt lat="47.29671" lon="-2.29999">
        <ele>69</ele>
        <time>2020-10-25T10:49:52.000Z</time>
      </trkpt>
      <trkpt lat="47.29653" lon="-2.29988">
        <ele>69</ele>
        <time>2020-10-25T10:49:56.000Z</time>
      </trkpt>
      <trkpt lat="47.29645" lon="-2.29983">
        <ele>69</ele>
        <time>2020-10-25T10:49:58.000Z</time>
      </trkpt>
      <trkpt lat="47.29641" lon="-2.29984">
        <ele>69</ele>
        <time>2020-10-25T10:49:59.000Z</time>
      </trkpt>
      <trkpt lat="47.29623" lon="-2.29998">
        <ele>69</ele>
        <time>2020-10-25T10:50:03.000Z</time>
      </trkpt>
      <trkpt lat="47.29618" lon="-2.3">
        <ele>69</ele>
        <time>2020-10-25T10:50:04.000Z</time>
      </trkpt>
      <trkpt lat="47.29601" lon="-2.30007">
        <ele>69</ele>
        <time>2020-10-25T10:50:07.000Z</time>
      </trkpt>
      <trkpt lat="47.29559" lon="-2.3002">
        <ele>69</ele>
        <time>2020-10-25T10:50:14.000Z</time>
      </trkpt>
      <trkpt lat="47.29532" lon="-2.3003">
        <ele>69</ele>
        <time>2020-10-25T10:50:19.000Z</time>
      </trkpt>
      <trkpt lat="47.29526" lon="-2.3003">
        <ele>69</ele>
        <time>2020-10-25T10:50:20.000Z</time>
      </trkpt>
      <trkpt lat="47.29508" lon="-2.30026">
        <ele>69</ele>
        <time>2020-10-25T10:50:24.000Z</time>
      </trkpt>
      <trkpt lat="47.29491" lon="-2.30029">
        <ele>69</ele>
        <time>2020-10-25T10:50:28.000Z</time>
      </trkpt>
      <trkpt lat="47.29487" lon="-2.30029">
        <ele>69</ele>
        <time>2020-10-25T10:50:29.000Z</time>
      </trkpt>
      <trkpt lat="47.29482" lon="-2.30029">
        <ele>69</ele>
        <time>2020-10-25T10:50:30.000Z</time>
      </trkpt>
      <trkpt lat="47.29449" lon="-2.30031">
        <ele>69</ele>
        <time>2020-10-25T10:50:37.000Z</time>
      </trkpt>
      <trkpt lat="47.29434" lon="-2.3003">
        <ele>69</ele>
        <time>2020-10-25T10:50:40.000Z</time>
      </trkpt>
      <trkpt lat="47.2942" lon="-2.3003">
        <ele>69</ele>
        <time>2020-10-25T10:50:43.000Z</time>
      </trkpt>
      <trkpt lat="47.29411" lon="-2.3003">
        <ele>69.400001525879</ele>
        <time>2020-10-25T10:50:45.000Z</time>
      </trkpt>
      <trkpt lat="47.29407" lon="-2.30029">
        <ele>69.800003051758</ele>
        <time>2020-10-25T10:50:46.000Z</time>
      </trkpt>
      <trkpt lat="47.29403" lon="-2.30028">
        <ele>70.199996948242</ele>
        <time>2020-10-25T10:50:47.000Z</time>
      </trkpt>
      <trkpt lat="47.29398" lon="-2.30026">
        <ele>70.599998474121</ele>
        <time>2020-10-25T10:50:48.000Z</time>
      </trkpt>
      <trkpt lat="47.29394" lon="-2.30025">
        <ele>71</ele>
        <time>2020-10-25T10:50:49.000Z</time>
      </trkpt>
      <trkpt lat="47.29382" lon="-2.30022">
        <ele>71</ele>
        <time>2020-10-25T10:50:52.000Z</time>
      </trkpt>
      <trkpt lat="47.29378" lon="-2.30021">
        <ele>71</ele>
        <time>2020-10-25T10:50:53.000Z</time>
      </trkpt>
      <trkpt lat="47.29375" lon="-2.30019">
        <ele>71</ele>
        <time>2020-10-25T10:50:54.000Z</time>
      </trkpt>
      <trkpt lat="47.29353" lon="-2.30008">
        <ele>71</ele>
        <time>2020-10-25T10:51:01.000Z</time>
      </trkpt>
      <trkpt lat="47.29346" lon="-2.30008">
        <ele>71</ele>
        <time>2020-10-25T10:51:04.000Z</time>
      </trkpt>
      <trkpt lat="47.29346" lon="-2.3001">
        <ele>71</ele>
        <time>2020-10-25T10:51:05.000Z</time>
      </trkpt>
      <trkpt lat="47.29343" lon="-2.30034">
        <ele>71</ele>
        <time>2020-10-25T10:51:10.000Z</time>
      </trkpt>
      <trkpt lat="47.29341" lon="-2.30065">
        <ele>71</ele>
        <time>2020-10-25T10:51:15.000Z</time>
      </trkpt>
      <trkpt lat="47.29334" lon="-2.30111">
        <ele>71</ele>
        <time>2020-10-25T10:51:22.000Z</time>
      </trkpt>
      <trkpt lat="47.29331" lon="-2.30122">
        <ele>71</ele>
        <time>2020-10-25T10:51:24.000Z</time>
      </trkpt>
      <trkpt lat="47.29325" lon="-2.30136">
        <ele>71</ele>
        <time>2020-10-25T10:51:27.000Z</time>
      </trkpt>
      <trkpt lat="47.29322" lon="-2.30138">
        <ele>71</ele>
        <time>2020-10-25T10:51:28.000Z</time>
      </trkpt>
      <trkpt lat="47.29314" lon="-2.30138">
        <ele>71</ele>
        <time>2020-10-25T10:51:30.000Z</time>
      </trkpt>
      <trkpt lat="47.29285" lon="-2.30139">
        <ele>71</ele>
        <time>2020-10-25T10:51:37.000Z</time>
      </trkpt>
      <trkpt lat="47.29262" lon="-2.30141">
        <ele>71</ele>
        <time>2020-10-25T10:51:43.000Z</time>
      </trkpt>
      <trkpt lat="47.29235" lon="-2.30147">
        <ele>71</ele>
        <time>2020-10-25T10:51:49.000Z</time>
      </trkpt>
      <trkpt lat="47.29201" lon="-2.30163">
        <ele>71.599998474121</ele>
        <time>2020-10-25T10:51:57.000Z</time>
      </trkpt>
      <trkpt lat="47.29197" lon="-2.30165">
        <ele>72</ele>
        <time>2020-10-25T10:51:58.000Z</time>
      </trkpt>
      <trkpt lat="47.29192" lon="-2.30168">
        <ele>72.400001525879</ele>
        <time>2020-10-25T10:51:59.000Z</time>
      </trkpt>
      <trkpt lat="47.29188" lon="-2.3017">
        <ele>72.800003051758</ele>
        <time>2020-10-25T10:52:00.000Z</time>
      </trkpt>
      <trkpt lat="47.29184" lon="-2.30173">
        <ele>73.199996948242</ele>
        <time>2020-10-25T10:52:01.000Z</time>
      </trkpt>
      <trkpt lat="47.29175" lon="-2.30178">
        <ele>73.199996948242</ele>
        <time>2020-10-25T10:52:03.000Z</time>
      </trkpt>
      <trkpt lat="47.29145" lon="-2.30195">
        <ele>73.199996948242</ele>
        <time>2020-10-25T10:52:10.000Z</time>
      </trkpt>
      <trkpt lat="47.29109" lon="-2.30213">
        <ele>73.199996948242</ele>
        <time>2020-10-25T10:52:18.000Z</time>
      </trkpt>
      <trkpt lat="47.29079" lon="-2.30229">
        <ele>73.199996948242</ele>
        <time>2020-10-25T10:52:25.000Z</time>
      </trkpt>
      <trkpt lat="47.29048" lon="-2.30242">
        <ele>73.199996948242</ele>
        <time>2020-10-25T10:52:32.000Z</time>
      </trkpt>
      <trkpt lat="47.29002" lon="-2.30255">
        <ele>73.199996948242</ele>
        <time>2020-10-25T10:52:42.000Z</time>
      </trkpt>
      <trkpt lat="47.28988" lon="-2.30258">
        <ele>73.199996948242</ele>
        <time>2020-10-25T10:52:45.000Z</time>
      </trkpt>
      <trkpt lat="47.28976" lon="-2.30254">
        <ele>73.199996948242</ele>
        <time>2020-10-25T10:52:48.000Z</time>
      </trkpt>
      <trkpt lat="47.28962" lon="-2.30238">
        <ele>73.199996948242</ele>
        <time>2020-10-25T10:52:52.000Z</time>
      </trkpt>
      <trkpt lat="47.28959" lon="-2.30232">
        <ele>73.199996948242</ele>
        <time>2020-10-25T10:52:53.000Z</time>
      </trkpt>
      <trkpt lat="47.28941" lon="-2.30208">
        <ele>73.199996948242</ele>
        <time>2020-10-25T10:52:58.000Z</time>
      </trkpt>
      <trkpt lat="47.28915" lon="-2.30178">
        <ele>73.199996948242</ele>
        <time>2020-10-25T10:53:05.000Z</time>
      </trkpt>
      <trkpt lat="47.28892" lon="-2.30149">
        <ele>73.599998474121</ele>
        <time>2020-10-25T10:53:11.000Z</time>
      </trkpt>
      <trkpt lat="47.28889" lon="-2.30144">
        <ele>74</ele>
        <time>2020-10-25T10:53:12.000Z</time>
      </trkpt>
      <trkpt lat="47.28885" lon="-2.3014">
        <ele>74.400001525879</ele>
        <time>2020-10-25T10:53:13.000Z</time>
      </trkpt>
      <trkpt lat="47.28882" lon="-2.30135">
        <ele>74.800003051758</ele>
        <time>2020-10-25T10:53:14.000Z</time>
      </trkpt>
      <trkpt lat="47.28878" lon="-2.30131">
        <ele>75.199996948242</ele>
        <time>2020-10-25T10:53:15.000Z</time>
      </trkpt>
      <trkpt lat="47.28866" lon="-2.30118">
        <ele>75.199996948242</ele>
        <time>2020-10-25T10:53:18.000Z</time>
      </trkpt>
      <trkpt lat="47.28835" lon="-2.30081">
        <ele>75.199996948242</ele>
        <time>2020-10-25T10:53:26.000Z</time>
      </trkpt>
      <trkpt lat="47.28828" lon="-2.30072">
        <ele>75.599998474121</ele>
        <time>2020-10-25T10:53:28.000Z</time>
      </trkpt>
      <trkpt lat="47.28824" lon="-2.30068">
        <ele>76</ele>
        <time>2020-10-25T10:53:29.000Z</time>
      </trkpt>
      <trkpt lat="47.2882" lon="-2.30064">
        <ele>76.400001525879</ele>
        <time>2020-10-25T10:53:30.000Z</time>
      </trkpt>
      <trkpt lat="47.28816" lon="-2.3006">
        <ele>76.800003051758</ele>
        <time>2020-10-25T10:53:31.000Z</time>
      </trkpt>
      <trkpt lat="47.28812" lon="-2.30055">
        <ele>77.199996948242</ele>
        <time>2020-10-25T10:53:32.000Z</time>
      </trkpt>
      <trkpt lat="47.28809" lon="-2.30051">
        <ele>77.199996948242</ele>
        <time>2020-10-25T10:53:33.000Z</time>
      </trkpt>
      <trkpt lat="47.28797" lon="-2.3004">
        <ele>77.199996948242</ele>
        <time>2020-10-25T10:53:36.000Z</time>
      </trkpt>
      <trkpt lat="47.28783" lon="-2.30035">
        <ele>77.199996948242</ele>
        <time>2020-10-25T10:53:39.000Z</time>
      </trkpt>
      <trkpt lat="47.28778" lon="-2.30033">
        <ele>77.199996948242</ele>
        <time>2020-10-25T10:53:40.000Z</time>
      </trkpt>
      <trkpt lat="47.28767" lon="-2.30017">
        <ele>77.199996948242</ele>
        <time>2020-10-25T10:53:43.000Z</time>
      </trkpt>
      <trkpt lat="47.28763" lon="-2.30004">
        <ele>77.199996948242</ele>
        <time>2020-10-25T10:53:45.000Z</time>
      </trkpt>
      <trkpt lat="47.2876" lon="-2.29999">
        <ele>77.199996948242</ele>
        <time>2020-10-25T10:53:46.000Z</time>
      </trkpt>
      <trkpt lat="47.28754" lon="-2.29987">
        <ele>77.199996948242</ele>
        <time>2020-10-25T10:53:48.000Z</time>
      </trkpt>
      <trkpt lat="47.28747" lon="-2.29977">
        <ele>77.599998474121</ele>
        <time>2020-10-25T10:53:50.000Z</time>
      </trkpt>
      <trkpt lat="47.28744" lon="-2.29973">
        <ele>78</ele>
        <time>2020-10-25T10:53:51.000Z</time>
      </trkpt>
      <trkpt lat="47.2874" lon="-2.29969">
        <ele>78.400001525879</ele>
        <time>2020-10-25T10:53:52.000Z</time>
      </trkpt>
      <trkpt lat="47.28736" lon="-2.29964">
        <ele>78.800003051758</ele>
        <time>2020-10-25T10:53:53.000Z</time>
      </trkpt>
      <trkpt lat="47.28733" lon="-2.29961">
        <ele>79.199996948242</ele>
        <time>2020-10-25T10:53:54.000Z</time>
      </trkpt>
      <trkpt lat="47.2873" lon="-2.29957">
        <ele>79.199996948242</ele>
        <time>2020-10-25T10:53:55.000Z</time>
      </trkpt>
      <trkpt lat="47.28726" lon="-2.29953">
        <ele>79.199996948242</ele>
        <time>2020-10-25T10:53:56.000Z</time>
      </trkpt>
      <trkpt lat="47.28717" lon="-2.2995">
        <ele>79.199996948242</ele>
        <time>2020-10-25T10:53:59.000Z</time>
      </trkpt>
      <trkpt lat="47.28709" lon="-2.2995">
        <ele>79.199996948242</ele>
        <time>2020-10-25T10:54:01.000Z</time>
      </trkpt>
      <trkpt lat="47.28705" lon="-2.29949">
        <ele>79.199996948242</ele>
        <time>2020-10-25T10:54:02.000Z</time>
      </trkpt>
      <trkpt lat="47.28701" lon="-2.29947">
        <ele>79.599998474121</ele>
        <time>2020-10-25T10:54:03.000Z</time>
      </trkpt>
      <trkpt lat="47.28697" lon="-2.29944">
        <ele>80</ele>
        <time>2020-10-25T10:54:04.000Z</time>
      </trkpt>
      <trkpt lat="47.28693" lon="-2.2994">
        <ele>80.400001525879</ele>
        <time>2020-10-25T10:54:05.000Z</time>
      </trkpt>
      <trkpt lat="47.2869" lon="-2.29935">
        <ele>80.800003051758</ele>
        <time>2020-10-25T10:54:06.000Z</time>
      </trkpt>
      <trkpt lat="47.28686" lon="-2.29929">
        <ele>81.400001525879</ele>
        <time>2020-10-25T10:54:07.000Z</time>
      </trkpt>
      <trkpt lat="47.28682" lon="-2.29925">
        <ele>81.400001525879</ele>
        <time>2020-10-25T10:54:08.000Z</time>
      </trkpt>
      <trkpt lat="47.28664" lon="-2.2991">
        <ele>81.400001525879</ele>
        <time>2020-10-25T10:54:13.000Z</time>
      </trkpt>
      <trkpt lat="47.2865" lon="-2.29886">
        <ele>81.800003051758</ele>
        <time>2020-10-25T10:54:18.000Z</time>
      </trkpt>
      <trkpt lat="47.28648" lon="-2.29881">
        <ele>82.199996948242</ele>
        <time>2020-10-25T10:54:19.000Z</time>
      </trkpt>
      <trkpt lat="47.28646" lon="-2.29876">
        <ele>82.599998474121</ele>
        <time>2020-10-25T10:54:20.000Z</time>
      </trkpt>
      <trkpt lat="47.28644" lon="-2.2987">
        <ele>83</ele>
        <time>2020-10-25T10:54:21.000Z</time>
      </trkpt>
      <trkpt lat="47.28643" lon="-2.29863">
        <ele>83.599998474121</ele>
        <time>2020-10-25T10:54:22.000Z</time>
      </trkpt>
      <trkpt lat="47.28643" lon="-2.29857">
        <ele>83.599998474121</ele>
        <time>2020-10-25T10:54:23.000Z</time>
      </trkpt>
      <trkpt lat="47.28642" lon="-2.29851">
        <ele>83.599998474121</ele>
        <time>2020-10-25T10:54:24.000Z</time>
      </trkpt>
      <trkpt lat="47.28642" lon="-2.29844">
        <ele>83.599998474121</ele>
        <time>2020-10-25T10:54:25.000Z</time>
      </trkpt>
      <trkpt lat="47.28643" lon="-2.29817">
        <ele>83.599998474121</ele>
        <time>2020-10-25T10:54:29.000Z</time>
      </trkpt>
      <trkpt lat="47.28642" lon="-2.29794">
        <ele>83.599998474121</ele>
        <time>2020-10-25T10:54:32.000Z</time>
      </trkpt>
      <trkpt lat="47.28639" lon="-2.29778">
        <ele>83.599998474121</ele>
        <time>2020-10-25T10:54:34.000Z</time>
      </trkpt>
      <trkpt lat="47.28636" lon="-2.29769">
        <ele>84</ele>
        <time>2020-10-25T10:54:35.000Z</time>
      </trkpt>
      <trkpt lat="47.28633" lon="-2.2976">
        <ele>84.400001525879</ele>
        <time>2020-10-25T10:54:36.000Z</time>
      </trkpt>
      <trkpt lat="47.2863" lon="-2.29751">
        <ele>84.800003051758</ele>
        <time>2020-10-25T10:54:37.000Z</time>
      </trkpt>
      <trkpt lat="47.28626" lon="-2.29741">
        <ele>85.199996948242</ele>
        <time>2020-10-25T10:54:38.000Z</time>
      </trkpt>
      <trkpt lat="47.28622" lon="-2.29731">
        <ele>85.599998474121</ele>
        <time>2020-10-25T10:54:39.000Z</time>
      </trkpt>
      <trkpt lat="47.286" lon="-2.29672">
        <ele>85.599998474121</ele>
        <time>2020-10-25T10:54:45.000Z</time>
      </trkpt>
      <trkpt lat="47.28594" lon="-2.29652">
        <ele>85.599998474121</ele>
        <time>2020-10-25T10:54:47.000Z</time>
      </trkpt>
      <trkpt lat="47.28592" lon="-2.29633">
        <ele>85.599998474121</ele>
        <time>2020-10-25T10:54:49.000Z</time>
      </trkpt>
      <trkpt lat="47.28589" lon="-2.29602">
        <ele>85.599998474121</ele>
        <time>2020-10-25T10:54:53.000Z</time>
      </trkpt>
      <trkpt lat="47.28589" lon="-2.29595">
        <ele>85.599998474121</ele>
        <time>2020-10-25T10:54:54.000Z</time>
      </trkpt>
      <trkpt lat="47.28592" lon="-2.29572">
        <ele>85.599998474121</ele>
        <time>2020-10-25T10:54:57.000Z</time>
      </trkpt>
      <trkpt lat="47.28593" lon="-2.29564">
        <ele>85.599998474121</ele>
        <time>2020-10-25T10:54:58.000Z</time>
      </trkpt>
      <trkpt lat="47.28593" lon="-2.29556">
        <ele>85.599998474121</ele>
        <time>2020-10-25T10:54:59.000Z</time>
      </trkpt>
      <trkpt lat="47.28594" lon="-2.29542">
        <ele>86</ele>
        <time>2020-10-25T10:55:01.000Z</time>
      </trkpt>
      <trkpt lat="47.28594" lon="-2.29534">
        <ele>86.400001525879</ele>
        <time>2020-10-25T10:55:02.000Z</time>
      </trkpt>
      <trkpt lat="47.28593" lon="-2.29527">
        <ele>86.800003051758</ele>
        <time>2020-10-25T10:55:03.000Z</time>
      </trkpt>
      <trkpt lat="47.28593" lon="-2.29521">
        <ele>87.199996948242</ele>
        <time>2020-10-25T10:55:04.000Z</time>
      </trkpt>
      <trkpt lat="47.28592" lon="-2.29514">
        <ele>87.599998474121</ele>
        <time>2020-10-25T10:55:05.000Z</time>
      </trkpt>
      <trkpt lat="47.28591" lon="-2.29509">
        <ele>87.599998474121</ele>
        <time>2020-10-25T10:55:06.000Z</time>
      </trkpt>
      <trkpt lat="47.28584" lon="-2.29477">
        <ele>87.599998474121</ele>
        <time>2020-10-25T10:55:12.000Z</time>
      </trkpt>
      <trkpt lat="47.28578" lon="-2.29459">
        <ele>87.599998474121</ele>
        <time>2020-10-25T10:55:15.000Z</time>
      </trkpt>
      <trkpt lat="47.28571" lon="-2.29441">
        <ele>87.599998474121</ele>
        <time>2020-10-25T10:55:18.000Z</time>
      </trkpt>
      <trkpt lat="47.28568" lon="-2.29434">
        <ele>87.599998474121</ele>
        <time>2020-10-25T10:55:19.000Z</time>
      </trkpt>
      <trkpt lat="47.28556" lon="-2.29405">
        <ele>87.599998474121</ele>
        <time>2020-10-25T10:55:24.000Z</time>
      </trkpt>
      <trkpt lat="47.28538" lon="-2.29359">
        <ele>87.599998474121</ele>
        <time>2020-10-25T10:55:33.000Z</time>
      </trkpt>
      <trkpt lat="47.28529" lon="-2.29338">
        <ele>87.599998474121</ele>
        <time>2020-10-25T10:55:39.000Z</time>
      </trkpt>
      <trkpt lat="47.28519" lon="-2.29312">
        <ele>87.599998474121</ele>
        <time>2020-10-25T10:55:45.000Z</time>
      </trkpt>
      <trkpt lat="47.2851" lon="-2.29304">
        <ele>87.599998474121</ele>
        <time>2020-10-25T10:55:48.000Z</time>
      </trkpt>
      <trkpt lat="47.28506" lon="-2.29305">
        <ele>87.599998474121</ele>
        <time>2020-10-25T10:55:49.000Z</time>
      </trkpt>
      <trkpt lat="47.28496" lon="-2.2931">
        <ele>87.599998474121</ele>
        <time>2020-10-25T10:55:52.000Z</time>
      </trkpt>
      <trkpt lat="47.28492" lon="-2.29311">
        <ele>87.599998474121</ele>
        <time>2020-10-25T10:55:53.000Z</time>
      </trkpt>
      <trkpt lat="47.28476" lon="-2.29317">
        <ele>87.599998474121</ele>
        <time>2020-10-25T10:55:57.000Z</time>
      </trkpt>
      <trkpt lat="47.28468" lon="-2.29321">
        <ele>87.599998474121</ele>
        <time>2020-10-25T10:55:59.000Z</time>
      </trkpt>
      <trkpt lat="47.2846" lon="-2.29325">
        <ele>87.599998474121</ele>
        <time>2020-10-25T10:56:01.000Z</time>
      </trkpt>
      <trkpt lat="47.28447" lon="-2.29329">
        <ele>88</ele>
        <time>2020-10-25T10:56:04.000Z</time>
      </trkpt>
      <trkpt lat="47.28442" lon="-2.29331">
        <ele>88.400001525879</ele>
        <time>2020-10-25T10:56:05.000Z</time>
      </trkpt>
      <trkpt lat="47.28438" lon="-2.29333">
        <ele>88.800003051758</ele>
        <time>2020-10-25T10:56:06.000Z</time>
      </trkpt>
      <trkpt lat="47.28433" lon="-2.29335">
        <ele>89.199996948242</ele>
        <time>2020-10-25T10:56:07.000Z</time>
      </trkpt>
      <trkpt lat="47.28429" lon="-2.29337">
        <ele>89.800003051758</ele>
        <time>2020-10-25T10:56:08.000Z</time>
      </trkpt>
      <trkpt lat="47.28425" lon="-2.29339">
        <ele>90.199996948242</ele>
        <time>2020-10-25T10:56:09.000Z</time>
      </trkpt>
      <trkpt lat="47.28422" lon="-2.2934">
        <ele>90.599998474121</ele>
        <time>2020-10-25T10:56:10.000Z</time>
      </trkpt>
      <trkpt lat="47.28418" lon="-2.29342">
        <ele>91</ele>
        <time>2020-10-25T10:56:11.000Z</time>
      </trkpt>
      <trkpt lat="47.28414" lon="-2.29344">
        <ele>91.800003051758</ele>
        <time>2020-10-25T10:56:12.000Z</time>
      </trkpt>
      <trkpt lat="47.28391" lon="-2.29359">
        <ele>91.800003051758</ele>
        <time>2020-10-25T10:56:19.000Z</time>
      </trkpt>
      <trkpt lat="47.28369" lon="-2.29373">
        <ele>91.800003051758</ele>
        <time>2020-10-25T10:56:26.000Z</time>
      </trkpt>
      <trkpt lat="47.28348" lon="-2.29393">
        <ele>91.800003051758</ele>
        <time>2020-10-25T10:56:33.000Z</time>
      </trkpt>
      <trkpt lat="47.28321" lon="-2.29422">
        <ele>91.800003051758</ele>
        <time>2020-10-25T10:56:42.000Z</time>
      </trkpt>
      <trkpt lat="47.28305" lon="-2.2944">
        <ele>91.800003051758</ele>
        <time>2020-10-25T10:56:48.000Z</time>
      </trkpt>
      <trkpt lat="47.28285" lon="-2.29456">
        <ele>91.800003051758</ele>
        <time>2020-10-25T10:56:54.000Z</time>
      </trkpt>
      <trkpt lat="47.28259" lon="-2.29472">
        <ele>91.800003051758</ele>
        <time>2020-10-25T10:57:01.000Z</time>
      </trkpt>
      <trkpt lat="47.28228" lon="-2.2949">
        <ele>91.800003051758</ele>
        <time>2020-10-25T10:57:08.000Z</time>
      </trkpt>
      <trkpt lat="47.28216" lon="-2.29496">
        <ele>92.199996948242</ele>
        <time>2020-10-25T10:57:11.000Z</time>
      </trkpt>
      <trkpt lat="47.28211" lon="-2.29499">
        <ele>92.800003051758</ele>
        <time>2020-10-25T10:57:12.000Z</time>
      </trkpt>
      <trkpt lat="47.28207" lon="-2.29501">
        <ele>93.199996948242</ele>
        <time>2020-10-25T10:57:13.000Z</time>
      </trkpt>
      <trkpt lat="47.28203" lon="-2.29503">
        <ele>93.599998474121</ele>
        <time>2020-10-25T10:57:14.000Z</time>
      </trkpt>
      <trkpt lat="47.28198" lon="-2.29505">
        <ele>94</ele>
        <time>2020-10-25T10:57:15.000Z</time>
      </trkpt>
      <trkpt lat="47.28193" lon="-2.29507">
        <ele>94</ele>
        <time>2020-10-25T10:57:16.000Z</time>
      </trkpt>
      <trkpt lat="47.28171" lon="-2.29516">
        <ele>94</ele>
        <time>2020-10-25T10:57:21.000Z</time>
      </trkpt>
      <trkpt lat="47.28141" lon="-2.29527">
        <ele>94</ele>
        <time>2020-10-25T10:57:27.000Z</time>
      </trkpt>
      <trkpt lat="47.28126" lon="-2.29534">
        <ele>94.400001525879</ele>
        <time>2020-10-25T10:57:30.000Z</time>
      </trkpt>
      <trkpt lat="47.28121" lon="-2.29536">
        <ele>94.800003051758</ele>
        <time>2020-10-25T10:57:31.000Z</time>
      </trkpt>
      <trkpt lat="47.28116" lon="-2.29539">
        <ele>95.400001525879</ele>
        <time>2020-10-25T10:57:32.000Z</time>
      </trkpt>
      <trkpt lat="47.28111" lon="-2.29541">
        <ele>95.800003051758</ele>
        <time>2020-10-25T10:57:33.000Z</time>
      </trkpt>
      <trkpt lat="47.28106" lon="-2.29542">
        <ele>96.199996948242</ele>
        <time>2020-10-25T10:57:34.000Z</time>
      </trkpt>
      <trkpt lat="47.28064" lon="-2.29561">
        <ele>96.199996948242</ele>
        <time>2020-10-25T10:57:43.000Z</time>
      </trkpt>
      <trkpt lat="47.28024" lon="-2.29579">
        <ele>96.199996948242</ele>
        <time>2020-10-25T10:57:52.000Z</time>
      </trkpt>
      <trkpt lat="47.2799" lon="-2.29591">
        <ele>96.199996948242</ele>
        <time>2020-10-25T10:57:58.000Z</time>
      </trkpt>
      <trkpt lat="47.27953" lon="-2.29597">
        <ele>96.199996948242</ele>
        <time>2020-10-25T10:58:04.000Z</time>
      </trkpt>
      <trkpt lat="47.27937" lon="-2.29598">
        <ele>96.199996948242</ele>
        <time>2020-10-25T10:58:07.000Z</time>
      </trkpt>
      <trkpt lat="47.27921" lon="-2.29597">
        <ele>96.199996948242</ele>
        <time>2020-10-25T10:58:10.000Z</time>
      </trkpt>
      <trkpt lat="47.27867" lon="-2.29594">
        <ele>96.199996948242</ele>
        <time>2020-10-25T10:58:20.000Z</time>
      </trkpt>
      <trkpt lat="47.27855" lon="-2.29596">
        <ele>96.199996948242</ele>
        <time>2020-10-25T10:58:24.000Z</time>
      </trkpt>
      <trkpt lat="47.27855" lon="-2.29596">
        <ele>96.199996948242</ele>
        <time>2020-10-25T10:58:25.000Z</time>
      </trkpt>
      <trkpt lat="47.27852" lon="-2.29597">
        <ele>96.199996948242</ele>
        <time>2020-10-25T10:58:47.000Z</time>
      </trkpt>
      <trkpt lat="47.2785" lon="-2.29597">
        <ele>96.199996948242</ele>
        <time>2020-10-25T10:58:48.000Z</time>
      </trkpt>
      <trkpt lat="47.27835" lon="-2.29595">
        <ele>96.199996948242</ele>
        <time>2020-10-25T10:58:52.000Z</time>
      </trkpt>
      <trkpt lat="47.27804" lon="-2.29594">
        <ele>96.199996948242</ele>
        <time>2020-10-25T10:58:58.000Z</time>
      </trkpt>
      <trkpt lat="47.2776" lon="-2.29593">
        <ele>96.199996948242</ele>
        <time>2020-10-25T10:59:05.000Z</time>
      </trkpt>
      <trkpt lat="47.27747" lon="-2.29594">
        <ele>95.199996948242</ele>
        <time>2020-10-25T10:59:07.000Z</time>
      </trkpt>
      <trkpt lat="47.27741" lon="-2.29594">
        <ele>94.800003051758</ele>
        <time>2020-10-25T10:59:08.000Z</time>
      </trkpt>
      <trkpt lat="47.27734" lon="-2.29594">
        <ele>94.400001525879</ele>
        <time>2020-10-25T10:59:09.000Z</time>
      </trkpt>
      <trkpt lat="47.27728" lon="-2.29594">
        <ele>94</ele>
        <time>2020-10-25T10:59:10.000Z</time>
      </trkpt>
      <trkpt lat="47.27721" lon="-2.29594">
        <ele>94</ele>
        <time>2020-10-25T10:59:11.000Z</time>
      </trkpt>
      <trkpt lat="47.27676" lon="-2.29595">
        <ele>94</ele>
        <time>2020-10-25T10:59:18.000Z</time>
      </trkpt>
      <trkpt lat="47.27618" lon="-2.29595">
        <ele>94</ele>
        <time>2020-10-25T10:59:27.000Z</time>
      </trkpt>
      <trkpt lat="47.27612" lon="-2.29595">
        <ele>94</ele>
        <time>2020-10-25T10:59:28.000Z</time>
      </trkpt>
      <trkpt lat="47.2756" lon="-2.29595">
        <ele>94</ele>
        <time>2020-10-25T10:59:36.000Z</time>
      </trkpt>
      <trkpt lat="47.27516" lon="-2.29597">
        <ele>94</ele>
        <time>2020-10-25T10:59:43.000Z</time>
      </trkpt>
      <trkpt lat="47.27467" lon="-2.29609">
        <ele>94</ele>
        <time>2020-10-25T10:59:51.000Z</time>
      </trkpt>
      <trkpt lat="47.27426" lon="-2.2962">
        <ele>94</ele>
        <time>2020-10-25T10:59:58.000Z</time>
      </trkpt>
      <trkpt lat="47.27408" lon="-2.29623">
        <ele>94</ele>
        <time>2020-10-25T11:00:01.000Z</time>
      </trkpt>
      <trkpt lat="47.27395" lon="-2.29626">
        <ele>94</ele>
        <time>2020-10-25T11:00:03.000Z</time>
      </trkpt>
      <trkpt lat="47.27354" lon="-2.29634">
        <ele>94</ele>
        <time>2020-10-25T11:00:10.000Z</time>
      </trkpt>
      <trkpt lat="47.27313" lon="-2.29639">
        <ele>94</ele>
        <time>2020-10-25T11:00:17.000Z</time>
      </trkpt>
      <trkpt lat="47.27274" lon="-2.29642">
        <ele>94</ele>
        <time>2020-10-25T11:00:24.000Z</time>
      </trkpt>
      <trkpt lat="47.27269" lon="-2.29645">
        <ele>94</ele>
        <time>2020-10-25T11:00:25.000Z</time>
      </trkpt>
      <trkpt lat="47.27264" lon="-2.29654">
        <ele>94</ele>
        <time>2020-10-25T11:00:27.000Z</time>
      </trkpt>
      <trkpt lat="47.27261" lon="-2.29673">
        <ele>94</ele>
        <time>2020-10-25T11:00:31.000Z</time>
      </trkpt>
      <trkpt lat="47.27271" lon="-2.29704">
        <ele>94</ele>
        <time>2020-10-25T11:00:35.000Z</time>
      </trkpt>
      <trkpt lat="47.27294" lon="-2.29781">
        <ele>94</ele>
        <time>2020-10-25T11:00:44.000Z</time>
      </trkpt>
      <trkpt lat="47.27301" lon="-2.29796">
        <ele>94</ele>
        <time>2020-10-25T11:00:46.000Z</time>
      </trkpt>
      <trkpt lat="47.27312" lon="-2.29816">
        <ele>94</ele>
        <time>2020-10-25T11:00:49.000Z</time>
      </trkpt>
      <trkpt lat="47.27316" lon="-2.29822">
        <ele>94</ele>
        <time>2020-10-25T11:00:50.000Z</time>
      </trkpt>
      <trkpt lat="47.27336" lon="-2.29853">
        <ele>94</ele>
        <time>2020-10-25T11:00:55.000Z</time>
      </trkpt>
      <trkpt lat="47.27357" lon="-2.29892">
        <ele>94</ele>
        <time>2020-10-25T11:01:01.000Z</time>
      </trkpt>
      <trkpt lat="47.27379" lon="-2.29939">
        <ele>94</ele>
        <time>2020-10-25T11:01:08.000Z</time>
      </trkpt>
      <trkpt lat="47.27386" lon="-2.29953">
        <ele>94</ele>
        <time>2020-10-25T11:01:10.000Z</time>
      </trkpt>
      <trkpt lat="47.27396" lon="-2.29979">
        <ele>94</ele>
        <time>2020-10-25T11:01:14.000Z</time>
      </trkpt>
      <trkpt lat="47.27413" lon="-2.30018">
        <ele>94.400001525879</ele>
        <time>2020-10-25T11:01:19.000Z</time>
      </trkpt>
      <trkpt lat="47.27416" lon="-2.30026">
        <ele>94.800003051758</ele>
        <time>2020-10-25T11:01:20.000Z</time>
      </trkpt>
      <trkpt lat="47.27419" lon="-2.30033">
        <ele>95.199996948242</ele>
        <time>2020-10-25T11:01:21.000Z</time>
      </trkpt>
      <trkpt lat="47.27422" lon="-2.30041">
        <ele>95.800003051758</ele>
        <time>2020-10-25T11:01:22.000Z</time>
      </trkpt>
      <trkpt lat="47.27424" lon="-2.30048">
        <ele>96.199996948242</ele>
        <time>2020-10-25T11:01:23.000Z</time>
      </trkpt>
      <trkpt lat="47.27433" lon="-2.30074">
        <ele>96.199996948242</ele>
        <time>2020-10-25T11:01:26.000Z</time>
      </trkpt>
      <trkpt lat="47.2744" lon="-2.301">
        <ele>95.800003051758</ele>
        <time>2020-10-25T11:01:29.000Z</time>
      </trkpt>
      <trkpt lat="47.27442" lon="-2.30108">
        <ele>95.400001525879</ele>
        <time>2020-10-25T11:01:30.000Z</time>
      </trkpt>
      <trkpt lat="47.27445" lon="-2.30118">
        <ele>95</ele>
        <time>2020-10-25T11:01:31.000Z</time>
      </trkpt>
      <trkpt lat="47.27446" lon="-2.30127">
        <ele>94.599998474121</ele>
        <time>2020-10-25T11:01:32.000Z</time>
      </trkpt>
      <trkpt lat="47.27448" lon="-2.30136">
        <ele>94.199996948242</ele>
        <time>2020-10-25T11:01:33.000Z</time>
      </trkpt>
      <trkpt lat="47.2745" lon="-2.30145">
        <ele>94.199996948242</ele>
        <time>2020-10-25T11:01:34.000Z</time>
      </trkpt>
      <trkpt lat="47.27453" lon="-2.30162">
        <ele>93.599998474121</ele>
        <time>2020-10-25T11:01:36.000Z</time>
      </trkpt>
      <trkpt lat="47.27455" lon="-2.30171">
        <ele>93.199996948242</ele>
        <time>2020-10-25T11:01:37.000Z</time>
      </trkpt>
      <trkpt lat="47.27456" lon="-2.3018">
        <ele>92.800003051758</ele>
        <time>2020-10-25T11:01:38.000Z</time>
      </trkpt>
      <trkpt lat="47.27458" lon="-2.30188">
        <ele>92.199996948242</ele>
        <time>2020-10-25T11:01:39.000Z</time>
      </trkpt>
      <trkpt lat="47.2746" lon="-2.30198">
        <ele>91.800003051758</ele>
        <time>2020-10-25T11:01:40.000Z</time>
      </trkpt>
      <trkpt lat="47.27468" lon="-2.30236">
        <ele>91.800003051758</ele>
        <time>2020-10-25T11:01:44.000Z</time>
      </trkpt>
      <trkpt lat="47.2747" lon="-2.30245">
        <ele>91.800003051758</ele>
        <time>2020-10-25T11:01:45.000Z</time>
      </trkpt>
      <trkpt lat="47.27476" lon="-2.30273">
        <ele>91.199996948242</ele>
        <time>2020-10-25T11:01:48.000Z</time>
      </trkpt>
      <trkpt lat="47.27478" lon="-2.30283">
        <ele>90.800003051758</ele>
        <time>2020-10-25T11:01:49.000Z</time>
      </trkpt>
      <trkpt lat="47.27479" lon="-2.30294">
        <ele>90.199996948242</ele>
        <time>2020-10-25T11:01:50.000Z</time>
      </trkpt>
      <trkpt lat="47.27481" lon="-2.30304">
        <ele>89.800003051758</ele>
        <time>2020-10-25T11:01:51.000Z</time>
      </trkpt>
      <trkpt lat="47.27483" lon="-2.30314">
        <ele>89.199996948242</ele>
        <time>2020-10-25T11:01:52.000Z</time>
      </trkpt>
      <trkpt lat="47.27498" lon="-2.30383">
        <ele>88.800003051758</ele>
        <time>2020-10-25T11:01:59.000Z</time>
      </trkpt>
      <trkpt lat="47.27499" lon="-2.30392">
        <ele>88.400001525879</ele>
        <time>2020-10-25T11:02:00.000Z</time>
      </trkpt>
      <trkpt lat="47.275" lon="-2.30402">
        <ele>87.800003051758</ele>
        <time>2020-10-25T11:02:01.000Z</time>
      </trkpt>
      <trkpt lat="47.27502" lon="-2.30412">
        <ele>87</ele>
        <time>2020-10-25T11:02:02.000Z</time>
      </trkpt>
      <trkpt lat="47.27507" lon="-2.30441">
        <ele>86.599998474121</ele>
        <time>2020-10-25T11:02:05.000Z</time>
      </trkpt>
      <trkpt lat="47.27509" lon="-2.3045">
        <ele>86.199996948242</ele>
        <time>2020-10-25T11:02:06.000Z</time>
      </trkpt>
      <trkpt lat="47.27512" lon="-2.30459">
        <ele>85.800003051758</ele>
        <time>2020-10-25T11:02:07.000Z</time>
      </trkpt>
      <trkpt lat="47.27515" lon="-2.30469">
        <ele>85.400001525879</ele>
        <time>2020-10-25T11:02:08.000Z</time>
      </trkpt>
      <trkpt lat="47.27517" lon="-2.30479">
        <ele>85</ele>
        <time>2020-10-25T11:02:09.000Z</time>
      </trkpt>
      <trkpt lat="47.27521" lon="-2.30499">
        <ele>84.599998474121</ele>
        <time>2020-10-25T11:02:11.000Z</time>
      </trkpt>
      <trkpt lat="47.27523" lon="-2.30509">
        <ele>84.199996948242</ele>
        <time>2020-10-25T11:02:12.000Z</time>
      </trkpt>
      <trkpt lat="47.27525" lon="-2.30518">
        <ele>83.800003051758</ele>
        <time>2020-10-25T11:02:13.000Z</time>
      </trkpt>
      <trkpt lat="47.27527" lon="-2.30527">
        <ele>83.199996948242</ele>
        <time>2020-10-25T11:02:14.000Z</time>
      </trkpt>
      <trkpt lat="47.27529" lon="-2.30535">
        <ele>82.800003051758</ele>
        <time>2020-10-25T11:02:15.000Z</time>
      </trkpt>
      <trkpt lat="47.27544" lon="-2.3058">
        <ele>82.800003051758</ele>
        <time>2020-10-25T11:02:22.000Z</time>
      </trkpt>
      <trkpt lat="47.27547" lon="-2.30599">
        <ele>82.800003051758</ele>
        <time>2020-10-25T11:02:27.000Z</time>
      </trkpt>
      <trkpt lat="47.27553" lon="-2.30623">
        <ele>82.800003051758</ele>
        <time>2020-10-25T11:02:32.000Z</time>
      </trkpt>
      <trkpt lat="47.27563" lon="-2.30661">
        <ele>82.800003051758</ele>
        <time>2020-10-25T11:02:38.000Z</time>
      </trkpt>
      <trkpt lat="47.27572" lon="-2.30708">
        <ele>82.800003051758</ele>
        <time>2020-10-25T11:02:45.000Z</time>
      </trkpt>
      <trkpt lat="47.27576" lon="-2.30727">
        <ele>83.199996948242</ele>
        <time>2020-10-25T11:02:48.000Z</time>
      </trkpt>
      <trkpt lat="47.27577" lon="-2.30733">
        <ele>83.599998474121</ele>
        <time>2020-10-25T11:02:49.000Z</time>
      </trkpt>
      <trkpt lat="47.27578" lon="-2.30738">
        <ele>84</ele>
        <time>2020-10-25T11:02:50.000Z</time>
      </trkpt>
      <trkpt lat="47.27578" lon="-2.30744">
        <ele>85</ele>
        <time>2020-10-25T11:02:51.000Z</time>
      </trkpt>
      <trkpt lat="47.27581" lon="-2.30756">
        <ele>85</ele>
        <time>2020-10-25T11:02:53.000Z</time>
      </trkpt>
      <trkpt lat="47.27586" lon="-2.3077">
        <ele>85</ele>
        <time>2020-10-25T11:02:55.000Z</time>
      </trkpt>
      <trkpt lat="47.27604" lon="-2.30811">
        <ele>85</ele>
        <time>2020-10-25T11:03:01.000Z</time>
      </trkpt>
      <trkpt lat="47.27623" lon="-2.30853">
        <ele>85</ele>
        <time>2020-10-25T11:03:07.000Z</time>
      </trkpt>
      <trkpt lat="47.27638" lon="-2.30889">
        <ele>85</ele>
        <time>2020-10-25T11:03:12.000Z</time>
      </trkpt>
      <trkpt lat="47.27646" lon="-2.30904">
        <ele>85</ele>
        <time>2020-10-25T11:03:14.000Z</time>
      </trkpt>
      <trkpt lat="47.27653" lon="-2.30919">
        <ele>85</ele>
        <time>2020-10-25T11:03:16.000Z</time>
      </trkpt>
      <trkpt lat="47.27666" lon="-2.30946">
        <ele>85</ele>
        <time>2020-10-25T11:03:20.000Z</time>
      </trkpt>
      <trkpt lat="47.27673" lon="-2.30968">
        <ele>85</ele>
        <time>2020-10-25T11:03:23.000Z</time>
      </trkpt>
      <trkpt lat="47.27683" lon="-2.3099">
        <ele>85</ele>
        <time>2020-10-25T11:03:26.000Z</time>
      </trkpt>
      <trkpt lat="47.27704" lon="-2.31047">
        <ele>85</ele>
        <time>2020-10-25T11:03:34.000Z</time>
      </trkpt>
      <trkpt lat="47.27711" lon="-2.31064">
        <ele>85</ele>
        <time>2020-10-25T11:03:37.000Z</time>
      </trkpt>
      <trkpt lat="47.27715" lon="-2.31082">
        <ele>85</ele>
        <time>2020-10-25T11:03:40.000Z</time>
      </trkpt>
      <trkpt lat="47.27712" lon="-2.311">
        <ele>85</ele>
        <time>2020-10-25T11:03:43.000Z</time>
      </trkpt>
      <trkpt lat="47.2771" lon="-2.31107">
        <ele>85</ele>
        <time>2020-10-25T11:03:44.000Z</time>
      </trkpt>
      <trkpt lat="47.27707" lon="-2.31112">
        <ele>85</ele>
        <time>2020-10-25T11:03:45.000Z</time>
      </trkpt>
      <trkpt lat="47.277" lon="-2.3113">
        <ele>85</ele>
        <time>2020-10-25T11:03:48.000Z</time>
      </trkpt>
      <trkpt lat="47.27697" lon="-2.31144">
        <ele>85</ele>
        <time>2020-10-25T11:03:50.000Z</time>
      </trkpt>
      <trkpt lat="47.27687" lon="-2.31188">
        <ele>85</ele>
        <time>2020-10-25T11:03:56.000Z</time>
      </trkpt>
      <trkpt lat="47.2768" lon="-2.31223">
        <ele>85</ele>
        <time>2020-10-25T11:04:00.000Z</time>
      </trkpt>
      <trkpt lat="47.27676" lon="-2.3124">
        <ele>84.400001525879</ele>
        <time>2020-10-25T11:04:02.000Z</time>
      </trkpt>
      <trkpt lat="47.27674" lon="-2.31249">
        <ele>84</ele>
        <time>2020-10-25T11:04:03.000Z</time>
      </trkpt>
      <trkpt lat="47.27672" lon="-2.31257">
        <ele>83.599998474121</ele>
        <time>2020-10-25T11:04:04.000Z</time>
      </trkpt>
      <trkpt lat="47.27669" lon="-2.31266">
        <ele>82.800003051758</ele>
        <time>2020-10-25T11:04:05.000Z</time>
      </trkpt>
      <trkpt lat="47.27665" lon="-2.31284">
        <ele>82.800003051758</ele>
        <time>2020-10-25T11:04:07.000Z</time>
      </trkpt>
      <trkpt lat="47.27662" lon="-2.31293">
        <ele>82.800003051758</ele>
        <time>2020-10-25T11:04:08.000Z</time>
      </trkpt>
      <trkpt lat="47.27644" lon="-2.31352">
        <ele>82.800003051758</ele>
        <time>2020-10-25T11:04:15.000Z</time>
      </trkpt>
      <trkpt lat="47.27639" lon="-2.31371">
        <ele>82.400001525879</ele>
        <time>2020-10-25T11:04:17.000Z</time>
      </trkpt>
      <trkpt lat="47.27636" lon="-2.31381">
        <ele>82</ele>
        <time>2020-10-25T11:04:18.000Z</time>
      </trkpt>
      <trkpt lat="47.27633" lon="-2.31391">
        <ele>81.599998474121</ele>
        <time>2020-10-25T11:04:19.000Z</time>
      </trkpt>
      <trkpt lat="47.2763" lon="-2.31401">
        <ele>81.199996948242</ele>
        <time>2020-10-25T11:04:20.000Z</time>
      </trkpt>
      <trkpt lat="47.27627" lon="-2.31412">
        <ele>80.800003051758</ele>
        <time>2020-10-25T11:04:21.000Z</time>
      </trkpt>
      <trkpt lat="47.27612" lon="-2.31464">
        <ele>80.800003051758</ele>
        <time>2020-10-25T11:04:26.000Z</time>
      </trkpt>
      <trkpt lat="47.2761" lon="-2.31474">
        <ele>80.400001525879</ele>
        <time>2020-10-25T11:04:27.000Z</time>
      </trkpt>
      <trkpt lat="47.27607" lon="-2.31483">
        <ele>80</ele>
        <time>2020-10-25T11:04:28.000Z</time>
      </trkpt>
      <trkpt lat="47.27605" lon="-2.31492">
        <ele>79.599998474121</ele>
        <time>2020-10-25T11:04:29.000Z</time>
      </trkpt>
      <trkpt lat="47.27603" lon="-2.31501">
        <ele>78.800003051758</ele>
        <time>2020-10-25T11:04:30.000Z</time>
      </trkpt>
      <trkpt lat="47.27599" lon="-2.31518">
        <ele>78.800003051758</ele>
        <time>2020-10-25T11:04:32.000Z</time>
      </trkpt>
      <trkpt lat="47.27587" lon="-2.3156">
        <ele>78.800003051758</ele>
        <time>2020-10-25T11:04:37.000Z</time>
      </trkpt>
      <trkpt lat="47.2758" lon="-2.31575">
        <ele>78.800003051758</ele>
        <time>2020-10-25T11:04:39.000Z</time>
      </trkpt>
      <trkpt lat="47.27566" lon="-2.31615">
        <ele>78.800003051758</ele>
        <time>2020-10-25T11:04:44.000Z</time>
      </trkpt>
      <trkpt lat="47.27557" lon="-2.31655">
        <ele>78.800003051758</ele>
        <time>2020-10-25T11:04:49.000Z</time>
      </trkpt>
      <trkpt lat="47.27555" lon="-2.31662">
        <ele>78.800003051758</ele>
        <time>2020-10-25T11:04:50.000Z</time>
      </trkpt>
      <trkpt lat="47.27548" lon="-2.31688">
        <ele>78.800003051758</ele>
        <time>2020-10-25T11:04:53.000Z</time>
      </trkpt>
      <trkpt lat="47.27541" lon="-2.31719">
        <ele>78.400001525879</ele>
        <time>2020-10-25T11:04:56.000Z</time>
      </trkpt>
      <trkpt lat="47.27538" lon="-2.3173">
        <ele>78</ele>
        <time>2020-10-25T11:04:57.000Z</time>
      </trkpt>
      <trkpt lat="47.27536" lon="-2.31741">
        <ele>77.599998474121</ele>
        <time>2020-10-25T11:04:58.000Z</time>
      </trkpt>
      <trkpt lat="47.27533" lon="-2.31752">
        <ele>77.199996948242</ele>
        <time>2020-10-25T11:04:59.000Z</time>
      </trkpt>
      <trkpt lat="47.27531" lon="-2.31763">
        <ele>76.800003051758</ele>
        <time>2020-10-25T11:05:00.000Z</time>
      </trkpt>
      <trkpt lat="47.27523" lon="-2.31802">
        <ele>76.800003051758</ele>
        <time>2020-10-25T11:05:04.000Z</time>
      </trkpt>
      <trkpt lat="47.27518" lon="-2.3182">
        <ele>76.400001525879</ele>
        <time>2020-10-25T11:05:06.000Z</time>
      </trkpt>
      <trkpt lat="47.27515" lon="-2.31828">
        <ele>76</ele>
        <time>2020-10-25T11:05:07.000Z</time>
      </trkpt>
      <trkpt lat="47.27512" lon="-2.31837">
        <ele>75.400001525879</ele>
        <time>2020-10-25T11:05:08.000Z</time>
      </trkpt>
      <trkpt lat="47.27509" lon="-2.31845">
        <ele>75</ele>
        <time>2020-10-25T11:05:09.000Z</time>
      </trkpt>
      <trkpt lat="47.27506" lon="-2.31854">
        <ele>74.599998474121</ele>
        <time>2020-10-25T11:05:10.000Z</time>
      </trkpt>
      <trkpt lat="47.27503" lon="-2.31862">
        <ele>74.599998474121</ele>
        <time>2020-10-25T11:05:11.000Z</time>
      </trkpt>
      <trkpt lat="47.27484" lon="-2.31915">
        <ele>74.599998474121</ele>
        <time>2020-10-25T11:05:17.000Z</time>
      </trkpt>
      <trkpt lat="47.27476" lon="-2.31932">
        <ele>73.800003051758</ele>
        <time>2020-10-25T11:05:19.000Z</time>
      </trkpt>
      <trkpt lat="47.27472" lon="-2.3194">
        <ele>73.400001525879</ele>
        <time>2020-10-25T11:05:20.000Z</time>
      </trkpt>
      <trkpt lat="47.27468" lon="-2.31948">
        <ele>72.800003051758</ele>
        <time>2020-10-25T11:05:21.000Z</time>
      </trkpt>
      <trkpt lat="47.27464" lon="-2.31957">
        <ele>72.400001525879</ele>
        <time>2020-10-25T11:05:22.000Z</time>
      </trkpt>
      <trkpt lat="47.27457" lon="-2.31973">
        <ele>72.400001525879</ele>
        <time>2020-10-25T11:05:24.000Z</time>
      </trkpt>
      <trkpt lat="47.27438" lon="-2.32019">
        <ele>72.400001525879</ele>
        <time>2020-10-25T11:05:30.000Z</time>
      </trkpt>
      <trkpt lat="47.27431" lon="-2.32033">
        <ele>72.400001525879</ele>
        <time>2020-10-25T11:05:32.000Z</time>
      </trkpt>
      <trkpt lat="47.27419" lon="-2.32044">
        <ele>72.400001525879</ele>
        <time>2020-10-25T11:05:35.000Z</time>
      </trkpt>
      <trkpt lat="47.27407" lon="-2.32039">
        <ele>72.400001525879</ele>
        <time>2020-10-25T11:05:38.000Z</time>
      </trkpt>
      <trkpt lat="47.27394" lon="-2.32029">
        <ele>72.400001525879</ele>
        <time>2020-10-25T11:05:41.000Z</time>
      </trkpt>
      <trkpt lat="47.27389" lon="-2.32025">
        <ele>72.400001525879</ele>
        <time>2020-10-25T11:05:42.000Z</time>
      </trkpt>
      <trkpt lat="47.27384" lon="-2.32021">
        <ele>72.400001525879</ele>
        <time>2020-10-25T11:05:43.000Z</time>
      </trkpt>
      <trkpt lat="47.27372" lon="-2.32009">
        <ele>72.400001525879</ele>
        <time>2020-10-25T11:05:46.000Z</time>
      </trkpt>
      <trkpt lat="47.27368" lon="-2.32005">
        <ele>72.400001525879</ele>
        <time>2020-10-25T11:05:47.000Z</time>
      </trkpt>
      <trkpt lat="47.27349" lon="-2.3199">
        <ele>72.400001525879</ele>
        <time>2020-10-25T11:05:52.000Z</time>
      </trkpt>
      <trkpt lat="47.27347" lon="-2.31992">
        <ele>72.400001525879</ele>
        <time>2020-10-25T11:05:53.000Z</time>
      </trkpt>
      <trkpt lat="47.27347" lon="-2.32001">
        <ele>72.400001525879</ele>
        <time>2020-10-25T11:05:56.000Z</time>
      </trkpt>
      <trkpt lat="47.27351" lon="-2.32009">
        <ele>72</ele>
        <time>2020-10-25T11:05:58.000Z</time>
      </trkpt>
      <trkpt lat="47.27353" lon="-2.32013">
        <ele>71.599998474121</ele>
        <time>2020-10-25T11:05:59.000Z</time>
      </trkpt>
      <trkpt lat="47.27356" lon="-2.32017">
        <ele>71.199996948242</ele>
        <time>2020-10-25T11:06:00.000Z</time>
      </trkpt>
      <trkpt lat="47.27358" lon="-2.3202">
        <ele>70.800003051758</ele>
        <time>2020-10-25T11:06:01.000Z</time>
      </trkpt>
      <trkpt lat="47.27361" lon="-2.32024">
        <ele>70.400001525879</ele>
        <time>2020-10-25T11:06:02.000Z</time>
      </trkpt>
      <trkpt lat="47.27379" lon="-2.32047">
        <ele>70.400001525879</ele>
        <time>2020-10-25T11:06:07.000Z</time>
      </trkpt>
      <trkpt lat="47.27391" lon="-2.3206">
        <ele>70.400001525879</ele>
        <time>2020-10-25T11:06:10.000Z</time>
      </trkpt>
      <trkpt lat="47.27403" lon="-2.32074">
        <ele>70.400001525879</ele>
        <time>2020-10-25T11:06:13.000Z</time>
      </trkpt>
      <trkpt lat="47.27409" lon="-2.32086">
        <ele>70.400001525879</ele>
        <time>2020-10-25T11:06:15.000Z</time>
      </trkpt>
      <trkpt lat="47.27413" lon="-2.32099">
        <ele>70.400001525879</ele>
        <time>2020-10-25T11:06:17.000Z</time>
      </trkpt>
      <trkpt lat="47.2741" lon="-2.32123">
        <ele>70.400001525879</ele>
        <time>2020-10-25T11:06:20.000Z</time>
      </trkpt>
      <trkpt lat="47.27409" lon="-2.32131">
        <ele>70.400001525879</ele>
        <time>2020-10-25T11:06:21.000Z</time>
      </trkpt>
      <trkpt lat="47.274" lon="-2.32187">
        <ele>70.400001525879</ele>
        <time>2020-10-25T11:06:28.000Z</time>
      </trkpt>
      <trkpt lat="47.27397" lon="-2.32204">
        <ele>70.400001525879</ele>
        <time>2020-10-25T11:06:30.000Z</time>
      </trkpt>
      <trkpt lat="47.27396" lon="-2.32228">
        <ele>70.400001525879</ele>
        <time>2020-10-25T11:06:33.000Z</time>
      </trkpt>
      <trkpt lat="47.27395" lon="-2.32236">
        <ele>70.400001525879</ele>
        <time>2020-10-25T11:06:34.000Z</time>
      </trkpt>
      <trkpt lat="47.27387" lon="-2.32264">
        <ele>70.400001525879</ele>
        <time>2020-10-25T11:06:38.000Z</time>
      </trkpt>
      <trkpt lat="47.27375" lon="-2.32309">
        <ele>70.400001525879</ele>
        <time>2020-10-25T11:06:45.000Z</time>
      </trkpt>
      <trkpt lat="47.27365" lon="-2.3236">
        <ele>70.400001525879</ele>
        <time>2020-10-25T11:06:52.000Z</time>
      </trkpt>
      <trkpt lat="47.27355" lon="-2.32407">
        <ele>70.400001525879</ele>
        <time>2020-10-25T11:06:57.000Z</time>
      </trkpt>
      <trkpt lat="47.2734" lon="-2.32449">
        <ele>70.400001525879</ele>
        <time>2020-10-25T11:07:02.000Z</time>
      </trkpt>
      <trkpt lat="47.27324" lon="-2.3248">
        <ele>70.400001525879</ele>
        <time>2020-10-25T11:07:07.000Z</time>
      </trkpt>
      <trkpt lat="47.2732" lon="-2.32485">
        <ele>70.400001525879</ele>
        <time>2020-10-25T11:07:08.000Z</time>
      </trkpt>
      <trkpt lat="47.27298" lon="-2.32524">
        <ele>70.400001525879</ele>
        <time>2020-10-25T11:07:15.000Z</time>
      </trkpt>
      <trkpt lat="47.27291" lon="-2.32534">
        <ele>70.400001525879</ele>
        <time>2020-10-25T11:07:17.000Z</time>
      </trkpt>
      <trkpt lat="47.27274" lon="-2.32554">
        <ele>70.400001525879</ele>
        <time>2020-10-25T11:07:21.000Z</time>
      </trkpt>
      <trkpt lat="47.27237" lon="-2.32596">
        <ele>70.400001525879</ele>
        <time>2020-10-25T11:07:30.000Z</time>
      </trkpt>
      <trkpt lat="47.27203" lon="-2.32629">
        <ele>70.400001525879</ele>
        <time>2020-10-25T11:07:38.000Z</time>
      </trkpt>
      <trkpt lat="47.27182" lon="-2.3265">
        <ele>70</ele>
        <time>2020-10-25T11:07:43.000Z</time>
      </trkpt>
      <trkpt lat="47.27177" lon="-2.32653">
        <ele>69.599998474121</ele>
        <time>2020-10-25T11:07:44.000Z</time>
      </trkpt>
      <trkpt lat="47.27173" lon="-2.32657">
        <ele>69.199996948242</ele>
        <time>2020-10-25T11:07:45.000Z</time>
      </trkpt>
      <trkpt lat="47.27169" lon="-2.32661">
        <ele>68.800003051758</ele>
        <time>2020-10-25T11:07:46.000Z</time>
      </trkpt>
      <trkpt lat="47.27165" lon="-2.32666">
        <ele>68.400001525879</ele>
        <time>2020-10-25T11:07:47.000Z</time>
      </trkpt>
      <trkpt lat="47.27147" lon="-2.32682">
        <ele>68.400001525879</ele>
        <time>2020-10-25T11:07:51.000Z</time>
      </trkpt>
      <trkpt lat="47.27131" lon="-2.327">
        <ele>68.400001525879</ele>
        <time>2020-10-25T11:07:55.000Z</time>
      </trkpt>
      <trkpt lat="47.2713" lon="-2.32707">
        <ele>68.400001525879</ele>
        <time>2020-10-25T11:07:56.000Z</time>
      </trkpt>
      <trkpt lat="47.27119" lon="-2.32716">
        <ele>68.400001525879</ele>
        <time>2020-10-25T11:07:59.000Z</time>
      </trkpt>
      <trkpt lat="47.27095" lon="-2.32738">
        <ele>68.400001525879</ele>
        <time>2020-10-25T11:08:05.000Z</time>
      </trkpt>
      <trkpt lat="47.27059" lon="-2.32772">
        <ele>68.400001525879</ele>
        <time>2020-10-25T11:08:13.000Z</time>
      </trkpt>
      <trkpt lat="47.27027" lon="-2.32801">
        <ele>68</ele>
        <time>2020-10-25T11:08:19.000Z</time>
      </trkpt>
      <trkpt lat="47.27022" lon="-2.32806">
        <ele>67.599998474121</ele>
        <time>2020-10-25T11:08:20.000Z</time>
      </trkpt>
      <trkpt lat="47.27017" lon="-2.32811">
        <ele>67.199996948242</ele>
        <time>2020-10-25T11:08:21.000Z</time>
      </trkpt>
      <trkpt lat="47.27011" lon="-2.32817">
        <ele>66.800003051758</ele>
        <time>2020-10-25T11:08:22.000Z</time>
      </trkpt>
      <trkpt lat="47.27005" lon="-2.32821">
        <ele>66.400001525879</ele>
        <time>2020-10-25T11:08:23.000Z</time>
      </trkpt>
      <trkpt lat="47.26978" lon="-2.32846">
        <ele>66.400001525879</ele>
        <time>2020-10-25T11:08:28.000Z</time>
      </trkpt>
      <trkpt lat="47.26941" lon="-2.32879">
        <ele>66.400001525879</ele>
        <time>2020-10-25T11:08:35.000Z</time>
      </trkpt>
      <trkpt lat="47.26897" lon="-2.3292">
        <ele>66.400001525879</ele>
        <time>2020-10-25T11:08:44.000Z</time>
      </trkpt>
      <trkpt lat="47.26857" lon="-2.32959">
        <ele>66.400001525879</ele>
        <time>2020-10-25T11:08:52.000Z</time>
      </trkpt>
      <trkpt lat="47.26819" lon="-2.32994">
        <ele>66.400001525879</ele>
        <time>2020-10-25T11:09:00.000Z</time>
      </trkpt>
      <trkpt lat="47.268" lon="-2.33012">
        <ele>66.400001525879</ele>
        <time>2020-10-25T11:09:04.000Z</time>
      </trkpt>
      <trkpt lat="47.26786" lon="-2.33027">
        <ele>66.400001525879</ele>
        <time>2020-10-25T11:09:07.000Z</time>
      </trkpt>
      <trkpt lat="47.26757" lon="-2.33054">
        <ele>66.400001525879</ele>
        <time>2020-10-25T11:09:14.000Z</time>
      </trkpt>
      <trkpt lat="47.2674" lon="-2.33067">
        <ele>66.400001525879</ele>
        <time>2020-10-25T11:09:20.000Z</time>
      </trkpt>
      <trkpt lat="47.26728" lon="-2.33062">
        <ele>66.400001525879</ele>
        <time>2020-10-25T11:09:24.000Z</time>
      </trkpt>
      <trkpt lat="47.26718" lon="-2.33073">
        <ele>66</ele>
        <time>2020-10-25T11:09:27.000Z</time>
      </trkpt>
      <trkpt lat="47.26715" lon="-2.33077">
        <ele>65.599998474121</ele>
        <time>2020-10-25T11:09:28.000Z</time>
      </trkpt>
      <trkpt lat="47.26711" lon="-2.33081">
        <ele>65.199996948242</ele>
        <time>2020-10-25T11:09:29.000Z</time>
      </trkpt>
      <trkpt lat="47.26708" lon="-2.33084">
        <ele>64.800003051758</ele>
        <time>2020-10-25T11:09:30.000Z</time>
      </trkpt>
      <trkpt lat="47.26704" lon="-2.33089">
        <ele>64.400001525879</ele>
        <time>2020-10-25T11:09:31.000Z</time>
      </trkpt>
      <trkpt lat="47.26697" lon="-2.33096">
        <ele>64.400001525879</ele>
        <time>2020-10-25T11:09:33.000Z</time>
      </trkpt>
      <trkpt lat="47.26693" lon="-2.33099">
        <ele>64.400001525879</ele>
        <time>2020-10-25T11:09:34.000Z</time>
      </trkpt>
      <trkpt lat="47.26682" lon="-2.33109">
        <ele>64.400001525879</ele>
        <time>2020-10-25T11:09:37.000Z</time>
      </trkpt>
      <trkpt lat="47.26668" lon="-2.33123">
        <ele>64.400001525879</ele>
        <time>2020-10-25T11:09:41.000Z</time>
      </trkpt>
      <trkpt lat="47.26664" lon="-2.33126">
        <ele>64.400001525879</ele>
        <time>2020-10-25T11:09:42.000Z</time>
      </trkpt>
      <trkpt lat="47.2664" lon="-2.33144">
        <ele>64.400001525879</ele>
        <time>2020-10-25T11:09:48.000Z</time>
      </trkpt>
      <trkpt lat="47.26629" lon="-2.33151">
        <ele>63.400001525879</ele>
        <time>2020-10-25T11:09:51.000Z</time>
      </trkpt>
      <trkpt lat="47.26624" lon="-2.33151">
        <ele>63</ele>
        <time>2020-10-25T11:09:52.000Z</time>
      </trkpt>
      <trkpt lat="47.2662" lon="-2.33151">
        <ele>62.599998474121</ele>
        <time>2020-10-25T11:09:53.000Z</time>
      </trkpt>
      <trkpt lat="47.26616" lon="-2.33151">
        <ele>62.200000762939</ele>
        <time>2020-10-25T11:09:54.000Z</time>
      </trkpt>
      <trkpt lat="47.2661" lon="-2.33156">
        <ele>62.200000762939</ele>
        <time>2020-10-25T11:09:56.000Z</time>
      </trkpt>
      <trkpt lat="47.26607" lon="-2.3316">
        <ele>62.200000762939</ele>
        <time>2020-10-25T11:09:57.000Z</time>
      </trkpt>
      <trkpt lat="47.26597" lon="-2.33184">
        <ele>62.200000762939</ele>
        <time>2020-10-25T11:10:02.000Z</time>
      </trkpt>
      <trkpt lat="47.26594" lon="-2.33199">
        <ele>61.799999237061</ele>
        <time>2020-10-25T11:10:05.000Z</time>
      </trkpt>
      <trkpt lat="47.26592" lon="-2.33203">
        <ele>61.400001525879</ele>
        <time>2020-10-25T11:10:06.000Z</time>
      </trkpt>
      <trkpt lat="47.2659" lon="-2.33205">
        <ele>61</ele>
        <time>2020-10-25T11:10:07.000Z</time>
      </trkpt>
      <trkpt lat="47.26587" lon="-2.33208">
        <ele>60.599998474121</ele>
        <time>2020-10-25T11:10:08.000Z</time>
      </trkpt>
      <trkpt lat="47.26585" lon="-2.33211">
        <ele>60.200000762939</ele>
        <time>2020-10-25T11:10:09.000Z</time>
      </trkpt>
      <trkpt lat="47.26581" lon="-2.33213">
        <ele>60.200000762939</ele>
        <time>2020-10-25T11:10:10.000Z</time>
      </trkpt>
      <trkpt lat="47.26577" lon="-2.33216">
        <ele>60.200000762939</ele>
        <time>2020-10-25T11:10:11.000Z</time>
      </trkpt>
      <trkpt lat="47.26546" lon="-2.33233">
        <ele>60.200000762939</ele>
        <time>2020-10-25T11:10:18.000Z</time>
      </trkpt>
      <trkpt lat="47.26528" lon="-2.33245">
        <ele>60.200000762939</ele>
        <time>2020-10-25T11:10:24.000Z</time>
      </trkpt>
      <trkpt lat="47.26509" lon="-2.33256">
        <ele>60.200000762939</ele>
        <time>2020-10-25T11:10:30.000Z</time>
      </trkpt>
      <trkpt lat="47.265" lon="-2.33263">
        <ele>59.799999237061</ele>
        <time>2020-10-25T11:10:33.000Z</time>
      </trkpt>
      <trkpt lat="47.26497" lon="-2.33266">
        <ele>59.400001525879</ele>
        <time>2020-10-25T11:10:34.000Z</time>
      </trkpt>
      <trkpt lat="47.26495" lon="-2.3327">
        <ele>58.799999237061</ele>
        <time>2020-10-25T11:10:35.000Z</time>
      </trkpt>
      <trkpt lat="47.26493" lon="-2.33275">
        <ele>58.400001525879</ele>
        <time>2020-10-25T11:10:36.000Z</time>
      </trkpt>
      <trkpt lat="47.26491" lon="-2.33279">
        <ele>58</ele>
        <time>2020-10-25T11:10:37.000Z</time>
      </trkpt>
      <trkpt lat="47.26488" lon="-2.33282">
        <ele>58</ele>
        <time>2020-10-25T11:10:38.000Z</time>
      </trkpt>
      <trkpt lat="47.26481" lon="-2.33287">
        <ele>58</ele>
        <time>2020-10-25T11:10:40.000Z</time>
      </trkpt>
      <trkpt lat="47.26476" lon="-2.33295">
        <ele>58</ele>
        <time>2020-10-25T11:10:42.000Z</time>
      </trkpt>
      <trkpt lat="47.26474" lon="-2.33299">
        <ele>58</ele>
        <time>2020-10-25T11:10:43.000Z</time>
      </trkpt>
      <trkpt lat="47.26469" lon="-2.33309">
        <ele>58</ele>
        <time>2020-10-25T11:10:45.000Z</time>
      </trkpt>
      <trkpt lat="47.26465" lon="-2.33312">
        <ele>57.599998474121</ele>
        <time>2020-10-25T11:10:46.000Z</time>
      </trkpt>
      <trkpt lat="47.26462" lon="-2.33315">
        <ele>57.200000762939</ele>
        <time>2020-10-25T11:10:47.000Z</time>
      </trkpt>
      <trkpt lat="47.26458" lon="-2.33318">
        <ele>56.799999237061</ele>
        <time>2020-10-25T11:10:48.000Z</time>
      </trkpt>
      <trkpt lat="47.26454" lon="-2.3332">
        <ele>56.400001525879</ele>
        <time>2020-10-25T11:10:49.000Z</time>
      </trkpt>
      <trkpt lat="47.2645" lon="-2.33323">
        <ele>55.799999237061</ele>
        <time>2020-10-25T11:10:50.000Z</time>
      </trkpt>
      <trkpt lat="47.26417" lon="-2.33347">
        <ele>55.799999237061</ele>
        <time>2020-10-25T11:10:58.000Z</time>
      </trkpt>
      <trkpt lat="47.26396" lon="-2.33361">
        <ele>55.400001525879</ele>
        <time>2020-10-25T11:11:03.000Z</time>
      </trkpt>
      <trkpt lat="47.26392" lon="-2.33364">
        <ele>54.599998474121</ele>
        <time>2020-10-25T11:11:04.000Z</time>
      </trkpt>
      <trkpt lat="47.26388" lon="-2.33366">
        <ele>54.200000762939</ele>
        <time>2020-10-25T11:11:05.000Z</time>
      </trkpt>
      <trkpt lat="47.26383" lon="-2.33369">
        <ele>53.799999237061</ele>
        <time>2020-10-25T11:11:06.000Z</time>
      </trkpt>
      <trkpt lat="47.26348" lon="-2.33389">
        <ele>53.799999237061</ele>
        <time>2020-10-25T11:11:14.000Z</time>
      </trkpt>
      <trkpt lat="47.26317" lon="-2.33407">
        <ele>54.400001525879</ele>
        <time>2020-10-25T11:11:21.000Z</time>
      </trkpt>
      <trkpt lat="47.26313" lon="-2.33412">
        <ele>55</ele>
        <time>2020-10-25T11:11:22.000Z</time>
      </trkpt>
      <trkpt lat="47.26309" lon="-2.33416">
        <ele>55.599998474121</ele>
        <time>2020-10-25T11:11:23.000Z</time>
      </trkpt>
      <trkpt lat="47.26306" lon="-2.3342">
        <ele>56.400001525879</ele>
        <time>2020-10-25T11:11:24.000Z</time>
      </trkpt>
      <trkpt lat="47.26302" lon="-2.33422">
        <ele>57.200000762939</ele>
        <time>2020-10-25T11:11:25.000Z</time>
      </trkpt>
      <trkpt lat="47.26298" lon="-2.33424">
        <ele>58</ele>
        <time>2020-10-25T11:11:26.000Z</time>
      </trkpt>
      <trkpt lat="47.26294" lon="-2.33425">
        <ele>58.599998474121</ele>
        <time>2020-10-25T11:11:27.000Z</time>
      </trkpt>
      <trkpt lat="47.26289" lon="-2.33425">
        <ele>59.400001525879</ele>
        <time>2020-10-25T11:11:28.000Z</time>
      </trkpt>
      <trkpt lat="47.26284" lon="-2.33426">
        <ele>60.200000762939</ele>
        <time>2020-10-25T11:11:29.000Z</time>
      </trkpt>
      <trkpt lat="47.26279" lon="-2.33428">
        <ele>62</ele>
        <time>2020-10-25T11:11:30.000Z</time>
      </trkpt>
      <trkpt lat="47.26274" lon="-2.33428">
        <ele>63.200000762939</ele>
        <time>2020-10-25T11:11:31.000Z</time>
      </trkpt>
      <trkpt lat="47.26269" lon="-2.33429">
        <ele>64.599998474121</ele>
        <time>2020-10-25T11:11:32.000Z</time>
      </trkpt>
      <trkpt lat="47.26264" lon="-2.3343">
        <ele>65.800003051758</ele>
        <time>2020-10-25T11:11:33.000Z</time>
      </trkpt>
      <trkpt lat="47.26259" lon="-2.33431">
        <ele>67.199996948242</ele>
        <time>2020-10-25T11:11:34.000Z</time>
      </trkpt>
      <trkpt lat="47.26255" lon="-2.33432">
        <ele>68.400001525879</ele>
        <time>2020-10-25T11:11:35.000Z</time>
      </trkpt>
      <trkpt lat="47.2624" lon="-2.33434">
        <ele>68.400001525879</ele>
        <time>2020-10-25T11:11:38.000Z</time>
      </trkpt>
      <trkpt lat="47.26205" lon="-2.33442">
        <ele>68.400001525879</ele>
        <time>2020-10-25T11:11:46.000Z</time>
      </trkpt>
      <trkpt lat="47.26191" lon="-2.33443">
        <ele>68.400001525879</ele>
        <time>2020-10-25T11:11:49.000Z</time>
      </trkpt>
      <trkpt lat="47.26179" lon="-2.33444">
        <ele>68.400001525879</ele>
        <time>2020-10-25T11:11:52.000Z</time>
      </trkpt>
      <trkpt lat="47.26171" lon="-2.33442">
        <ele>68.400001525879</ele>
        <time>2020-10-25T11:11:54.000Z</time>
      </trkpt>
      <trkpt lat="47.26167" lon="-2.33441">
        <ele>68.400001525879</ele>
        <time>2020-10-25T11:11:55.000Z</time>
      </trkpt>
      <trkpt lat="47.26159" lon="-2.33437">
        <ele>68.400001525879</ele>
        <time>2020-10-25T11:11:57.000Z</time>
      </trkpt>
      <trkpt lat="47.2614" lon="-2.33432">
        <ele>68.400001525879</ele>
        <time>2020-10-25T11:12:02.000Z</time>
      </trkpt>
      <trkpt lat="47.26137" lon="-2.33435">
        <ele>68.400001525879</ele>
        <time>2020-10-25T11:12:03.000Z</time>
      </trkpt>
      <trkpt lat="47.2613" lon="-2.33449">
        <ele>68.400001525879</ele>
        <time>2020-10-25T11:12:06.000Z</time>
      </trkpt>
      <trkpt lat="47.26126" lon="-2.33451">
        <ele>68.400001525879</ele>
        <time>2020-10-25T11:12:07.000Z</time>
      </trkpt>
      <trkpt lat="47.26109" lon="-2.33459">
        <ele>68.400001525879</ele>
        <time>2020-10-25T11:12:11.000Z</time>
      </trkpt>
      <trkpt lat="47.26088" lon="-2.33472">
        <ele>68.400001525879</ele>
        <time>2020-10-25T11:12:16.000Z</time>
      </trkpt>
      <trkpt lat="47.26069" lon="-2.33463">
        <ele>68.400001525879</ele>
        <time>2020-10-25T11:12:20.000Z</time>
      </trkpt>
      <trkpt lat="47.2605" lon="-2.33453">
        <ele>68.400001525879</ele>
        <time>2020-10-25T11:12:24.000Z</time>
      </trkpt>
      <trkpt lat="47.26041" lon="-2.33468">
        <ele>68.400001525879</ele>
        <time>2020-10-25T11:12:27.000Z</time>
      </trkpt>
      <trkpt lat="47.26038" lon="-2.33474">
        <ele>68.400001525879</ele>
        <time>2020-10-25T11:12:28.000Z</time>
      </trkpt>
      <trkpt lat="47.26034" lon="-2.33479">
        <ele>68.400001525879</ele>
        <time>2020-10-25T11:12:29.000Z</time>
      </trkpt>
      <trkpt lat="47.26022" lon="-2.33489">
        <ele>68.400001525879</ele>
        <time>2020-10-25T11:12:32.000Z</time>
      </trkpt>
      <trkpt lat="47.26002" lon="-2.33492">
        <ele>68.400001525879</ele>
        <time>2020-10-25T11:12:36.000Z</time>
      </trkpt>
      <trkpt lat="47.25997" lon="-2.33493">
        <ele>68.400001525879</ele>
        <time>2020-10-25T11:12:37.000Z</time>
      </trkpt>
      <trkpt lat="47.25988" lon="-2.33497">
        <ele>68.400001525879</ele>
        <time>2020-10-25T11:12:39.000Z</time>
      </trkpt>
      <trkpt lat="47.25981" lon="-2.33506">
        <ele>68.400001525879</ele>
        <time>2020-10-25T11:12:41.000Z</time>
      </trkpt>
      <trkpt lat="47.25968" lon="-2.3351">
        <ele>68.400001525879</ele>
        <time>2020-10-25T11:12:44.000Z</time>
      </trkpt>
      <trkpt lat="47.2595" lon="-2.33515">
        <ele>68.400001525879</ele>
        <time>2020-10-25T11:12:48.000Z</time>
      </trkpt>
      <trkpt lat="47.25939" lon="-2.33525">
        <ele>68.400001525879</ele>
        <time>2020-10-25T11:12:51.000Z</time>
      </trkpt>
      <trkpt lat="47.25927" lon="-2.33535">
        <ele>68.400001525879</ele>
        <time>2020-10-25T11:12:54.000Z</time>
      </trkpt>
      <trkpt lat="47.25898" lon="-2.33561">
        <ele>68.400001525879</ele>
        <time>2020-10-25T11:13:01.000Z</time>
      </trkpt>
      <trkpt lat="47.25869" lon="-2.33579">
        <ele>68.800003051758</ele>
        <time>2020-10-25T11:13:07.000Z</time>
      </trkpt>
      <trkpt lat="47.25863" lon="-2.3358">
        <ele>69.599998474121</ele>
        <time>2020-10-25T11:13:08.000Z</time>
      </trkpt>
      <trkpt lat="47.25858" lon="-2.3358">
        <ele>70</ele>
        <time>2020-10-25T11:13:09.000Z</time>
      </trkpt>
      <trkpt lat="47.25853" lon="-2.3358">
        <ele>70.400001525879</ele>
        <time>2020-10-25T11:13:10.000Z</time>
      </trkpt>
      <trkpt lat="47.2583" lon="-2.33582">
        <ele>70.400001525879</ele>
        <time>2020-10-25T11:13:14.000Z</time>
      </trkpt>
      <trkpt lat="47.25795" lon="-2.33583">
        <ele>70.400001525879</ele>
        <time>2020-10-25T11:13:20.000Z</time>
      </trkpt>
      <trkpt lat="47.25754" lon="-2.33585">
        <ele>70.400001525879</ele>
        <time>2020-10-25T11:13:27.000Z</time>
      </trkpt>
      <trkpt lat="47.25749" lon="-2.33587">
        <ele>70.400001525879</ele>
        <time>2020-10-25T11:13:28.000Z</time>
      </trkpt>
      <trkpt lat="47.25733" lon="-2.33587">
        <ele>70.400001525879</ele>
        <time>2020-10-25T11:13:31.000Z</time>
      </trkpt>
      <trkpt lat="47.25715" lon="-2.33587">
        <ele>70.400001525879</ele>
        <time>2020-10-25T11:13:34.000Z</time>
      </trkpt>
      <trkpt lat="47.25709" lon="-2.33587">
        <ele>70.400001525879</ele>
        <time>2020-10-25T11:13:35.000Z</time>
      </trkpt>
      <trkpt lat="47.25669" lon="-2.33583">
        <ele>70.400001525879</ele>
        <time>2020-10-25T11:13:42.000Z</time>
      </trkpt>
      <trkpt lat="47.25634" lon="-2.33566">
        <ele>70.400001525879</ele>
        <time>2020-10-25T11:13:48.000Z</time>
      </trkpt>
      <trkpt lat="47.25618" lon="-2.33554">
        <ele>70.400001525879</ele>
        <time>2020-10-25T11:13:51.000Z</time>
      </trkpt>
      <trkpt lat="47.25613" lon="-2.3355">
        <ele>70.800003051758</ele>
        <time>2020-10-25T11:13:52.000Z</time>
      </trkpt>
      <trkpt lat="47.25608" lon="-2.33545">
        <ele>71.400001525879</ele>
        <time>2020-10-25T11:13:53.000Z</time>
      </trkpt>
      <trkpt lat="47.25603" lon="-2.3354">
        <ele>71.800003051758</ele>
        <time>2020-10-25T11:13:54.000Z</time>
      </trkpt>
      <trkpt lat="47.25598" lon="-2.33534">
        <ele>72.199996948242</ele>
        <time>2020-10-25T11:13:55.000Z</time>
      </trkpt>
      <trkpt lat="47.25592" lon="-2.33529">
        <ele>72.599998474121</ele>
        <time>2020-10-25T11:13:56.000Z</time>
      </trkpt>
      <trkpt lat="47.25571" lon="-2.33499">
        <ele>72.599998474121</ele>
        <time>2020-10-25T11:14:01.000Z</time>
      </trkpt>
      <trkpt lat="47.25548" lon="-2.33456">
        <ele>72.599998474121</ele>
        <time>2020-10-25T11:14:07.000Z</time>
      </trkpt>
      <trkpt lat="47.25546" lon="-2.33449">
        <ele>72.599998474121</ele>
        <time>2020-10-25T11:14:08.000Z</time>
      </trkpt>
      <trkpt lat="47.25531" lon="-2.33402">
        <ele>72.599998474121</ele>
        <time>2020-10-25T11:14:14.000Z</time>
      </trkpt>
      <trkpt lat="47.25523" lon="-2.33348">
        <ele>72.599998474121</ele>
        <time>2020-10-25T11:14:20.000Z</time>
      </trkpt>
      <trkpt lat="47.25513" lon="-2.33276">
        <ele>72.599998474121</ele>
        <time>2020-10-25T11:14:28.000Z</time>
      </trkpt>
      <trkpt lat="47.25504" lon="-2.33203">
        <ele>72.599998474121</ele>
        <time>2020-10-25T11:14:36.000Z</time>
      </trkpt>
      <trkpt lat="47.25494" lon="-2.33125">
        <ele>72.599998474121</ele>
        <time>2020-10-25T11:14:45.000Z</time>
      </trkpt>
      <trkpt lat="47.25493" lon="-2.33117">
        <ele>72.599998474121</ele>
        <time>2020-10-25T11:14:46.000Z</time>
      </trkpt>
      <trkpt lat="47.25489" lon="-2.33095">
        <ele>72.599998474121</ele>
        <time>2020-10-25T11:14:49.000Z</time>
      </trkpt>
      <trkpt lat="47.2548" lon="-2.33091">
        <ele>72.599998474121</ele>
        <time>2020-10-25T11:14:51.000Z</time>
      </trkpt>
      <trkpt lat="47.25468" lon="-2.33101">
        <ele>72.599998474121</ele>
        <time>2020-10-25T11:14:54.000Z</time>
      </trkpt>
      <trkpt lat="47.25464" lon="-2.33103">
        <ele>72.599998474121</ele>
        <time>2020-10-25T11:14:55.000Z</time>
      </trkpt>
      <trkpt lat="47.25445" lon="-2.33113">
        <ele>72.599998474121</ele>
        <time>2020-10-25T11:14:59.000Z</time>
      </trkpt>
      <trkpt lat="47.25417" lon="-2.33124">
        <ele>72.599998474121</ele>
        <time>2020-10-25T11:15:05.000Z</time>
      </trkpt>
      <trkpt lat="47.25393" lon="-2.33134">
        <ele>72.599998474121</ele>
        <time>2020-10-25T11:15:12.000Z</time>
      </trkpt>
      <trkpt lat="47.2538" lon="-2.33138">
        <ele>72.599998474121</ele>
        <time>2020-10-25T11:15:17.000Z</time>
      </trkpt>
      <trkpt lat="47.25378" lon="-2.33127">
        <ele>72.599998474121</ele>
        <time>2020-10-25T11:15:20.000Z</time>
      </trkpt>
      <trkpt lat="47.25378" lon="-2.33124">
        <ele>72.599998474121</ele>
        <time>2020-10-25T11:15:21.000Z</time>
      </trkpt>
      <trkpt lat="47.25373" lon="-2.33115">
        <ele>72.599998474121</ele>
        <time>2020-10-25T11:15:27.000Z</time>
      </trkpt>
      <trkpt lat="47.25373" lon="-2.33114">
        <ele>72.599998474121</ele>
        <time>2020-10-25T11:15:29.000Z</time>
      </trkpt>
      <trkpt lat="47.2537" lon="-2.33101">
        <ele>72.599998474121</ele>
        <time>2020-10-25T11:22:33.000Z</time>
      </trkpt>
      <trkpt lat="47.2537" lon="-2.33099">
        <ele>72.599998474121</ele>
        <time>2020-10-25T11:22:34.000Z</time>
      </trkpt>
      <trkpt lat="47.25369" lon="-2.33096">
        <ele>72.599998474121</ele>
        <time>2020-10-25T11:22:35.000Z</time>
      </trkpt>
      <trkpt lat="47.25365" lon="-2.33083">
        <ele>72.599998474121</ele>
        <time>2020-10-25T11:22:38.000Z</time>
      </trkpt>
      <trkpt lat="47.25354" lon="-2.33058">
        <ele>72.599998474121</ele>
        <time>2020-10-25T11:22:43.000Z</time>
      </trkpt>
      <trkpt lat="47.25352" lon="-2.33053">
        <ele>72.599998474121</ele>
        <time>2020-10-25T11:22:44.000Z</time>
      </trkpt>
      <trkpt lat="47.25337" lon="-2.33015">
        <ele>72.599998474121</ele>
        <time>2020-10-25T11:22:51.000Z</time>
      </trkpt>
      <trkpt lat="47.25317" lon="-2.32963">
        <ele>72.599998474121</ele>
        <time>2020-10-25T11:23:00.000Z</time>
      </trkpt>
      <trkpt lat="47.25308" lon="-2.32935">
        <ele>72.599998474121</ele>
        <time>2020-10-25T11:23:05.000Z</time>
      </trkpt>
      <trkpt lat="47.25308" lon="-2.32929">
        <ele>72.599998474121</ele>
        <time>2020-10-25T11:23:06.000Z</time>
      </trkpt>
      <trkpt lat="47.25319" lon="-2.32909">
        <ele>72.599998474121</ele>
        <time>2020-10-25T11:23:10.000Z</time>
      </trkpt>
      <trkpt lat="47.25323" lon="-2.32906">
        <ele>72.599998474121</ele>
        <time>2020-10-25T11:23:11.000Z</time>
      </trkpt>
      <trkpt lat="47.2535" lon="-2.3288">
        <ele>72.599998474121</ele>
        <time>2020-10-25T11:23:18.000Z</time>
      </trkpt>
      <trkpt lat="47.25378" lon="-2.32853">
        <ele>72.599998474121</ele>
        <time>2020-10-25T11:23:25.000Z</time>
      </trkpt>
      <trkpt lat="47.25402" lon="-2.32824">
        <ele>72.599998474121</ele>
        <time>2020-10-25T11:23:31.000Z</time>
      </trkpt>
      <trkpt lat="47.25424" lon="-2.3279">
        <ele>72.599998474121</ele>
        <time>2020-10-25T11:23:38.000Z</time>
      </trkpt>
      <trkpt lat="47.25433" lon="-2.3277">
        <ele>73</ele>
        <time>2020-10-25T11:23:42.000Z</time>
      </trkpt>
      <trkpt lat="47.25436" lon="-2.32765">
        <ele>73.400001525879</ele>
        <time>2020-10-25T11:23:43.000Z</time>
      </trkpt>
      <trkpt lat="47.25439" lon="-2.32761">
        <ele>73.800003051758</ele>
        <time>2020-10-25T11:23:44.000Z</time>
      </trkpt>
      <trkpt lat="47.25442" lon="-2.32756">
        <ele>74.199996948242</ele>
        <time>2020-10-25T11:23:45.000Z</time>
      </trkpt>
      <trkpt lat="47.25445" lon="-2.3275">
        <ele>74.599998474121</ele>
        <time>2020-10-25T11:23:46.000Z</time>
      </trkpt>
      <trkpt lat="47.25462" lon="-2.32726">
        <ele>74.599998474121</ele>
        <time>2020-10-25T11:23:51.000Z</time>
      </trkpt>
      <trkpt lat="47.25482" lon="-2.32697">
        <ele>74.599998474121</ele>
        <time>2020-10-25T11:23:57.000Z</time>
      </trkpt>
      <trkpt lat="47.25485" lon="-2.32692">
        <ele>74.599998474121</ele>
        <time>2020-10-25T11:23:58.000Z</time>
      </trkpt>
      <trkpt lat="47.25488" lon="-2.32665">
        <ele>74.599998474121</ele>
        <time>2020-10-25T11:24:02.000Z</time>
      </trkpt>
      <trkpt lat="47.25487" lon="-2.32651">
        <ele>74.599998474121</ele>
        <time>2020-10-25T11:24:04.000Z</time>
      </trkpt>
      <trkpt lat="47.25484" lon="-2.32632">
        <ele>74.599998474121</ele>
        <time>2020-10-25T11:24:07.000Z</time>
      </trkpt>
      <trkpt lat="47.25482" lon="-2.32625">
        <ele>75</ele>
        <time>2020-10-25T11:24:08.000Z</time>
      </trkpt>
      <trkpt lat="47.25481" lon="-2.32618">
        <ele>75.400001525879</ele>
        <time>2020-10-25T11:24:09.000Z</time>
      </trkpt>
      <trkpt lat="47.2548" lon="-2.32611">
        <ele>76</ele>
        <time>2020-10-25T11:24:10.000Z</time>
      </trkpt>
      <trkpt lat="47.25479" lon="-2.32604">
        <ele>76.400001525879</ele>
        <time>2020-10-25T11:24:11.000Z</time>
      </trkpt>
      <trkpt lat="47.25478" lon="-2.32597">
        <ele>76.800003051758</ele>
        <time>2020-10-25T11:24:12.000Z</time>
      </trkpt>
      <trkpt lat="47.25478" lon="-2.3259">
        <ele>76.800003051758</ele>
        <time>2020-10-25T11:24:13.000Z</time>
      </trkpt>
      <trkpt lat="47.25478" lon="-2.32584">
        <ele>76.800003051758</ele>
        <time>2020-10-25T11:24:14.000Z</time>
      </trkpt>
      <trkpt lat="47.25481" lon="-2.32565">
        <ele>76.800003051758</ele>
        <time>2020-10-25T11:24:17.000Z</time>
      </trkpt>
      <trkpt lat="47.25494" lon="-2.32545">
        <ele>76.800003051758</ele>
        <time>2020-10-25T11:24:21.000Z</time>
      </trkpt>
      <trkpt lat="47.25508" lon="-2.32531">
        <ele>76.800003051758</ele>
        <time>2020-10-25T11:24:24.000Z</time>
      </trkpt>
      <trkpt lat="47.25517" lon="-2.32521">
        <ele>76.800003051758</ele>
        <time>2020-10-25T11:24:26.000Z</time>
      </trkpt>
      <trkpt lat="47.25545" lon="-2.32497">
        <ele>76.800003051758</ele>
        <time>2020-10-25T11:24:31.000Z</time>
      </trkpt>
      <trkpt lat="47.25552" lon="-2.32491">
        <ele>76.400001525879</ele>
        <time>2020-10-25T11:24:32.000Z</time>
      </trkpt>
      <trkpt lat="47.25558" lon="-2.32485">
        <ele>75.800003051758</ele>
        <time>2020-10-25T11:24:33.000Z</time>
      </trkpt>
      <trkpt lat="47.25564" lon="-2.32479">
        <ele>75.400001525879</ele>
        <time>2020-10-25T11:24:34.000Z</time>
      </trkpt>
      <trkpt lat="47.25571" lon="-2.32472">
        <ele>75</ele>
        <time>2020-10-25T11:24:35.000Z</time>
      </trkpt>
      <trkpt lat="47.25577" lon="-2.32466">
        <ele>74.400001525879</ele>
        <time>2020-10-25T11:24:36.000Z</time>
      </trkpt>
      <trkpt lat="47.25584" lon="-2.32459">
        <ele>74.400001525879</ele>
        <time>2020-10-25T11:24:37.000Z</time>
      </trkpt>
      <trkpt lat="47.25612" lon="-2.32429">
        <ele>74</ele>
        <time>2020-10-25T11:24:41.000Z</time>
      </trkpt>
      <trkpt lat="47.25619" lon="-2.32422">
        <ele>73.599998474121</ele>
        <time>2020-10-25T11:24:42.000Z</time>
      </trkpt>
      <trkpt lat="47.25625" lon="-2.32415">
        <ele>73.199996948242</ele>
        <time>2020-10-25T11:24:43.000Z</time>
      </trkpt>
      <trkpt lat="47.25632" lon="-2.32409">
        <ele>72.800003051758</ele>
        <time>2020-10-25T11:24:44.000Z</time>
      </trkpt>
      <trkpt lat="47.25638" lon="-2.32405">
        <ele>72.400001525879</ele>
        <time>2020-10-25T11:24:45.000Z</time>
      </trkpt>
      <trkpt lat="47.25645" lon="-2.32402">
        <ele>72</ele>
        <time>2020-10-25T11:24:46.000Z</time>
      </trkpt>
      <trkpt lat="47.25651" lon="-2.32401">
        <ele>71.400001525879</ele>
        <time>2020-10-25T11:24:47.000Z</time>
      </trkpt>
      <trkpt lat="47.25657" lon="-2.32402">
        <ele>71</ele>
        <time>2020-10-25T11:24:48.000Z</time>
      </trkpt>
      <trkpt lat="47.25663" lon="-2.32404">
        <ele>70.400001525879</ele>
        <time>2020-10-25T11:24:49.000Z</time>
      </trkpt>
      <trkpt lat="47.25668" lon="-2.32409">
        <ele>70</ele>
        <time>2020-10-25T11:24:50.000Z</time>
      </trkpt>
      <trkpt lat="47.25673" lon="-2.32413">
        <ele>70</ele>
        <time>2020-10-25T11:24:51.000Z</time>
      </trkpt>
      <trkpt lat="47.25678" lon="-2.32417">
        <ele>70</ele>
        <time>2020-10-25T11:24:52.000Z</time>
      </trkpt>
      <trkpt lat="47.25691" lon="-2.3242">
        <ele>70</ele>
        <time>2020-10-25T11:24:54.000Z</time>
      </trkpt>
      <trkpt lat="47.25723" lon="-2.32422">
        <ele>70</ele>
        <time>2020-10-25T11:24:59.000Z</time>
      </trkpt>
      <trkpt lat="47.25755" lon="-2.32421">
        <ele>70</ele>
        <time>2020-10-25T11:25:04.000Z</time>
      </trkpt>
      <trkpt lat="47.25765" lon="-2.32418">
        <ele>70</ele>
        <time>2020-10-25T11:25:06.000Z</time>
      </trkpt>
      <trkpt lat="47.25782" lon="-2.32418">
        <ele>70</ele>
        <time>2020-10-25T11:25:10.000Z</time>
      </trkpt>
      <trkpt lat="47.25796" lon="-2.32442">
        <ele>70</ele>
        <time>2020-10-25T11:25:14.000Z</time>
      </trkpt>
      <trkpt lat="47.25816" lon="-2.3246">
        <ele>70</ele>
        <time>2020-10-25T11:25:18.000Z</time>
      </trkpt>
      <trkpt lat="47.25822" lon="-2.32464">
        <ele>70</ele>
        <time>2020-10-25T11:25:19.000Z</time>
      </trkpt>
      <trkpt lat="47.25856" lon="-2.32475">
        <ele>70</ele>
        <time>2020-10-25T11:25:25.000Z</time>
      </trkpt>
      <trkpt lat="47.25889" lon="-2.32469">
        <ele>70</ele>
        <time>2020-10-25T11:25:31.000Z</time>
      </trkpt>
      <trkpt lat="47.25909" lon="-2.32448">
        <ele>70</ele>
        <time>2020-10-25T11:25:35.000Z</time>
      </trkpt>
      <trkpt lat="47.25951" lon="-2.32393">
        <ele>70</ele>
        <time>2020-10-25T11:25:44.000Z</time>
      </trkpt>
      <trkpt lat="47.25955" lon="-2.32387">
        <ele>69.599998474121</ele>
        <time>2020-10-25T11:25:45.000Z</time>
      </trkpt>
      <trkpt lat="47.25959" lon="-2.32381">
        <ele>69.199996948242</ele>
        <time>2020-10-25T11:25:46.000Z</time>
      </trkpt>
      <trkpt lat="47.25964" lon="-2.32375">
        <ele>68.800003051758</ele>
        <time>2020-10-25T11:25:47.000Z</time>
      </trkpt>
      <trkpt lat="47.25969" lon="-2.32368">
        <ele>68.400001525879</ele>
        <time>2020-10-25T11:25:48.000Z</time>
      </trkpt>
      <trkpt lat="47.25973" lon="-2.32362">
        <ele>68</ele>
        <time>2020-10-25T11:25:49.000Z</time>
      </trkpt>
      <trkpt lat="47.25978" lon="-2.32356">
        <ele>68</ele>
        <time>2020-10-25T11:25:50.000Z</time>
      </trkpt>
      <trkpt lat="47.25987" lon="-2.32344">
        <ele>68</ele>
        <time>2020-10-25T11:25:52.000Z</time>
      </trkpt>
      <trkpt lat="47.26019" lon="-2.32304">
        <ele>68</ele>
        <time>2020-10-25T11:25:59.000Z</time>
      </trkpt>
      <trkpt lat="47.26044" lon="-2.32277">
        <ele>68</ele>
        <time>2020-10-25T11:26:04.000Z</time>
      </trkpt>
      <trkpt lat="47.26063" lon="-2.32254">
        <ele>68</ele>
        <time>2020-10-25T11:26:08.000Z</time>
      </trkpt>
      <trkpt lat="47.26074" lon="-2.32245">
        <ele>68</ele>
        <time>2020-10-25T11:26:10.000Z</time>
      </trkpt>
      <trkpt lat="47.26084" lon="-2.32233">
        <ele>68</ele>
        <time>2020-10-25T11:26:12.000Z</time>
      </trkpt>
      <trkpt lat="47.26101" lon="-2.32208">
        <ele>68.400001525879</ele>
        <time>2020-10-25T11:26:16.000Z</time>
      </trkpt>
      <trkpt lat="47.26105" lon="-2.32201">
        <ele>68.800003051758</ele>
        <time>2020-10-25T11:26:17.000Z</time>
      </trkpt>
      <trkpt lat="47.26109" lon="-2.32195">
        <ele>69.199996948242</ele>
        <time>2020-10-25T11:26:18.000Z</time>
      </trkpt>
      <trkpt lat="47.26113" lon="-2.32187">
        <ele>69.599998474121</ele>
        <time>2020-10-25T11:26:19.000Z</time>
      </trkpt>
      <trkpt lat="47.26116" lon="-2.3218">
        <ele>70</ele>
        <time>2020-10-25T11:26:20.000Z</time>
      </trkpt>
      <trkpt lat="47.26124" lon="-2.32158">
        <ele>70</ele>
        <time>2020-10-25T11:26:23.000Z</time>
      </trkpt>
      <trkpt lat="47.26142" lon="-2.32091">
        <ele>70</ele>
        <time>2020-10-25T11:26:32.000Z</time>
      </trkpt>
      <trkpt lat="47.26156" lon="-2.32039">
        <ele>70</ele>
        <time>2020-10-25T11:26:39.000Z</time>
      </trkpt>
      <trkpt lat="47.26158" lon="-2.32033">
        <ele>70</ele>
        <time>2020-10-25T11:26:40.000Z</time>
      </trkpt>
      <trkpt lat="47.26169" lon="-2.32022">
        <ele>70</ele>
        <time>2020-10-25T11:26:43.000Z</time>
      </trkpt>
      <trkpt lat="47.26182" lon="-2.32022">
        <ele>70</ele>
        <time>2020-10-25T11:26:47.000Z</time>
      </trkpt>
      <trkpt lat="47.26185" lon="-2.32023">
        <ele>69.599998474121</ele>
        <time>2020-10-25T11:26:48.000Z</time>
      </trkpt>
      <trkpt lat="47.26187" lon="-2.32024">
        <ele>69.199996948242</ele>
        <time>2020-10-25T11:26:49.000Z</time>
      </trkpt>
      <trkpt lat="47.26189" lon="-2.32024">
        <ele>68.800003051758</ele>
        <time>2020-10-25T11:26:50.000Z</time>
      </trkpt>
      <trkpt lat="47.2619" lon="-2.32025">
        <ele>68.400001525879</ele>
        <time>2020-10-25T11:26:51.000Z</time>
      </trkpt>
      <trkpt lat="47.26192" lon="-2.32025">
        <ele>68</ele>
        <time>2020-10-25T11:26:52.000Z</time>
      </trkpt>
      <trkpt lat="47.26193" lon="-2.32024">
        <ele>68</ele>
        <time>2020-10-25T11:26:53.000Z</time>
      </trkpt>
      <trkpt lat="47.26194" lon="-2.32018">
        <ele>68</ele>
        <time>2020-10-25T11:26:56.000Z</time>
      </trkpt>
      <trkpt lat="47.26198" lon="-2.32004">
        <ele>68</ele>
        <time>2020-10-25T11:27:01.000Z</time>
      </trkpt>
      <trkpt lat="47.262" lon="-2.32002">
        <ele>68</ele>
        <time>2020-10-25T11:27:02.000Z</time>
      </trkpt>
      <trkpt lat="47.2621" lon="-2.31989">
        <ele>68</ele>
        <time>2020-10-25T11:27:06.000Z</time>
      </trkpt>
      <trkpt lat="47.26225" lon="-2.31971">
        <ele>68</ele>
        <time>2020-10-25T11:27:11.000Z</time>
      </trkpt>
      <trkpt lat="47.26244" lon="-2.3195">
        <ele>68</ele>
        <time>2020-10-25T11:27:17.000Z</time>
      </trkpt>
      <trkpt lat="47.26254" lon="-2.31936">
        <ele>68</ele>
        <time>2020-10-25T11:27:21.000Z</time>
      </trkpt>
      <trkpt lat="47.26255" lon="-2.31932">
        <ele>68</ele>
        <time>2020-10-25T11:27:22.000Z</time>
      </trkpt>
      <trkpt lat="47.26264" lon="-2.31917">
        <ele>68</ele>
        <time>2020-10-25T11:27:26.000Z</time>
      </trkpt>
      <trkpt lat="47.26269" lon="-2.3191">
        <ele>68</ele>
        <time>2020-10-25T11:27:28.000Z</time>
      </trkpt>
      <trkpt lat="47.26285" lon="-2.31891">
        <ele>68</ele>
        <time>2020-10-25T11:27:34.000Z</time>
      </trkpt>
      <trkpt lat="47.26287" lon="-2.31887">
        <ele>68</ele>
        <time>2020-10-25T11:27:35.000Z</time>
      </trkpt>
      <trkpt lat="47.26289" lon="-2.31877">
        <ele>68</ele>
        <time>2020-10-25T11:27:37.000Z</time>
      </trkpt>
      <trkpt lat="47.26293" lon="-2.3186">
        <ele>68</ele>
        <time>2020-10-25T11:27:40.000Z</time>
      </trkpt>
      <trkpt lat="47.26296" lon="-2.31844">
        <ele>68</ele>
        <time>2020-10-25T11:27:43.000Z</time>
      </trkpt>
      <trkpt lat="47.263" lon="-2.31817">
        <ele>68.400001525879</ele>
        <time>2020-10-25T11:27:48.000Z</time>
      </trkpt>
      <trkpt lat="47.26301" lon="-2.31811">
        <ele>68.800003051758</ele>
        <time>2020-10-25T11:27:49.000Z</time>
      </trkpt>
      <trkpt lat="47.26301" lon="-2.31804">
        <ele>69.199996948242</ele>
        <time>2020-10-25T11:27:50.000Z</time>
      </trkpt>
      <trkpt lat="47.26302" lon="-2.31798">
        <ele>69.599998474121</ele>
        <time>2020-10-25T11:27:51.000Z</time>
      </trkpt>
      <trkpt lat="47.26302" lon="-2.31791">
        <ele>70</ele>
        <time>2020-10-25T11:27:52.000Z</time>
      </trkpt>
      <trkpt lat="47.26302" lon="-2.31774">
        <ele>70</ele>
        <time>2020-10-25T11:27:55.000Z</time>
      </trkpt>
      <trkpt lat="47.26301" lon="-2.31734">
        <ele>70</ele>
        <time>2020-10-25T11:28:02.000Z</time>
      </trkpt>
      <trkpt lat="47.26309" lon="-2.31713">
        <ele>70</ele>
        <time>2020-10-25T11:28:06.000Z</time>
      </trkpt>
      <trkpt lat="47.26326" lon="-2.31705">
        <ele>70</ele>
        <time>2020-10-25T11:28:11.000Z</time>
      </trkpt>
      <trkpt lat="47.26331" lon="-2.31698">
        <ele>70</ele>
        <time>2020-10-25T11:28:13.000Z</time>
      </trkpt>
      <trkpt lat="47.26335" lon="-2.3169">
        <ele>70</ele>
        <time>2020-10-25T11:28:15.000Z</time>
      </trkpt>
      <trkpt lat="47.26339" lon="-2.31686">
        <ele>70</ele>
        <time>2020-10-25T11:28:17.000Z</time>
      </trkpt>
      <trkpt lat="47.26345" lon="-2.31682">
        <ele>70</ele>
        <time>2020-10-25T11:28:19.000Z</time>
      </trkpt>
      <trkpt lat="47.26351" lon="-2.31678">
        <ele>70.400001525879</ele>
        <time>2020-10-25T11:28:21.000Z</time>
      </trkpt>
      <trkpt lat="47.26355" lon="-2.31677">
        <ele>70.800003051758</ele>
        <time>2020-10-25T11:28:22.000Z</time>
      </trkpt>
      <trkpt lat="47.26358" lon="-2.31676">
        <ele>71.199996948242</ele>
        <time>2020-10-25T11:28:23.000Z</time>
      </trkpt>
      <trkpt lat="47.26362" lon="-2.31674">
        <ele>72</ele>
        <time>2020-10-25T11:28:24.000Z</time>
      </trkpt>
      <trkpt lat="47.26371" lon="-2.3167">
        <ele>72</ele>
        <time>2020-10-25T11:28:27.000Z</time>
      </trkpt>
      <trkpt lat="47.26387" lon="-2.31662">
        <ele>72</ele>
        <time>2020-10-25T11:28:32.000Z</time>
      </trkpt>
      <trkpt lat="47.26401" lon="-2.31656">
        <ele>72</ele>
        <time>2020-10-25T11:28:37.000Z</time>
      </trkpt>
      <trkpt lat="47.26411" lon="-2.31644">
        <ele>72</ele>
        <time>2020-10-25T11:28:41.000Z</time>
      </trkpt>
      <trkpt lat="47.26411" lon="-2.3164">
        <ele>72</ele>
        <time>2020-10-25T11:28:42.000Z</time>
      </trkpt>
      <trkpt lat="47.26412" lon="-2.31625">
        <ele>72</ele>
        <time>2020-10-25T11:28:45.000Z</time>
      </trkpt>
      <trkpt lat="47.26412" lon="-2.31605">
        <ele>72.599998474121</ele>
        <time>2020-10-25T11:28:49.000Z</time>
      </trkpt>
      <trkpt lat="47.26412" lon="-2.316">
        <ele>73</ele>
        <time>2020-10-25T11:28:50.000Z</time>
      </trkpt>
      <trkpt lat="47.26411" lon="-2.31596">
        <ele>73.400001525879</ele>
        <time>2020-10-25T11:28:51.000Z</time>
      </trkpt>
      <trkpt lat="47.26411" lon="-2.31592">
        <ele>73.800003051758</ele>
        <time>2020-10-25T11:28:52.000Z</time>
      </trkpt>
      <trkpt lat="47.26411" lon="-2.31587">
        <ele>74.400001525879</ele>
        <time>2020-10-25T11:28:53.000Z</time>
      </trkpt>
      <trkpt lat="47.26411" lon="-2.31569">
        <ele>74.400001525879</ele>
        <time>2020-10-25T11:28:57.000Z</time>
      </trkpt>
      <trkpt lat="47.26412" lon="-2.31553">
        <ele>74.400001525879</ele>
        <time>2020-10-25T11:29:01.000Z</time>
      </trkpt>
      <trkpt lat="47.26414" lon="-2.31552">
        <ele>74.400001525879</ele>
        <time>2020-10-25T11:29:02.000Z</time>
      </trkpt>
      <trkpt lat="47.26418" lon="-2.31553">
        <ele>74.400001525879</ele>
        <time>2020-10-25T11:29:06.000Z</time>
      </trkpt>
      <trkpt lat="47.26418" lon="-2.31553">
        <ele>74.400001525879</ele>
        <time>2020-10-25T11:29:07.000Z</time>
      </trkpt>
    </trkseg>
  </trk>
</gpx>